# Wetter Temperatur Luftdruck Luftfeuchtigkeit Sichtweite Windgeschwindigkeit Windrichtung Zeit
1 Drizzle 6 1007 87 10000 1.03 90 12:44 22.04.2021
2 Drizzle 6 1007 87 10000 1.03 90 12:20 22.04.2021
3 Clouds 6 1006 87 10000 1.54 270 11:45 22.04.2021
4 Clouds 6 1006 87 10000 1.54 270 11:22 22.04.2021
5 Drizzle 6 1005 70 10000 1.39 308 10:45 22.04.2021
6 Drizzle 6 1005 70 10000 1.62 315 10:22 22.04.2021
7 Drizzle 6 1006 70 10000 1.62 315 09:44 22.04.2021
8 Drizzle 6 1006 75 10000 1.9 317 09:19 22.04.2021
9 Drizzle 6 1006 75 10000 1.9 317 08:38 22.04.2021
10 Clouds 6 1005 70 10000 1.03 320 08:18 22.04.2021
11 Clouds 6 1005 70 10000 1.03 320 07:43 22.04.2021
12 Clouds 6 1005 70 10000 1.03 320 07:20 22.04.2021
13 Drizzle 6 1005 70 10000 1.54 360 06:27 22.04.2021
14 Drizzle 6 1005 70 10000 1.54 360 06:27 22.04.2021
15 Drizzle 6 1006 70 10000 1.54 320 05:26 22.04.2021
16 Drizzle 6 1006 70 10000 1.07 206 04:29 22.04.2021
17 Clear 9 1006 49 10000 2.06 290 00:57 22.04.2021
18 Clear 9 1006 49 10000 0.26 126 23:48 21.04.2021
19 Clear 9 1006 49 10000 0.64 161 23:28 21.04.2021
20 Clear 10 1006 50 10000 0.64 161 22:44 21.04.2021
21 Clear 10 1006 50 10000 0.17 207 22:24 21.04.2021
22 Clear 10 1007 53 10000 0.17 207 21:49 21.04.2021
23 Clear 10 1007 53 10000 0.47 78 21:24 21.04.2021
24 Clear 10 1008 50 10000 0.47 78 20:58 21.04.2021
25 Clear 10 1008 50 10000 0.52 328 20:21 21.04.2021
26 Clear 11 1007 43 10000 0.52 328 19:43 21.04.2021
27 Clear 11 1007 43 10000 0.92 297 19:24 21.04.2021
28 Clear 11 1007 43 10000 0.92 297 18:46 21.04.2021
29 Clear 11 1007 43 10000 2.24 355 18:27 21.04.2021
30 Clear 11 1007 37 10000 1.54 160 17:48 21.04.2021
31 Clear 11 1007 37 10000 1.54 160 17:25 21.04.2021
32 Clear 11 1007 37 10000 1.54 160 17:25 21.04.2021
33 Clouds 10 1008 46 10000 3.6 140 16:55 21.04.2021
34 Clouds 9 1008 49 10000 5.66 360 15:59 21.04.2021
35 Clouds 9 1008 49 10000 5.66 360 15:41 21.04.2021
36 Clouds 9 1008 43 10000 2.78 350 14:58 21.04.2021
37 Clouds 9 1008 43 10000 2.78 350 14:40 21.04.2021
38 Clouds 9 1008 43 10000 2.97 349 14:18 21.04.2021
39 Clouds 8 1008 49 10000 3.6 0 13:40 21.04.2021
40 Clouds 8 1008 49 10000 3.6 0 13:21 21.04.2021
41 Clouds 10 1009 27 10000 5.66 340 12:31 21.04.2021
42 Clouds 8 1010 49 10000 3.6 340 11:50 21.04.2021
43 Clouds 8 1010 49 10000 3.6 340 11:30 21.04.2021
44 Clouds 9 1009 40 10000 5.66 340 10:52 21.04.2021
45 Clouds 9 1009 40 10000 5.66 340 10:34 21.04.2021
46 Clouds 7 1009 57 10000 1.54 140 09:51 21.04.2021
47 Clouds 7 1009 57 10000 1.54 140 09:19 21.04.2021
48 Clouds 7 1010 57 10000 6.69 340 08:40 21.04.2021
49 Clouds 7 1010 57 10000 6.69 340 08:20 21.04.2021
50 Clouds 7 1010 61 10000 2.57 140 07:32 21.04.2021
51 Clouds 7 1010 61 10000 1.03 110 06:57 21.04.2021
52 Clouds 7 1010 61 10000 1.03 110 06:57 21.04.2021
53 Clouds 7 1011 57 10000 2.06 320 05:22 21.04.2021
54 Clouds 7 1011 49 10000 3.09 320 01:32 21.04.2021
55 Clear 8 1011 61 10000 2.87 336 23:51 20.04.2021
56 Clear 8 1011 61 10000 2.87 336 23:31 20.04.2021
57 Clear 10 1011 57 10000 2.42 324 22:41 20.04.2021
58 Clear 10 1011 57 10000 2.08 317 22:22 20.04.2021
59 Clear 9 1010 66 10000 2.08 317 21:47 20.04.2021
60 Clear 9 1010 66 10000 1.89 304 21:26 20.04.2021
61 Clouds 9 1011 61 10000 3.09 200 20:57 20.04.2021
62 Clouds 9 1011 61 10000 3.09 200 20:38 20.04.2021
63 Clouds 9 1011 61 10000 3.09 200 20:18 20.04.2021
64 Clouds 9 1011 61 10000 4.12 230 19:42 20.04.2021
65 Clouds 9 1011 61 10000 4.12 230 19:24 20.04.2021
66 Clouds 9 1011 66 10000 1.54 230 18:39 20.04.2021
67 Clouds 7 1010 76 10000 8.23 230 17:55 20.04.2021
68 Clouds 7 1010 76 10000 8.23 230 17:37 20.04.2021
69 Clouds 7 1009 70 10000 7.72 230 16:50 20.04.2021
70 Clouds 7 1008 76 10000 7.72 230 15:53 20.04.2021
71 Clouds 7 1008 76 10000 7.72 230 15:29 20.04.2021
72 Clouds 6 1007 81 10000 9.26 230 14:58 20.04.2021
73 Clouds 6 1007 81 10000 9.26 230 14:35 20.04.2021
74 Clear 5 1006 75 10000 4.12 270 13:53 20.04.2021
75 Clear 5 1006 75 10000 4.12 270 13:24 20.04.2021
76 Clear 5 1004 81 10000 2.57 320 12:44 20.04.2021
77 Clear 5 1004 81 10000 2.57 320 12:22 20.04.2021
78 Clear 5 1003 87 10000 5.14 360 11:46 20.04.2021
79 Clear 5 1003 87 10000 5.14 360 11:22 20.04.2021
80 Clear 4 1002 87 10000 5.14 360 10:44 20.04.2021
81 Clear 3 1002 93 10000 3.6 180 10:23 20.04.2021
82 Clear 4 1000 93 10000 3.09 230 09:40 20.04.2021
83 Clouds 4 999 93 10000 1.54 270 08:56 20.04.2021
84 Clouds 4 999 93 10000 1.54 270 08:25 20.04.2021
85 Clouds 5 998 93 10000 2.57 360 07:49 20.04.2021
86 Clouds 5 998 93 10000 1.54 270 06:49 20.04.2021
87 Clouds 5 996 81 10000 2.06 140 05:40 20.04.2021
88 Clouds 5 996 87 10000 2.36 334 04:42 20.04.2021
89 Clouds 6 994 87 10000 9.77 200 01:57 20.04.2021
90 Rain 6 993 87 10000 1.03 340 00:41 20.04.2021
91 Rain 6 992 100 10000 2.06 110 23:38 19.04.2021
92 Rain 7 991 87 10000 2.57 50 22:58 19.04.2021
93 Rain 7 991 87 10000 2.57 50 22:36 19.04.2021
94 Rain 7 992 87 10000 2.06 270 21:52 19.04.2021
95 Rain 7 992 87 10000 2.06 270 21:34 19.04.2021
96 Rain 7 991 93 10000 3.09 230 20:56 19.04.2021
97 Rain 7 991 93 10000 3.09 230 20:38 19.04.2021
98 Rain 7 991 93 10000 3.09 230 20:19 19.04.2021
99 Rain 7 991 93 8000 7.2 180 19:42 19.04.2021
100 Rain 7 991 93 8000 7.2 180 19:24 19.04.2021
101 Rain 8 990 76 8000 4.12 140 18:47 19.04.2021
102 Rain 8 990 76 10000 7.72 110 18:22 19.04.2021
103 Rain 8 990 76 10000 6.17 90 17:54 19.04.2021
104 Rain 8 990 76 10000 6.17 90 17:29 19.04.2021
105 Rain 8 990 71 10000 8.23 90 16:57 19.04.2021
106 Rain 8 990 71 10000 8.23 90 16:38 19.04.2021
107 Drizzle 8 990 71 10000 8.23 90 16:20 19.04.2021
108 Clouds 8 991 76 10000 9.77 70 15:33 19.04.2021
109 Clouds 8 992 81 10000 9.77 70 14:56 19.04.2021
110 Clouds 8 992 81 10000 9.77 70 14:37 19.04.2021
111 Clouds 8 992 81 10000 9.77 70 14:18 19.04.2021
112 Rain 8 992 87 10000 10.8 70 13:36 19.04.2021
113 Drizzle 8 992 87 10000 10.8 70 13:18 19.04.2021
114 Drizzle 8 992 81 10000 6.69 70 12:40 19.04.2021
115 Drizzle 8 992 81 10000 6.69 70 12:20 19.04.2021
116 Drizzle 8 991 87 10000 9.26 70 11:52 19.04.2021
117 Drizzle 8 991 87 10000 9.26 70 11:21 19.04.2021
118 Drizzle 8 992 93 10000 9.26 70 10:45 19.04.2021
119 Drizzle 8 992 93 10000 9.26 70 10:20 19.04.2021
120 Clouds 9 992 61 10000 10.8 90 09:48 19.04.2021
121 Clouds 9 992 61 10000 10.8 90 09:27 19.04.2021
122 Clouds 10 992 76 10000 3.09 20 08:54 19.04.2021
123 Clouds 10 992 76 10000 3.09 20 08:24 19.04.2021
124 Rain 10 992 76 10000 1.54 160 07:45 19.04.2021
125 Clouds 10 992 76 10000 1.54 160 07:18 19.04.2021
126 Clouds 10 990 76 10000 7.2 230 05:43 19.04.2021
127 Clouds 12 989 66 10000 4.12 140 02:34 19.04.2021
128 Clouds 12 987 62 10000 4.12 320 00:45 19.04.2021
129 Clouds 13 987 58 10000 2.06 320 23:38 18.04.2021
130 Clouds 13 987 58 10000 2.06 320 23:18 18.04.2021
131 Clouds 14 988 51 10000 3.6 360 22:43 18.04.2021
132 Clouds 14 988 51 10000 3.6 360 22:23 18.04.2021
133 Clouds 14 988 51 10000 4.12 360 21:29 18.04.2021
134 Clouds 14 989 51 10000 1.54 290 20:56 18.04.2021
135 Clouds 14 989 51 10000 1.54 290 20:37 18.04.2021
136 Clouds 14 989 51 10000 1.54 290 20:19 18.04.2021
137 Clouds 13 990 54 10000 8.23 250 19:44 18.04.2021
138 Clouds 13 990 54 10000 8.23 250 19:23 18.04.2021
139 Clouds 14 991 51 10000 9.26 360 18:50 18.04.2021
140 Clouds 14 991 51 10000 9.26 360 18:27 18.04.2021
141 Clear 13 993 50 10000 6.69 360 17:50 18.04.2021
142 Clear 13 993 50 10000 6.69 360 17:30 18.04.2021
143 Clear 12 994 54 10000 7.72 360 16:54 18.04.2021
144 Clear 12 994 54 10000 7.72 360 16:35 18.04.2021
145 Clear 10 995 62 10000 7.2 360 15:51 18.04.2021
146 Clear 10 995 62 10000 7.2 360 15:30 18.04.2021
147 Clear 10 996 62 10000 3.93 8 14:58 18.04.2021
148 Clear 10 996 62 10000 3.93 8 14:39 18.04.2021
149 Clear 10 996 62 10000 4.11 6 14:18 18.04.2021
150 Clouds 9 996 66 10000 7.72 360 13:44 18.04.2021
151 Clouds 9 996 66 10000 7.72 360 13:26 18.04.2021
152 Clouds 9 997 66 10000 1.54 320 12:36 18.04.2021
153 Clouds 10 997 62 10000 4.12 50 11:52 18.04.2021
154 Clouds 10 997 62 10000 4.12 50 11:27 18.04.2021
155 Clouds 11 998 54 10000 4.12 360 10:54 18.04.2021
156 Clouds 11 998 54 10000 4.12 360 10:35 18.04.2021
157 Clouds 11 999 54 10000 1.54 360 09:58 18.04.2021
158 Clouds 11 999 54 10000 1.54 360 09:39 18.04.2021
159 Clouds 11 999 54 10000 1.54 360 09:19 18.04.2021
160 Clouds 11 999 54 10000 4.63 360 08:41 18.04.2021
161 Clouds 11 999 54 10000 4.63 360 08:19 18.04.2021
162 Clouds 10 999 57 10000 5.14 360 07:40 18.04.2021
163 Clouds 11 1000 58 10000 3.6 320 05:56 18.04.2021
164 Clouds 11 1000 58 10000 3.6 320 05:26 18.04.2021
165 Clouds 11 1000 58 10000 5.14 360 04:30 18.04.2021
166 Clouds 12 1001 54 10000 4.12 360 02:23 18.04.2021
167 Clouds 13 1002 47 10000 4.63 360 00:55 18.04.2021
168 Clouds 13 1002 50 10000 5.66 360 23:52 17.04.2021
169 Clouds 13 1002 50 10000 5.66 360 23:22 17.04.2021
170 Clouds 16 1002 39 10000 6.17 340 22:43 17.04.2021
171 Clouds 16 1002 39 10000 6.17 340 22:21 17.04.2021
172 Clouds 16 1003 44 10000 5.66 360 21:41 17.04.2021
173 Clouds 16 1003 44 10000 5.66 360 21:21 17.04.2021
174 Clouds 16 1003 44 10000 7.72 360 20:29 17.04.2021
175 Clouds 13 1004 47 10000 7.2 340 19:46 17.04.2021
176 Clouds 13 1004 47 10000 7.2 340 19:46 17.04.2021
177 Clouds 13 1004 47 10000 7.2 340 19:23 17.04.2021
178 Clouds 12 1004 54 10000 6.17 340 18:59 17.04.2021
179 Clouds 12 1004 54 10000 6.17 340 18:40 17.04.2021
180 Clouds 12 1004 54 10000 6.17 340 18:20 17.04.2021
181 Clouds 12 1005 54 10000 7.2 340 17:41 17.04.2021
182 Clouds 8 1005 81 10000 2.51 337 16:56 17.04.2021
183 Clouds 8 1005 81 10000 2.74 343 16:29 17.04.2021
184 Clouds 7 1006 81 10000 3.09 90 15:56 17.04.2021
185 Clouds 6 1006 87 10000 2.06 20 14:51 17.04.2021
186 Clouds 6 1006 87 10000 2.06 20 14:33 17.04.2021
187 Clouds 6 1006 87 10000 3.09 70 13:50 17.04.2021
188 Clouds 6 1006 87 10000 3.09 70 13:27 17.04.2021
189 Clouds 6 1006 87 10000 3.09 70 12:42 17.04.2021
190 Clouds 6 1006 87 10000 3.09 70 12:21 17.04.2021
191 Clouds 6 1006 81 10000 1.54 50 11:50 17.04.2021
192 Clouds 6 1006 81 10000 1.54 50 11:30 17.04.2021
193 Clouds 6 1006 75 10000 1.03 50 10:47 17.04.2021
194 Clouds 6 1006 75 10000 1.03 50 10:29 17.04.2021
195 Clouds 7 1006 70 10000 0.51 0 09:44 17.04.2021
196 Clouds 7 1006 70 10000 1.03 0 08:41 17.04.2021
197 Clouds 7 1006 70 10000 1.03 0 08:22 17.04.2021
198 Clouds 6 1006 81 10000 2.06 140 06:59 17.04.2021
199 Clouds 6 1005 75 10000 3.09 360 03:55 17.04.2021
200 Clouds 6 1005 75 10000 3.09 360 03:37 17.04.2021
201 Clouds 7 966 70 10000 10.29 230 00:49 17.04.2021
202 Clouds 7 966 70 10000 10.29 230 00:28 17.04.2021
203 Clouds 7 1001 70 10000 13.89 230 23:48 16.04.2021
204 Clouds 7 1001 70 10000 13.89 230 23:25 16.04.2021
205 Clouds 7 999 65 10000 14.92 230 22:50 16.04.2021
206 Clouds 7 999 65 10000 14.92 230 22:21 16.04.2021
207 Clouds 8 997 61 10000 16.98 230 21:51 16.04.2021
208 Clouds 8 997 61 10000 16.98 230 21:30 16.04.2021
209 Clouds 7 995 70 10000 18.01 230 20:50 16.04.2021
210 Clouds 7 995 70 10000 18.01 230 20:25 16.04.2021
211 Clouds 7 994 70 10000 17.49 230 19:54 16.04.2021
212 Clouds 7 994 70 10000 17.49 230 19:29 16.04.2021
213 Clouds 7 991 70 10000 15.43 230 18:40 16.04.2021
214 Rain 7 991 70 10000 15.43 230 18:19 16.04.2021
215 Rain 7 990 70 10000 12.86 230 17:43 16.04.2021
216 Rain 7 990 70 10000 12.86 230 17:19 16.04.2021
217 Rain 4 988 93 8000 8.23 230 16:42 16.04.2021
218 Rain 4 988 93 8000 8.23 230 16:23 16.04.2021
219 Rain 7 986 57 8000 2.58 251 15:45 16.04.2021
220 Clouds 7 986 57 10000 2.7 311 15:20 16.04.2021
221 Clouds 7 985 70 10000 2.7 311 14:42 16.04.2021
222 Snow 7 985 70 10000 3.69 338 14:19 16.04.2021
223 Snow 7 984 65 10000 3.6 180 13:45 16.04.2021
224 Clouds 7 984 65 10000 3.6 180 13:20 16.04.2021
225 Clouds 6 984 70 10000 2.57 270 12:47 16.04.2021
226 Clouds 6 984 70 10000 2.57 270 12:27 16.04.2021
227 Clouds 6 982 75 10000 4.12 250 11:52 16.04.2021
228 Clouds 6 982 75 10000 4.12 250 11:26 16.04.2021
229 Clouds 6 982 75 10000 4.12 250 11:26 16.04.2021
230 Clouds 6 981 81 10000 8.75 230 10:53 16.04.2021
231 Clouds 6 981 81 10000 8.75 230 10:34 16.04.2021
232 Rain 7 981 76 10000 5.14 140 09:53 16.04.2021
233 Rain 7 981 76 10000 5.14 140 09:24 16.04.2021
234 Rain 8 981 71 10000 4.63 180 08:47 16.04.2021
235 Rain 8 981 71 10000 4.63 180 08:28 16.04.2021
236 Rain 11 980 50 10000 8.75 290 07:53 16.04.2021
237 Rain 11 980 50 10000 8.75 290 07:34 16.04.2021
238 Rain 12 980 47 10000 8.75 340 06:56 16.04.2021
239 Rain 11 982 54 10000 7.72 360 05:33 16.04.2021
240 Rain 10 984 57 8000 7.72 360 04:20 16.04.2021
241 Clouds 9 990 57 10000 5.66 360 00:55 16.04.2021
242 Clouds 9 990 57 10000 5.66 360 00:36 16.04.2021
243 Clouds 9 990 57 10000 5.66 360 00:18 16.04.2021
244 Clouds 9 990 57 10000 5.66 360 00:18 16.04.2021
245 Clouds 11 990 46 10000 6.69 320 23:36 15.04.2021
246 Clouds 10 991 50 10000 3.09 160 22:54 15.04.2021
247 Clouds 10 991 50 10000 3.09 160 22:35 15.04.2021
248 Clouds 12 990 32 10000 2.57 50 21:59 15.04.2021
249 Clouds 12 990 32 10000 2.57 50 21:41 15.04.2021
250 Clouds 12 990 32 10000 2.57 50 21:20 15.04.2021
251 Clouds 12 990 35 10000 6.69 320 20:42 15.04.2021
252 Clouds 12 990 35 10000 6.69 320 20:21 15.04.2021
253 Clouds 10 990 53 10000 2.57 140 19:44 15.04.2021
254 Clouds 10 990 53 10000 2.57 140 19:24 15.04.2021
255 Clouds 10 990 53 10000 3.09 140 18:42 15.04.2021
256 Clouds 10 990 53 10000 3.09 140 18:21 15.04.2021
257 Clouds 9 991 57 10000 2.57 110 17:54 15.04.2021
258 Clouds 9 991 57 10000 2.57 110 17:36 15.04.2021
259 Clouds 8 991 57 10000 3.6 160 16:57 15.04.2021
260 Clouds 8 991 57 10000 3.6 160 16:39 15.04.2021
261 Clouds 8 991 57 10000 3.6 160 16:20 15.04.2021
262 Clouds 8 991 61 10000 3.09 110 15:44 15.04.2021
263 Clouds 8 991 61 10000 3.09 110 15:25 15.04.2021
264 Clouds 6 991 65 10000 6.17 360 14:40 15.04.2021
265 Clouds 6 991 65 10000 6.17 360 14:22 15.04.2021
266 Clouds 6 990 61 10000 3.6 90 13:42 15.04.2021
267 Clouds 6 990 61 10000 3.6 90 13:18 15.04.2021
268 Clouds 8 990 46 10000 3.11 356 12:40 15.04.2021
269 Clouds 8 990 46 10000 3.11 356 12:40 15.04.2021
270 Clouds 8 990 46 10000 3.69 358 12:21 15.04.2021
271 Clouds 8 990 46 10000 3.69 358 12:21 15.04.2021
272 Clouds 7 990 49 10000 3.6 290 11:45 15.04.2021
273 Clouds 7 990 49 10000 3.6 290 11:23 15.04.2021
274 Clear 6 990 52 10000 2.57 290 10:50 15.04.2021
275 Clear 6 990 52 10000 2.57 290 10:27 15.04.2021
276 Clear 6 990 52 10000 3.09 290 09:48 15.04.2021
277 Clear 6 990 52 10000 3.09 290 09:23 15.04.2021
278 Clouds 6 990 56 10000 1.54 250 08:47 15.04.2021
279 Clouds 6 990 65 10000 5.14 250 07:53 15.04.2021
280 Clouds 6 990 65 10000 5.14 250 07:24 15.04.2021
281 Clouds 6 990 61 10000 2.57 270 06:40 15.04.2021
282 Snow 6 990 61 10000 2.57 270 06:21 15.04.2021
283 Snow 5 988 65 10000 1.54 320 04:51 15.04.2021
284 Drizzle 6 987 65 10000 3.6 270 01:58 15.04.2021
285 Snow 7 986 53 10000 7.2 290 23:43 14.04.2021
286 Snow 7 986 53 10000 7.2 290 23:43 14.04.2021
287 Drizzle 7 986 53 10000 7.2 290 23:25 14.04.2021
288 Clouds 8 985 46 10000 8.23 320 22:47 14.04.2021
289 Clouds 8 985 46 10000 8.23 320 22:26 14.04.2021
290 Clouds 9 985 76 10000 9.26 320 21:51 14.04.2021
291 Clouds 9 985 76 10000 9.26 320 21:32 14.04.2021
292 Clouds 10 985 37 10000 10.29 320 20:58 14.04.2021
293 Clouds 10 985 37 10000 10.29 320 20:34 14.04.2021
294 Clouds 10 985 34 10000 6.69 290 19:55 14.04.2021
295 Clouds 10 985 34 10000 6.69 290 19:21 14.04.2021
296 Clouds 9 984 40 10000 5.66 230 18:57 14.04.2021
297 Clouds 9 984 40 10000 5.66 230 18:36 14.04.2021
298 Clouds 9 984 40 10000 5.66 230 18:18 14.04.2021
299 Clouds 9 983 34 10000 7.2 230 17:29 14.04.2021
300 Clouds 9 983 34 10000 7.72 320 16:58 14.04.2021
301 Clouds 9 983 34 10000 7.72 320 16:29 14.04.2021
302 Clouds 8 982 42 10000 7.72 320 15:47 14.04.2021
303 Clouds 8 982 42 10000 7.72 320 15:28 14.04.2021
304 Clouds 10 982 40 10000 6.69 320 14:56 14.04.2021
305 Clouds 10 982 40 10000 6.69 320 14:38 14.04.2021
306 Clouds 10 982 40 10000 6.69 320 14:19 14.04.2021
307 Clouds 9 980 46 10000 11.32 230 13:45 14.04.2021
308 Clouds 9 979 46 10000 7.2 230 12:41 14.04.2021
309 Clouds 9 979 46 10000 7.2 230 12:18 14.04.2021
310 Clouds 12 978 71 10000 2.57 270 11:39 14.04.2021
311 Clouds 12 978 71 10000 2.57 270 11:21 14.04.2021
312 Clouds 12 977 66 10000 7.2 270 10:34 14.04.2021
313 Clouds 13 976 62 10000 10.8 290 09:43 14.04.2021
314 Clouds 13 976 62 10000 10.8 290 09:23 14.04.2021
315 Clouds 14 975 54 10000 9.26 290 08:48 14.04.2021
316 Rain 14 975 54 10000 9.26 290 08:23 14.04.2021
317 Rain 9 975 81 10000 3.09 180 07:36 14.04.2021
318 Drizzle 10 976 76 10000 2.57 0 06:34 14.04.2021
319 Rain 8 979 81 10000 10.29 360 05:31 14.04.2021
320 Rain 7 988 81 8000 9.26 360 02:27 14.04.2021
321 Rain 8 992 66 10000 9.26 360 00:50 14.04.2021
322 Rain 8 992 66 10000 9.26 360 00:50 14.04.2021
323 Rain 8 992 66 10000 9.26 360 00:50 14.04.2021
324 Rain 8 992 66 10000 9.26 360 00:27 14.04.2021
325 Rain 8 994 61 10000 8.75 360 23:34 13.04.2021
326 Clouds 10 996 43 10000 8.75 360 22:44 13.04.2021
327 Clouds 10 996 43 10000 8.75 360 22:22 13.04.2021
328 Clouds 9 996 57 10000 2.06 340 21:49 13.04.2021
329 Clouds 9 996 57 10000 2.06 340 21:30 13.04.2021
330 Clouds 9 997 57 10000 3.09 70 20:51 13.04.2021
331 Clouds 9 997 57 10000 3.09 70 20:25 13.04.2021
332 Clear 9 997 57 10000 3.09 140 19:58 13.04.2021
333 Clear 9 997 57 10000 3.09 140 19:26 13.04.2021
334 Clear 9 999 49 10000 2.57 140 18:51 13.04.2021
335 Clear 9 999 49 10000 2.57 140 18:31 13.04.2021
336 Clear 8 999 57 10000 8.23 230 17:40 13.04.2021
337 Clear 8 999 57 10000 8.23 230 17:21 13.04.2021
338 Clouds 7 999 65 10000 10.8 230 16:49 13.04.2021
339 Clouds 7 999 65 10000 10.8 230 16:31 13.04.2021
340 Clouds 7 998 76 10000 11.83 230 15:56 13.04.2021
341 Clouds 7 998 76 10000 11.83 230 15:38 13.04.2021
342 Clouds 6 997 61 10000 13.38 230 14:58 13.04.2021
343 Clouds 6 997 61 10000 13.38 230 14:29 13.04.2021
344 Clouds 6 994 70 10000 16.46 230 13:58 13.04.2021
345 Clouds 6 994 70 10000 16.46 230 13:40 13.04.2021
346 Clouds 6 994 70 10000 16.46 230 13:20 13.04.2021
347 Clouds 6 993 61 10000 15.95 230 12:49 13.04.2021
348 Snow 6 993 61 10000 15.95 230 12:23 13.04.2021
349 Snow 6 991 70 10000 10.29 250 11:38 13.04.2021
350 Snow 7 988 65 10000 7.72 270 10:58 13.04.2021
351 Snow 7 988 65 10000 7.72 270 10:40 13.04.2021
352 Snow 7 988 65 10000 7.72 270 10:19 13.04.2021
353 Snow 7 987 65 10000 4.12 270 09:51 13.04.2021
354 Snow 7 987 65 10000 4.12 270 09:26 13.04.2021
355 Rain 8 986 57 10000 6.69 270 08:44 13.04.2021
356 Rain 8 986 57 10000 6.69 270 08:22 13.04.2021
357 Rain 8 985 53 10000 12.86 290 07:43 13.04.2021
358 Rain 8 985 53 10000 12.86 290 07:23 13.04.2021
359 Rain 9 984 46 10000 10.8 320 06:22 13.04.2021
360 Rain 8 986 57 10000 8.75 320 03:44 13.04.2021
361 Rain 9 986 40 10000 8.23 340 01:31 13.04.2021
362 Clouds 10 988 43 10000 2.06 290 23:52 12.04.2021
363 Clouds 10 988 43 10000 2.06 290 23:32 12.04.2021
364 Clouds 11 989 40 10000 5.66 340 22:52 12.04.2021
365 Clouds 11 989 40 10000 5.66 340 22:33 12.04.2021
366 Clouds 11 989 40 10000 5.66 340 22:33 12.04.2021
367 Clouds 12 989 35 10000 2.57 50 21:48 12.04.2021
368 Clouds 12 989 35 10000 2.57 50 21:25 12.04.2021
369 Clouds 11 989 37 10000 4.12 140 20:59 12.04.2021
370 Clouds 11 989 37 10000 4.12 140 20:36 12.04.2021
371 Clouds 11 989 37 10000 4.12 140 20:18 12.04.2021
372 Clouds 10 989 40 10000 3.6 140 19:40 12.04.2021
373 Clouds 10 989 40 10000 3.6 140 19:21 12.04.2021
374 Clouds 10 989 43 10000 4.63 180 18:51 12.04.2021
375 Clouds 10 989 43 10000 4.63 180 18:33 12.04.2021
376 Clouds 10 989 43 10000 2.19 317 17:59 12.04.2021
377 Clouds 10 989 43 10000 2.19 317 17:40 12.04.2021
378 Clouds 10 989 43 10000 2.28 326 17:19 12.04.2021
379 Clouds 8 989 49 10000 7.72 230 16:38 12.04.2021
380 Clouds 8 989 49 10000 7.72 230 16:19 12.04.2021
381 Clouds 7 988 53 10000 4.63 360 15:39 12.04.2021
382 Clouds 7 988 53 10000 3.6 270 14:57 12.04.2021
383 Clouds 7 988 53 10000 3.6 270 14:39 12.04.2021
384 Clouds 7 988 53 10000 3.6 270 14:19 12.04.2021
385 Clouds 7 986 61 10000 11.83 230 13:40 12.04.2021
386 Clouds 7 986 61 10000 11.83 230 13:19 12.04.2021
387 Clouds 7 985 61 10000 8.75 230 12:43 12.04.2021
388 Clouds 7 985 61 10000 8.75 230 12:22 12.04.2021
389 Clouds 7 984 65 10000 8.75 230 11:41 12.04.2021
390 Clouds 5 984 75 10000 3.09 290 10:51 12.04.2021
391 Clouds 5 984 75 10000 3.09 290 10:28 12.04.2021
392 Clouds 5 983 81 10000 10.29 230 09:53 12.04.2021
393 Clouds 5 983 81 10000 10.29 230 09:25 12.04.2021
394 Clouds 6 982 87 10000 8.23 230 08:54 12.04.2021
395 Drizzle 8 981 76 10000 12.86 230 07:58 12.04.2021
396 Drizzle 8 981 76 10000 12.86 230 07:30 12.04.2021
397 Clouds 9 981 71 10000 8.23 200 06:47 12.04.2021
398 Rain 11 980 50 8000 10.8 320 05:48 12.04.2021
399 Rain 12 982 40 10000 14.4 320 03:33 12.04.2021
400 Clouds 10 988 53 10000 8.23 360 00:43 12.04.2021
401 Clouds 10 988 53 10000 8.23 360 00:22 12.04.2021
402 Clouds 10 989 53 10000 6.17 360 23:44 11.04.2021
403 Clouds 10 989 53 10000 6.17 360 23:22 11.04.2021
404 Clouds 10 990 53 10000 8.75 340 22:39 11.04.2021
405 Clouds 10 990 53 10000 8.75 340 22:19 11.04.2021
406 Clouds 11 991 50 10000 7.72 340 21:44 11.04.2021
407 Clouds 11 991 50 10000 7.72 340 21:24 11.04.2021
408 Clouds 11 992 43 10000 5.14 340 20:46 11.04.2021
409 Clouds 11 992 43 10000 5.14 340 20:25 11.04.2021
410 Clouds 11 992 40 10000 2.57 340 19:44 11.04.2021
411 Clouds 11 992 40 10000 2.57 340 19:21 11.04.2021
412 Clouds 9 993 66 10000 2.06 140 18:58 11.04.2021
413 Clouds 9 993 66 10000 2.06 140 18:40 11.04.2021
414 Clouds 9 993 66 10000 2.06 140 18:21 11.04.2021
415 Clear 9 994 46 10000 2.57 200 17:41 11.04.2021
416 Clear 9 994 46 10000 2.57 200 17:22 11.04.2021
417 Clear 7 994 61 10000 2.06 230 16:46 11.04.2021
418 Clear 7 994 61 10000 2.06 230 16:22 11.04.2021
419 Clouds 6 994 61 10000 3.09 360 15:46 11.04.2021
420 Clouds 6 994 61 10000 3.09 360 15:26 11.04.2021
421 Clouds 6 994 61 10000 3.09 360 15:26 11.04.2021
422 Clouds 7 994 49 10000 3.6 340 14:52 11.04.2021
423 Clouds 7 994 49 10000 3.6 340 14:27 11.04.2021
424 Clouds 7 993 53 10000 4.63 250 13:45 11.04.2021
425 Clouds 7 993 53 10000 4.63 250 13:27 11.04.2021
426 Clouds 7 992 57 10000 11.32 230 12:44 11.04.2021
427 Clouds 7 992 57 10000 11.32 230 12:20 11.04.2021
428 Clouds 7 993 57 10000 10.29 230 11:48 11.04.2021
429 Clouds 7 993 57 10000 10.29 230 11:22 11.04.2021
430 Clouds 6 993 75 10000 3.6 340 10:47 11.04.2021
431 Clouds 6 993 75 10000 3.6 340 10:26 11.04.2021
432 Clouds 6 993 70 10000 5.14 290 09:53 11.04.2021
433 Clouds 6 993 70 10000 5.14 290 09:32 11.04.2021
434 Clouds 7 993 70 10000 7.72 230 08:41 11.04.2021
435 Drizzle 6 993 81 10000 9.77 230 07:59 11.04.2021
436 Drizzle 6 993 81 10000 9.77 230 07:21 11.04.2021
437 Rain 8 991 71 10000 3.09 270 05:59 11.04.2021
438 Rain 8 991 71 10000 3.09 270 05:37 11.04.2021
439 Clouds 8 991 71 10000 3.09 270 05:18 11.04.2021
440 Clouds 8 991 66 10000 2.57 320 04:33 11.04.2021
441 Clouds 10 993 57 10000 2.57 360 01:40 11.04.2021
442 Clouds 10 993 66 10000 2.06 180 00:33 11.04.2021
443 Clouds 11 992 58 10000 3.09 230 23:47 10.04.2021
444 Clouds 11 992 62 10000 7.2 230 22:59 10.04.2021
445 Clouds 11 992 62 10000 7.2 230 22:31 10.04.2021
446 Clouds 13 992 50 10000 6.17 230 21:57 10.04.2021
447 Clouds 13 992 50 10000 6.17 230 21:57 10.04.2021
448 Clouds 13 992 50 10000 6.17 230 21:37 10.04.2021
449 Clouds 13 992 50 10000 6.17 230 21:19 10.04.2021
450 Clouds 12 992 54 10000 5.66 230 20:41 10.04.2021
451 Clouds 12 992 54 10000 5.66 230 20:22 10.04.2021
452 Clouds 12 992 54 10000 3.6 230 19:43 10.04.2021
453 Clouds 12 992 54 10000 3.6 230 19:25 10.04.2021
454 Clouds 12 993 54 10000 5.14 200 18:44 10.04.2021
455 Clouds 12 993 54 10000 5.14 200 18:25 10.04.2021
456 Clouds 12 993 50 10000 2.57 140 17:37 10.04.2021
457 Clouds 11 993 54 10000 4.12 140 16:57 10.04.2021
458 Clouds 11 993 54 10000 4.12 140 16:26 10.04.2021
459 Clouds 9 992 61 10000 2.57 140 15:53 10.04.2021
460 Clouds 9 992 66 10000 3.09 140 14:58 10.04.2021
461 Clouds 9 992 66 10000 3.09 140 14:38 10.04.2021
462 Clouds 6 995 91 10000 3.42 344 13:59 10.04.2021
463 Clouds 6 995 91 10000 3.42 344 13:40 10.04.2021
464 Clouds 11 992 50 10000 10.29 360 12:49 10.04.2021
465 Clouds 11 992 50 10000 10.29 360 12:26 10.04.2021
466 Clouds 8 993 57 10000 10.8 360 11:47 10.04.2021
467 Clouds 8 993 57 10000 10.8 360 11:24 10.04.2021
468 Clouds 6 994 70 10000 9.26 360 10:52 10.04.2021
469 Clouds 6 994 70 10000 9.26 360 10:31 10.04.2021
470 Rain 5 995 75 10000 2.57 0 09:45 10.04.2021
471 Clouds 5 995 75 10000 2.57 0 09:19 10.04.2021
472 Clouds 5 997 75 10000 5.14 320 08:46 10.04.2021
473 Clouds 5 997 75 10000 5.14 320 08:28 10.04.2021
474 Clouds 5 998 75 10000 2.57 90 07:29 10.04.2021
475 Clouds 6 1000 75 10000 3.09 90 06:49 10.04.2021
476 Clouds 6 1002 70 10000 2.57 320 05:54 10.04.2021
477 Clouds 7 1004 61 10000 2.06 320 03:46 10.04.2021
478 Clouds 7 1005 61 10000 4.63 320 02:50 10.04.2021
479 Clouds 7 1005 61 10000 4.63 320 02:18 10.04.2021
480 Clouds 8 1006 61 10000 4.63 250 00:41 10.04.2021
481 Clouds 8 1006 61 10000 4.63 250 00:19 10.04.2021
482 Clouds 9 1006 61 10000 8.23 230 23:37 09.04.2021
483 Clouds 9 1007 57 10000 9.26 230 22:58 09.04.2021
484 Clouds 9 1007 57 10000 9.26 230 22:37 09.04.2021
485 Clouds 9 1007 57 10000 8.23 230 21:55 09.04.2021
486 Clouds 9 1007 57 10000 8.23 230 21:37 09.04.2021
487 Clouds 9 1007 57 10000 8.23 230 21:18 09.04.2021
488 Clouds 8 1008 57 10000 10.29 230 20:40 09.04.2021
489 Clouds 8 1008 57 10000 10.29 230 20:21 09.04.2021
490 Clouds 8 1008 61 10000 9.77 230 19:43 09.04.2021
491 Clouds 8 1008 61 10000 9.77 230 19:23 09.04.2021
492 Clouds 8 1008 57 10000 7.2 250 18:50 09.04.2021
493 Clouds 8 1008 57 10000 7.2 250 18:29 09.04.2021
494 Clouds 7 1009 61 10000 2.57 320 17:52 09.04.2021
495 Clouds 7 1009 61 10000 2.57 320 17:33 09.04.2021
496 Clouds 7 1009 57 10000 2.57 290 16:55 09.04.2021
497 Clouds 7 1009 57 10000 2.57 290 16:32 09.04.2021
498 Clouds 5 1010 60 10000 4.12 320 15:50 09.04.2021
499 Clouds 5 1010 60 10000 4.12 320 15:25 09.04.2021
500 Clouds 6 1009 65 10000 7.2 250 14:51 09.04.2021
501 Clouds 6 1009 65 10000 7.2 250 14:30 09.04.2021
502 Clouds 5 1010 60 10000 5.14 250 13:51 09.04.2021
503 Clouds 5 1010 60 10000 5.14 250 13:23 09.04.2021
504 Clouds 4 1010 65 10000 4.12 290 12:49 09.04.2021
505 Clouds 4 1010 65 10000 4.12 290 12:30 09.04.2021
506 Clouds 3 1009 70 10000 4.63 360 11:44 09.04.2021
507 Clouds 3 1009 70 10000 4.63 360 11:21 09.04.2021
508 Clouds 4 1009 60 10000 4.12 340 10:45 09.04.2021
509 Clouds 4 1009 60 10000 4.12 340 10:18 09.04.2021
510 Clear 4 1010 65 10000 2.57 270 09:29 09.04.2021
511 Clear 4 1010 65 10000 3.6 290 08:56 09.04.2021
512 Clear 4 1010 65 10000 3.6 290 08:37 09.04.2021
513 Clear 3 1010 70 10000 3.6 290 07:35 09.04.2021
514 Clear 3 1010 65 10000 4.12 320 06:33 09.04.2021
515 Clouds 6 1010 61 10000 5.14 270 05:45 09.04.2021
516 Clouds 5 1009 65 10000 9.26 230 03:48 09.04.2021
517 Clouds 6 1006 65 10000 10.8 230 00:40 09.04.2021
518 Clouds 6 1006 65 10000 10.8 230 00:21 09.04.2021
519 Clouds 6 1005 70 10000 14.4 230 23:57 08.04.2021
520 Clouds 7 1004 70 10000 11.32 230 22:58 08.04.2021
521 Clouds 7 1004 70 10000 11.32 230 22:38 08.04.2021
522 Clouds 7 1004 70 10000 11.32 230 22:20 08.04.2021
523 Clouds 7 1003 76 10000 14.4 230 21:54 08.04.2021
524 Clouds 7 1003 76 10000 14.4 230 21:54 08.04.2021
525 Clouds 7 1003 76 10000 14.4 230 21:36 08.04.2021
526 Clouds 7 1003 76 10000 14.4 230 21:18 08.04.2021
527 Clouds 7 1002 76 10000 13.38 230 20:45 08.04.2021
528 Clouds 7 1002 76 10000 13.38 230 20:25 08.04.2021
529 Clouds 7 1002 70 10000 9.26 230 19:42 08.04.2021
530 Clouds 7 1002 70 10000 9.26 230 19:19 08.04.2021
531 Clouds 7 1001 65 10000 11.83 230 18:44 08.04.2021
532 Clouds 7 1001 65 10000 11.83 230 18:20 08.04.2021
533 Clouds 6 1001 70 10000 9.26 230 17:48 08.04.2021
534 Clouds 6 1001 70 10000 9.26 230 17:24 08.04.2021
535 Clouds 6 1001 75 10000 12.86 230 16:46 08.04.2021
536 Clouds 6 1001 75 10000 12.86 230 16:25 08.04.2021
537 Clouds 6 1000 70 10000 12.35 230 15:47 08.04.2021
538 Rain 6 1000 70 10000 12.35 230 15:28 08.04.2021
539 Rain 6 998 75 10000 14.92 230 14:45 08.04.2021
540 Rain 6 998 75 10000 14.92 230 14:24 08.04.2021
541 Rain 6 997 87 10000 12.86 230 13:56 08.04.2021
542 Rain 6 997 87 10000 12.86 230 13:38 08.04.2021
543 Rain 6 997 87 10000 12.86 230 13:19 08.04.2021
544 Rain 7 996 87 10000 12.86 230 12:38 08.04.2021
545 Rain 8 994 81 10000 13.89 230 11:59 08.04.2021
546 Drizzle 8 994 81 10000 13.89 230 11:41 08.04.2021
547 Drizzle 7 993 93 10000 11.83 230 10:57 08.04.2021
548 Drizzle 7 993 93 10000 11.83 230 10:28 08.04.2021
549 Clouds 7 993 93 10000 2.06 230 09:51 08.04.2021
550 Clouds 7 993 93 10000 2.06 230 09:33 08.04.2021
551 Clouds 7 993 93 10000 1.54 250 08:45 08.04.2021
552 Clouds 7 993 93 10000 1.54 250 08:25 08.04.2021
553 Clouds 7 993 93 10000 1.25 294 07:53 08.04.2021
554 Clouds 7 992 93 10000 1.48 311 06:55 08.04.2021
555 Clouds 8 993 87 10000 1.64 333 02:34 08.04.2021
556 Clouds 9 992 81 10000 1.73 345 00:44 08.04.2021
557 Clouds 9 992 81 10000 1.28 330 23:56 07.04.2021
558 Clouds 9 992 81 10000 1.28 330 23:37 07.04.2021
559 Clouds 9 992 81 10000 0.85 316 23:18 07.04.2021
560 Clouds 10 992 87 10000 0.85 316 22:43 07.04.2021
561 Rain 10 992 87 10000 0.89 240 22:22 07.04.2021
562 Rain 10 992 87 10000 0.89 240 21:42 07.04.2021
563 Rain 10 992 87 10000 1.6 242 21:21 07.04.2021
564 Rain 9 992 87 10000 1.54 230 20:42 07.04.2021
565 Rain 9 992 87 10000 1.54 230 20:20 07.04.2021
566 Rain 8 992 93 10000 2.06 230 19:42 07.04.2021
567 Rain 8 992 93 10000 2.06 230 19:24 07.04.2021
568 Rain 8 992 93 10000 1.54 180 18:47 07.04.2021
569 Rain 8 992 93 10000 1.54 180 18:19 07.04.2021
570 Rain 8 993 87 10000 1.54 360 17:53 07.04.2021
571 Rain 8 993 87 10000 1.54 360 17:35 07.04.2021
572 Rain 6 993 100 10000 2.57 320 16:49 07.04.2021
573 Rain 6 993 100 10000 2.57 320 16:23 07.04.2021
574 Rain 7 993 87 10000 1.03 270 15:57 07.04.2021
575 Rain 7 993 87 10000 1.03 270 15:38 07.04.2021
576 Clouds 7 993 93 10000 1.54 360 14:56 07.04.2021
577 Clouds 7 993 93 10000 1.54 360 14:29 07.04.2021
578 Clouds 6 993 93 10000 4.12 230 13:49 07.04.2021
579 Clouds 6 993 93 10000 4.12 230 13:23 07.04.2021
580 Clouds 6 993 100 10000 2.57 320 12:51 07.04.2021
581 Clouds 6 993 100 10000 2.57 320 12:24 07.04.2021
582 Clouds 7 993 93 10000 0.51 160 11:54 07.04.2021
583 Clouds 7 993 93 10000 0.51 160 11:26 07.04.2021
584 Clouds 7 993 93 10000 0.51 160 11:26 07.04.2021
585 Clouds 7 994 93 10000 17.49 320 10:52 07.04.2021
586 Clouds 7 994 93 10000 17.49 320 10:20 07.04.2021
587 Clouds 7 995 87 10000 2.06 20 09:42 07.04.2021
588 Clouds 7 995 87 10000 2.06 20 09:23 07.04.2021
589 Clouds 8 996 81 10000 2.06 50 08:41 07.04.2021
590 Clouds 8 996 81 10000 2.06 50 08:18 07.04.2021
591 Clouds 7 996 93 10000 2.06 20 07:42 07.04.2021
592 Clouds 7 996 93 10000 2.06 20 07:21 07.04.2021
593 Clouds 8 997 87 10000 1.03 230 06:24 07.04.2021
594 Clouds 8 999 76 10000 2.57 230 04:23 07.04.2021
595 Rain 11 1003 66 10000 3.12 7 00:21 07.04.2021
596 Rain 11 1003 62 10000 3.09 200 23:46 06.04.2021
597 Rain 11 1003 62 10000 3.09 200 23:21 06.04.2021
598 Rain 11 1004 62 10000 4.63 160 22:39 06.04.2021
599 Rain 11 1004 62 10000 4.63 160 22:19 06.04.2021
600 Rain 11 1005 62 10000 2.57 0 21:40 06.04.2021
601 Rain 11 1005 62 10000 2.57 0 21:22 06.04.2021
602 Rain 12 1005 58 10000 7.2 340 20:54 06.04.2021
603 Clouds 12 1005 58 10000 7.2 340 20:24 06.04.2021
604 Clouds 12 1006 58 10000 3.6 0 19:56 06.04.2021
605 Clouds 12 1006 58 10000 3.6 0 19:34 06.04.2021
606 Clouds 11 1007 58 10000 3.09 140 18:57 06.04.2021
607 Clouds 11 1007 58 10000 3.09 140 18:38 06.04.2021
608 Clouds 11 1007 58 10000 3.09 140 18:18 06.04.2021
609 Clouds 11 1008 58 10000 3.09 140 17:40 06.04.2021
610 Clouds 11 1008 58 10000 3.09 140 17:18 06.04.2021
611 Clouds 10 1009 53 10000 3.6 0 16:42 06.04.2021
612 Clouds 9 1010 57 10000 11.32 340 15:53 06.04.2021
613 Clouds 9 1010 57 10000 11.32 340 15:24 06.04.2021
614 Clouds 9 1010 53 10000 5.66 320 14:43 06.04.2021
615 Clouds 9 1010 53 10000 5.66 320 14:24 06.04.2021
616 Clouds 8 1011 53 10000 9.77 340 13:46 06.04.2021
617 Clouds 8 1011 53 10000 9.77 340 13:25 06.04.2021
618 Clouds 9 1011 49 10000 5.66 340 12:44 06.04.2021
619 Clouds 9 1011 49 10000 5.66 340 12:26 06.04.2021
620 Clouds 8 1013 46 10000 8.23 360 11:55 06.04.2021
621 Clouds 8 1013 46 10000 8.23 360 11:36 06.04.2021
622 Clouds 8 1013 46 10000 8.23 360 11:18 06.04.2021
623 Clouds 5 1013 65 10000 2.57 320 10:39 06.04.2021
624 Clouds 5 1013 65 10000 2.57 320 10:19 06.04.2021
625 Clouds 5 1014 56 10000 4.63 320 09:43 06.04.2021
626 Clouds 6 1014 61 10000 4.63 320 08:50 06.04.2021
627 Clouds 6 1014 61 10000 4.63 320 08:19 06.04.2021
628 Clear 6 1015 65 10000 3.6 320 06:57 06.04.2021
629 Clear 6 1015 65 10000 3.6 320 06:24 06.04.2021
630 Clear 5 1016 75 10000 1.03 270 03:54 06.04.2021
631 Clear 6 1017 75 10000 3.6 50 00:48 06.04.2021
632 Clear 6 1017 75 10000 3.6 50 00:22 06.04.2021
633 Clear 7 1017 65 10000 3.09 90 23:50 05.04.2021
634 Clear 7 1017 65 10000 3.09 90 23:28 05.04.2021
635 Clouds 8 1017 57 10000 2.06 50 22:54 05.04.2021
636 Clouds 8 1017 57 10000 2.06 50 22:35 05.04.2021
637 Clouds 8 1017 61 10000 2.57 230 21:48 05.04.2021
638 Clouds 8 1017 61 10000 2.57 230 21:27 05.04.2021
639 Clouds 8 1017 61 10000 4.63 230 20:49 05.04.2021
640 Clouds 8 1017 61 10000 4.63 230 20:30 05.04.2021
641 Clouds 8 1017 57 10000 5.66 230 19:45 05.04.2021
642 Clouds 8 1017 57 10000 5.66 230 19:26 05.04.2021
643 Clouds 8 1017 57 10000 5.66 230 19:26 05.04.2021
644 Clouds 7 1016 61 10000 3.6 230 18:58 05.04.2021
645 Clouds 7 1016 61 10000 3.6 230 18:39 05.04.2021
646 Clouds 7 1016 61 10000 3.6 230 18:19 05.04.2021
647 Clouds 6 1015 70 10000 4.63 230 17:46 05.04.2021
648 Clouds 6 1015 70 10000 4.63 230 17:21 05.04.2021
649 Clouds 6 1014 70 10000 5.14 230 16:45 05.04.2021
650 Clouds 6 1014 70 10000 5.14 230 16:22 05.04.2021
651 Clouds 5 1014 70 10000 2.57 230 15:56 05.04.2021
652 Clouds 5 1014 70 10000 2.57 230 15:32 05.04.2021
653 Clouds 5 1013 70 10000 2.57 180 14:58 05.04.2021
654 Clouds 5 1013 70 10000 2.57 180 14:36 05.04.2021
655 Clouds 5 1011 81 10000 6.17 180 13:46 05.04.2021
656 Clouds 5 1011 81 10000 6.17 180 13:26 05.04.2021
657 Clouds 4 1010 81 10000 9.26 230 12:46 05.04.2021
658 Clouds 4 1010 81 10000 9.26 230 12:24 05.04.2021
659 Clouds 4 1009 81 10000 8.75 230 11:46 05.04.2021
660 Clouds 4 1009 81 10000 8.75 230 11:28 05.04.2021
661 Clouds 4 1009 75 10000 6.17 250 10:54 05.04.2021
662 Clouds 4 1009 75 10000 6.17 250 10:29 05.04.2021
663 Clouds 3 1008 87 10000 4.63 270 09:48 05.04.2021
664 Clouds 3 1008 87 10000 4.63 270 09:26 05.04.2021
665 Clouds 3 1007 87 10000 7.2 250 08:46 05.04.2021
666 Clouds 3 1007 87 10000 7.2 250 08:26 05.04.2021
667 Clouds 3 1007 87 10000 8.23 250 07:38 05.04.2021
668 Clouds 3 1007 87 10000 8.23 250 07:18 05.04.2021
669 Snow 4 1005 81 10000 8.75 230 03:42 05.04.2021
670 Snow 6 1001 81 10000 11.32 230 00:54 05.04.2021
671 Snow 7 1000 70 10000 10.8 230 23:53 04.04.2021
672 Snow 7 1000 70 10000 10.8 230 23:30 04.04.2021
673 Clouds 8 1000 57 10000 4.63 200 22:56 04.04.2021
674 Clouds 8 1000 57 10000 4.63 200 22:33 04.04.2021
675 Clouds 9 1000 53 10000 5.14 340 21:48 04.04.2021
676 Clouds 9 1000 53 10000 5.14 340 21:21 04.04.2021
677 Clouds 9 1000 53 10000 1.54 140 20:42 04.04.2021
678 Clouds 9 1000 53 10000 1.54 140 20:20 04.04.2021
679 Clouds 9 1000 53 10000 1.54 140 20:20 04.04.2021
680 Clouds 9 1000 53 10000 1.03 110 19:40 04.04.2021
681 Clouds 9 1000 53 10000 1.03 110 19:19 04.04.2021
682 Clouds 7 1001 65 10000 3.6 110 18:49 04.04.2021
683 Clouds 7 1001 65 10000 3.6 110 18:24 04.04.2021
684 Clouds 6 1002 75 10000 3.09 90 17:56 04.04.2021
685 Clouds 6 1002 75 10000 3.09 90 17:24 04.04.2021
686 Clouds 6 1002 65 10000 2.38 334 16:54 04.04.2021
687 Clouds 6 1002 65 10000 2.38 334 16:33 04.04.2021
688 Clouds 4 1002 65 10000 2.37 337 15:46 04.04.2021
689 Clouds 4 1002 65 10000 2.47 342 15:28 04.04.2021
690 Clouds 3 1002 70 10000 1.54 270 14:38 04.04.2021
691 Clouds 3 1002 70 10000 1.54 270 14:19 04.04.2021
692 Clouds 2 1002 75 10000 1.03 360 13:26 04.04.2021
693 Clear 2 1002 75 10000 2.57 360 12:51 04.04.2021
694 Clear 2 1002 75 10000 2.57 360 12:27 04.04.2021
695 Clouds 3 1003 70 10000 0.51 180 11:49 04.04.2021
696 Clouds 3 1003 70 10000 0.51 180 11:30 04.04.2021
697 Clouds 3 1003 75 10000 0.51 270 10:46 04.04.2021
698 Clouds 3 1003 75 10000 0.51 270 10:20 04.04.2021
699 Clouds 3 1003 65 10000 1.54 200 09:37 04.04.2021
700 Clouds 3 1003 65 10000 1.54 200 09:18 04.04.2021
701 Clouds 2 1004 75 10000 1.54 230 08:42 04.04.2021
702 Clouds 2 1004 75 10000 1.54 230 08:24 04.04.2021
703 Clouds 2 1004 75 10000 2.06 290 06:39 04.04.2021
704 Clouds 3 1004 75 10000 4.12 320 05:43 04.04.2021
705 Clouds 4 1003 75 10000 10.29 230 01:49 04.04.2021
706 Clouds 4 1003 75 10000 10.8 230 00:44 04.04.2021
707 Clouds 4 1003 75 10000 10.8 230 00:18 04.04.2021
708 Clouds 4 1002 81 10000 9.26 230 23:39 03.04.2021
709 Snow 4 1001 81 8000 15.95 230 22:56 03.04.2021
710 Snow 4 1001 75 10000 11.83 230 22:25 03.04.2021
711 Snow 3 1000 93 9000 10.29 230 21:59 03.04.2021
712 Snow 3 1000 93 9000 10.29 230 21:39 03.04.2021
713 Clouds 3 1000 93 9000 10.29 230 21:20 03.04.2021
714 Rain 3 1000 100 5000 11.83 230 20:38 03.04.2021
715 Rain 3 1000 100 5000 11.83 230 20:18 03.04.2021
716 Rain 4 999 93 5000 10.8 230 19:43 03.04.2021
717 Snow 4 999 93 5000 10.8 230 19:18 03.04.2021
718 Snow 4 998 93 7000 14.4 230 18:44 03.04.2021
719 Snow 4 998 93 7000 14.4 230 18:18 03.04.2021
720 Snow 4 998 93 8000 12.86 230 17:39 03.04.2021
721 Rain 4 998 93 8000 12.86 230 17:20 03.04.2021
722 Rain 4 998 93 10000 10.8 230 16:43 03.04.2021
723 Rain 4 998 93 10000 10.8 230 16:21 03.04.2021
724 Rain 5 999 93 9000 8.75 230 15:41 03.04.2021
725 Rain 5 999 93 9000 8.75 230 15:19 03.04.2021
726 Rain 6 999 87 10000 5.66 230 14:42 03.04.2021
727 Rain 6 999 87 10000 5.66 230 14:20 03.04.2021
728 Rain 6 999 87 10000 5.66 230 13:46 03.04.2021
729 Rain 6 999 87 10000 5.66 230 13:20 03.04.2021
730 Rain 6 1000 93 10000 3.09 230 12:47 03.04.2021
731 Rain 6 1000 93 10000 3.09 230 12:20 03.04.2021
732 Rain 6 1001 100 10000 1.54 250 11:35 03.04.2021
733 Rain 6 1002 100 10000 2.06 250 10:50 03.04.2021
734 Rain 6 1002 100 10000 2.06 250 10:31 03.04.2021
735 Rain 7 1003 93 10000 3.6 230 09:51 03.04.2021
736 Drizzle 7 1003 93 10000 3.6 230 09:28 03.04.2021
737 Rain 7 1004 93 10000 1.54 320 08:44 03.04.2021
738 Rain 7 1004 93 10000 1.54 320 08:26 03.04.2021
739 Rain 7 1004 93 10000 8.23 70 07:28 03.04.2021
740 Rain 7 1007 87 10000 9.26 70 05:49 03.04.2021
741 Clouds 8 1008 81 10000 6.17 90 03:50 03.04.2021
742 Clouds 8 1008 81 10000 3.6 140 02:49 03.04.2021
743 Clouds 8 1008 81 10000 3.6 140 02:23 03.04.2021
744 Clouds 10 1008 71 10000 4.63 180 00:20 03.04.2021
745 Clouds 11 1008 62 10000 7.2 230 23:48 02.04.2021
746 Clouds 11 1008 62 10000 7.2 230 23:24 02.04.2021
747 Clouds 11 1008 62 10000 7.2 230 22:52 02.04.2021
748 Clouds 11 1008 62 10000 7.2 230 22:33 02.04.2021
749 Clouds 11 1007 62 10000 7.72 230 21:46 02.04.2021
750 Clouds 11 1007 62 10000 7.72 230 21:23 02.04.2021
751 Clouds 11 1007 62 10000 8.23 230 20:48 02.04.2021
752 Clouds 11 1007 62 10000 8.23 230 20:28 02.04.2021
753 Clouds 10 1007 71 10000 7.72 250 19:57 02.04.2021
754 Clouds 10 1007 71 10000 7.72 250 19:38 02.04.2021
755 Clouds 10 1007 71 10000 7.72 250 19:20 02.04.2021
756 Clouds 10 1008 71 10000 2.06 340 18:38 02.04.2021
757 Clouds 10 1008 71 10000 2.06 340 18:20 02.04.2021
758 Clear 9 1007 76 10000 2.06 320 17:37 02.04.2021
759 Clear 8 1008 76 10000 2.57 270 16:48 02.04.2021
760 Clear 8 1008 76 10000 2.57 270 16:22 02.04.2021
761 Clear 7 1008 87 10000 2.06 270 15:33 02.04.2021
762 Clear 7 1007 87 10000 2.06 270 14:55 02.04.2021
763 Clear 7 1007 87 10000 2.06 270 14:29 02.04.2021
764 Clear 6 1007 93 10000 3.09 270 13:42 02.04.2021
765 Clear 6 1007 93 10000 3.09 270 13:20 02.04.2021
766 Clear 6 1007 93 10000 1.38 308 12:41 02.04.2021
767 Clear 6 1007 93 10000 1.38 308 12:41 02.04.2021
768 Clear 6 1007 93 10000 1.69 323 12:20 02.04.2021
769 Clouds 6 1007 93 10000 2.57 180 11:56 02.04.2021
770 Clouds 6 1007 93 10000 2.57 180 11:21 02.04.2021
771 Clouds 6 1007 93 10000 2.06 270 10:50 02.04.2021
772 Clouds 6 1007 93 10000 2.06 270 10:29 02.04.2021
773 Clouds 7 1007 87 10000 1.54 180 09:53 02.04.2021
774 Clouds 7 1007 87 10000 1.54 180 09:53 02.04.2021
775 Clouds 7 1007 87 10000 1.54 180 09:27 02.04.2021
776 Clouds 8 1007 81 10000 1.54 140 08:54 02.04.2021
777 Clouds 8 1007 81 10000 1.54 140 08:30 02.04.2021
778 Clouds 8 1008 81 10000 3.09 140 07:30 02.04.2021
779 Clouds 9 1009 71 10000 2.06 250 06:52 02.04.2021
780 Clouds 9 1009 71 10000 1.54 340 05:28 02.04.2021
781 Clouds 10 1011 66 10000 3.09 320 02:30 02.04.2021
782 Clouds 11 1011 58 10000 6.17 340 00:52 02.04.2021
783 Clouds 11 1011 58 10000 6.17 340 00:22 02.04.2021
784 Clouds 11 1011 58 10000 6.17 340 00:22 02.04.2021
785 Clouds 14 1011 44 10000 7.72 360 23:39 01.04.2021
786 Clouds 14 1012 41 10000 7.2 340 22:59 01.04.2021
787 Clouds 14 1012 41 10000 7.2 340 22:20 01.04.2021
788 Clouds 15 1012 36 10000 9.26 340 21:50 01.04.2021
789 Clouds 15 1012 36 10000 9.26 340 21:28 01.04.2021
790 Clouds 15 1013 36 10000 7.72 340 20:49 01.04.2021
791 Clouds 15 1013 36 10000 7.72 340 20:26 01.04.2021
792 Clouds 13 1014 47 10000 6.17 320 19:56 01.04.2021
793 Clouds 13 1014 47 10000 6.17 320 19:35 01.04.2021
794 Clouds 13 1014 47 10000 1.54 200 18:46 01.04.2021
795 Clouds 13 1014 47 10000 1.54 200 18:19 01.04.2021
796 Clouds 13 1015 47 10000 2.57 140 17:53 01.04.2021
797 Clouds 13 1015 47 10000 2.57 140 17:33 01.04.2021
798 Clear 11 1016 62 10000 1.54 140 16:53 01.04.2021
799 Clear 11 1016 62 10000 1.54 140 16:31 01.04.2021
800 Clear 8 1017 76 10000 2.06 140 15:48 01.04.2021
801 Clear 8 1017 76 10000 2.06 140 15:20 01.04.2021
802 Clear 7 1017 76 10000 3.37 352 14:46 01.04.2021
803 Clear 7 1017 76 10000 3.43 351 14:26 01.04.2021
804 Clear 6 1018 75 10000 3.44 352 13:56 01.04.2021
805 Clear 6 1018 75 10000 3.44 352 13:31 01.04.2021
806 Clear 4 1018 93 10000 1.54 250 12:54 01.04.2021
807 Clear 4 1018 93 10000 1.54 250 12:33 01.04.2021
808 Clear 4 1019 87 10000 1.03 270 11:55 01.04.2021
809 Clear 4 1019 87 10000 1.03 270 11:37 01.04.2021
810 Clear 4 1019 87 10000 1.03 270 11:18 01.04.2021
811 Clear 4 1019 81 10000 3.31 349 10:42 01.04.2021
812 Clear 4 1019 81 10000 3.28 349 10:22 01.04.2021
813 Clear 4 1020 81 10000 3.28 349 09:31 01.04.2021
814 Clear 4 1021 75 10000 3.33 349 08:42 01.04.2021
815 Clear 4 1021 75 10000 3.38 350 08:24 01.04.2021
816 Clear 4 1021 81 10000 1.03 250 07:21 01.04.2021
817 Clear 5 1022 75 10000 2.06 290 06:54 01.04.2021
818 Clear 6 1023 70 10000 2.06 290 05:32 01.04.2021
819 Clear 5 1024 62 10000 2.36 341 02:58 01.04.2021
820 Clear 9 1024 57 10000 2.06 340 23:52 31.03.2021
821 Clear 9 1024 57 10000 2.06 340 23:34 31.03.2021
822 Clear 11 1024 46 10000 0.52 319 22:43 31.03.2021
823 Clear 11 1024 46 10000 0.3 336 22:22 31.03.2021
824 Clear 11 1025 50 10000 1.54 70 21:48 31.03.2021
825 Clear 11 1025 50 10000 1.54 70 21:24 31.03.2021
826 Clear 10 1025 57 10000 1.54 70 20:59 31.03.2021
827 Clear 10 1025 57 10000 1.54 70 20:40 31.03.2021
828 Clear 10 1025 57 10000 1.54 70 20:19 31.03.2021
829 Clear 9 1026 53 10000 0.29 181 19:42 31.03.2021
830 Clear 9 1026 53 10000 0.73 182 19:20 31.03.2021
831 Clear 8 1026 66 10000 1.54 90 18:53 31.03.2021
832 Clear 8 1026 66 10000 1.54 90 18:34 31.03.2021
833 Clear 8 1026 61 10000 0.54 203 17:38 31.03.2021
834 Clear 8 1026 61 10000 0.34 288 17:19 31.03.2021
835 Clear 5 1026 70 10000 2.06 360 16:53 31.03.2021
836 Clear 5 1026 70 10000 2.06 360 16:34 31.03.2021
837 Clear 3 1026 75 10000 0.72 325 15:53 31.03.2021
838 Clear 3 1026 75 10000 0.69 305 15:22 31.03.2021
839 Clear 3 1026 75 10000 3.09 320 14:50 31.03.2021
840 Clear 3 1026 75 10000 3.09 320 14:25 31.03.2021
841 Clear 3 1026 75 10000 3.09 320 13:55 31.03.2021
842 Clear 3 1026 75 10000 3.09 320 13:23 31.03.2021
843 Clear 3 1026 75 10000 3.09 360 12:41 31.03.2021
844 Clear 3 1026 75 10000 3.09 360 12:18 31.03.2021
845 Clear 3 1025 75 10000 3.6 340 11:23 31.03.2021
846 Clear 3 1025 81 10000 4.63 340 10:50 31.03.2021
847 Clear 3 1025 81 10000 4.63 340 10:28 31.03.2021
848 Clear 4 1025 75 10000 3.6 340 09:57 31.03.2021
849 Clear 4 1025 75 10000 3.6 340 09:33 31.03.2021
850 Clear 2 1025 100 10000 4.12 340 08:48 31.03.2021
851 Clear 2 1025 100 10000 4.12 340 08:27 31.03.2021
852 Clear 4 1025 70 10000 2.57 290 07:37 31.03.2021
853 Clear 5 1024 65 10000 3.09 320 05:52 31.03.2021
854 Clear 7 1022 61 10000 6.17 250 02:42 31.03.2021
855 Clouds 8 1022 57 10000 8.23 230 00:54 31.03.2021
856 Clouds 8 1022 57 10000 8.23 230 00:26 31.03.2021
857 Clouds 9 1020 61 10000 11.83 230 23:57 30.03.2021
858 Clouds 9 1020 61 10000 11.83 230 23:25 30.03.2021
859 Clouds 9 1019 61 10000 10.8 230 22:50 30.03.2021
860 Clouds 9 1019 61 10000 10.8 230 22:31 30.03.2021
861 Clouds 9 1018 61 10000 10.29 230 21:59 30.03.2021
862 Clouds 9 1018 61 10000 10.29 230 21:31 30.03.2021
863 Clouds 8 1017 61 10000 14.92 230 20:59 30.03.2021
864 Clouds 8 1017 61 10000 14.92 230 20:40 30.03.2021
865 Clouds 8 1017 61 10000 14.92 230 20:20 30.03.2021
866 Clouds 8 1016 61 10000 10.29 230 19:43 30.03.2021
867 Clouds 8 1015 61 10000 12.35 230 18:58 30.03.2021
868 Clouds 8 1015 61 10000 12.35 230 18:30 30.03.2021
869 Clouds 8 1014 61 10000 11.83 230 17:48 30.03.2021
870 Clouds 8 1014 61 10000 11.83 230 17:30 30.03.2021
871 Clouds 8 1012 61 10000 13.38 230 16:47 30.03.2021
872 Clouds 8 1012 61 10000 13.38 230 16:28 30.03.2021
873 Clouds 8 1010 71 10000 13.38 230 15:39 30.03.2021
874 Clouds 8 1010 71 10000 13.38 230 15:19 30.03.2021
875 Clouds 9 1007 71 10000 18.52 230 14:45 30.03.2021
876 Rain 9 1007 71 10000 18.52 230 14:45 30.03.2021
877 Rain 9 1007 71 10000 18.52 230 14:21 30.03.2021
878 Rain 10 1005 81 10000 13.38 230 13:49 30.03.2021
879 Rain 10 1005 81 10000 13.38 230 13:26 30.03.2021
880 Rain 10 1003 81 10000 14.4 230 12:42 30.03.2021
881 Rain 10 1003 81 10000 14.4 230 12:21 30.03.2021
882 Rain 12 1002 76 10000 6.17 220 11:47 30.03.2021
883 Rain 12 1002 76 10000 6.17 220 11:19 30.03.2021
884 Rain 10 1001 81 10000 5.66 180 10:42 30.03.2021
885 Clouds 10 1001 81 10000 5.66 180 10:19 30.03.2021
886 Clouds 9 1001 87 10000 1.03 90 09:41 30.03.2021
887 Clouds 9 1001 87 10000 1.03 90 09:21 30.03.2021
888 Clouds 8 1000 93 10000 1.54 90 08:43 30.03.2021
889 Clouds 9 1001 87 10000 1.03 110 07:56 30.03.2021
890 Clouds 9 1001 87 10000 1.03 110 07:31 30.03.2021
891 Clouds 9 1001 87 10000 1.54 360 06:53 30.03.2021
892 Clouds 9 1001 81 10000 2.57 90 05:25 30.03.2021
893 Clouds 10 1002 76 10000 2.06 290 01:57 30.03.2021
894 Clouds 11 1002 62 10000 3.09 20 23:55 29.03.2021
895 Clouds 11 1002 62 10000 3.09 20 23:22 29.03.2021
896 Clouds 11 1003 66 10000 2.06 180 22:43 29.03.2021
897 Clouds 11 1003 62 10000 1.54 180 21:57 29.03.2021
898 Clouds 11 1003 62 10000 1.54 180 21:35 29.03.2021
899 Clouds 11 1004 62 10000 1.54 140 20:51 29.03.2021
900 Clouds 11 1004 62 10000 1.54 140 20:33 29.03.2021
901 Clouds 11 1004 62 10000 1.54 20 19:56 29.03.2021
902 Clouds 11 1004 62 10000 1.54 20 19:32 29.03.2021
903 Clouds 10 1005 66 10000 2.57 110 18:57 29.03.2021
904 Clouds 10 1005 66 10000 2.57 110 18:38 29.03.2021
905 Clouds 10 1005 66 10000 2.57 110 18:19 29.03.2021
906 Clouds 10 1006 62 10000 3.6 160 17:37 29.03.2021
907 Clouds 8 1006 71 10000 3.6 200 16:54 29.03.2021
908 Clouds 8 1006 71 10000 3.6 200 16:34 29.03.2021
909 Clouds 6 1007 81 10000 2.06 230 15:43 29.03.2021
910 Clouds 6 1007 81 10000 2.06 230 15:24 29.03.2021
911 Clouds 5 1008 81 10000 3.6 140 14:48 29.03.2021
912 Clouds 5 1008 81 10000 3.6 140 14:23 29.03.2021
913 Clear 4 1009 81 10000 5.14 90 13:45 29.03.2021
914 Clear 4 1009 81 10000 5.14 90 13:22 29.03.2021
915 Clear 5 1010 75 10000 1.54 20 12:49 29.03.2021
916 Clear 4 1011 87 10000 2.57 90 11:49 29.03.2021
917 Clear 4 1011 87 10000 2.57 90 11:30 29.03.2021
918 Clear 4 1011 87 10000 1.03 320 10:52 29.03.2021
919 Clear 4 1011 87 10000 1.03 320 10:32 29.03.2021
920 Clouds 5 1011 81 10000 1.54 360 09:34 29.03.2021
921 Clear 5 1012 100 10000 1.03 320 08:51 29.03.2021
922 Clear 5 1012 100 10000 1.03 320 08:27 29.03.2021
923 Clouds 5 1012 93 10000 3.09 50 07:28 29.03.2021
924 Clouds 5 1012 81 10000 4.12 360 06:26 29.03.2021
925 Clear 6 1012 75 10000 4.12 340 03:43 29.03.2021
926 Clouds 8 1012 57 10000 5.14 250 01:41 29.03.2021
927 Clouds 8 1012 61 10000 6.69 250 00:21 29.03.2021
928 Clouds 9 1011 61 10000 7.72 230 23:36 28.03.2021
929 Clouds 9 1011 61 10000 7.72 230 23:18 28.03.2021
930 Clear 9 1011 61 10000 10.29 230 22:39 28.03.2021
931 Clear 9 1011 61 10000 10.29 230 22:20 28.03.2021
932 Clouds 8 1011 61 10000 11.32 230 21:40 28.03.2021
933 Clouds 8 1011 61 10000 11.32 230 21:22 28.03.2021
934 Clouds 8 1010 61 10000 13.38 230 20:47 28.03.2021
935 Clouds 8 1010 61 10000 13.38 230 20:29 28.03.2021
936 Clouds 8 1010 61 10000 12.86 230 19:43 28.03.2021
937 Clouds 8 1010 61 10000 12.86 230 19:22 28.03.2021
938 Clouds 8 1009 57 10000 14.92 230 18:58 28.03.2021
939 Clouds 8 1009 57 10000 14.92 230 18:26 28.03.2021
940 Clouds 8 1009 57 10000 11.83 230 17:47 28.03.2021
941 Clouds 8 1009 57 10000 11.83 230 17:23 28.03.2021
942 Clouds 7 1007 61 10000 14.92 230 16:46 28.03.2021
943 Clouds 7 1007 61 10000 14.92 230 16:23 28.03.2021
944 Clouds 7 1005 65 10000 13.38 230 15:26 28.03.2021
945 Clouds 6 1003 70 10000 19.03 230 14:52 28.03.2021
946 Clouds 6 1003 70 10000 19.03 230 14:31 28.03.2021
947 Clouds 6 1000 75 10000 17.49 230 13:46 28.03.2021
948 Clouds 6 1000 75 10000 17.49 230 13:21 28.03.2021
949 Drizzle 6 1000 75 10000 20.06 230 12:50 28.03.2021
950 Drizzle 6 1000 75 10000 20.06 230 12:31 28.03.2021
951 Drizzle 6 995 81 10000 27.27 230 11:43 28.03.2021
952 Rain 6 995 81 10000 27.27 230 11:24 28.03.2021
953 Rain 6 995 93 10000 20.58 230 10:44 28.03.2021
954 Rain 6 996 93 10000 20.58 230 10:24 28.03.2021
955 Rain 7 995 93 10000 10.29 230 09:46 28.03.2021
956 Drizzle 7 990 93 10000 15.43 230 09:24 28.03.2021
957 Rain 7 990 93 10000 15.43 230 08:45 28.03.2021
958 Rain 8 987 87 10000 9.26 230 07:49 28.03.2021
959 Rain 7 989 89 10000 4.14 257 06:40 28.03.2021
960 Rain 12 983 47 10000 9.77 290 04:18 28.03.2021
961 Rain 13 982 47 10000 8.23 320 01:22 28.03.2021
962 Rain 13 982 54 10000 7.72 320 00:20 28.03.2021
963 Rain 13 984 76 7000 6.17 360 23:43 27.03.2021
964 Rain 13 983 76 7000 9.26 340 22:58 27.03.2021
965 Drizzle 15 984 67 10000 13.38 340 22:36 27.03.2021
966 Rain 15 987 63 10000 8.75 360 21:58 27.03.2021
967 Rain 15 987 63 10000 8.75 360 21:37 27.03.2021
968 Rain 15 987 63 10000 8.75 360 21:19 27.03.2021
969 Drizzle 15 990 63 10000 6.17 360 20:38 27.03.2021
970 Drizzle 15 990 63 10000 6.17 360 20:19 27.03.2021
971 Rain 14 993 67 10000 9.26 340 19:42 27.03.2021
972 Drizzle 14 993 67 10000 9.26 340 19:23 27.03.2021
973 Clouds 14 994 62 10000 6.69 360 18:48 27.03.2021
974 Clouds 14 994 62 10000 6.69 360 18:28 27.03.2021
975 Clouds 13 996 67 10000 6.69 340 17:54 27.03.2021
976 Clouds 13 996 67 10000 6.69 340 17:24 27.03.2021
977 Clouds 13 997 67 10000 3.09 360 16:49 27.03.2021
978 Clouds 13 997 67 10000 3.09 360 16:29 27.03.2021
979 Clouds 11 998 66 10000 4.09 348 15:50 27.03.2021
980 Clouds 11 998 66 10000 3.8 347 15:24 27.03.2021
981 Clouds 11 999 62 10000 2.06 230 14:49 27.03.2021
982 Clouds 10 1000 66 10000 1.54 230 13:51 27.03.2021
983 Clouds 10 1000 66 10000 1.54 230 13:26 27.03.2021
984 Clouds 10 1001 66 10000 2.06 230 12:55 27.03.2021
985 Clouds 10 1001 66 10000 2.06 230 12:24 27.03.2021
986 Clouds 10 1001 66 10000 4.12 360 11:42 27.03.2021
987 Clouds 10 1001 66 10000 4.12 360 11:20 27.03.2021
988 Clouds 8 1002 76 10000 1.54 180 10:45 27.03.2021
989 Clouds 8 1002 76 10000 1.54 180 10:22 27.03.2021
990 Clouds 7 1003 87 10000 2.06 50 09:28 27.03.2021
991 Clouds 8 1004 76 10000 3.09 70 08:43 27.03.2021
992 Clouds 8 1004 76 10000 3.09 70 08:21 27.03.2021
993 Clouds 7 1005 87 10000 3.09 70 07:34 27.03.2021
994 Clouds 8 1005 76 10000 2.06 70 06:43 27.03.2021
995 Clouds 8 1007 76 10000 2.57 50 04:58 27.03.2021
996 Clouds 8 1007 76 10000 2.57 50 04:39 27.03.2021
997 Clouds 10 1008 62 10000 2.57 230 00:49 27.03.2021
998 Clouds 10 1008 62 10000 2.57 230 00:29 27.03.2021
999 Clouds 10 1008 62 10000 2.57 230 23:54 26.03.2021
1000 Clouds 11 1008 54 10000 1.03 200 22:56 26.03.2021
1001 Clouds 11 1008 54 10000 1.03 200 22:34 26.03.2021
1002 Clouds 11 1008 54 10000 3.6 230 21:25 26.03.2021
1003 Clouds 11 1009 54 10000 4.12 230 20:59 26.03.2021
1004 Clouds 11 1009 54 10000 4.12 230 20:33 26.03.2021
1005 Clouds 11 1009 50 10000 4.12 230 19:57 26.03.2021
1006 Clouds 11 1009 50 10000 4.12 230 19:39 26.03.2021
1007 Clouds 11 1009 50 10000 4.12 230 19:20 26.03.2021
1008 Clouds 12 1009 43 10000 3.09 200 18:42 26.03.2021
1009 Clouds 12 1009 43 10000 3.09 200 18:20 26.03.2021
1010 Clouds 11 1009 43 10000 1.54 180 17:46 26.03.2021
1011 Clouds 11 1010 37 10000 2.16 315 16:56 26.03.2021
1012 Clouds 11 1010 37 10000 2.16 315 16:33 26.03.2021
1013 Clouds 10 1009 46 10000 2.57 360 15:53 26.03.2021
1014 Clouds 10 1009 46 10000 2.57 360 15:21 26.03.2021
1015 Haze 8 1009 71 10000 5.66 320 14:30 26.03.2021
1016 Mist 9 1010 71 10000 5.14 270 13:38 26.03.2021
1017 Mist 7 1009 70 10000 7.2 230 12:54 26.03.2021
1018 Mist 7 1009 70 10000 7.2 230 12:32 26.03.2021
1019 Clouds 4 1010 87 10000 10.8 230 11:35 26.03.2021
1020 Clouds 3 1009 87 10000 10.8 230 10:58 26.03.2021
1021 Clouds 3 1009 87 10000 10.8 230 10:39 26.03.2021
1022 Clouds 3 1009 87 10000 10.8 230 09:54 26.03.2021
1023 Drizzle 3 1008 81 10000 7.2 320 09:35 26.03.2021
1024 Drizzle 3 1008 87 10000 10.29 230 08:44 26.03.2021
1025 Drizzle 3 1008 87 10000 10.29 230 08:23 26.03.2021
1026 Drizzle 3 1007 93 10000 9.26 250 07:39 26.03.2021
1027 Drizzle 3 1007 93 10000 9.26 250 07:18 26.03.2021
1028 Drizzle 4 1007 81 10000 9.26 230 06:53 26.03.2021
1029 Drizzle 5 1006 87 10000 6.69 230 05:31 26.03.2021
1030 Clouds 6 1004 75 10000 11.83 230 02:31 26.03.2021
1031 Snow 9 1002 43 10000 12.35 230 00:32 26.03.2021
1032 Clouds 9 1001 46 10000 10.29 230 23:45 25.03.2021
1033 Clouds 9 1001 46 10000 10.29 230 23:20 25.03.2021
1034 Clouds 10 1001 50 10000 10.8 230 22:37 25.03.2021
1035 Clouds 11 999 58 10000 13.38 230 21:53 25.03.2021
1036 Clouds 11 999 58 10000 13.38 230 21:34 25.03.2021
1037 Rain 12 999 54 10000 11.32 230 20:47 25.03.2021
1038 Rain 12 999 54 10000 11.32 230 20:27 25.03.2021
1039 Rain 12 997 54 10000 11.83 200 19:50 25.03.2021
1040 Rain 12 997 54 10000 11.83 200 19:31 25.03.2021
1041 Rain 13 998 50 10000 9.26 200 18:57 25.03.2021
1042 Rain 13 998 50 10000 9.26 200 18:39 25.03.2021
1043 Clouds 13 998 50 10000 9.26 200 18:18 25.03.2021
1044 Clouds 13 998 50 10000 4.63 200 17:37 25.03.2021
1045 Clouds 12 998 54 10000 6.17 320 16:56 25.03.2021
1046 Clouds 12 998 54 10000 6.17 320 16:33 25.03.2021
1047 Clouds 11 998 58 10000 8.75 340 15:49 25.03.2021
1048 Clouds 11 998 58 10000 8.75 340 15:25 25.03.2021
1049 Clouds 11 999 58 10000 9.26 340 14:49 25.03.2021
1050 Clouds 11 999 58 10000 9.26 340 14:30 25.03.2021
1051 Clouds 10 1000 62 10000 10.8 360 13:28 25.03.2021
1052 Clouds 8 1001 71 10000 7.72 360 12:46 25.03.2021
1053 Clouds 8 1001 71 10000 7.72 360 12:22 25.03.2021
1054 Clouds 6 1002 93 10000 1.03 250 11:58 25.03.2021
1055 Clouds 6 1002 93 10000 1.03 250 11:40 25.03.2021
1056 Clouds 6 1002 93 10000 1.03 250 11:21 25.03.2021
1057 Clouds 6 1003 87 10000 2.57 50 10:48 25.03.2021
1058 Clouds 6 1003 87 10000 2.57 50 10:20 25.03.2021
1059 Clouds 6 1004 81 10000 2.57 50 09:47 25.03.2021
1060 Clouds 6 1004 81 10000 2.57 50 09:29 25.03.2021
1061 Clouds 6 1004 81 10000 3.09 340 08:36 25.03.2021
1062 Clouds 7 1005 70 10000 4.12 320 07:43 25.03.2021
1063 Clouds 7 1006 76 10000 3.09 290 06:43 25.03.2021
1064 Clouds 7 1006 76 10000 3.09 290 06:23 25.03.2021
1065 Clouds 6 1006 81 10000 8.75 230 04:52 25.03.2021
1066 Clouds 6 1006 75 10000 12.86 230 02:28 25.03.2021
1067 Clouds 6 1004 75 10000 16.46 230 00:20 25.03.2021
1068 Clouds 6 1003 75 10000 17.49 230 23:42 24.03.2021
1069 Clouds 6 1003 75 10000 17.49 230 23:23 24.03.2021
1070 Clouds 6 1003 75 10000 17.49 230 22:40 24.03.2021
1071 Clouds 7 1002 76 10000 16.98 230 21:59 24.03.2021
1072 Clouds 7 1002 76 10000 16.98 230 21:39 24.03.2021
1073 Clouds 7 1002 76 10000 16.98 230 21:19 24.03.2021
1074 Clouds 7 1001 76 10000 15.43 230 20:41 24.03.2021
1075 Clouds 7 1001 76 10000 15.43 230 20:19 24.03.2021
1076 Rain 6 1000 81 10000 16.46 230 19:34 24.03.2021
1077 Clouds 6 998 75 10000 18.01 230 18:56 24.03.2021
1078 Clouds 6 998 75 10000 18.01 230 18:38 24.03.2021
1079 Rain 6 998 75 10000 18.01 230 18:19 24.03.2021
1080 Rain 6 998 81 8000 19.03 230 17:34 24.03.2021
1081 Drizzle 6 997 81 10000 18.52 230 16:59 24.03.2021
1082 Drizzle 6 997 81 10000 18.52 230 16:41 24.03.2021
1083 Drizzle 6 997 81 10000 18.52 230 16:20 24.03.2021
1084 Clouds 6 995 75 10000 21.09 230 15:41 24.03.2021
1085 Clouds 6 995 75 10000 21.09 230 15:21 24.03.2021
1086 Clouds 6 994 75 10000 20.06 230 14:41 24.03.2021
1087 Clouds 6 994 75 10000 20.06 230 14:21 24.03.2021
1088 Clouds 5 994 81 10000 18.52 230 13:44 24.03.2021
1089 Clouds 5 994 81 10000 18.52 230 13:24 24.03.2021
1090 Clouds 5 994 81 10000 18.01 230 12:40 24.03.2021
1091 Clouds 5 994 81 10000 18.01 230 12:20 24.03.2021
1092 Clouds 5 994 75 10000 18.01 230 11:41 24.03.2021
1093 Drizzle 4 994 87 10000 20.58 230 10:49 24.03.2021
1094 Drizzle 4 994 87 10000 20.58 230 10:31 24.03.2021
1095 Drizzle 4 993 87 10000 16.46 230 09:55 24.03.2021
1096 Drizzle 4 993 87 10000 16.46 230 09:33 24.03.2021
1097 Drizzle 5 992 93 10000 15.43 230 08:58 24.03.2021
1098 Drizzle 5 992 93 10000 15.43 230 08:39 24.03.2021
1099 Clouds 4 994 91 10000 3.4 238 07:49 24.03.2021
1100 Snow 6 992 81 10000 15.43 230 07:19 24.03.2021
1101 Snow 5 993 94 1549 3.42 231 06:45 24.03.2021
1102 Drizzle 7 991 81 10000 10.8 230 02:29 24.03.2021
1103 Rain 7 990 81 9000 7.72 250 00:42 24.03.2021
1104 Rain 7 990 81 9000 7.2 250 23:52 23.03.2021
1105 Rain 7 990 81 9000 7.2 250 23:19 23.03.2021
1106 Rain 8 990 93 8000 9.26 230 22:50 23.03.2021
1107 Rain 8 990 93 8000 9.26 230 22:25 23.03.2021
1108 Rain 8 990 100 5000 12.35 230 21:45 23.03.2021
1109 Rain 8 990 100 5000 12.35 230 21:27 23.03.2021
1110 Rain 9 990 93 5000 9.77 230 20:46 23.03.2021
1111 Drizzle 9 990 93 10000 4.12 230 20:25 23.03.2021
1112 Drizzle 9 991 93 8000 3.09 230 19:48 23.03.2021
1113 Rain 9 991 93 8000 3.09 230 19:26 23.03.2021
1114 Drizzle 9 992 87 10000 0.86 342 18:46 23.03.2021
1115 Drizzle 9 992 87 10000 2.11 20 18:22 23.03.2021
1116 Rain 8 993 87 10000 10.8 90 17:48 23.03.2021
1117 Rain 8 993 87 10000 10.8 90 17:23 23.03.2021
1118 Rain 8 994 87 10000 3.09 90 16:57 23.03.2021
1119 Rain 8 994 87 10000 3.09 90 16:25 23.03.2021
1120 Rain 8 995 87 10000 2.71 24 15:47 23.03.2021
1121 Drizzle 8 995 87 10000 2.51 20 15:18 23.03.2021
1122 Drizzle 8 997 87 10000 2.51 20 14:39 23.03.2021
1123 Rain 8 997 87 10000 2.16 14 14:18 23.03.2021
1124 Rain 8 998 87 10000 2.16 14 13:43 23.03.2021
1125 Rain 8 998 87 10000 2.14 26 13:21 23.03.2021
1126 Rain 8 998 81 10000 2.14 26 12:43 23.03.2021
1127 Rain 8 998 81 10000 2.43 0 12:21 23.03.2021
1128 Rain 8 998 81 10000 2.43 0 12:21 23.03.2021
1129 Rain 7 998 87 10000 2.43 0 11:47 23.03.2021
1130 Rain 7 998 87 10000 2.43 0 11:47 23.03.2021
1131 Rain 7 1000 87 10000 1.03 50 10:46 23.03.2021
1132 Clouds 7 1000 87 10000 1.03 50 10:26 23.03.2021
1133 Clouds 7 1001 93 10000 3.09 90 09:59 23.03.2021
1134 Clouds 7 1001 93 10000 3.09 90 09:39 23.03.2021
1135 Clouds 7 1001 93 10000 3.09 90 09:20 23.03.2021
1136 Clouds 7 1002 87 10000 2.57 90 08:40 23.03.2021
1137 Clouds 7 1002 87 10000 2.57 90 08:22 23.03.2021
1138 Clouds 8 1002 81 10000 3.09 360 07:48 23.03.2021
1139 Clouds 8 1002 81 10000 3.09 360 07:20 23.03.2021
1140 Clouds 9 1002 76 10000 2.57 270 06:33 23.03.2021
1141 Clouds 10 1004 66 10000 2.06 270 03:23 23.03.2021
1142 Clouds 10 1003 66 10000 8.23 230 02:20 23.03.2021
1143 Clouds 12 1001 62 10000 10.8 230 23:44 22.03.2021
1144 Clouds 13 1001 62 10000 8.23 230 22:56 22.03.2021
1145 Clouds 13 1001 62 10000 8.23 230 22:38 22.03.2021
1146 Clouds 13 1001 62 10000 8.23 230 22:20 22.03.2021
1147 Clouds 14 1000 62 10000 7.2 230 21:42 22.03.2021
1148 Clouds 14 1000 62 10000 7.2 230 21:23 22.03.2021
1149 Clouds 14 999 62 10000 7.2 230 20:42 22.03.2021
1150 Clouds 14 999 62 10000 7.2 230 20:22 22.03.2021
1151 Clouds 15 999 58 10000 3.09 140 19:55 22.03.2021
1152 Clouds 15 999 58 10000 3.09 140 19:37 22.03.2021
1153 Clouds 15 999 58 10000 3.09 140 19:19 22.03.2021
1154 Clouds 15 999 63 10000 5.14 110 18:40 22.03.2021
1155 Clouds 15 999 63 10000 5.14 110 18:21 22.03.2021
1156 Clouds 14 999 62 10000 1.54 90 17:44 22.03.2021
1157 Clouds 14 999 62 10000 1.54 90 17:21 22.03.2021
1158 Clouds 13 999 67 10000 1.54 160 16:45 22.03.2021
1159 Clouds 13 999 67 10000 1.54 160 16:20 22.03.2021
1160 Clouds 13 1000 62 10000 5.66 140 15:38 22.03.2021
1161 Clouds 13 1000 62 10000 5.66 140 15:19 22.03.2021
1162 Clouds 12 1000 66 10000 5.66 340 14:53 22.03.2021
1163 Clouds 12 1000 66 10000 5.66 340 14:34 22.03.2021
1164 Clouds 13 1000 62 10000 6.17 340 13:48 22.03.2021
1165 Clouds 13 1000 62 10000 6.17 340 13:27 22.03.2021
1166 Clouds 13 1001 58 10000 5.66 340 12:55 22.03.2021
1167 Clouds 13 1001 58 10000 5.66 340 12:26 22.03.2021
1168 Clouds 13 1002 58 10000 7.2 340 11:49 22.03.2021
1169 Clouds 13 1002 58 10000 7.2 340 11:29 22.03.2021
1170 Clouds 7 1002 81 10000 8.23 320 10:46 22.03.2021
1171 Clouds 7 1002 81 10000 8.23 320 10:25 22.03.2021
1172 Clouds 7 1002 81 10000 4.63 270 09:49 22.03.2021
1173 Clouds 7 1002 81 10000 4.63 270 09:30 22.03.2021
1174 Clouds 7 1003 87 10000 3.6 230 08:46 22.03.2021
1175 Clouds 7 1003 87 10000 3.6 230 08:27 22.03.2021
1176 Clouds 7 1004 87 10000 3.42 357 07:50 22.03.2021
1177 Clouds 7 1004 87 10000 3.42 357 07:30 22.03.2021
1178 Drizzle 8 1005 93 10000 2.06 140 06:49 22.03.2021
1179 Clouds 10 1008 71 10000 3.6 70 02:47 22.03.2021
1180 Clouds 11 1009 62 10000 6.17 250 00:44 22.03.2021
1181 Clouds 11 1008 66 10000 6.69 230 23:55 21.03.2021
1182 Clouds 11 1008 66 10000 6.69 230 23:20 21.03.2021
1183 Clouds 12 1008 62 10000 8.23 230 22:59 21.03.2021
1184 Clouds 12 1008 62 10000 8.23 230 22:38 21.03.2021
1185 Clouds 13 1009 58 10000 8.75 230 21:43 21.03.2021
1186 Clouds 13 1009 58 10000 8.75 230 21:24 21.03.2021
1187 Clouds 13 1009 58 10000 8.75 230 21:24 21.03.2021
1188 Clouds 13 1009 58 10000 8.23 230 20:55 21.03.2021
1189 Clouds 13 1009 58 10000 8.23 230 20:36 21.03.2021
1190 Clouds 13 1009 58 10000 8.23 230 20:18 21.03.2021
1191 Clouds 13 1009 58 10000 9.77 230 19:39 21.03.2021
1192 Clouds 13 1009 58 10000 9.77 230 19:19 21.03.2021
1193 Clouds 11 1009 71 10000 9.26 230 18:40 21.03.2021
1194 Clouds 11 1009 71 10000 9.26 230 18:18 21.03.2021
1195 Clouds 11 1009 71 10000 8.75 230 17:41 21.03.2021
1196 Clouds 11 1009 71 10000 8.75 230 17:18 21.03.2021
1197 Clouds 11 1009 71 10000 11.83 230 16:49 21.03.2021
1198 Clouds 11 1009 71 10000 11.83 230 16:23 21.03.2021
1199 Clouds 11 1009 71 10000 12.86 230 15:42 21.03.2021
1200 Clouds 11 1009 71 10000 12.86 230 15:21 21.03.2021
1201 Clouds 10 1008 76 10000 11.83 230 14:47 21.03.2021
1202 Clouds 10 1008 76 10000 11.83 230 14:27 21.03.2021
1203 Clouds 9 1010 82 10000 0.9 344 13:57 21.03.2021
1204 Clouds 9 1010 82 10000 0.9 344 13:38 21.03.2021
1205 Clouds 7 1010 78 10000 0.99 310 12:43 21.03.2021
1206 Clouds 9 1007 76 10000 10.29 230 12:25 21.03.2021
1207 Clouds 9 1007 76 10000 10.29 230 11:41 21.03.2021
1208 Clouds 9 1007 76 10000 10.29 230 11:21 21.03.2021
1209 Clouds 9 1006 76 10000 13.89 230 10:45 21.03.2021
1210 Clouds 9 1006 76 10000 13.89 230 10:26 21.03.2021
1211 Clouds 9 1005 76 10000 13.38 230 09:49 21.03.2021
1212 Clouds 9 1005 76 10000 13.38 230 09:30 21.03.2021
1213 Clouds 9 1004 76 10000 14.4 230 08:56 21.03.2021
1214 Clouds 9 1004 76 10000 14.4 230 08:31 21.03.2021
1215 Clouds 9 1004 76 10000 13.89 230 07:51 21.03.2021
1216 Clouds 9 1004 76 10000 13.89 230 07:28 21.03.2021
1217 Clouds 9 1004 76 10000 13.89 230 06:21 21.03.2021
1218 Clouds 9 1003 71 10000 13.89 230 03:41 21.03.2021
1219 Clouds 8 1001 76 10000 14.92 230 00:57 21.03.2021
1220 Clouds 8 1001 76 10000 14.92 230 00:37 21.03.2021
1221 Clouds 8 1001 76 10000 14.92 230 00:19 21.03.2021
1222 Clouds 9 1000 71 10000 15.43 230 23:42 20.03.2021
1223 Clouds 9 1000 71 10000 15.43 230 23:19 20.03.2021
1224 Clouds 10 999 62 10000 15.43 230 22:24 20.03.2021
1225 Clouds 10 999 66 10000 15.43 230 21:49 20.03.2021
1226 Clouds 10 999 66 10000 15.43 230 21:27 20.03.2021
1227 Clouds 10 999 62 10000 15.43 230 20:50 20.03.2021
1228 Clouds 10 999 62 10000 15.43 230 20:25 20.03.2021
1229 Clouds 10 999 62 10000 15.43 230 20:25 20.03.2021
1230 Clouds 9 999 57 10000 11.83 230 19:56 20.03.2021
1231 Clouds 9 999 57 10000 11.83 230 19:38 20.03.2021
1232 Clouds 9 999 57 10000 11.83 230 19:20 20.03.2021
1233 Clouds 8 1000 66 10000 17.49 230 18:44 20.03.2021
1234 Clouds 8 1000 66 10000 17.49 230 18:21 20.03.2021
1235 Clouds 8 1000 66 10000 14.92 230 17:42 20.03.2021
1236 Clouds 8 1000 66 10000 14.92 230 17:22 20.03.2021
1237 Clouds 7 999 70 10000 11.83 230 16:43 20.03.2021
1238 Clouds 7 999 70 10000 11.83 230 16:19 20.03.2021
1239 Drizzle 5 999 81 10000 15.95 230 15:44 20.03.2021
1240 Drizzle 5 999 81 10000 15.95 230 15:25 20.03.2021
1241 Drizzle 4 998 87 10000 9.77 230 14:40 20.03.2021
1242 Drizzle 4 998 87 10000 9.77 230 14:19 20.03.2021
1243 Drizzle 3 999 93 9000 7.72 250 13:31 20.03.2021
1244 Snow 3 997 87 5000 8.75 250 12:41 20.03.2021
1245 Snow 3 997 87 5000 8.75 250 12:23 20.03.2021
1246 Snow 3 997 87 5000 8.75 250 12:23 20.03.2021
1247 Drizzle 2 996 93 9000 9.26 250 11:43 20.03.2021
1248 Snow 2 996 93 9000 9.26 250 11:22 20.03.2021
1249 Snow 3 995 87 10000 6.17 230 10:46 20.03.2021
1250 Drizzle 3 995 87 10000 6.17 230 10:24 20.03.2021
1251 Drizzle 4 993 87 10000 10.29 230 09:48 20.03.2021
1252 Drizzle 4 993 87 10000 10.29 230 09:23 20.03.2021
1253 Rain 4 991 87 10000 9.26 230 08:55 20.03.2021
1254 Rain 4 990 87 10000 7.72 230 08:27 20.03.2021
1255 Snow 4 990 87 10000 7.72 230 07:49 20.03.2021
1256 Snow 4 990 87 10000 7.72 230 07:49 20.03.2021
1257 Snow 4 990 87 10000 7.72 230 07:29 20.03.2021
1258 Rain 4 988 93 10000 9.26 250 06:41 20.03.2021
1259 Snow 4 986 93 10000 10.29 230 05:29 20.03.2021
1260 Snow 5 981 75 8000 10.8 230 03:45 20.03.2021
1261 Snow 6 978 70 10000 15.95 230 02:40 20.03.2021
1262 Rain 10 975 57 6000 11.32 230 23:48 19.03.2021
1263 Rain 10 975 57 6000 11.32 230 23:48 19.03.2021
1264 Clouds 10 975 57 10000 2.57 250 23:21 19.03.2021
1265 Clouds 10 976 66 10000 4.63 230 22:45 19.03.2021
1266 Clouds 10 976 66 10000 4.63 230 22:25 19.03.2021
1267 Drizzle 10 976 62 10000 11.83 230 21:51 19.03.2021
1268 Drizzle 10 976 62 10000 11.83 230 21:21 19.03.2021
1269 Clouds 11 977 54 10000 9.26 230 20:46 19.03.2021
1270 Clouds 11 977 54 10000 9.26 230 20:27 19.03.2021
1271 Clouds 11 977 54 10000 9.26 230 20:27 19.03.2021
1272 Clouds 12 977 47 10000 5.14 230 19:52 19.03.2021
1273 Clouds 12 977 47 10000 5.14 230 19:25 19.03.2021
1274 Clouds 11 978 62 10000 5.14 230 18:58 19.03.2021
1275 Clouds 11 978 62 10000 5.14 230 18:36 19.03.2021
1276 Clouds 11 978 62 10000 5.14 230 18:18 19.03.2021
1277 Clouds 11 979 62 10000 5.66 230 17:48 19.03.2021
1278 Clouds 11 979 62 10000 5.66 230 17:23 19.03.2021
1279 Clouds 11 981 58 10000 2.57 230 16:44 19.03.2021
1280 Clouds 11 981 58 10000 2.57 230 16:26 19.03.2021
1281 Clouds 12 982 58 10000 1.03 90 15:34 19.03.2021
1282 Clouds 8 983 76 10000 2.06 320 14:56 19.03.2021
1283 Clouds 8 983 76 10000 2.06 320 14:36 19.03.2021
1284 Clouds 8 984 66 10000 2.57 270 13:59 19.03.2021
1285 Clouds 8 984 66 10000 2.57 270 13:24 19.03.2021
1286 Clouds 7 985 70 10000 2.57 270 12:48 19.03.2021
1287 Clouds 7 985 70 10000 2.57 270 12:30 19.03.2021
1288 Clouds 8 986 66 10000 2.57 320 11:39 19.03.2021
1289 Clouds 7 986 76 10000 2.06 290 10:53 19.03.2021
1290 Clouds 7 986 76 10000 2.06 290 10:27 19.03.2021
1291 Clouds 7 987 61 10000 3.09 320 09:48 19.03.2021
1292 Clouds 7 987 61 10000 3.09 320 09:29 19.03.2021
1293 Clouds 7 988 70 10000 3.09 320 08:54 19.03.2021
1294 Clouds 7 988 70 10000 3.09 320 08:32 19.03.2021
1295 Clouds 7 989 70 10000 3.09 320 07:52 19.03.2021
1296 Clouds 7 989 70 10000 3.09 320 07:34 19.03.2021
1297 Clouds 8 990 66 10000 7.2 250 06:36 19.03.2021
1298 Clouds 8 993 71 10000 3.6 270 02:45 19.03.2021
1299 Clouds 8 994 71 10000 5.14 250 00:26 19.03.2021
1300 Clouds 9 995 66 10000 8.23 230 23:30 18.03.2021
1301 Clouds 8 995 71 10000 10.29 230 22:58 18.03.2021
1302 Clouds 8 995 71 10000 10.29 230 22:38 18.03.2021
1303 Clouds 8 995 71 10000 10.29 230 22:18 18.03.2021
1304 Clouds 9 995 66 10000 10.29 230 21:39 18.03.2021
1305 Clouds 9 995 66 10000 10.29 230 21:39 18.03.2021
1306 Clouds 9 996 71 10000 10.29 230 20:44 18.03.2021
1307 Clouds 9 996 71 10000 10.29 230 20:25 18.03.2021
1308 Clouds 9 996 66 10000 10.29 230 19:45 18.03.2021
1309 Clouds 9 996 66 10000 10.29 230 19:25 18.03.2021
1310 Clouds 9 997 71 10000 9.77 230 18:57 18.03.2021
1311 Clouds 9 997 71 10000 9.77 230 18:33 18.03.2021
1312 Clouds 8 997 81 10000 10.29 230 17:50 18.03.2021
1313 Clouds 8 997 81 10000 10.29 230 17:25 18.03.2021
1314 Drizzle 8 998 81 10000 8.75 230 16:47 18.03.2021
1315 Drizzle 8 998 81 10000 8.75 230 16:29 18.03.2021
1316 Drizzle 7 997 87 10000 10.8 230 15:46 18.03.2021
1317 Rain 7 997 87 10000 10.8 230 15:24 18.03.2021
1318 Rain 8 996 81 10000 11.83 230 14:55 18.03.2021
1319 Rain 8 996 81 10000 11.83 230 14:32 18.03.2021
1320 Drizzle 9 994 76 10000 13.38 230 13:53 18.03.2021
1321 Rain 9 994 76 10000 13.38 230 13:26 18.03.2021
1322 Rain 10 992 66 10000 14.92 230 12:44 18.03.2021
1323 Rain 10 992 66 10000 14.92 230 12:44 18.03.2021
1324 Rain 10 992 66 10000 14.92 230 12:25 18.03.2021
1325 Rain 10 991 66 10000 16.98 230 11:53 18.03.2021
1326 Rain 10 991 66 10000 16.98 230 11:33 18.03.2021
1327 Clouds 8 992 87 10000 2.57 180 10:49 18.03.2021
1328 Clouds 8 992 87 10000 2.57 180 10:27 18.03.2021
1329 Clouds 8 992 81 10000 2.06 180 09:56 18.03.2021
1330 Clouds 8 992 81 10000 2.06 180 09:29 18.03.2021
1331 Clouds 10 992 71 10000 3.47 324 08:52 18.03.2021
1332 Clouds 10 992 71 10000 3.47 324 08:32 18.03.2021
1333 Clouds 10 992 71 10000 3.47 324 08:32 18.03.2021
1334 Clouds 11 994 66 10000 2.06 340 07:54 18.03.2021
1335 Clouds 11 994 66 10000 2.06 340 07:25 18.03.2021
1336 Clouds 12 996 66 10000 2.57 360 06:30 18.03.2021
1337 Clouds 12 997 66 10000 3.09 340 05:55 18.03.2021
1338 Clouds 11 1001 71 10000 3.09 20 02:35 18.03.2021
1339 Clouds 11 1001 71 10000 3.09 20 02:35 18.03.2021
1340 Clouds 13 1004 62 10000 3.35 318 00:19 18.03.2021
1341 Clear 13 1005 62 10000 5.66 230 22:58 17.03.2021
1342 Clear 13 1005 62 10000 5.66 230 22:36 17.03.2021
1343 Clear 13 1005 62 10000 5.66 230 22:18 17.03.2021
1344 Clear 14 1006 58 10000 8.23 230 21:45 17.03.2021
1345 Clear 14 1006 58 10000 8.23 230 21:27 17.03.2021
1346 Clear 13 1006 58 10000 3.6 250 20:45 17.03.2021
1347 Clear 13 1006 58 10000 3.6 250 20:25 17.03.2021
1348 Clear 12 1007 62 10000 3.09 320 19:51 17.03.2021
1349 Clear 12 1007 62 10000 3.09 320 19:25 17.03.2021
1350 Clear 11 1008 66 10000 3.6 290 18:57 17.03.2021
1351 Clear 11 1008 66 10000 3.6 290 18:39 17.03.2021
1352 Clear 11 1008 62 10000 8.23 230 17:57 17.03.2021
1353 Clear 11 1008 62 10000 8.23 230 17:27 17.03.2021
1354 Clear 10 1010 71 10000 7.2 230 16:55 17.03.2021
1355 Clear 10 1010 71 10000 7.2 230 16:37 17.03.2021
1356 Clear 10 1010 71 10000 7.2 230 16:18 17.03.2021
1357 Clear 10 1011 66 10000 6.69 230 15:37 17.03.2021
1358 Clear 9 1011 71 10000 3.6 270 14:46 17.03.2021
1359 Clear 9 1011 71 10000 3.6 270 14:27 17.03.2021
1360 Clear 9 1012 71 10000 3.6 230 13:56 17.03.2021
1361 Clear 9 1012 71 10000 3.6 230 13:37 17.03.2021
1362 Clear 9 1012 71 10000 2.06 320 12:59 17.03.2021
1363 Clear 9 1012 71 10000 2.06 320 12:34 17.03.2021
1364 Clear 8 1013 71 10000 3.09 230 11:53 17.03.2021
1365 Clear 8 1013 71 10000 3.09 230 11:27 17.03.2021
1366 Clouds 6 1013 81 10000 5.66 340 10:59 17.03.2021
1367 Clouds 6 1013 81 10000 5.66 340 10:40 17.03.2021
1368 Clouds 8 1014 71 10000 5.14 340 09:59 17.03.2021
1369 Clouds 8 1014 71 10000 5.14 340 09:41 17.03.2021
1370 Clouds 8 1015 81 10000 5.14 320 09:19 17.03.2021
1371 Clouds 8 1015 81 10000 5.14 320 09:19 17.03.2021
1372 Clouds 8 1015 81 10000 5.14 320 08:43 17.03.2021
1373 Clouds 8 1015 81 10000 5.14 320 08:24 17.03.2021
1374 Clouds 7 1015 81 10000 2.57 320 07:37 17.03.2021
1375 Clouds 9 1015 71 10000 11.32 230 06:47 17.03.2021
1376 Clouds 8 1015 71 10000 12.35 250 04:28 17.03.2021
1377 Clouds 8 1015 76 10000 12.35 250 03:31 17.03.2021
1378 Clouds 7 1015 65 10000 10.29 250 00:44 17.03.2021
1379 Clouds 7 1015 65 10000 10.29 250 00:24 17.03.2021
1380 Clouds 8 1014 66 10000 12.35 230 23:25 16.03.2021
1381 Clouds 8 1014 66 10000 13.38 230 22:44 16.03.2021
1382 Clouds 8 1014 66 10000 13.38 230 22:25 16.03.2021
1383 Clouds 7 1014 70 10000 14.4 230 21:43 16.03.2021
1384 Clouds 7 1014 70 10000 14.4 230 21:25 16.03.2021
1385 Clouds 7 1014 70 10000 13.38 230 20:56 16.03.2021
1386 Clouds 7 1014 70 10000 13.38 230 20:19 16.03.2021
1387 Clouds 6 1014 70 10000 11.32 230 19:48 16.03.2021
1388 Clouds 6 1014 70 10000 11.32 230 19:27 16.03.2021
1389 Clouds 5 1013 81 10000 11.32 230 18:53 16.03.2021
1390 Clouds 5 1013 81 10000 11.32 230 18:35 16.03.2021
1391 Drizzle 4 1014 87 10000 11.32 230 17:52 16.03.2021
1392 Drizzle 4 1014 87 10000 11.32 230 17:33 16.03.2021
1393 Drizzle 4 1014 81 10000 9.77 230 16:54 16.03.2021
1394 Drizzle 4 1014 81 10000 9.77 230 16:31 16.03.2021
1395 Clouds 3 1013 93 9000 13.89 230 15:59 16.03.2021
1396 Clouds 3 1013 93 9000 13.89 230 15:39 16.03.2021
1397 Clouds 3 1013 93 9000 13.89 230 15:19 16.03.2021
1398 Clouds 2 1013 93 10000 9.26 230 14:56 16.03.2021
1399 Clouds 2 1013 93 10000 9.26 230 14:37 16.03.2021
1400 Snow 2 1013 93 10000 9.26 230 14:18 16.03.2021
1401 Snow 2 1012 93 8000 7.72 230 13:41 16.03.2021
1402 Snow 2 1012 93 8000 7.72 230 13:19 16.03.2021
1403 Snow 1 1012 93 8000 8.75 250 12:38 16.03.2021
1404 Snow 1 1012 93 8000 8.75 250 12:18 16.03.2021
1405 Snow 1 1010 93 5000 12.86 230 11:35 16.03.2021
1406 Snow 1 1010 86 6000 8.23 230 10:50 16.03.2021
1407 Snow 1 1010 86 6000 8.23 230 10:21 16.03.2021
1408 Snow 1 1010 86 6000 8.23 230 10:21 16.03.2021
1409 Snow 1 1010 86 6000 8.23 230 10:21 16.03.2021
1410 Snow 2 1008 80 10000 6.69 230 09:41 16.03.2021
1411 Snow 2 1008 80 10000 6.69 230 09:21 16.03.2021
1412 Snow 2 1008 80 10000 7.72 230 08:56 16.03.2021
1413 Snow 2 1008 80 10000 7.72 230 08:37 16.03.2021
1414 Snow 2 1007 80 10000 6.69 230 07:57 16.03.2021
1415 Snow 2 1007 80 10000 6.69 230 07:29 16.03.2021
1416 Snow 2 1007 69 10000 2.57 290 06:38 16.03.2021
1417 Snow 2 1006 80 6000 9.26 250 05:37 16.03.2021
1418 Clouds 2 1006 93 10000 3.6 270 04:28 16.03.2021
1419 Clouds 3 1004 81 10000 9.77 230 02:27 16.03.2021
1420 Drizzle 4 1003 70 8000 9.77 230 01:23 16.03.2021
1421 Clouds 6 1001 45 10000 8.23 230 23:54 15.03.2021
1422 Clouds 6 1001 45 10000 8.23 230 23:27 15.03.2021
1423 Clouds 6 1000 61 10000 12.86 230 22:49 15.03.2021
1424 Clouds 6 1000 61 10000 12.86 230 22:29 15.03.2021
1425 Clouds 8 998 61 10000 18.01 230 21:52 15.03.2021
1426 Clouds 8 998 61 10000 18.01 230 21:32 15.03.2021
1427 Clouds 8 996 61 10000 20.58 230 20:56 15.03.2021
1428 Clouds 8 996 61 10000 20.58 230 20:37 15.03.2021
1429 Clouds 8 996 61 10000 20.58 230 20:19 15.03.2021
1430 Clouds 8 995 66 10000 19.03 230 19:48 15.03.2021
1431 Clouds 8 995 66 10000 19.03 230 19:30 15.03.2021
1432 Clouds 7 995 76 10000 16.98 230 18:48 15.03.2021
1433 Rain 7 995 76 10000 16.98 230 18:23 15.03.2021
1434 Rain 7 994 81 10000 12.35 230 17:55 15.03.2021
1435 Rain 7 994 81 10000 12.35 230 17:29 15.03.2021
1436 Rain 7 993 81 10000 16.98 230 16:50 15.03.2021
1437 Rain 7 993 81 10000 16.98 230 16:31 15.03.2021
1438 Rain 8 991 81 6000 16.46 230 15:45 15.03.2021
1439 Rain 8 991 81 6000 16.46 230 15:25 15.03.2021
1440 Rain 9 990 81 10000 17.49 230 14:43 15.03.2021
1441 Clouds 10 990 81 10000 10.29 200 14:22 15.03.2021
1442 Clouds 9 990 81 10000 5.66 230 13:46 15.03.2021
1443 Clouds 9 990 81 10000 5.66 230 13:46 15.03.2021
1444 Clouds 9 990 81 10000 5.66 230 13:24 15.03.2021
1445 Rain 11 990 71 10000 1.03 320 12:47 15.03.2021
1446 Clouds 11 990 71 10000 1.03 320 12:19 15.03.2021
1447 Clouds 11 990 71 10000 3.6 20 11:48 15.03.2021
1448 Clouds 11 990 71 10000 3.6 20 11:30 15.03.2021
1449 Clouds 10 991 76 10000 3.6 320 10:49 15.03.2021
1450 Clouds 10 991 76 10000 3.6 320 10:30 15.03.2021
1451 Drizzle 10 992 76 10000 2.06 230 09:52 15.03.2021
1452 Rain 10 992 76 10000 2.06 230 09:33 15.03.2021
1453 Rain 11 994 66 10000 3.09 320 08:52 15.03.2021
1454 Rain 11 994 66 10000 3.09 320 08:30 15.03.2021
1455 Rain 11 994 66 10000 3.09 320 08:30 15.03.2021
1456 Rain 10 995 71 10000 0.51 230 07:53 15.03.2021
1457 Rain 10 995 71 10000 0.51 230 07:32 15.03.2021
1458 Rain 9 997 76 10000 1.54 90 06:40 15.03.2021
1459 Rain 9 998 71 10000 1.54 230 05:32 15.03.2021
1460 Clouds 10 1004 62 10000 4.12 320 01:31 15.03.2021
1461 Clouds 12 1006 50 10000 5.66 360 23:56 14.03.2021
1462 Clouds 12 1006 50 10000 5.66 360 23:20 14.03.2021
1463 Clouds 12 1007 50 10000 7.72 340 22:46 14.03.2021
1464 Clouds 12 1007 50 10000 7.72 340 22:23 14.03.2021
1465 Clouds 12 1008 50 10000 8.23 360 21:45 14.03.2021
1466 Clouds 12 1008 50 10000 8.23 360 21:19 14.03.2021
1467 Clouds 12 1009 50 10000 4.63 360 20:43 14.03.2021
1468 Clouds 12 1009 50 10000 4.63 360 20:25 14.03.2021
1469 Clear 10 1010 57 10000 2.57 140 19:43 14.03.2021
1470 Clear 10 1010 57 10000 2.57 140 19:23 14.03.2021
1471 Clear 9 1012 53 10000 2.57 140 18:48 14.03.2021
1472 Clear 9 1012 53 10000 2.57 140 18:27 14.03.2021
1473 Clear 9 1014 53 10000 2.06 140 17:41 14.03.2021
1474 Clear 9 1014 53 10000 2.06 140 17:22 14.03.2021
1475 Clear 8 1015 53 10000 2.55 357 16:46 14.03.2021
1476 Clear 8 1015 53 10000 2.55 357 16:46 14.03.2021
1477 Clear 8 1015 53 10000 2.51 1 16:27 14.03.2021
1478 Clear 7 1015 70 10000 2.51 1 15:53 14.03.2021
1479 Clear 7 1015 70 10000 2.51 1 15:34 14.03.2021
1480 Clear 6 1017 81 10000 2.24 4 14:41 14.03.2021
1481 Clear 6 1017 81 10000 1.59 9 14:21 14.03.2021
1482 Clear 5 1017 75 10000 1.59 9 13:49 14.03.2021
1483 Clear 5 1017 75 10000 1.37 8 13:28 14.03.2021
1484 Clear 4 1018 75 10000 2.57 320 12:47 14.03.2021
1485 Clear 4 1018 75 10000 2.57 320 12:28 14.03.2021
1486 Clear 3 1019 81 10000 3.09 360 11:54 14.03.2021
1487 Clear 3 1019 81 10000 3.09 360 11:35 14.03.2021
1488 Clouds 3 1019 87 10000 4.12 340 10:56 14.03.2021
1489 Clouds 3 1019 87 10000 4.12 340 10:37 14.03.2021
1490 Clouds 3 1019 87 10000 4.12 340 10:18 14.03.2021
1491 Clouds 3 1019 93 10000 5.14 320 09:43 14.03.2021
1492 Clouds 3 1019 93 10000 5.14 320 09:22 14.03.2021
1493 Clouds 4 1020 81 10000 3.6 320 08:48 14.03.2021
1494 Clouds 4 1020 81 10000 3.6 320 08:29 14.03.2021
1495 Clouds 6 1020 61 10000 4.12 320 07:46 14.03.2021
1496 Clouds 6 1020 65 10000 5.14 250 06:51 14.03.2021
1497 Clouds 6 1020 65 10000 5.14 250 05:32 14.03.2021
1498 Clouds 6 1017 65 10000 13.38 230 00:52 14.03.2021
1499 Clouds 6 1017 65 10000 13.38 230 00:19 14.03.2021
1500 Clouds 7 1017 61 10000 15.43 230 23:52 13.03.2021
1501 Clouds 7 1017 61 10000 15.43 230 23:30 13.03.2021
1502 Clouds 8 1016 57 10000 14.92 230 22:54 13.03.2021
1503 Clouds 8 1016 57 10000 14.92 230 22:32 13.03.2021
1504 Clouds 7 1014 70 10000 17.49 230 21:48 13.03.2021
1505 Clouds 7 1014 70 10000 17.49 230 21:26 13.03.2021
1506 Clouds 7 1014 70 10000 13.89 230 20:53 13.03.2021
1507 Clouds 7 1014 70 10000 13.89 230 20:31 13.03.2021
1508 Clouds 7 1013 70 10000 16.98 230 19:54 13.03.2021
1509 Clouds 7 1013 70 10000 16.98 230 19:31 13.03.2021
1510 Clouds 8 1013 57 10000 14.92 230 18:58 13.03.2021
1511 Clouds 8 1013 57 10000 14.92 230 18:39 13.03.2021
1512 Clouds 8 1013 57 10000 14.92 230 18:18 13.03.2021
1513 Clouds 8 1011 53 10000 15.95 230 17:42 13.03.2021
1514 Clouds 8 1011 53 10000 15.95 230 17:24 13.03.2021
1515 Clouds 7 1010 57 10000 15.95 230 16:44 13.03.2021
1516 Clouds 7 1010 57 10000 15.95 230 16:24 13.03.2021
1517 Clouds 7 1010 61 10000 15.95 230 15:39 13.03.2021
1518 Clouds 7 1008 49 10000 14.92 230 14:51 13.03.2021
1519 Clouds 7 1008 49 10000 14.92 230 14:29 13.03.2021
1520 Clouds 6 1009 65 10000 15.95 230 13:51 13.03.2021
1521 Snow 6 1009 65 10000 15.95 230 13:24 13.03.2021
1522 Snow 4 1007 87 6000 16.98 230 12:45 13.03.2021
1523 Snow 4 1007 87 6000 16.98 230 12:27 13.03.2021
1524 Snow 5 1006 70 10000 16.46 230 11:50 13.03.2021
1525 Snow 5 1006 70 10000 16.46 230 11:29 13.03.2021
1526 Snow 3 1004 93 10000 19.03 230 10:50 13.03.2021
1527 Snow 3 1004 93 10000 19.03 230 10:29 13.03.2021
1528 Snow 3 1004 87 10000 18.01 230 09:47 13.03.2021
1529 Snow 3 1003 93 10000 13.89 230 09:19 13.03.2021
1530 Snow 3 1003 93 10000 13.89 230 08:43 13.03.2021
1531 Drizzle 3 1002 93 10000 15.43 230 08:19 13.03.2021
1532 Clouds 3 1003 93 4048 4.2 249 07:54 13.03.2021
1533 Drizzle 5 998 93 10000 19.55 230 06:51 13.03.2021
1534 Rain 10 988 76 10000 15.95 230 02:55 13.03.2021
1535 Rain 11 988 71 10000 7.2 230 00:57 13.03.2021
1536 Rain 11 988 71 10000 13.89 230 23:59 12.03.2021
1537 Rain 11 987 71 10000 10.8 230 23:32 12.03.2021
1538 Rain 12 987 66 10000 13.38 230 22:43 12.03.2021
1539 Rain 12 987 66 10000 13.38 230 22:23 12.03.2021
1540 Rain 12 986 66 10000 12.35 230 21:45 12.03.2021
1541 Rain 12 986 66 10000 12.35 230 21:27 12.03.2021
1542 Rain 12 986 66 10000 9.77 230 20:56 12.03.2021
1543 Rain 12 986 66 10000 9.77 230 20:36 12.03.2021
1544 Rain 13 987 67 10000 10.8 200 19:59 12.03.2021
1545 Rain 13 987 67 10000 10.8 200 19:40 12.03.2021
1546 Clouds 13 987 67 10000 10.8 200 19:22 12.03.2021
1547 Clouds 12 987 66 10000 10.29 230 18:36 12.03.2021
1548 Rain 13 987 58 10000 10.29 230 17:58 12.03.2021
1549 Rain 13 987 58 10000 10.29 230 17:38 12.03.2021
1550 Rain 13 987 58 10000 10.29 230 17:18 12.03.2021
1551 Rain 11 987 76 10000 8.75 230 16:40 12.03.2021
1552 Rain 12 989 66 10000 5.14 230 15:52 12.03.2021
1553 Rain 12 989 66 10000 5.14 230 15:32 12.03.2021
1554 Rain 11 989 66 10000 2.61 312 14:49 12.03.2021
1555 Rain 11 989 66 10000 2.95 328 14:21 12.03.2021
1556 Rain 10 989 76 10000 2.95 328 13:44 12.03.2021
1557 Rain 10 989 76 10000 3.16 335 13:24 12.03.2021
1558 Rain 9 989 76 10000 1.54 270 12:58 12.03.2021
1559 Rain 9 989 76 10000 1.54 270 12:38 12.03.2021
1560 Rain 9 989 76 10000 1.54 270 12:20 12.03.2021
1561 Rain 8 988 81 10000 3.09 360 11:50 12.03.2021
1562 Rain 8 988 81 10000 3.09 360 11:22 12.03.2021
1563 Rain 6 988 87 10000 6.17 340 10:53 12.03.2021
1564 Clouds 6 988 87 10000 6.17 340 10:25 12.03.2021
1565 Clouds 6 988 87 10000 6.17 340 09:54 12.03.2021
1566 Clouds 5 988 93 10000 6.17 340 09:25 12.03.2021
1567 Clouds 5 988 93 10000 5.14 320 08:45 12.03.2021
1568 Clouds 5 987 93 10000 5.14 340 07:58 12.03.2021
1569 Clouds 5 987 93 10000 5.14 340 07:33 12.03.2021
1570 Clouds 5 987 96 10000 1.49 276 06:53 12.03.2021
1571 Clouds 3 987 87 10000 5.14 360 06:28 12.03.2021
1572 Clouds 5 986 87 10000 4.63 340 02:41 12.03.2021
1573 Rain 6 987 87 10000 2.57 340 00:47 12.03.2021
1574 Clouds 6 987 81 10000 5.66 230 23:30 11.03.2021
1575 Drizzle 6 987 81 10000 10.8 230 22:50 11.03.2021
1576 Drizzle 6 987 81 10000 10.8 230 22:30 11.03.2021
1577 Drizzle 6 986 81 10000 12.86 200 21:54 11.03.2021
1578 Drizzle 6 986 81 10000 12.86 200 21:32 11.03.2021
1579 Rain 4 986 93 10000 13.38 230 20:55 11.03.2021
1580 Rain 4 986 93 10000 13.38 230 20:37 11.03.2021
1581 Drizzle 4 986 93 10000 13.38 230 20:19 11.03.2021
1582 Drizzle 4 985 93 10000 3.09 270 19:41 11.03.2021
1583 Drizzle 4 985 93 10000 3.09 270 19:22 11.03.2021
1584 Drizzle 4 983 75 10000 13.89 230 18:46 11.03.2021
1585 Drizzle 4 983 75 10000 13.89 230 18:28 11.03.2021
1586 Drizzle 3 982 93 3000 6.17 270 17:43 11.03.2021
1587 Snow 2 981 100 3000 8.75 250 16:47 11.03.2021
1588 Snow 2 981 100 3000 8.75 250 16:27 11.03.2021
1589 Snow 2 980 93 3000 11.32 230 15:48 11.03.2021
1590 Snow 2 980 93 8000 4.63 340 15:21 11.03.2021
1591 Snow 2 979 93 4000 4.63 250 14:46 11.03.2021
1592 Snow 2 979 93 4000 4.63 250 14:19 11.03.2021
1593 Snow 1 978 93 2000 7.2 270 13:46 11.03.2021
1594 Snow 1 978 93 2000 7.2 270 13:28 11.03.2021
1595 Snow 1 978 93 3000 7.72 250 12:57 11.03.2021
1596 Snow 1 977 93 8000 2.06 290 12:37 11.03.2021
1597 Snow 1 977 93 8000 2.06 290 12:19 11.03.2021
1598 Snow 2 976 87 4000 8.75 230 11:42 11.03.2021
1599 Snow 2 976 87 8000 2.57 160 11:20 11.03.2021
1600 Snow 4 975 93 10000 4.12 270 10:30 11.03.2021
1601 Snow 4 975 93 10000 4.63 270 09:57 11.03.2021
1602 Snow 5 974 81 10000 8.75 230 09:37 11.03.2021
1603 Snow 5 974 81 10000 8.75 230 09:18 11.03.2021
1604 Snow 5 972 81 10000 16.98 230 08:44 11.03.2021
1605 Drizzle 5 972 81 10000 16.98 230 08:18 11.03.2021
1606 Snow 5 969 75 10000 16.46 230 07:28 11.03.2021
1607 Snow 6 968 70 10000 9.26 230 06:49 11.03.2021
1608 Rain 6 968 70 10000 9.26 230 06:25 11.03.2021
1609 Clouds 7 973 49 10000 7.2 320 02:50 11.03.2021
1610 Clouds 8 975 53 10000 5.14 290 00:56 11.03.2021
1611 Clouds 8 975 57 10000 5.14 290 23:32 10.03.2021
1612 Clouds 8 975 57 10000 5.14 290 23:32 10.03.2021
1613 Clouds 8 975 61 10000 3.09 140 22:54 10.03.2021
1614 -273 0 0 0 0 0 22:31 10.03.2021
1615 Clouds 9 975 53 10000 10.29 230 21:47 10.03.2021
1616 Rain 9 975 53 10000 10.29 230 21:24 10.03.2021
1617 Rain 8 975 61 10000 12.86 230 20:46 10.03.2021
1618 Rain 8 975 61 10000 12.86 230 20:28 10.03.2021
1619 Rain 8 975 71 10000 10.8 230 19:53 10.03.2021
1620 Rain 8 975 71 10000 10.8 230 19:30 10.03.2021
1621 Rain 7 973 76 10000 15.95 230 18:47 10.03.2021
1622 Rain 7 973 76 10000 15.95 230 18:28 10.03.2021
1623 Rain 8 972 61 10000 14.4 230 17:57 10.03.2021
1624 Clouds 9 972 53 10000 13.38 230 17:39 10.03.2021
1625 Clouds 9 972 53 10000 13.38 230 17:19 10.03.2021
1626 Clouds 11 971 43 10000 12.35 230 16:45 10.03.2021
1627 Clouds 11 971 43 10000 12.35 230 16:25 10.03.2021
1628 Clouds 13 971 35 10000 5.14 320 15:48 10.03.2021
1629 Clouds 13 971 35 10000 5.14 320 15:25 10.03.2021
1630 Clouds 13 971 35 10000 5.14 320 15:25 10.03.2021
1631 Clouds 12 971 37 10000 5.66 230 14:57 10.03.2021
1632 Clouds 12 971 37 10000 5.66 230 14:21 10.03.2021
1633 Clouds 12 969 40 10000 4.63 230 13:53 10.03.2021
1634 Clouds 12 969 40 10000 4.63 230 13:31 10.03.2021
1635 Clouds 12 968 50 10000 5.66 270 12:47 10.03.2021
1636 Clouds 12 968 50 10000 5.66 270 12:24 10.03.2021
1637 Clear 11 968 54 10000 5.11 342 11:50 10.03.2021
1638 Clear 11 968 54 10000 6.08 343 11:22 10.03.2021
1639 Clouds 10 969 81 10000 3.09 360 10:50 10.03.2021
1640 Clouds 10 969 81 10000 3.09 360 10:31 10.03.2021
1641 Drizzle 11 970 76 10000 5.66 360 09:55 10.03.2021
1642 Drizzle 11 970 76 10000 5.66 360 09:37 10.03.2021
1643 Rain 11 970 76 10000 5.66 360 09:18 10.03.2021
1644 Rain 12 970 71 10000 6.17 360 08:42 10.03.2021
1645 Rain 12 970 71 10000 6.17 360 08:23 10.03.2021
1646 Rain 10 971 81 10000 6.17 90 07:42 10.03.2021
1647 Clouds 10 971 81 10000 6.17 90 07:21 10.03.2021
1648 Clouds 11 973 71 10000 3.6 90 06:49 10.03.2021
1649 Clouds 14 977 62 10000 1.54 230 02:43 10.03.2021
1650 Clouds 17 977 48 10000 6.17 290 00:27 10.03.2021
1651 Clouds 18 976 45 10000 5.66 290 23:27 09.03.2021
1652 Clouds 18 976 48 10000 3.09 360 22:50 09.03.2021
1653 Clouds 18 976 48 10000 3.09 360 22:31 09.03.2021
1654 Clouds 17 977 51 10000 2.06 50 21:58 09.03.2021
1655 Clouds 17 977 51 10000 2.06 50 21:38 09.03.2021
1656 Clouds 17 977 51 10000 2.06 50 21:19 09.03.2021
1657 Clouds 18 977 48 10000 3.09 340 20:45 09.03.2021
1658 Rain 18 977 48 10000 3.09 340 20:23 09.03.2021
1659 Rain 18 978 45 10000 6.17 340 19:57 09.03.2021
1660 Rain 18 978 45 10000 6.17 340 19:29 09.03.2021
1661 Rain 17 980 48 10000 4.63 340 18:54 09.03.2021
1662 Rain 17 980 48 10000 4.63 340 18:30 09.03.2021
1663 Rain 17 982 51 10000 9.26 360 17:58 09.03.2021
1664 Rain 17 982 51 10000 9.26 360 17:38 09.03.2021
1665 Rain 17 982 51 10000 9.26 360 17:19 09.03.2021
1666 Rain 15 984 55 10000 6.17 20 16:40 09.03.2021
1667 Clouds 15 984 55 10000 6.17 20 16:20 09.03.2021
1668 Clouds 15 984 55 10000 6.17 20 16:20 09.03.2021
1669 Clouds 14 986 62 10000 6.17 20 15:47 09.03.2021
1670 Rain 14 986 62 10000 6.17 20 15:24 09.03.2021
1671 Rain 15 988 55 10000 6.17 360 14:42 09.03.2021
1672 Clouds 15 988 55 10000 6.17 360 14:22 09.03.2021
1673 Clouds 14 989 58 10000 5.14 340 13:39 09.03.2021
1674 Clouds 14 989 58 10000 5.14 340 13:21 09.03.2021
1675 Clouds 13 990 67 10000 5.66 360 12:44 09.03.2021
1676 Clouds 13 990 67 10000 5.66 360 12:25 09.03.2021
1677 Clouds 15 991 55 10000 4.12 290 11:42 09.03.2021
1678 Clouds 15 991 55 10000 4.12 290 11:21 09.03.2021
1679 Clouds 10 992 71 10000 3.09 360 10:57 09.03.2021
1680 Clouds 10 992 71 10000 3.09 360 10:39 09.03.2021
1681 Clouds 10 992 71 10000 3.09 360 10:20 09.03.2021
1682 Clouds 10 992 71 10000 3.09 360 10:20 09.03.2021
1683 Clouds 10 992 71 10000 3.09 360 10:20 09.03.2021
1684 Clouds 10 992 53 10000 6.69 360 09:44 09.03.2021
1685 Clouds 10 992 53 10000 6.69 360 09:26 09.03.2021
1686 Clouds 10 992 57 10000 5.14 320 08:48 09.03.2021
1687 Clouds 10 992 57 10000 5.14 320 08:29 09.03.2021
1688 Clouds 10 993 53 10000 6.69 320 07:40 09.03.2021
1689 Clouds 10 993 53 10000 6.69 320 07:21 09.03.2021
1690 Clouds 12 993 62 10000 5.14 290 06:38 09.03.2021
1691 Clouds 12 993 66 10000 6.69 290 05:48 09.03.2021
1692 Rain 15 993 47 10000 7.72 320 00:43 09.03.2021
1693 Rain 16 993 48 10000 7.2 230 23:45 08.03.2021
1694 Rain 16 993 48 10000 7.2 230 23:27 08.03.2021
1695 Rain 17 993 42 10000 10.29 320 22:58 08.03.2021
1696 Rain 17 993 42 10000 10.29 320 22:39 08.03.2021
1697 Rain 17 993 42 10000 10.29 320 22:20 08.03.2021
1698 Rain 17 993 45 10000 7.72 320 21:40 08.03.2021
1699 Clouds 17 993 45 10000 7.72 320 21:20 08.03.2021
1700 Clouds 17 993 42 10000 4.12 320 20:38 08.03.2021
1701 Clouds 17 993 42 10000 4.12 320 20:18 08.03.2021
1702 Clouds 14 993 51 10000 4.63 110 19:38 08.03.2021
1703 Clouds 14 993 51 10000 3.09 140 18:48 08.03.2021
1704 Clouds 14 993 51 10000 3.09 140 18:23 08.03.2021
1705 Clouds 13 994 50 10000 3.6 140 17:57 08.03.2021
1706 Clouds 13 994 50 10000 3.6 140 17:38 08.03.2021
1707 Clouds 13 994 50 10000 2.35 323 16:58 08.03.2021
1708 Clouds 13 994 50 10000 2.35 323 16:33 08.03.2021
1709 Clouds 11 994 58 10000 3.6 140 15:59 08.03.2021
1710 Clouds 11 994 58 10000 3.6 140 15:38 08.03.2021
1711 Clouds 11 994 58 10000 3.6 140 15:18 08.03.2021
1712 Clouds 10 994 62 10000 3.6 140 14:21 08.03.2021
1713 Clouds 10 993 53 10000 2.57 360 13:47 08.03.2021
1714 Rain 10 993 53 10000 2.57 360 13:23 08.03.2021
1715 Rain 8 993 49 10000 2.06 270 12:55 08.03.2021
1716 Rain 8 993 49 10000 2.06 270 12:29 08.03.2021
1717 Rain 8 993 53 10000 7.2 320 11:45 08.03.2021
1718 Rain 8 993 53 10000 7.2 320 11:20 08.03.2021
1719 Rain 7 994 53 10000 8.23 340 10:47 08.03.2021
1720 Rain 7 994 53 10000 8.23 340 10:28 08.03.2021
1721 Rain 6 994 56 10000 7.2 340 09:45 08.03.2021
1722 Clouds 6 994 56 10000 7.2 340 09:25 08.03.2021
1723 Clouds 5 995 70 10000 2.06 270 08:31 08.03.2021
1724 Clouds 4 996 81 10000 1.54 270 07:49 08.03.2021
1725 Clouds 4 996 81 10000 1.54 270 07:21 08.03.2021
1726 Clouds 5 998 81 10000 3.09 340 05:20 08.03.2021
1727 Clouds 6 996 61 10000 6.17 230 01:45 08.03.2021
1728 Snow 6 995 75 10000 11.32 230 00:41 08.03.2021
1729 Clouds 7 992 70 10000 12.86 230 23:53 07.03.2021
1730 Clouds 7 992 70 10000 12.86 230 23:20 07.03.2021
1731 Clouds 7 991 70 10000 11.83 230 22:45 07.03.2021
1732 Clouds 7 991 70 10000 11.83 230 22:26 07.03.2021
1733 Clouds 8 989 66 10000 13.38 230 21:49 07.03.2021
1734 Clouds 8 989 66 10000 13.38 230 21:31 07.03.2021
1735 Rain 7 988 70 10000 12.86 230 20:57 07.03.2021
1736 Rain 7 988 70 10000 12.86 230 20:37 07.03.2021
1737 Clouds 7 988 70 10000 12.86 230 20:18 07.03.2021
1738 Clouds 6 988 81 10000 6.17 230 19:39 07.03.2021
1739 Clouds 6 988 81 10000 6.17 230 19:21 07.03.2021
1740 Drizzle 5 986 87 10000 10.29 230 18:50 07.03.2021
1741 Snow 5 986 87 10000 10.29 230 18:20 07.03.2021
1742 Snow 5 985 87 8000 10.8 230 17:57 07.03.2021
1743 Snow 5 985 87 8000 10.8 230 17:37 07.03.2021
1744 Snow 5 985 87 8000 10.8 230 17:18 07.03.2021
1745 Snow 5 985 87 8000 10.8 230 17:18 07.03.2021
1746 Snow 5 984 93 9000 5.66 230 16:42 07.03.2021
1747 Rain 5 984 93 9000 5.66 230 16:20 07.03.2021
1748 Rain 5 984 93 8000 8.23 230 15:47 07.03.2021
1749 Rain 5 984 93 8000 8.23 230 15:29 07.03.2021
1750 Rain 6 984 87 9000 7.2 230 14:47 07.03.2021
1751 Drizzle 6 984 87 9000 7.2 230 14:28 07.03.2021
1752 Rain 8 983 76 10000 6.69 230 13:45 07.03.2021
1753 Rain 8 983 76 10000 6.69 230 13:26 07.03.2021
1754 Drizzle 9 983 57 10000 2.06 140 12:47 07.03.2021
1755 Rain 9 983 57 10000 4.12 90 12:29 07.03.2021
1756 Rain 9 984 53 10000 3.6 20 11:52 07.03.2021
1757 Rain 9 984 53 10000 3.6 20 11:23 07.03.2021
1758 Rain 8 985 61 10000 4.12 20 10:51 07.03.2021
1759 Rain 8 985 61 10000 4.12 20 10:33 07.03.2021
1760 Rain 9 984 53 10000 4.12 20 09:52 07.03.2021
1761 Clouds 9 984 53 10000 4.12 20 09:26 07.03.2021
1762 Drizzle 9 984 53 10000 8.23 320 08:48 07.03.2021
1763 Drizzle 9 984 53 10000 8.23 320 08:25 07.03.2021
1764 Clouds 9 984 46 10000 8.75 320 07:51 07.03.2021
1765 Clouds 10 987 43 10000 6.17 320 02:44 07.03.2021
1766 Clouds 10 987 43 10000 6.17 320 02:25 07.03.2021
1767 Clouds 11 986 46 10000 3.09 250 00:24 07.03.2021
1768 Clouds 11 985 54 10000 2.06 250 23:40 06.03.2021
1769 Clouds 11 985 54 10000 2.06 250 23:19 06.03.2021
1770 Clouds 11 985 58 10000 8.23 230 22:41 06.03.2021
1771 Clouds 11 985 58 10000 8.23 230 22:21 06.03.2021
1772 Clouds 10 984 62 10000 9.26 230 21:40 06.03.2021
1773 Rain 10 984 62 10000 9.26 230 21:20 06.03.2021
1774 Rain 10 983 62 10000 9.77 230 20:41 06.03.2021
1775 Clouds 10 982 71 10000 14.4 230 19:51 06.03.2021
1776 Clouds 10 982 71 10000 14.4 230 19:25 06.03.2021
1777 Clouds 11 981 82 10000 11.83 230 18:57 06.03.2021
1778 Clouds 11 981 82 10000 11.83 230 18:39 06.03.2021
1779 Rain 11 981 82 10000 11.83 230 18:20 06.03.2021
1780 Rain 10 980 87 10000 13.38 230 17:47 06.03.2021
1781 Rain 10 980 87 10000 13.38 230 17:26 06.03.2021
1782 Rain 11 980 76 10000 9.26 200 16:53 06.03.2021
1783 Rain 11 980 76 10000 9.26 200 16:30 06.03.2021
1784 Rain 11 980 82 10000 10.8 230 15:55 06.03.2021
1785 Rain 11 980 82 10000 10.8 230 15:34 06.03.2021
1786 Rain 10 979 93 10000 3.6 320 14:55 06.03.2021
1787 Rain 10 979 93 10000 3.6 320 14:31 06.03.2021
1788 Clouds 10 979 87 10000 4.12 230 13:46 06.03.2021
1789 Clouds 10 979 87 10000 4.12 230 13:24 06.03.2021
1790 Drizzle 10 979 87 10000 1.03 290 12:49 06.03.2021
1791 Drizzle 10 979 87 10000 1.03 290 12:20 06.03.2021
1792 Clouds 10 978 87 10000 4.12 230 11:59 06.03.2021
1793 Clouds 10 978 87 10000 4.12 230 11:27 06.03.2021
1794 Clouds 10 978 81 10000 1.03 360 10:54 06.03.2021
1795 Clouds 10 978 81 10000 1.03 360 10:36 06.03.2021
1796 Rain 10 979 81 10000 2.06 290 09:56 06.03.2021
1797 Clouds 10 979 81 10000 2.06 290 09:24 06.03.2021
1798 Drizzle 10 980 81 8000 2.06 180 08:54 06.03.2021
1799 Drizzle 10 980 81 8000 2.06 180 08:30 06.03.2021
1800 Rain 10 982 81 8000 3.6 180 07:54 06.03.2021
1801 Rain 10 982 81 8000 3.6 180 07:22 06.03.2021
1802 Rain 11 985 66 10000 7.72 360 05:52 06.03.2021
1803 Rain 12 989 71 10000 6.69 360 03:47 06.03.2021
1804 Rain 12 991 71 10000 4.63 360 01:33 06.03.2021
1805 Rain 12 993 71 10000 6.17 50 00:46 06.03.2021
1806 Rain 14 994 54 10000 4.63 360 23:48 05.03.2021
1807 Rain 14 994 54 10000 4.63 360 23:19 05.03.2021
1808 Rain 14 995 54 10000 2.66 5 22:43 05.03.2021
1809 Clear 14 995 54 10000 3.16 336 22:21 05.03.2021
1810 Clear 15 996 51 10000 2.06 230 21:51 05.03.2021
1811 Clear 15 996 51 10000 2.06 230 21:29 05.03.2021
1812 Clear 16 996 44 10000 2.57 230 20:50 05.03.2021
1813 Clear 16 996 44 10000 2.57 230 20:25 05.03.2021
1814 Clear 15 996 47 10000 3.6 230 19:49 05.03.2021
1815 Clear 15 996 47 10000 3.6 230 19:25 05.03.2021
1816 Clouds 15 997 44 10000 6.69 230 18:52 05.03.2021
1817 Clouds 15 997 44 10000 6.69 230 18:27 05.03.2021
1818 Clouds 14 997 47 10000 4.12 200 17:56 05.03.2021
1819 Clouds 14 997 47 10000 4.12 200 17:33 05.03.2021
1820 Clouds 13 997 50 10000 5.66 230 16:44 05.03.2021
1821 Clouds 13 997 50 10000 5.66 230 16:24 05.03.2021
1822 Clouds 12 997 62 10000 5.14 230 15:55 05.03.2021
1823 Clouds 12 997 62 10000 5.14 230 15:28 05.03.2021
1824 Clouds 11 997 66 10000 9.26 230 14:53 05.03.2021
1825 Clouds 11 997 66 10000 9.26 230 14:34 05.03.2021
1826 Clouds 13 997 50 10000 5.14 230 13:46 05.03.2021
1827 Clouds 13 997 50 10000 5.14 230 13:21 05.03.2021
1828 Clouds 12 997 50 10000 3.09 160 12:47 05.03.2021
1829 Clouds 13 996 38 10000 5.14 290 11:41 05.03.2021
1830 Clouds 13 996 38 10000 5.14 290 11:21 05.03.2021
1831 Clouds 13 996 33 10000 8.23 290 10:57 05.03.2021
1832 Clouds 13 996 33 10000 8.23 290 10:57 05.03.2021
1833 Clouds 13 996 33 10000 8.23 290 10:37 05.03.2021
1834 Clouds 13 996 33 10000 8.23 290 10:19 05.03.2021
1835 Clouds 14 996 28 10000 10.29 290 09:45 05.03.2021
1836 Clouds 14 996 28 10000 10.29 290 09:26 05.03.2021
1837 Clouds 14 997 28 10000 8.23 270 08:39 05.03.2021
1838 Clouds 14 997 28 10000 8.23 270 08:20 05.03.2021
1839 Clouds 14 999 28 10000 6.17 290 07:36 05.03.2021
1840 Clouds 14 1000 30 10000 8.75 290 06:44 05.03.2021
1841 Clouds 14 1000 30 10000 8.75 290 06:26 05.03.2021
1842 Clouds 14 1008 44 10000 4.63 320 01:40 05.03.2021
1843 Clouds 15 1009 36 10000 5.14 290 23:55 04.03.2021
1844 Clouds 15 1009 36 10000 5.14 290 23:25 04.03.2021
1845 Clouds 16 1011 36 10000 3.09 290 22:31 04.03.2021
1846 Clouds 15 1012 51 10000 1.03 180 21:56 04.03.2021
1847 Clouds 15 1012 51 10000 1.03 180 21:34 04.03.2021
1848 Clouds 15 1012 51 10000 2.57 230 20:59 04.03.2021
1849 Clouds 15 1012 51 10000 2.57 230 20:40 04.03.2021
1850 Clouds 15 1012 51 10000 2.57 230 20:21 04.03.2021
1851 Clouds 15 1013 47 10000 2.06 200 19:51 04.03.2021
1852 Clouds 15 1013 47 10000 2.06 200 19:26 04.03.2021
1853 Clouds 14 1014 54 10000 2.57 230 18:52 04.03.2021
1854 Clouds 14 1014 54 10000 2.57 230 18:30 04.03.2021
1855 Clouds 14 1015 51 10000 2.06 200 17:50 04.03.2021
1856 Clouds 14 1015 51 10000 2.06 200 17:31 04.03.2021
1857 Clouds 14 1015 54 10000 1.31 275 16:56 04.03.2021
1858 Clouds 14 1015 54 10000 1.31 275 16:38 04.03.2021
1859 Clouds 14 1015 54 10000 1.85 312 16:19 04.03.2021
1860 Clouds 12 1015 58 10000 2.06 200 15:45 04.03.2021
1861 Clouds 12 1015 58 10000 2.06 200 15:24 04.03.2021
1862 Clouds 11 1015 62 10000 2.06 140 14:40 04.03.2021
1863 Clouds 11 1015 66 10000 2.1 308 13:59 04.03.2021
1864 Clouds 11 1015 66 10000 2.1 308 13:40 04.03.2021
1865 Clouds 11 1015 66 10000 2.38 330 13:19 04.03.2021
1866 Clouds 9 1015 71 10000 3.09 320 12:41 04.03.2021
1867 Clouds 9 1014 76 10000 2.06 140 11:51 04.03.2021
1868 Clouds 9 1014 76 10000 2.06 140 11:32 04.03.2021
1869 Clouds 8 1015 81 10000 2.06 180 10:58 04.03.2021
1870 Clouds 8 1015 81 10000 2.06 180 10:36 04.03.2021
1871 Clouds 8 1015 87 10000 2.76 335 09:51 04.03.2021
1872 Clouds 8 1015 87 10000 2.8 332 09:27 04.03.2021
1873 Clouds 8 1015 87 10000 3.09 90 08:49 04.03.2021
1874 Clouds 8 1015 87 10000 3.09 90 08:24 04.03.2021
1875 Clear 8 1015 87 10000 2.57 70 07:36 04.03.2021
1876 Clear 9 1016 76 10000 2.57 90 06:31 04.03.2021
1877 Clear 9 1016 76 10000 2.06 140 05:57 04.03.2021
1878 Clouds 11 1017 58 10000 1.54 270 02:29 04.03.2021
1879 Clouds 13 1017 47 10000 4.12 230 23:57 03.03.2021
1880 Clouds 13 1017 50 10000 4.63 230 22:39 03.03.2021
1881 Clouds 13 1017 50 10000 4.63 230 22:20 03.03.2021
1882 Clouds 14 1017 44 10000 1.54 230 21:41 03.03.2021
1883 Clouds 14 1017 44 10000 1.54 230 21:23 03.03.2021
1884 Clouds 14 1018 47 10000 1.54 230 20:53 03.03.2021
1885 Clouds 14 1018 47 10000 1.54 230 20:35 03.03.2021
1886 Clouds 14 1018 51 10000 2.06 200 19:48 03.03.2021
1887 Clouds 14 1018 51 10000 2.06 200 19:30 03.03.2021
1888 Clouds 13 1018 50 10000 2.06 110 18:56 03.03.2021
1889 Clouds 13 1018 50 10000 2.06 110 18:38 03.03.2021
1890 Clouds 12 1019 58 10000 2.06 160 17:58 03.03.2021
1891 Clouds 12 1019 58 10000 2.06 160 17:22 03.03.2021
1892 Clouds 11 1019 62 10000 1.25 320 16:54 03.03.2021
1893 Clouds 11 1019 62 10000 1.49 317 16:27 03.03.2021
1894 Clouds 10 1019 62 10000 1.49 317 15:54 03.03.2021
1895 Clouds 10 1019 62 10000 1.49 317 15:32 03.03.2021
1896 Clouds 9 1019 76 10000 1.33 315 14:50 03.03.2021
1897 Clouds 9 1019 76 10000 1.33 315 14:50 03.03.2021
1898 Clouds 9 1019 76 10000 1.03 308 14:27 03.03.2021
1899 Clouds 9 1018 71 10000 1.54 360 13:46 03.03.2021
1900 Clouds 9 1018 71 10000 1.54 360 13:26 03.03.2021
1901 Clouds 8 1018 71 10000 1.54 327 12:43 03.03.2021
1902 Clouds 8 1018 71 10000 1.35 342 12:23 03.03.2021
1903 Clouds 8 1018 71 10000 3.09 270 11:45 03.03.2021
1904 Clouds 8 1018 71 10000 3.09 270 11:27 03.03.2021
1905 Clear 8 1018 71 10000 1.54 360 10:46 03.03.2021
1906 Clear 8 1018 71 10000 1.54 360 10:22 03.03.2021
1907 Clear 8 1018 66 10000 1.54 360 09:44 03.03.2021
1908 Clear 8 1018 66 10000 3.6 270 08:55 03.03.2021
1909 Clear 8 1018 66 10000 3.6 270 08:37 03.03.2021
1910 Clear 8 1018 66 10000 3.6 270 08:18 03.03.2021
1911 Clear 9 1017 61 10000 3.09 270 07:34 03.03.2021
1912 Clear 9 1017 61 10000 2.57 270 06:46 03.03.2021
1913 Clouds 9 1017 61 10000 3.6 230 05:45 03.03.2021
1914 Clouds 10 1017 57 10000 2.06 270 04:50 03.03.2021
1915 Clouds 10 1017 57 10000 2.06 270 04:24 03.03.2021
1916 Clouds 12 1016 54 10000 4.12 230 00:39 03.03.2021
1917 Clouds 12 1015 54 10000 5.14 230 23:44 02.03.2021
1918 Clouds 13 1015 47 10000 2.09 298 22:58 02.03.2021
1919 Clouds 13 1015 47 10000 2.09 298 22:40 02.03.2021
1920 Clouds 13 1015 47 10000 2.18 288 22:18 02.03.2021
1921 Clouds 14 1015 44 10000 3.6 180 21:38 02.03.2021
1922 Clouds 14 1015 44 10000 3.6 180 21:18 02.03.2021
1923 Clouds 14 1015 41 10000 2.06 140 20:44 02.03.2021
1924 Clouds 14 1015 41 10000 2.06 140 20:22 02.03.2021
1925 Clouds 13 1015 44 10000 2.06 290 19:50 02.03.2021
1926 Clouds 13 1015 44 10000 2.06 290 19:32 02.03.2021
1927 Clouds 13 1014 44 10000 2.06 160 18:58 02.03.2021
1928 Clouds 13 1014 44 10000 2.06 160 18:39 02.03.2021
1929 Clouds 13 1014 44 10000 2.06 160 18:19 02.03.2021
1930 Clouds 13 1014 44 10000 1.54 160 17:40 02.03.2021
1931 Clouds 13 1014 44 10000 1.54 160 17:20 02.03.2021
1932 Clouds 13 1015 44 10000 4.63 140 16:49 02.03.2021
1933 Clouds 13 1015 44 10000 4.63 140 16:20 02.03.2021
1934 Clouds 11 1014 58 10000 4.12 140 15:47 02.03.2021
1935 Clouds 11 1014 58 10000 4.12 140 15:21 02.03.2021
1936 Clouds 10 1014 62 10000 2.06 90 14:21 02.03.2021
1937 Clouds 8 1015 76 10000 2.06 90 13:48 02.03.2021
1938 Clouds 8 1015 76 10000 2.06 90 13:28 02.03.2021
1939 Clouds 7 1015 87 10000 3.09 90 12:51 02.03.2021
1940 Clouds 7 1015 87 10000 3.09 90 12:29 02.03.2021
1941 Clouds 6 1014 87 10000 2.33 333 11:53 02.03.2021
1942 Clouds 6 1014 87 10000 2.33 333 11:30 02.03.2021
1943 Clear 6 1015 81 10000 1.54 50 10:57 02.03.2021
1944 Clear 6 1015 81 10000 1.54 50 10:31 02.03.2021
1945 Clear 6 1015 75 10000 2.06 360 09:44 02.03.2021
1946 Clear 6 1015 75 10000 2.06 360 09:25 02.03.2021
1947 Clear 6 1014 75 10000 1.54 230 08:56 02.03.2021
1948 Clear 6 1014 75 10000 1.54 230 08:35 02.03.2021
1949 Clear 6 1015 75 10000 2.42 333 07:52 02.03.2021
1950 Clear 5 1015 81 10000 2.22 338 06:50 02.03.2021
1951 Clear 5 1015 81 10000 5.14 230 05:54 02.03.2021
1952 Clear 5 1015 81 10000 5.14 230 05:33 02.03.2021
1953 Clouds 6 1015 70 10000 2.06 290 04:39 02.03.2021
1954 Clouds 9 1015 53 10000 3.09 270 01:43 02.03.2021
1955 Clouds 9 1015 53 10000 3.09 270 01:43 02.03.2021
1956 Clouds 9 1015 53 10000 3.09 270 01:43 02.03.2021
1957 Clouds 9 1015 53 10000 3.09 270 01:43 02.03.2021
1958 Clouds 9 1015 53 10000 3.09 270 01:22 02.03.2021
1959 Clouds 11 1014 40 10000 4.63 230 23:40 01.03.2021
1960 Clouds 11 1014 40 10000 4.63 230 23:19 01.03.2021
1961 Clouds 12 1014 40 10000 5.66 230 22:38 01.03.2021
1962 Clouds 12 1014 40 10000 5.66 230 22:19 01.03.2021
1963 Clouds 11 1014 46 10000 0.26 160 21:42 01.03.2021
1964 Clouds 11 1014 46 10000 0.11 182 21:23 01.03.2021
1965 Clouds 11 1013 46 10000 5.14 230 20:45 01.03.2021
1966 Clouds 11 1013 46 10000 5.14 230 20:26 01.03.2021
1967 Clouds 10 1013 50 10000 4.63 230 19:45 01.03.2021
1968 Clouds 10 1013 50 10000 4.63 230 19:26 01.03.2021
1969 Clouds 10 1013 53 10000 2.06 230 18:44 01.03.2021
1970 Clouds 10 1013 53 10000 2.06 230 18:23 01.03.2021
1971 Clouds 9 1014 61 10000 3.6 230 17:48 01.03.2021
1972 Clouds 9 1014 61 10000 3.6 230 17:23 01.03.2021
1973 Clouds 8 1014 66 10000 3.6 340 16:47 01.03.2021
1974 Clouds 8 1014 66 10000 3.6 340 16:47 01.03.2021
1975 Clouds 8 1014 66 10000 3.6 340 16:29 01.03.2021
1976 Clouds 7 1013 70 10000 5.14 340 15:56 01.03.2021
1977 Clouds 7 1013 70 10000 5.14 340 15:36 01.03.2021
1978 Clouds 7 1013 70 10000 5.14 340 15:18 01.03.2021
1979 Clouds 6 1013 81 10000 5.14 360 14:40 01.03.2021
1980 Clouds 6 1013 81 10000 5.14 360 14:21 01.03.2021
1981 Clouds 6 1013 75 10000 2.57 360 13:38 01.03.2021
1982 Clouds 6 1013 75 10000 2.57 360 13:20 01.03.2021
1983 Clouds 6 1012 75 10000 4.63 340 12:42 01.03.2021
1984 Clouds 6 1012 75 10000 4.63 340 12:24 01.03.2021
1985 Drizzle 6 1012 70 10000 4.12 340 11:56 01.03.2021
1986 Clouds 6 1012 70 10000 2.06 340 11:26 01.03.2021
1987 Clouds 6 1012 65 10000 3.09 290 10:42 01.03.2021
1988 Clouds 6 1012 65 10000 3.09 290 10:22 01.03.2021
1989 Clouds 6 1011 65 10000 3.09 290 09:53 01.03.2021
1990 Clouds 6 1011 65 10000 3.09 290 09:31 01.03.2021
1991 Clouds 6 1011 65 10000 6.17 270 08:56 01.03.2021
1992 Clouds 6 1011 65 10000 6.17 270 08:32 01.03.2021
1993 Snow 6 1010 65 10000 6.17 250 07:32 01.03.2021
1994 Clouds 7 1009 57 10000 6.17 250 06:25 01.03.2021
1995 Clouds 7 1008 65 10000 4.12 200 02:40 01.03.2021
1996 Clouds 10 1005 57 10000 9.26 230 23:49 28.02.2021
1997 Clouds 10 1005 57 10000 9.26 230 23:20 28.02.2021
1998 Clouds 10 1004 57 10000 10.29 230 22:42 28.02.2021
1999 Clouds 10 1004 57 10000 10.29 230 22:20 28.02.2021
2000 Clouds 9 1003 66 10000 10.29 230 21:45 28.02.2021
2001 Rain 9 1003 66 10000 10.29 230 21:23 28.02.2021
2002 Rain 10 1001 66 10000 12.35 230 20:46 28.02.2021
2003 Rain 10 1001 66 10000 12.35 230 20:26 28.02.2021
2004 Rain 9 1001 76 10000 8.23 230 19:46 28.02.2021
2005 Rain 9 1001 76 10000 8.23 230 19:27 28.02.2021
2006 Rain 9 1000 81 10000 10.8 250 18:47 28.02.2021
2007 Rain 9 1000 81 10000 10.8 250 18:26 28.02.2021
2008 Rain 9 999 87 7000 8.75 230 17:56 28.02.2021
2009 Rain 9 999 87 7000 8.75 230 17:37 28.02.2021
2010 Rain 9 999 87 7000 8.75 230 17:19 28.02.2021
2011 Rain 10 997 87 7000 11.32 230 16:46 28.02.2021
2012 Rain 10 997 87 7000 11.32 230 16:26 28.02.2021
2013 Rain 11 995 93 5000 12.35 230 15:51 28.02.2021
2014 Rain 11 995 93 5000 12.35 230 15:26 28.02.2021
2015 Rain 13 995 88 10000 4.12 290 14:58 28.02.2021
2016 Rain 13 995 88 10000 4.12 290 14:32 28.02.2021
2017 Clouds 13 994 82 10000 3.09 140 13:58 28.02.2021
2018 Clouds 13 994 82 10000 3.09 140 13:37 28.02.2021
2019 Clouds 13 994 82 10000 3.09 140 13:18 28.02.2021
2020 Rain 12 993 87 10000 6.69 230 12:51 28.02.2021
2021 Rain 14 993 77 10000 10.29 230 12:31 28.02.2021
2022 Clouds 14 993 58 10000 4.12 250 11:56 28.02.2021
2023 Clouds 14 993 58 10000 4.12 250 11:37 28.02.2021
2024 Clouds 14 993 58 10000 4.12 250 11:18 28.02.2021
2025 Clouds 15 993 55 10000 3.09 230 10:30 28.02.2021
2026 Clouds 13 993 62 10000 3.09 230 09:59 28.02.2021
2027 Clouds 13 993 62 10000 3.09 230 09:38 28.02.2021
2028 Clouds 13 993 62 10000 3.09 230 09:20 28.02.2021
2029 Clear 14 993 58 10000 3.6 230 08:38 28.02.2021
2030 Clear 14 993 58 10000 3.6 230 08:20 28.02.2021
2031 Clear 19 994 34 10000 2.57 250 07:44 28.02.2021
2032 Clear 19 994 34 10000 2.57 250 07:25 28.02.2021
2033 Clear 17 995 45 10000 1.54 290 06:23 28.02.2021
2034 Clear 16 995 51 10000 1.03 50 05:19 28.02.2021
2035 Clear 21 997 35 10000 2.96 341 02:28 28.02.2021
2036 Clear 22 998 35 10000 4.12 270 01:28 28.02.2021
2037 Clear 24 998 27 10000 5.14 290 00:39 28.02.2021
2038 Clear 25 999 23 10000 3.09 320 23:50 27.02.2021
2039 Clear 25 999 23 10000 3.09 320 23:22 27.02.2021
2040 Clear 26 999 19 10000 6.17 270 22:50 27.02.2021
2041 Clear 26 999 19 10000 6.17 270 22:24 27.02.2021
2042 Clear 24 1000 33 10000 3.09 270 21:59 27.02.2021
2043 Clear 24 1000 33 10000 3.09 270 21:38 27.02.2021
2044 Clear 22 1001 37 10000 3.24 319 20:56 27.02.2021
2045 Clear 22 1001 37 10000 3.24 319 20:38 27.02.2021
2046 Clear 22 1001 37 10000 3.71 318 20:18 27.02.2021
2047 Clear 21 1002 37 10000 3.71 318 19:41 27.02.2021
2048 Clear 21 1002 37 10000 4.13 319 19:23 27.02.2021
2049 Clear 18 1003 48 10000 3.77 321 18:40 27.02.2021
2050 Clear 18 1003 48 10000 3.62 315 18:20 27.02.2021
2051 Clear 15 1003 58 10000 3.62 315 17:43 27.02.2021
2052 Clear 15 1003 58 10000 3.45 318 17:20 27.02.2021
2053 Clear 15 1004 58 10000 1.54 70 16:53 27.02.2021
2054 Clear 15 1004 58 10000 1.54 70 16:32 27.02.2021
2055 Clear 15 1005 67 10000 1.03 90 15:57 27.02.2021
2056 Clear 15 1005 67 10000 1.03 90 15:38 27.02.2021
2057 Clear 13 1005 71 10000 3.42 329 14:49 27.02.2021
2058 Clear 13 1005 71 10000 3.42 329 14:30 27.02.2021
2059 Clear 12 1006 82 10000 1.03 200 13:50 27.02.2021
2060 Clear 12 1006 82 10000 1.03 200 13:27 27.02.2021
2061 Clear 10 1006 81 10000 1.03 360 12:55 27.02.2021
2062 Clear 10 1006 81 10000 1.03 360 12:30 27.02.2021
2063 Clear 10 1007 81 10000 1.03 50 11:57 27.02.2021
2064 Clear 10 1007 81 10000 1.03 50 11:38 27.02.2021
2065 Clear 10 1007 81 10000 1.03 50 11:19 27.02.2021
2066 Clear 10 1007 81 10000 2.57 70 10:44 27.02.2021
2067 Clear 10 1007 81 10000 2.57 70 10:22 27.02.2021
2068 Clear 11 1008 76 10000 1.54 360 09:46 27.02.2021
2069 Clear 11 1008 76 10000 1.54 360 09:25 27.02.2021
2070 Clear 11 1008 76 10000 3.09 340 08:40 27.02.2021
2071 Clear 11 1008 76 10000 3.09 340 08:21 27.02.2021
2072 Clear 12 1009 76 10000 2.57 50 07:37 27.02.2021
2073 Clouds 12 1009 71 10000 3.09 320 04:46 27.02.2021
2074 Clouds 14 1008 62 10000 8.75 230 00:42 27.02.2021
2075 Clouds 14 1008 62 10000 10.29 230 23:54 26.02.2021
2076 Clouds 14 1008 62 10000 10.29 230 23:27 26.02.2021
2077 Clouds 16 1008 64 10000 2.23 298 22:46 26.02.2021
2078 Clouds 15 1008 58 10000 9.77 230 22:26 26.02.2021
2079 Clouds 15 1008 58 10000 9.77 230 21:43 26.02.2021
2080 Clouds 15 1008 58 10000 9.77 230 21:22 26.02.2021
2081 Clouds 16 1008 55 10000 10.8 230 20:44 26.02.2021
2082 Clouds 16 1008 55 10000 10.8 230 20:21 26.02.2021
2083 Clouds 15 1007 58 10000 10.8 230 19:48 26.02.2021
2084 Clouds 15 1007 58 10000 10.8 230 19:25 26.02.2021
2085 Clouds 14 1007 67 10000 11.32 230 18:42 26.02.2021
2086 Clouds 14 1007 67 10000 11.32 230 18:22 26.02.2021
2087 Clear 15 1007 55 10000 8.23 230 17:41 26.02.2021
2088 Clear 15 1007 55 10000 8.23 230 17:23 26.02.2021
2089 Clouds 15 1008 55 10000 7.2 230 16:52 26.02.2021
2090 Clouds 15 1008 55 10000 7.2 230 16:31 26.02.2021
2091 Clouds 13 1008 58 10000 5.14 250 15:57 26.02.2021
2092 Clouds 13 1008 58 10000 5.14 250 15:38 26.02.2021
2093 Clouds 13 1008 58 10000 5.14 250 15:19 26.02.2021
2094 Clouds 11 1008 62 10000 4.12 360 14:45 26.02.2021
2095 Clouds 11 1008 62 10000 4.12 360 14:25 26.02.2021
2096 Clouds 10 1008 66 10000 5.14 340 13:42 26.02.2021
2097 Clouds 10 1008 66 10000 5.14 340 13:23 26.02.2021
2098 Clouds 7 1008 76 10000 3.6 340 12:39 26.02.2021
2099 Clouds 7 1008 70 10000 2.57 320 11:54 26.02.2021
2100 Clouds 7 1008 70 10000 2.57 320 11:36 26.02.2021
2101 Clouds 6 1008 75 10000 2.57 320 10:48 26.02.2021
2102 Clouds 6 1008 70 10000 2.57 300 09:58 26.02.2021
2103 Clouds 6 1008 70 10000 2.57 300 09:39 26.02.2021
2104 Clouds 6 1008 70 10000 2.57 300 09:20 26.02.2021
2105 Rain 6 1008 70 10000 49.39 340 08:26 26.02.2021
2106 Rain 6 1009 70 10000 3.09 340 07:52 26.02.2021
2107 Drizzle 6 1009 75 10000 2.57 340 06:43 26.02.2021
2108 Rain 6 1009 70 10000 4.63 340 05:32 26.02.2021
2109 Clouds 7 1008 65 10000 7.2 230 03:49 26.02.2021
2110 Clouds 7 1008 65 10000 8.23 230 02:36 26.02.2021
2111 Clouds 7 1006 70 10000 12.86 230 00:18 26.02.2021
2112 Clouds 8 1005 66 10000 12.35 230 23:28 25.02.2021
2113 Clouds 9 1004 53 10000 15.43 230 22:50 25.02.2021
2114 Clouds 9 1004 53 10000 15.43 230 22:27 25.02.2021
2115 Clouds 9 1003 57 10000 14.4 230 21:45 25.02.2021
2116 Clouds 9 1003 57 10000 14.4 230 21:26 25.02.2021
2117 Clouds 10 1002 53 10000 13.89 200 20:41 25.02.2021
2118 Clouds 10 1002 53 10000 13.89 200 20:23 25.02.2021
2119 Clouds 10 1002 53 10000 13.89 200 20:23 25.02.2021
2120 Clouds 9 1001 53 10000 15.95 200 19:52 25.02.2021
2121 Clouds 9 1001 53 10000 15.95 200 19:22 25.02.2021
2122 Clouds 8 1002 57 10000 14.92 200 18:58 25.02.2021
2123 Clouds 8 1002 57 10000 14.92 200 18:31 25.02.2021
2124 Clouds 9 1001 49 10000 15.43 200 17:50 25.02.2021
2125 Clouds 9 1001 49 10000 15.43 200 17:27 25.02.2021
2126 Clouds 8 1001 57 10000 15.95 200 16:48 25.02.2021
2127 Clouds 8 1001 57 10000 15.95 200 16:25 25.02.2021
2128 Clouds 6 1000 65 10000 14.92 230 15:36 25.02.2021
2129 Clouds 6 1000 65 10000 14.92 230 15:18 25.02.2021
2130 Clouds 7 1000 70 10000 15.43 200 14:28 25.02.2021
2131 Clouds 6 1001 81 10000 12.86 230 13:55 25.02.2021
2132 Clouds 6 1001 81 10000 12.86 230 13:36 25.02.2021
2133 Clouds 6 1001 81 10000 12.86 230 13:18 25.02.2021
2134 Clouds 7 1000 65 10000 14.92 200 12:22 25.02.2021
2135 Clouds 6 999 70 10000 14.92 200 11:47 25.02.2021
2136 Clouds 6 999 70 10000 14.92 200 11:21 25.02.2021
2137 Clouds 5 993 81 10000 13.38 230 10:47 25.02.2021
2138 Clouds 5 993 81 10000 13.38 230 10:29 25.02.2021
2139 Drizzle 5 996 87 10000 16.46 230 09:45 25.02.2021
2140 Drizzle 5 998 81 10000 12.35 230 08:57 25.02.2021
2141 Drizzle 5 998 81 10000 12.35 230 08:25 25.02.2021
2142 Clouds 5 998 87 10000 8.75 230 07:57 25.02.2021
2143 Clouds 5 998 87 10000 8.75 230 07:35 25.02.2021
2144 Drizzle 5 998 87 10000 7.72 250 06:55 25.02.2021
2145 Clouds 6 998 65 10000 10.8 230 02:59 25.02.2021
2146 Drizzle 6 998 65 10000 14.4 230 01:38 25.02.2021
2147 Clouds 7 996 57 10000 12.35 230 00:42 25.02.2021
2148 Clouds 7 997 57 10000 13.38 230 23:53 24.02.2021
2149 Clouds 7 997 57 10000 13.38 230 23:28 24.02.2021
2150 Drizzle 7 994 61 10000 16.98 230 22:45 24.02.2021
2151 Drizzle 7 994 61 10000 16.98 230 22:26 24.02.2021
2152 Drizzle 8 995 53 10000 19.03 230 21:46 24.02.2021
2153 Drizzle 8 995 53 10000 19.03 230 21:19 24.02.2021
2154 Clouds 8 993 57 10000 16.98 230 20:41 24.02.2021
2155 Clouds 8 993 57 10000 16.98 230 20:22 24.02.2021
2156 Clouds 8 992 57 10000 14.4 230 19:38 24.02.2021
2157 Clouds 8 992 57 10000 14.4 230 19:18 24.02.2021
2158 Clouds 8 992 57 10000 14.4 230 19:18 24.02.2021
2159 Drizzle 9 992 57 10000 19.03 230 18:42 24.02.2021
2160 Drizzle 9 992 57 10000 19.03 230 18:22 24.02.2021
2161 Drizzle 8 992 61 10000 18.01 230 17:38 24.02.2021
2162 Drizzle 8 992 61 10000 18.01 230 17:19 24.02.2021
2163 Clouds 8 992 61 10000 18.01 230 16:44 24.02.2021
2164 Clouds 8 992 61 10000 18.01 230 16:19 24.02.2021
2165 Drizzle 7 991 76 10000 16.46 230 15:47 24.02.2021
2166 Drizzle 7 991 76 10000 16.46 230 15:25 24.02.2021
2167 Drizzle 6 991 81 10000 16.46 230 14:35 24.02.2021
2168 Clouds 6 992 75 10000 13.38 230 13:59 24.02.2021
2169 Clouds 6 992 75 10000 13.38 230 13:40 24.02.2021
2170 Snow 6 992 75 10000 13.38 230 13:22 24.02.2021
2171 Snow 5 991 81 10000 13.89 230 12:45 24.02.2021
2172 Clouds 5 991 81 10000 13.89 230 12:26 24.02.2021
2173 Drizzle 6 991 75 10000 13.89 230 11:50 24.02.2021
2174 Drizzle 6 991 75 10000 13.89 230 11:21 24.02.2021
2175 Rain 5 990 87 10000 17.49 230 10:32 24.02.2021
2176 Snow 6 990 81 10000 14.4 230 09:50 24.02.2021
2177 Rain 6 990 81 10000 14.4 230 09:20 24.02.2021
2178 Rain 5 989 87 10000 18.52 230 08:37 24.02.2021
2179 Snow 5 989 87 10000 18.52 230 08:19 24.02.2021
2180 Snow 6 990 81 10000 18.01 230 07:20 24.02.2021
2181 Snow 6 990 81 10000 12.35 230 06:42 24.02.2021
2182 Rain 8 989 81 10000 13.89 230 03:40 24.02.2021
2183 Rain 8 988 87 10000 15.43 230 00:43 24.02.2021
2184 Rain 9 989 87 8000 6.17 250 23:29 23.02.2021
2185 Rain 9 990 87 8000 2.06 250 22:40 23.02.2021
2186 Rain 9 990 87 8000 2.06 250 22:20 23.02.2021
2187 Rain 8 990 93 7000 3.09 290 21:46 23.02.2021
2188 Rain 8 990 93 7000 3.09 290 21:24 23.02.2021
2189 Rain 8 990 93 8000 6.17 200 20:49 23.02.2021
2190 Rain 8 991 87 8000 4.63 200 20:30 23.02.2021
2191 Rain 8 993 81 8000 1.54 200 19:49 23.02.2021
2192 Rain 8 993 81 8000 1.54 200 19:29 23.02.2021
2193 Rain 8 994 81 8000 4.12 180 18:59 23.02.2021
2194 Rain 8 994 81 8000 4.12 180 18:40 23.02.2021
2195 Rain 8 994 81 8000 4.12 180 18:20 23.02.2021
2196 Rain 8 997 76 8000 1.54 200 17:39 23.02.2021
2197 Drizzle 9 999 57 8000 2.06 200 16:58 23.02.2021
2198 Rain 9 999 57 8000 2.06 200 16:39 23.02.2021
2199 Drizzle 9 999 57 8000 2.06 200 16:20 23.02.2021
2200 Clouds 9 1001 49 10000 1.54 140 15:41 23.02.2021
2201 Clouds 9 1001 49 10000 1.54 140 15:21 23.02.2021
2202 Clouds 9 1002 57 10000 5.14 360 14:45 23.02.2021
2203 Clouds 9 1002 57 10000 5.14 360 14:26 23.02.2021
2204 Clouds 8 1003 61 10000 5.66 270 13:47 23.02.2021
2205 Clouds 8 1003 61 10000 5.66 270 13:26 23.02.2021
2206 Clouds 8 1004 61 10000 8.75 230 12:52 23.02.2021
2207 Clouds 8 1004 61 10000 8.75 230 12:22 23.02.2021
2208 Clouds 7 1004 65 10000 13.38 230 11:51 23.02.2021
2209 Clouds 7 1004 65 10000 13.38 230 11:23 23.02.2021
2210 Clouds 4 1003 93 10000 13.89 200 10:53 23.02.2021
2211 Clouds 4 1003 93 10000 13.89 200 10:35 23.02.2021
2212 Clouds 5 1004 87 10000 15.43 200 09:45 23.02.2021
2213 Clouds 5 1004 87 10000 15.43 200 09:25 23.02.2021
2214 Drizzle 5 1004 87 10000 15.43 230 08:57 23.02.2021
2215 Drizzle 5 1004 87 10000 15.43 230 08:38 23.02.2021
2216 Drizzle 5 1004 87 10000 15.43 230 08:19 23.02.2021
2217 Drizzle 5 1004 87 10000 15.43 230 05:44 23.02.2021
2218 Drizzle 5 1004 87 10000 15.43 230 05:19 23.02.2021
2219 Clouds 6 1002 81 10000 13.38 230 02:36 23.02.2021
2220 Clouds 6 998 87 10000 13.89 230 00:54 23.02.2021
2221 Clouds 6 998 87 10000 13.89 230 00:18 23.02.2021
2222 Drizzle 8 996 76 10000 15.43 230 23:21 22.02.2021
2223 Drizzle 10 994 62 10000 17.49 230 22:41 22.02.2021
2224 Drizzle 10 994 62 10000 17.49 230 22:20 22.02.2021
2225 Drizzle 9 992 71 10000 18.01 230 21:46 22.02.2021
2226 Drizzle 9 992 71 10000 18.01 230 21:23 22.02.2021
2227 Clouds 9 993 71 10000 12.35 230 20:53 22.02.2021
2228 Clouds 9 993 71 10000 12.35 230 20:31 22.02.2021
2229 Drizzle 8 995 76 10000 4.12 270 19:54 22.02.2021
2230 Drizzle 8 995 76 10000 4.12 270 19:35 22.02.2021
2231 Clouds 8 995 76 10000 5.14 230 18:58 22.02.2021
2232 Clouds 8 995 76 10000 5.14 230 18:40 22.02.2021
2233 Clouds 8 995 76 10000 5.14 230 18:20 22.02.2021
2234 Drizzle 8 996 71 10000 6.69 230 17:36 22.02.2021
2235 Drizzle 8 996 71 10000 6.69 230 17:18 22.02.2021
2236 Drizzle 8 996 76 10000 9.77 230 16:42 22.02.2021
2237 Clouds 9 996 66 10000 12.35 230 15:56 22.02.2021
2238 Clouds 9 996 66 10000 12.35 230 15:29 22.02.2021
2239 Clouds 9 997 66 10000 13.89 230 14:48 22.02.2021
2240 Clouds 9 997 66 10000 13.89 230 14:30 22.02.2021
2241 Clouds 8 997 71 10000 14.4 230 13:47 22.02.2021
2242 Clouds 8 997 71 10000 14.4 230 13:19 22.02.2021
2243 Drizzle 7 997 76 10000 12.86 230 12:41 22.02.2021
2244 Drizzle 7 997 76 10000 12.86 230 12:20 22.02.2021
2245 Drizzle 7 997 81 10000 12.35 230 11:44 22.02.2021
2246 Drizzle 7 997 81 10000 12.35 230 11:25 22.02.2021
2247 Drizzle 6 997 87 10000 10.29 230 10:47 22.02.2021
2248 Drizzle 6 997 87 10000 10.29 230 10:27 22.02.2021
2249 Drizzle 5 997 81 10000 4.12 270 09:45 22.02.2021
2250 Rain 5 997 81 10000 4.12 270 09:25 22.02.2021
2251 Rain 5 997 87 10000 3.09 290 08:51 22.02.2021
2252 Rain 5 997 87 10000 3.09 290 08:31 22.02.2021
2253 Clouds 5 997 81 10000 0.51 230 07:58 22.02.2021
2254 Snow 5 997 81 10000 0.51 230 07:26 22.02.2021
2255 Snow 5 999 81 10000 1.54 270 06:45 22.02.2021
2256 Clouds 5 999 81 10000 5.14 360 05:45 22.02.2021
2257 Snow 5 1001 81 10000 3.09 320 03:29 22.02.2021
2258 Snow 5 1001 81 10000 3.09 320 03:29 22.02.2021
2259 Snow 5 1001 81 10000 3.09 320 03:29 22.02.2021
2260 Snow 5 1002 81 10000 2.06 320 02:51 22.02.2021
2261 Rain 5 1003 81 10000 2.57 290 00:46 22.02.2021
2262 Rain 5 1003 81 10000 2.57 290 00:23 22.02.2021
2263 Rain 6 1003 75 10000 4.12 230 23:33 21.02.2021
2264 Rain 7 1003 70 10000 0.57 307 22:54 21.02.2021
2265 Rain 7 1003 70 10000 0.99 330 22:24 21.02.2021
2266 Rain 8 1003 57 10000 0.99 330 21:45 21.02.2021
2267 Rain 8 1003 57 10000 1.1 333 21:27 21.02.2021
2268 Rain 8 1004 57 10000 1.1 333 20:44 21.02.2021
2269 Clouds 8 1004 57 10000 0.59 325 20:20 21.02.2021
2270 Clouds 8 1004 57 10000 0.59 325 19:53 21.02.2021
2271 Clouds 8 1004 57 10000 0.43 302 19:33 21.02.2021
2272 Clouds 7 1005 61 10000 0.42 216 18:59 21.02.2021
2273 Clouds 7 1005 61 10000 0.83 197 18:26 21.02.2021
2274 Clouds 7 1006 61 10000 0.83 197 17:39 21.02.2021
2275 Clouds 7 1006 61 10000 0.46 202 17:18 21.02.2021
2276 Clouds 6 1006 65 10000 0.46 202 16:43 21.02.2021
2277 Clouds 6 1006 65 10000 0.47 169 16:24 21.02.2021
2278 Clouds 6 1006 65 10000 2.06 230 15:25 21.02.2021
2279 Clouds 5 1006 70 10000 2.57 250 14:56 21.02.2021
2280 Clouds 5 1006 70 10000 2.57 250 14:37 21.02.2021
2281 Clouds 5 1006 70 10000 2.57 250 14:37 21.02.2021
2282 Snow 5 1005 81 10000 1.54 270 13:57 21.02.2021
2283 Snow 5 1005 81 10000 1.54 270 13:29 21.02.2021
2284 Snow 4 1005 81 10000 2.57 270 12:49 21.02.2021
2285 Snow 4 1005 81 10000 2.57 270 12:26 21.02.2021
2286 Snow 4 1005 87 10000 2.57 270 11:42 21.02.2021
2287 Snow 5 1005 87 10000 3.09 270 10:50 21.02.2021
2288 Snow 5 1005 87 8000 3.6 290 10:22 21.02.2021
2289 Snow 5 1005 93 10000 4.12 140 09:51 21.02.2021
2290 Snow 5 1005 93 10000 4.12 140 09:26 21.02.2021
2291 Snow 5 1005 87 10000 2.57 180 08:43 21.02.2021
2292 Drizzle 5 1005 87 10000 2.57 180 08:19 21.02.2021
2293 Rain 5 1004 93 10000 6.17 140 07:28 21.02.2021
2294 Drizzle 5 1004 93 10000 6.17 140 06:45 21.02.2021
2295 Rain 8 1000 81 10000 10.29 140 02:44 21.02.2021
2296 Rain 10 998 81 10000 9.26 230 01:59 21.02.2021
2297 Rain 10 997 76 10000 11.32 230 00:22 21.02.2021
2298 Rain 10 997 76 10000 11.32 230 00:22 21.02.2021
2299 Rain 11 997 76 10000 11.83 230 23:59 20.02.2021
2300 Rain 11 996 82 10000 10.29 230 22:59 20.02.2021
2301 Rain 11 996 82 10000 10.29 230 22:38 20.02.2021
2302 Rain 13 996 67 10000 6.17 230 21:59 20.02.2021
2303 Rain 13 996 67 10000 6.17 230 21:41 20.02.2021
2304 Clouds 13 996 67 10000 6.17 230 21:18 20.02.2021
2305 Clouds 14 996 62 10000 3.6 200 20:42 20.02.2021
2306 Clouds 14 996 62 10000 3.6 200 20:20 20.02.2021
2307 Clouds 13 996 71 10000 3.6 50 19:48 20.02.2021
2308 Clouds 13 996 71 10000 3.6 50 19:19 20.02.2021
2309 Clouds 13 996 67 10000 2.06 90 18:37 20.02.2021
2310 Clouds 13 996 67 10000 2.06 90 18:19 20.02.2021
2311 Clouds 12 996 71 10000 3.09 50 17:36 20.02.2021
2312 Clouds 11 996 76 10000 2.57 90 16:54 20.02.2021
2313 Clouds 11 996 76 10000 2.57 90 16:27 20.02.2021
2314 Clouds 11 996 76 10000 2.57 90 16:27 20.02.2021
2315 Clouds 10 997 76 10000 1.54 70 15:44 20.02.2021
2316 Clouds 10 997 76 10000 1.54 70 15:21 20.02.2021
2317 Clouds 9 998 87 10000 1.54 50 14:44 20.02.2021
2318 Clouds 9 998 87 10000 1.54 50 14:23 20.02.2021
2319 Clouds 9 998 87 10000 1.54 110 13:41 20.02.2021
2320 Clouds 9 998 87 10000 1.54 110 13:22 20.02.2021
2321 Clouds 8 998 93 10000 1.54 70 12:49 20.02.2021
2322 Clouds 8 998 93 10000 1.54 70 12:23 20.02.2021
2323 Clouds 8 999 87 10000 2.75 340 11:43 20.02.2021
2324 Clouds 8 999 87 10000 3 347 11:24 20.02.2021
2325 Clouds 8 999 93 10000 3.6 90 10:47 20.02.2021
2326 Clouds 8 1000 87 10000 0.51 50 09:54 20.02.2021
2327 Clouds 8 1000 87 10000 0.51 50 09:22 20.02.2021
2328 Clouds 8 1001 87 10000 1.03 20 08:34 20.02.2021
2329 Clouds 8 1001 87 10000 3.09 90 07:57 20.02.2021
2330 Clouds 9 1005 81 10000 2.06 340 02:46 20.02.2021
2331 Clouds 9 1005 81 10000 2.06 340 02:24 20.02.2021
2332 Clouds 10 1005 71 10000 2.06 340 01:48 20.02.2021
2333 Clouds 10 1005 66 10000 6.17 230 00:45 20.02.2021
2334 Clouds 10 1005 66 10000 7.2 230 23:52 19.02.2021
2335 Clouds 10 1005 62 10000 8.23 230 22:56 19.02.2021
2336 Clouds 10 1005 62 10000 8.23 230 22:27 19.02.2021
2337 Clouds 10 1004 66 10000 7.2 230 21:54 19.02.2021
2338 Clouds 10 1004 66 10000 7.2 230 21:31 19.02.2021
2339 Rain 10 1004 71 10000 7.72 230 20:48 19.02.2021
2340 Clouds 10 1004 71 10000 7.72 230 20:28 19.02.2021
2341 Clouds 12 1004 58 10000 8.23 230 19:55 19.02.2021
2342 Clouds 12 1004 58 10000 8.23 230 19:27 19.02.2021
2343 Clouds 11 1004 62 10000 7.2 230 18:56 19.02.2021
2344 Clouds 11 1004 62 10000 7.2 230 18:33 19.02.2021
2345 Clouds 10 1005 71 10000 5.14 230 17:51 19.02.2021
2346 Clouds 10 1005 71 10000 5.14 230 17:22 19.02.2021
2347 Clouds 10 1005 62 10000 1.54 200 16:38 19.02.2021
2348 Clouds 10 1005 62 10000 1.54 200 16:18 19.02.2021
2349 Clouds 10 1005 62 10000 2.06 20 15:41 19.02.2021
2350 Clouds 10 1005 62 10000 2.06 20 15:20 19.02.2021
2351 Clouds 9 1005 61 10000 1.54 140 14:38 19.02.2021
2352 Clouds 9 1005 61 10000 1.54 140 14:20 19.02.2021
2353 Clouds 8 1005 66 10000 1.03 50 13:44 19.02.2021
2354 Clouds 8 1005 66 10000 1.03 50 13:24 19.02.2021
2355 Clouds 7 1005 65 10000 1.83 332 12:42 19.02.2021
2356 Clouds 7 1005 65 10000 1.71 322 12:23 19.02.2021
2357 Clouds 7 1005 65 10000 1.03 290 11:51 19.02.2021
2358 Clouds 7 1005 65 10000 1.03 290 11:23 19.02.2021
2359 Clouds 5 1005 81 10000 1.54 320 10:50 19.02.2021
2360 Clouds 5 1005 81 10000 1.54 320 10:22 19.02.2021
2361 Clouds 5 1005 81 10000 1.54 230 09:47 19.02.2021
2362 Clouds 5 1005 81 10000 1.54 230 09:25 19.02.2021
2363 Clouds 5 1005 81 10000 2.57 320 08:50 19.02.2021
2364 Clouds 5 1005 81 10000 2.57 320 08:24 19.02.2021
2365 Clouds 6 1005 65 10000 2.06 340 07:49 19.02.2021
2366 Clouds 6 1005 65 10000 2.06 340 07:30 19.02.2021
2367 Clouds 6 1006 65 10000 2.06 340 06:53 19.02.2021
2368 Clouds 6 1006 65 10000 4.12 340 05:30 19.02.2021
2369 Clouds 6 1006 70 10000 2.06 270 04:41 19.02.2021
2370 Clouds 7 1004 70 10000 8.23 230 01:48 19.02.2021
2371 Rain 7 1003 76 10000 10.29 230 00:37 19.02.2021
2372 Rain 8 1001 71 10000 14.4 230 23:56 18.02.2021
2373 Rain 8 1001 71 10000 14.4 230 23:35 18.02.2021
2374 Rain 9 1000 71 10000 14.92 230 22:50 18.02.2021
2375 Rain 9 1000 71 10000 14.92 230 22:30 18.02.2021
2376 Rain 9 999 71 10000 12.35 230 21:52 18.02.2021
2377 Rain 9 999 71 10000 12.35 230 21:26 18.02.2021
2378 Rain 11 998 58 10000 11.32 230 20:44 18.02.2021
2379 Rain 11 998 58 10000 11.32 230 20:24 18.02.2021
2380 Rain 11 997 58 10000 8.23 230 19:48 18.02.2021
2381 Clouds 11 997 58 10000 8.23 230 19:28 18.02.2021
2382 Clouds 12 997 50 10000 1.54 250 18:55 18.02.2021
2383 Clouds 12 997 50 10000 1.54 250 18:32 18.02.2021
2384 Rain 11 997 58 10000 2.57 320 17:59 18.02.2021
2385 Rain 11 997 58 10000 2.57 320 17:41 18.02.2021
2386 Rain 11 997 58 10000 2.57 320 17:19 18.02.2021
2387 Rain 9 997 71 10000 2.06 230 16:41 18.02.2021
2388 Rain 9 997 71 10000 2.06 230 16:21 18.02.2021
2389 Rain 9 997 71 10000 3.6 230 15:39 18.02.2021
2390 Rain 9 997 71 10000 3.6 230 15:21 18.02.2021
2391 Rain 8 997 81 10000 3.6 360 14:49 18.02.2021
2392 Rain 8 997 81 10000 3.6 360 14:29 18.02.2021
2393 Rain 7 996 87 10000 4.12 230 13:46 18.02.2021
2394 Rain 7 996 87 10000 4.12 230 13:20 18.02.2021
2395 Rain 7 995 93 10000 6.17 230 12:47 18.02.2021
2396 Rain 7 995 93 10000 6.17 230 12:23 18.02.2021
2397 Rain 7 995 93 6000 9.26 230 11:46 18.02.2021
2398 Rain 7 995 93 6000 9.26 230 11:27 18.02.2021
2399 Rain 8 994 93 10000 10.29 230 10:48 18.02.2021
2400 Rain 8 994 93 10000 10.29 230 10:29 18.02.2021
2401 Drizzle 8 994 93 10000 9.26 230 09:50 18.02.2021
2402 Drizzle 8 994 93 10000 9.26 230 09:24 18.02.2021
2403 Clouds 9 994 93 10000 4.63 230 08:48 18.02.2021
2404 Clouds 9 994 93 10000 4.63 230 08:25 18.02.2021
2405 Clouds 9 993 87 10000 4.63 230 07:35 18.02.2021
2406 Clouds 10 993 93 10000 1.03 90 06:58 18.02.2021
2407 Rain 11 994 87 10000 1.54 230 03:52 18.02.2021
2408 Rain 11 994 87 10000 1.54 230 03:52 18.02.2021
2409 Rain 16 993 55 10000 2.57 180 23:56 17.02.2021
2410 Rain 16 993 55 10000 2.06 140 23:30 17.02.2021
2411 Clouds 17 994 51 10000 3.09 230 22:54 17.02.2021
2412 Clouds 17 994 51 10000 3.09 230 22:27 17.02.2021
2413 Clouds 18 995 45 10000 3.6 340 21:57 17.02.2021
2414 Rain 18 995 45 10000 3.6 340 21:23 17.02.2021
2415 Rain 18 995 42 10000 5.66 340 20:53 17.02.2021
2416 Rain 18 995 42 10000 5.66 340 20:33 17.02.2021
2417 Rain 20 996 34 10000 6.69 340 19:52 17.02.2021
2418 Rain 20 996 34 10000 6.69 340 19:34 17.02.2021
2419 Rain 19 996 39 10000 7.2 340 18:50 17.02.2021
2420 Rain 19 996 39 10000 7.2 340 18:31 17.02.2021
2421 Rain 17 997 45 10000 3.6 180 17:46 17.02.2021
2422 Rain 17 997 45 10000 3.6 180 17:21 17.02.2021
2423 Rain 16 998 48 10000 5.14 360 16:50 17.02.2021
2424 Clouds 16 998 48 10000 5.14 360 16:29 17.02.2021
2425 Clouds 13 999 67 10000 5.14 50 15:46 17.02.2021
2426 Clouds 13 999 67 10000 5.14 50 15:27 17.02.2021
2427 Clouds 11 999 82 10000 1.03 180 14:51 17.02.2021
2428 Clouds 11 999 82 10000 1.03 180 14:29 17.02.2021
2429 Clouds 9 999 87 10000 2.57 50 13:52 17.02.2021
2430 Clouds 9 999 87 10000 2.57 50 13:33 17.02.2021
2431 Clouds 9 1000 87 10000 2.57 110 12:58 17.02.2021
2432 Clouds 9 1000 87 10000 2.57 110 12:26 17.02.2021
2433 Clouds 8 1000 87 10000 1.54 180 11:48 17.02.2021
2434 Clouds 8 1000 87 10000 1.54 180 11:29 17.02.2021
2435 Clouds 8 1000 87 10000 2.06 140 10:56 17.02.2021
2436 Clouds 8 1000 87 10000 2.06 140 10:38 17.02.2021
2437 Clouds 8 1000 87 10000 2.06 140 10:19 17.02.2021
2438 Clouds 8 1000 87 10000 2.01 350 09:38 17.02.2021
2439 Clouds 8 1000 87 10000 1.86 358 08:56 17.02.2021
2440 Clouds 8 1000 87 10000 1.86 358 08:36 17.02.2021
2441 Clouds 8 1000 87 10000 2.23 359 08:18 17.02.2021
2442 Clouds 10 1001 93 10000 7.2 230 06:37 17.02.2021
2443 Clouds 10 1000 93 10000 2.06 50 03:53 17.02.2021
2444 Drizzle 10 1001 87 10000 5.66 110 02:32 17.02.2021
2445 Clouds 11 1001 87 10000 2.57 140 01:36 17.02.2021
2446 Rain 13 1001 67 10000 2.57 90 00:28 17.02.2021
2447 Clouds 14 1001 67 10000 3.09 230 23:43 16.02.2021
2448 Clouds 14 1001 67 10000 3.09 230 23:23 16.02.2021
2449 Clouds 16 1001 55 10000 4.12 230 22:41 16.02.2021
2450 Clouds 16 1001 55 10000 4.12 230 22:21 16.02.2021
2451 Clouds 18 1001 45 10000 2.06 250 21:40 16.02.2021
2452 Clouds 18 1001 45 10000 2.06 250 21:22 16.02.2021
2453 Clouds 19 1001 37 10000 6.17 320 20:57 16.02.2021
2454 Clouds 19 1001 37 10000 6.17 320 20:38 16.02.2021
2455 Clouds 19 1001 37 10000 6.17 320 20:19 16.02.2021
2456 Clouds 20 1001 40 10000 4.63 320 19:39 16.02.2021
2457 Clouds 20 1001 40 10000 4.63 320 19:20 16.02.2021
2458 Clouds 18 1001 42 10000 5.14 320 18:38 16.02.2021
2459 Clouds 18 1001 42 10000 5.14 320 18:19 16.02.2021
2460 Clouds 16 1002 51 10000 5.66 320 17:48 16.02.2021
2461 Clouds 16 1002 51 10000 5.66 320 17:23 16.02.2021
2462 Clouds 14 1002 67 10000 6.17 320 16:45 16.02.2021
2463 Clouds 14 1002 67 10000 6.17 320 16:24 16.02.2021
2464 Clouds 11 1002 76 10000 3.52 304 15:44 16.02.2021
2465 Clouds 11 1002 76 10000 3.43 312 15:26 16.02.2021
2466 Clear 11 1002 76 10000 3.43 312 14:47 16.02.2021
2467 Clear 11 1002 76 10000 3.04 317 14:28 16.02.2021
2468 Clear 10 1002 81 10000 3.09 90 13:56 16.02.2021
2469 Clear 10 1002 81 10000 3.09 90 13:33 16.02.2021
2470 Clear 10 1002 76 10000 3.09 90 12:44 16.02.2021
2471 Clear 10 1002 76 10000 3.09 90 12:22 16.02.2021
2472 Clear 10 1002 76 10000 4.12 90 11:49 16.02.2021
2473 Clear 10 1002 76 10000 4.12 90 11:23 16.02.2021
2474 Clouds 11 1002 66 10000 2.57 90 10:54 16.02.2021
2475 Clouds 11 1002 66 10000 2.57 90 10:36 16.02.2021
2476 Clouds 11 1002 66 10000 2.57 90 10:18 16.02.2021
2477 Clouds 11 1002 66 10000 4.12 150 09:44 16.02.2021
2478 Clouds 11 1002 66 10000 4.12 150 09:25 16.02.2021
2479 Clouds 11 1002 62 10000 1.54 90 08:42 16.02.2021
2480 Clouds 11 1002 62 10000 1.54 90 08:19 16.02.2021
2481 Clouds 11 1003 66 10000 3.09 360 07:21 16.02.2021
2482 Clouds 13 1003 58 10000 1.03 270 04:39 16.02.2021
2483 Clouds 15 1003 44 10000 6.69 230 00:45 16.02.2021
2484 Clouds 15 1004 51 10000 8.23 320 23:39 15.02.2021
2485 Clouds 15 1004 51 10000 8.23 320 23:20 15.02.2021
2486 Clouds 16 1003 48 10000 10.29 320 22:43 15.02.2021
2487 Clouds 16 1003 48 10000 10.29 320 22:20 15.02.2021
2488 Clouds 16 1004 48 10000 7.72 320 21:38 15.02.2021
2489 Clouds 16 1004 48 10000 7.72 320 21:20 15.02.2021
2490 Clouds 16 1004 44 10000 7.2 290 20:45 15.02.2021
2491 Clouds 16 1004 44 10000 7.2 290 20:45 15.02.2021
2492 Clouds 16 1004 44 10000 7.2 290 20:26 15.02.2021
2493 Clouds 16 1004 44 10000 7.2 290 20:26 15.02.2021
2494 Clouds 15 1005 51 10000 1.54 140 19:44 15.02.2021
2495 Clouds 15 1005 51 10000 1.54 140 19:23 15.02.2021
2496 Clouds 14 1005 54 10000 3.6 140 18:46 15.02.2021
2497 Clouds 14 1005 54 10000 3.6 140 18:26 15.02.2021
2498 Clouds 15 1006 47 10000 3.09 140 17:42 15.02.2021
2499 Clouds 15 1006 47 10000 3.09 140 17:24 15.02.2021
2500 Clouds 14 1007 58 10000 2.57 110 16:55 15.02.2021
2501 Clouds 14 1007 58 10000 2.57 110 16:27 15.02.2021
2502 Clouds 13 1007 58 10000 3.09 110 15:51 15.02.2021
2503 Clouds 13 1007 58 10000 3.09 110 15:23 15.02.2021
2504 Clouds 12 1007 62 10000 2.57 110 14:55 15.02.2021
2505 Clouds 12 1007 62 10000 2.57 110 14:36 15.02.2021
2506 Clouds 12 1007 62 10000 2.57 110 14:18 15.02.2021
2507 Clouds 12 1008 58 10000 7.2 320 13:45 15.02.2021
2508 Clouds 12 1008 58 10000 7.2 320 13:18 15.02.2021
2509 Clouds 12 1008 58 10000 3.6 320 12:43 15.02.2021
2510 Clouds 12 1008 58 10000 3.6 320 12:20 15.02.2021
2511 Clouds 12 1008 58 10000 3.6 320 12:20 15.02.2021
2512 Clouds 12 1008 54 10000 3.53 345 11:42 15.02.2021
2513 Clouds 12 1008 54 10000 3.6 346 11:19 15.02.2021
2514 Clouds 12 1008 54 10000 4.12 290 10:46 15.02.2021
2515 Clouds 12 1008 54 10000 4.12 290 10:23 15.02.2021
2516 Clouds 10 1008 71 10000 2.06 140 09:54 15.02.2021
2517 Clouds 10 1008 71 10000 2.06 140 09:33 15.02.2021
2518 Clouds 9 1009 81 10000 3.09 90 08:45 15.02.2021
2519 Clouds 9 1009 71 10000 1.54 320 07:39 15.02.2021
2520 Clouds 9 1010 71 10000 2.06 180 06:58 15.02.2021
2521 Clouds 9 1010 71 10000 2.06 180 06:37 15.02.2021
2522 Clouds 10 1009 62 10000 4.12 230 02:29 15.02.2021
2523 Clouds 11 1009 58 10000 3.6 230 00:45 15.02.2021
2524 Clouds 9 1008 71 10000 2.06 180 23:34 14.02.2021
2525 Clouds 11 1008 54 10000 2.57 180 22:55 14.02.2021
2526 Clouds 11 1008 54 10000 2.57 180 22:37 14.02.2021
2527 Clouds 11 1008 54 10000 2.57 180 22:18 14.02.2021
2528 Clouds 13 1008 41 10000 2.57 140 21:47 14.02.2021
2529 Clouds 13 1008 41 10000 2.57 140 21:28 14.02.2021
2530 Clouds 12 1008 43 10000 3.09 140 20:42 14.02.2021
2531 Clouds 12 1008 43 10000 3.09 140 20:22 14.02.2021
2532 Clouds 10 1008 50 10000 2.98 306 19:46 14.02.2021
2533 Clear 9 1008 53 10000 2.58 317 18:51 14.02.2021
2534 Clear 9 1008 53 10000 2.59 332 18:29 14.02.2021
2535 Clouds 9 1008 49 10000 2.57 180 17:56 14.02.2021
2536 Clouds 9 1008 49 10000 2.57 180 17:34 14.02.2021
2537 Clouds 9 1008 53 10000 4.63 230 16:51 14.02.2021
2538 Clouds 9 1008 53 10000 4.63 230 16:26 14.02.2021
2539 Clouds 8 1008 57 10000 7.2 230 15:49 14.02.2021
2540 Clouds 8 1008 57 10000 7.2 230 15:30 14.02.2021
2541 Clouds 7 1008 65 10000 9.26 230 14:47 14.02.2021
2542 Clouds 7 1008 65 10000 9.26 230 14:26 14.02.2021
2543 Clouds 6 1007 75 10000 10.29 230 13:44 14.02.2021
2544 Clouds 6 1007 75 10000 10.29 230 13:26 14.02.2021
2545 Clouds 6 1006 75 10000 9.77 230 12:37 14.02.2021
2546 Clouds 6 1006 75 10000 9.77 230 12:18 14.02.2021
2547 Clouds 5 1005 75 10000 9.26 230 11:43 14.02.2021
2548 Clouds 5 1005 75 10000 9.26 230 11:20 14.02.2021
2549 Clouds 5 1004 75 10000 5.14 250 10:34 14.02.2021
2550 Clouds 5 1004 81 10000 10.29 230 09:54 14.02.2021
2551 Clouds 5 1004 81 10000 10.29 230 09:36 14.02.2021
2552 Snow 5 1004 81 10000 10.29 230 09:18 14.02.2021
2553 Snow 5 1003 81 10000 2.57 290 08:21 14.02.2021
2554 Snow 5 1002 81 10000 2.57 270 07:47 14.02.2021
2555 Clouds 5 1002 81 10000 5.14 250 06:26 14.02.2021
2556 Clouds 5 1001 87 10000 1.54 250 04:34 14.02.2021
2557 Clouds 5 1000 87 10000 3.09 340 02:30 14.02.2021
2558 Clouds 6 1000 75 10000 6.69 230 01:29 14.02.2021
2559 Clouds 7 999 76 10000 9.26 230 00:41 14.02.2021
2560 Rain 7 999 81 10000 0.78 338 23:57 13.02.2021
2561 Snow 7 999 81 10000 0.37 312 23:25 13.02.2021
2562 Snow 7 999 81 10000 0.37 312 22:57 13.02.2021
2563 Snow 7 999 81 10000 1.92 157 22:22 13.02.2021
2564 Snow 6 998 87 10000 1.92 157 21:49 13.02.2021
2565 Snow 6 998 87 10000 2.9 163 21:27 13.02.2021
2566 Snow 6 998 93 10000 2.06 230 20:45 13.02.2021
2567 Rain 6 998 93 10000 2.06 230 20:26 13.02.2021
2568 Rain 6 997 93 10000 1.54 140 19:48 13.02.2021
2569 Rain 6 997 93 10000 1.54 140 19:23 13.02.2021
2570 Snow 6 998 93 9000 1.54 230 18:49 13.02.2021
2571 Rain 6 998 93 9000 1.54 230 18:27 13.02.2021
2572 Rain 6 998 93 9000 1.54 230 18:27 13.02.2021
2573 Rain 6 999 93 7000 4.12 230 17:44 13.02.2021
2574 Rain 6 999 93 7000 4.12 230 17:25 13.02.2021
2575 Rain 7 999 81 8000 3.6 180 16:52 13.02.2021
2576 Rain 7 999 81 8000 3.6 180 16:31 13.02.2021
2577 Rain 7 999 81 8000 6.69 230 15:43 13.02.2021
2578 Rain 7 999 81 8000 6.69 230 15:24 13.02.2021
2579 Rain 8 999 71 10000 5.14 230 14:40 13.02.2021
2580 Drizzle 8 999 71 10000 8.75 90 13:49 13.02.2021
2581 Drizzle 8 999 71 10000 8.75 90 13:27 13.02.2021
2582 Clouds 8 999 71 10000 10.8 90 12:52 13.02.2021
2583 Clouds 8 999 71 10000 10.8 90 12:21 13.02.2021
2584 Clouds 8 1000 71 10000 2.57 270 11:55 13.02.2021
2585 Clouds 8 1000 71 10000 2.57 270 11:22 13.02.2021
2586 Clouds 8 1000 81 10000 6.69 230 10:59 13.02.2021
2587 Clouds 8 1000 81 10000 6.69 230 10:41 13.02.2021
2588 Clouds 8 1000 81 10000 6.69 230 10:21 13.02.2021
2589 Clouds 8 1000 87 10000 9.26 230 09:45 13.02.2021
2590 Clouds 8 1000 87 10000 9.26 230 09:23 13.02.2021
2591 Clouds 8 1000 81 10000 11.32 230 08:46 13.02.2021
2592 Clouds 8 1000 81 10000 11.32 230 08:18 13.02.2021
2593 Clouds 11 1000 66 10000 5.14 200 06:50 13.02.2021
2594 Clouds 11 1000 66 10000 5.14 200 06:22 13.02.2021
2595 Clouds 14 1000 82 10000 4.63 320 04:31 13.02.2021
2596 Clouds 14 1001 51 10000 4.12 290 02:36 13.02.2021
2597 Clouds 15 1001 41 10000 5.66 290 00:54 13.02.2021
2598 Clouds 16 1001 39 10000 7.72 290 23:57 12.02.2021
2599 Clouds 16 1001 39 10000 7.72 290 23:39 12.02.2021
2600 Clouds 16 1001 39 10000 7.72 290 23:18 12.02.2021
2601 Clouds 16 1001 39 10000 8.23 320 22:31 12.02.2021
2602 Clouds 16 1001 36 10000 9.26 320 21:56 12.02.2021
2603 Clouds 16 1001 36 10000 9.26 320 21:37 12.02.2021
2604 Clouds 16 1001 36 10000 9.26 320 21:18 12.02.2021
2605 Clouds 16 1001 41 10000 9.77 320 20:39 12.02.2021
2606 Clouds 16 1001 41 10000 9.77 320 20:20 12.02.2021
2607 Clouds 16 1002 44 10000 12.86 320 19:49 12.02.2021
2608 Clouds 16 1002 44 10000 12.86 320 19:26 12.02.2021
2609 Clouds 15 1002 44 10000 11.83 340 18:31 12.02.2021
2610 Clouds 15 1003 36 10000 7.72 320 17:51 12.02.2021
2611 Clouds 15 1003 36 10000 7.72 320 17:31 12.02.2021
2612 Clouds 12 1005 54 10000 9.26 360 16:43 12.02.2021
2613 Clouds 11 1005 62 10000 5.66 320 15:48 12.02.2021
2614 Clouds 11 1005 62 10000 5.66 320 15:22 12.02.2021
2615 Clouds 10 1006 66 10000 2.06 230 14:59 12.02.2021
2616 Clouds 10 1006 66 10000 2.06 230 14:32 12.02.2021
2617 Clouds 9 1007 76 10000 2.06 90 13:42 12.02.2021
2618 Clouds 9 1007 76 10000 2.06 90 13:24 12.02.2021
2619 Clouds 8 1008 76 10000 1.03 270 12:51 12.02.2021
2620 Clouds 8 1008 76 10000 1.03 270 12:33 12.02.2021
2621 Clouds 8 1008 76 10000 3.6 180 11:46 12.02.2021
2622 Clouds 8 1008 76 10000 3.6 180 11:20 12.02.2021
2623 Clouds 7 1008 76 10000 2.57 20 10:47 12.02.2021
2624 Clouds 7 1008 81 10000 2.06 290 09:56 12.02.2021
2625 Clouds 7 1008 81 10000 2.06 290 09:38 12.02.2021
2626 Clouds 7 1008 81 10000 2.06 290 09:19 12.02.2021
2627 Clouds 7 1008 76 10000 3.6 340 08:40 12.02.2021
2628 Clouds 7 1008 76 10000 3.6 340 08:18 12.02.2021
2629 Clouds 7 1008 87 10000 1.54 340 07:51 12.02.2021
2630 Clouds 8 1007 71 10000 4.63 290 06:57 12.02.2021
2631 Clouds 8 1007 71 10000 4.12 270 05:49 12.02.2021
2632 Clouds 8 1007 71 10000 4.12 270 05:24 12.02.2021
2633 Rain 9 1002 76 10000 13.38 230 01:56 12.02.2021
2634 Rain 12 1000 66 10000 2.57 90 23:45 11.02.2021
2635 Rain 12 1000 66 10000 2.57 90 23:22 11.02.2021
2636 Rain 11 999 82 10000 3.6 90 22:58 11.02.2021
2637 Rain 11 999 82 10000 3.6 90 22:39 11.02.2021
2638 Rain 11 999 82 10000 3.6 90 22:21 11.02.2021
2639 Rain 11 999 82 10000 5.66 90 21:39 11.02.2021
2640 Rain 11 999 82 10000 5.66 90 21:19 11.02.2021
2641 Drizzle 10 992 87 10000 5.14 90 20:46 11.02.2021
2642 Rain 10 992 87 10000 5.14 90 20:22 11.02.2021
2643 Rain 9 997 87 10000 6.17 90 19:49 11.02.2021
2644 Rain 9 997 87 10000 6.17 90 19:31 11.02.2021
2645 Rain 10 997 87 10000 9.26 90 18:58 11.02.2021
2646 Drizzle 10 997 87 10000 9.26 90 18:30 11.02.2021
2647 Rain 11 995 87 10000 8.75 90 17:55 11.02.2021
2648 Rain 11 995 87 10000 8.75 90 17:22 11.02.2021
2649 Rain 13 995 76 10000 6.17 230 16:59 11.02.2021
2650 Rain 13 995 76 10000 6.17 230 16:41 11.02.2021
2651 Clouds 13 995 76 10000 6.17 230 16:21 11.02.2021
2652 Clouds 14 995 77 10000 7.2 230 15:43 11.02.2021
2653 Clouds 14 995 77 10000 7.2 230 15:43 11.02.2021
2654 Clouds 14 995 77 10000 7.2 230 15:25 11.02.2021
2655 Clouds 14 994 77 10000 2.57 180 14:47 11.02.2021
2656 Clouds 14 994 77 10000 2.57 180 14:29 11.02.2021
2657 Clouds 14 993 77 10000 4.12 50 13:41 11.02.2021
2658 Clouds 14 993 77 10000 4.12 50 13:19 11.02.2021
2659 Clouds 14 993 72 10000 5.66 70 12:51 11.02.2021
2660 Clouds 14 993 72 10000 5.66 70 12:28 11.02.2021
2661 Clouds 15 993 67 10000 3.6 360 11:46 11.02.2021
2662 Clouds 15 993 67 10000 3.6 360 11:22 11.02.2021
2663 Clouds 15 992 67 10000 2.06 360 10:45 11.02.2021
2664 Clouds 15 992 67 10000 2.06 360 10:45 11.02.2021
2665 Clouds 15 992 67 10000 2.06 360 10:26 11.02.2021
2666 Clear 16 993 63 10000 3.6 340 09:54 11.02.2021
2667 Clear 16 993 63 10000 3.6 340 09:24 11.02.2021
2668 Clear 17 994 67 10000 8.75 360 08:53 11.02.2021
2669 Clear 17 994 67 10000 8.75 360 08:28 11.02.2021
2670 Clear 16 994 67 10000 6.69 360 07:38 11.02.2021
2671 Clear 18 995 48 10000 1.54 180 06:41 11.02.2021
2672 Clouds 18 996 48 10000 6.69 30 05:33 11.02.2021
2673 Clouds 20 998 42 10000 4.63 290 02:29 11.02.2021
2674 Clear 21 1000 35 10000 7.2 360 00:54 11.02.2021
2675 Clear 21 1000 35 10000 7.2 360 00:21 11.02.2021
2676 Clear 25 1001 27 10000 8.23 340 23:45 10.02.2021
2677 Clear 24 1002 33 10000 8.75 360 22:53 10.02.2021
2678 Clear 24 1002 33 10000 8.75 360 22:31 10.02.2021
2679 Clear 25 1003 27 10000 9.26 360 21:59 10.02.2021
2680 Clear 25 1003 27 10000 9.26 360 21:38 10.02.2021
2681 Clear 25 1003 27 10000 9.26 360 21:19 10.02.2021
2682 Clear 26 1004 31 10000 8.23 340 20:41 10.02.2021
2683 Clear 26 1004 31 10000 8.23 340 20:22 10.02.2021
2684 Clear 27 1006 29 10000 7.2 340 19:46 10.02.2021
2685 Clear 27 1006 29 10000 7.2 340 19:25 10.02.2021
2686 Clear 26 1007 29 10000 5.66 340 18:44 10.02.2021
2687 Clear 26 1007 29 10000 5.66 340 18:23 10.02.2021
2688 Clouds 26 1008 29 10000 6.17 340 17:57 10.02.2021
2689 Clouds 26 1008 29 10000 6.17 340 17:24 10.02.2021
2690 Clear 24 1010 38 10000 2.57 360 16:53 10.02.2021
2691 Clear 24 1010 38 10000 2.57 360 16:31 10.02.2021
2692 Clear 20 1011 52 10000 3.73 9 15:59 10.02.2021
2693 Clear 20 1011 52 10000 2.76 11 15:24 10.02.2021
2694 Clear 18 1012 59 10000 2.76 11 14:52 10.02.2021
2695 Clear 18 1012 59 10000 2.76 11 14:31 10.02.2021
2696 Clear 17 1013 72 10000 2.43 12 13:53 10.02.2021
2697 Clear 17 1013 72 10000 2.29 5 13:29 10.02.2021
2698 Clear 17 1013 67 10000 3.09 360 12:52 10.02.2021
2699 Clear 17 1013 67 10000 3.09 360 12:30 10.02.2021
2700 Clear 17 1013 67 10000 3.09 360 12:30 10.02.2021
2701 Clear 15 1013 77 10000 3.09 360 11:56 10.02.2021
2702 Clear 15 1013 77 10000 3.09 360 11:37 10.02.2021
2703 Clear 15 1013 77 10000 3.09 360 11:19 10.02.2021
2704 Clear 12 1014 87 10000 2.06 230 10:23 10.02.2021
2705 Clear 14 1014 77 10000 1.03 110 09:53 10.02.2021
2706 Clear 14 1014 77 10000 1.03 110 09:30 10.02.2021
2707 Clear 16 1014 72 10000 3.09 50 08:52 10.02.2021
2708 Clear 16 1014 72 10000 3.09 50 08:32 10.02.2021
2709 Clear 17 1014 72 10000 1.03 140 07:31 10.02.2021
2710 Clear 17 1014 72 10000 1.54 180 06:21 10.02.2021
2711 Clear 20 1014 64 10000 1.54 160 01:24 10.02.2021
2712 Clouds 22 1014 49 10000 1.03 200 23:49 09.02.2021
2713 Clouds 22 1014 49 10000 1.03 200 23:30 09.02.2021
2714 Clouds 20 1014 52 10000 1.54 90 22:45 09.02.2021
2715 Clouds 20 1014 52 10000 1.54 90 22:23 09.02.2021
2716 Clouds 18 1014 59 10000 2.06 70 21:48 09.02.2021
2717 Clouds 18 1014 59 10000 2.06 70 21:21 09.02.2021
2718 Clouds 19 1015 52 10000 1.54 90 20:44 09.02.2021
2719 Clouds 19 1015 52 10000 1.54 90 20:25 09.02.2021
2720 Clouds 18 1015 55 10000 2.06 50 19:44 09.02.2021
2721 Clouds 18 1015 55 10000 2.06 50 19:23 09.02.2021
2722 Clouds 17 1016 59 10000 3.09 70 18:49 09.02.2021
2723 Clouds 17 1016 59 10000 3.09 70 18:30 09.02.2021
2724 Clouds 16 1016 67 10000 4.12 70 17:50 09.02.2021
2725 Clouds 16 1016 67 10000 4.12 70 17:50 09.02.2021
2726 Clouds 16 1016 67 10000 4.12 70 17:27 09.02.2021
2727 Clouds 15 1017 67 10000 4.12 70 16:54 09.02.2021
2728 Clouds 15 1017 67 10000 4.12 70 16:20 09.02.2021
2729 Clouds 14 1017 72 10000 3.09 70 15:58 09.02.2021
2730 Clouds 14 1017 72 10000 3.09 70 15:39 09.02.2021
2731 Clouds 14 1017 72 10000 3.09 70 15:20 09.02.2021
2732 Clouds 12 1017 82 10000 1.54 50 14:42 09.02.2021
2733 Clouds 12 1017 82 10000 1.54 50 14:21 09.02.2021
2734 Clouds 11 1017 87 10000 2.57 50 13:41 09.02.2021
2735 Clouds 11 1017 87 10000 2.57 50 13:20 09.02.2021
2736 Clouds 11 1017 87 10000 2.57 50 13:20 09.02.2021
2737 Clouds 10 1017 93 10000 2.57 50 12:43 09.02.2021
2738 Clouds 10 1017 93 10000 2.57 50 12:24 09.02.2021
2739 Clouds 10 1017 93 10000 2.06 50 11:44 09.02.2021
2740 Clouds 10 1017 93 10000 2.06 50 11:21 09.02.2021
2741 Clouds 10 1016 93 10000 3.6 70 10:57 09.02.2021
2742 Clouds 10 1016 93 10000 3.6 70 10:21 09.02.2021
2743 Clouds 10 1016 93 10000 4.12 50 09:52 09.02.2021
2744 Clouds 10 1016 93 10000 4.12 50 09:26 09.02.2021
2745 Clouds 11 1015 82 10000 0.72 301 08:56 09.02.2021
2746 Clouds 11 1015 82 10000 0.75 298 08:29 09.02.2021
2747 Clouds 12 1015 76 10000 3.6 230 07:41 09.02.2021
2748 Clouds 13 1013 76 10000 7.2 230 05:35 09.02.2021
2749 Clouds 13 1012 62 10000 7.2 230 03:49 09.02.2021
2750 Clouds 16 1011 63 10000 6.17 230 01:52 09.02.2021
2751 Clear 18 1010 45 10000 4.63 230 00:31 09.02.2021
2752 Clear 18 1009 59 10000 5.14 230 23:40 08.02.2021
2753 Clear 18 1009 59 10000 5.14 230 23:18 08.02.2021
2754 Clear 18 1009 59 10000 6.17 230 22:42 08.02.2021
2755 Clear 18 1009 59 10000 6.17 230 22:22 08.02.2021
2756 Clear 16 1008 55 10000 5.14 230 21:45 08.02.2021
2757 Clear 16 1008 55 10000 5.14 230 21:22 08.02.2021
2758 Clear 17 1008 55 10000 7.2 230 20:44 08.02.2021
2759 Clear 17 1008 55 10000 7.2 230 20:24 08.02.2021
2760 Clear 17 1008 59 10000 4.63 230 19:58 08.02.2021
2761 Clear 17 1008 59 10000 4.63 230 19:39 08.02.2021
2762 Clear 17 1008 59 10000 4.63 230 19:19 08.02.2021
2763 Clear 18 1008 52 10000 4.63 230 18:41 08.02.2021
2764 Clear 18 1008 52 10000 4.63 230 18:18 08.02.2021
2765 Clear 18 1008 55 10000 1.29 277 17:43 08.02.2021
2766 Clear 18 1008 55 10000 1.68 285 17:22 08.02.2021
2767 Clear 17 1008 59 10000 2.06 20 16:40 08.02.2021
2768 Clear 17 1008 59 10000 2.06 20 16:20 08.02.2021
2769 Clear 17 1008 55 10000 1.79 297 15:40 08.02.2021
2770 Clear 17 1008 55 10000 1.8 299 15:19 08.02.2021
2771 Clear 15 1008 58 10000 3.09 360 14:51 08.02.2021
2772 Clear 15 1008 58 10000 3.09 360 14:29 08.02.2021
2773 Clear 14 1008 67 10000 1.03 50 13:56 08.02.2021
2774 Clear 14 1008 67 10000 1.03 50 13:29 08.02.2021
2775 Clouds 12 1008 76 10000 2.06 50 12:49 08.02.2021
2776 Clouds 12 1008 76 10000 2.06 50 12:31 08.02.2021
2777 Clouds 12 1008 71 10000 3.6 340 11:42 08.02.2021
2778 Clouds 12 1008 71 10000 3.6 340 11:18 08.02.2021
2779 Clouds 10 1009 64 10000 2.29 321 10:42 08.02.2021
2780 Clouds 10 1009 62 10000 2.36 328 10:23 08.02.2021
2781 Clouds 10 1009 62 10000 2.36 328 09:50 08.02.2021
2782 Clouds 10 1009 60 10000 2.12 319 09:22 08.02.2021
2783 Clouds 10 1009 87 10000 2.06 210 08:31 08.02.2021
2784 Clouds 10 1009 61 10000 2.73 330 07:49 08.02.2021
2785 Clouds 9 1010 62 10000 2.76 333 07:21 08.02.2021
2786 Clouds 11 1009 82 10000 1.03 270 05:28 08.02.2021
2787 Clouds 11 1012 82 10000 4.12 50 02:27 08.02.2021
2788 Clouds 13 1012 71 10000 3.6 70 00:26 08.02.2021
2789 Clear 16 1013 59 10000 2.06 230 23:56 07.02.2021
2790 Clear 16 1013 59 10000 2.06 230 23:37 07.02.2021
2791 Clear 16 1013 59 10000 2.06 230 23:18 07.02.2021
2792 Clouds 17 1014 55 10000 3.09 230 22:42 07.02.2021
2793 Clouds 17 1014 55 10000 3.09 230 22:24 07.02.2021
2794 Clouds 16 1014 55 10000 3.6 230 21:51 07.02.2021
2795 Clouds 16 1014 55 10000 3.6 230 21:26 07.02.2021
2796 Clouds 17 1014 45 10000 4.12 230 20:51 07.02.2021
2797 Clouds 17 1014 45 10000 4.12 230 20:33 07.02.2021
2798 Clouds 15 1015 47 10000 5.66 230 19:54 07.02.2021
2799 Clouds 15 1015 47 10000 5.66 230 19:30 07.02.2021
2800 Clear 14 1016 54 10000 7.2 230 18:52 07.02.2021
2801 Clear 14 1016 54 10000 7.2 230 18:52 07.02.2021
2802 Clear 14 1016 54 10000 7.2 230 18:34 07.02.2021
2803 Clear 15 1016 55 10000 6.17 230 17:59 07.02.2021
2804 Clear 15 1016 55 10000 6.17 230 17:40 07.02.2021
2805 Clear 15 1016 55 10000 6.17 230 17:18 07.02.2021
2806 Clear 15 1016 55 10000 6.17 230 17:18 07.02.2021
2807 Clouds 14 1017 54 10000 6.69 230 16:44 07.02.2021
2808 Clouds 14 1017 54 10000 6.69 230 16:22 07.02.2021
2809 Clouds 14 1017 54 10000 6.69 230 16:22 07.02.2021
2810 Clouds 13 1017 54 10000 7.72 230 15:47 07.02.2021
2811 Clouds 13 1017 54 10000 7.72 230 15:28 07.02.2021
2812 Clouds 13 1017 54 10000 8.23 230 14:47 07.02.2021
2813 Clouds 13 1017 54 10000 8.23 230 14:29 07.02.2021
2814 Clouds 12 1018 58 10000 3.6 270 13:56 07.02.2021
2815 Clouds 12 1018 58 10000 3.6 270 13:34 07.02.2021
2816 Clouds 9 1019 76 10000 4.12 270 12:46 07.02.2021
2817 Clouds 9 1019 76 10000 4.12 270 12:23 07.02.2021
2818 Clouds 8 1019 71 10000 4.63 320 11:53 07.02.2021
2819 Clouds 8 1019 71 10000 4.63 320 11:27 07.02.2021
2820 Clouds 7 1018 76 10000 4.12 340 10:51 07.02.2021
2821 Clouds 7 1018 76 10000 4.12 340 10:26 07.02.2021
2822 Clouds 7 1018 76 10000 4.12 320 09:49 07.02.2021
2823 Clouds 7 1018 76 10000 4.12 320 09:21 07.02.2021
2824 Clouds 7 1018 81 10000 2.57 270 08:31 07.02.2021
2825 Clouds 7 1018 81 10000 3.6 270 07:38 07.02.2021
2826 Clouds 8 1019 81 10000 7.72 230 05:58 07.02.2021
2827 Clouds 10 1019 71 10000 4.12 270 03:54 07.02.2021
2828 Clouds 11 1019 76 10000 8.23 230 01:39 07.02.2021
2829 Clouds 11 1019 76 10000 9.77 230 00:36 07.02.2021
2830 Clouds 12 1018 71 10000 8.75 230 23:47 06.02.2021
2831 Clouds 12 1018 76 10000 8.23 230 22:48 06.02.2021
2832 Clouds 13 1018 71 10000 8.75 230 21:43 06.02.2021
2833 Clouds 13 1018 71 10000 8.75 230 21:23 06.02.2021
2834 Clouds 13 1018 67 10000 9.77 230 20:53 06.02.2021
2835 Clouds 13 1018 67 10000 9.77 230 20:26 06.02.2021
2836 Clouds 12 1018 62 10000 10.29 230 19:58 06.02.2021
2837 Clouds 12 1018 62 10000 10.29 230 19:34 06.02.2021
2838 Clouds 12 1018 50 10000 9.77 230 18:56 06.02.2021
2839 Clouds 12 1018 50 10000 9.77 230 18:35 06.02.2021
2840 Clouds 11 1019 50 10000 8.23 230 17:56 06.02.2021
2841 Clouds 11 1019 50 10000 8.23 230 17:38 06.02.2021
2842 Clouds 11 1019 50 10000 8.23 230 17:20 06.02.2021
2843 Clouds 11 1019 50 10000 8.75 230 16:42 06.02.2021
2844 Clouds 11 1019 50 10000 8.75 230 16:24 06.02.2021
2845 Clouds 10 1018 50 10000 8.75 230 15:48 06.02.2021
2846 Clouds 10 1018 50 10000 8.75 230 15:26 06.02.2021
2847 Clear 9 1019 57 10000 6.69 230 14:47 06.02.2021
2848 Clear 9 1019 57 10000 6.69 230 14:28 06.02.2021
2849 Clear 8 1019 53 10000 5.66 320 13:55 06.02.2021
2850 Clear 8 1019 53 10000 5.66 320 13:36 06.02.2021
2851 Clear 6 1019 61 10000 2.57 270 12:23 06.02.2021
2852 Clear 6 1019 70 10000 0.79 322 11:58 06.02.2021
2853 Clear 6 1019 70 10000 0.79 322 11:39 06.02.2021
2854 Clear 6 1019 70 10000 0.86 303 11:19 06.02.2021
2855 Clouds 5 1019 81 10000 3.09 320 10:47 06.02.2021
2856 Clouds 5 1019 81 10000 3.09 320 10:25 06.02.2021
2857 Clouds 5 1018 81 10000 4.63 230 09:37 06.02.2021
2858 Clouds 5 1018 81 10000 4.63 230 09:18 06.02.2021
2859 Clear 2 1017 85 10000 1.23 296 08:52 06.02.2021
2860 Clouds 5 1018 87 10000 9.26 250 08:28 06.02.2021
2861 Clouds 5 1018 93 10000 7.72 270 06:41 06.02.2021
2862 Clouds 5 1018 93 10000 5.14 230 05:33 06.02.2021
2863 Clouds 8 1016 76 10000 11.83 230 02:43 06.02.2021
2864 Clouds 8 1016 76 10000 11.32 230 00:56 06.02.2021
2865 Clouds 8 1016 76 10000 11.32 230 00:37 06.02.2021
2866 Clouds 8 1016 76 10000 11.32 230 00:18 06.02.2021
2867 Clouds 8 1016 81 10000 12.35 230 23:29 05.02.2021
2868 Clouds 9 1015 71 10000 12.86 230 22:49 05.02.2021
2869 Clouds 9 1015 71 10000 12.86 230 22:25 05.02.2021
2870 Clouds 9 1014 71 10000 13.89 230 21:54 05.02.2021
2871 Clouds 9 1014 71 10000 13.89 230 21:35 05.02.2021
2872 Clouds 10 1014 62 10000 12.35 230 20:56 05.02.2021
2873 Clouds 10 1014 62 10000 12.35 230 20:19 05.02.2021
2874 Clouds 10 1013 66 10000 11.32 230 19:39 05.02.2021
2875 Clouds 10 1013 66 10000 11.32 230 19:18 05.02.2021
2876 Clouds 9 1012 66 10000 14.4 230 18:38 05.02.2021
2877 Clouds 9 1012 66 10000 14.4 230 18:19 05.02.2021
2878 Clouds 10 1011 71 6444 12.35 230 17:35 05.02.2021
2879 Rain 9 1011 81 10000 15.43 230 16:58 05.02.2021
2880 Rain 9 1011 81 10000 15.43 230 16:39 05.02.2021
2881 Rain 9 1011 81 10000 15.43 230 16:20 05.02.2021
2882 Rain 10 1010 76 10000 13.89 230 15:45 05.02.2021
2883 Rain 10 1010 76 10000 13.89 230 15:22 05.02.2021
2884 Rain 9 1010 76 10000 15.43 203 14:38 05.02.2021
2885 Clouds 9 1010 76 10000 15.43 203 14:19 05.02.2021
2886 Clouds 8 1009 81 10000 14.4 230 13:48 05.02.2021
2887 Clouds 8 1009 81 10000 14.4 230 13:30 05.02.2021
2888 Rain 8 1009 81 10000 14.4 230 13:30 05.02.2021
2889 Rain 8 1008 76 10000 14.4 230 12:42 05.02.2021
2890 Rain 7 1009 81 8000 10.29 230 12:21 05.02.2021
2891 Rain 8 1007 76 10000 11.83 230 11:39 05.02.2021
2892 Drizzle 8 1007 76 10000 11.83 230 11:20 05.02.2021
2893 Rain 8 1007 71 10000 7.72 230 10:48 05.02.2021
2894 Drizzle 8 1007 71 10000 7.72 230 10:25 05.02.2021
2895 Rain 7 1006 76 10000 9.26 230 09:43 05.02.2021
2896 Rain 7 1006 76 10000 9.26 230 09:24 05.02.2021
2897 Rain 7 1006 81 10000 11.83 230 08:42 05.02.2021
2898 Clouds 8 1006 71 10000 11.83 230 07:43 05.02.2021
2899 Clouds 8 1006 71 10000 11.83 230 07:24 05.02.2021
2900 Clouds 8 1006 71 10000 13.89 230 06:34 05.02.2021
2901 Clouds 8 1007 71 10000 12.35 230 05:35 05.02.2021
2902 Clouds 8 1006 81 10000 15.43 230 02:26 05.02.2021
2903 Clouds 10 1005 76 10000 15.43 230 01:55 05.02.2021
2904 Clouds 11 1004 71 10000 16.46 230 00:38 05.02.2021
2905 Clouds 11 1004 71 10000 16.46 230 00:19 05.02.2021
2906 Clouds 12 1003 66 10000 16.46 230 23:43 04.02.2021
2907 Clouds 12 1003 66 10000 16.46 230 23:25 04.02.2021
2908 Clouds 12 1004 71 10000 16.98 230 22:55 04.02.2021
2909 Clouds 12 1004 71 10000 16.98 230 22:37 04.02.2021
2910 Clouds 13 1003 67 10000 16.98 230 21:58 04.02.2021
2911 Clouds 13 1003 67 10000 16.98 230 21:40 04.02.2021
2912 Clouds 13 1002 67 10000 15.95 230 20:58 04.02.2021
2913 Clouds 13 1002 67 10000 15.95 230 20:34 04.02.2021
2914 Clouds 13 1000 67 10000 18.52 230 19:53 04.02.2021
2915 Clouds 13 1000 67 10000 18.52 230 19:32 04.02.2021
2916 Clouds 14 1000 62 10000 18.01 230 18:51 04.02.2021
2917 Clouds 14 1000 62 10000 18.01 230 18:24 04.02.2021
2918 Clouds 14 999 54 10000 19.55 230 17:50 04.02.2021
2919 Clouds 14 999 54 10000 19.55 230 17:24 04.02.2021
2920 Clouds 14 999 62 10000 17.49 230 16:51 04.02.2021
2921 Rain 14 999 62 10000 17.49 230 16:21 04.02.2021
2922 Rain 14 999 62 10000 17.49 230 16:21 04.02.2021
2923 Rain 14 999 77 10000 15.95 230 15:58 04.02.2021
2924 Rain 14 999 77 10000 15.95 230 15:38 04.02.2021
2925 Rain 14 999 77 10000 15.95 230 15:20 04.02.2021
2926 Rain 13 998 82 10000 13.89 230 14:40 04.02.2021
2927 Rain 13 998 82 10000 13.89 230 14:20 04.02.2021
2928 Rain 14 999 77 10000 9.26 230 13:44 04.02.2021
2929 Rain 17 999 63 10000 11.83 230 12:58 04.02.2021
2930 Rain 17 999 63 10000 11.83 230 12:36 04.02.2021
2931 Rain 16 998 63 10000 7.72 230 11:54 04.02.2021
2932 Rain 16 998 63 10000 7.72 230 11:33 04.02.2021
2933 Rain 14 999 72 10000 4.63 180 10:51 04.02.2021
2934 Clouds 14 999 72 10000 4.63 180 10:21 04.02.2021
2935 Clouds 11 1000 76 10000 3.09 90 09:44 04.02.2021
2936 Rain 11 1000 76 10000 3.09 90 09:19 04.02.2021
2937 Rain 10 1001 76 10000 1.54 110 08:50 04.02.2021
2938 Clouds 10 1001 76 10000 1.54 110 08:25 04.02.2021
2939 Clouds 9 1003 81 10000 3.09 150 07:50 04.02.2021
2940 Clouds 9 1003 81 10000 3.09 150 07:32 04.02.2021
2941 Clouds 9 1004 81 10000 3.09 360 06:43 04.02.2021
2942 Clouds 9 1005 87 10000 1.54 90 05:31 04.02.2021
2943 Clouds 11 1009 62 10000 3.6 50 02:29 04.02.2021
2944 Rain 11 1011 66 10000 3.09 230 00:59 04.02.2021
2945 Rain 12 1011 58 10000 2.57 250 23:53 03.02.2021
2946 Rain 12 1011 58 10000 2.57 250 23:30 03.02.2021
2947 Rain 12 1011 54 10000 5.66 230 22:37 03.02.2021
2948 Clouds 12 1011 54 10000 5.66 230 22:19 03.02.2021
2949 Clouds 12 1011 54 10000 8.23 230 21:42 03.02.2021
2950 Clouds 12 1011 54 10000 8.23 230 21:22 03.02.2021
2951 Clouds 13 1011 58 10000 7.72 230 20:48 03.02.2021
2952 Clouds 13 1011 58 10000 7.72 230 20:29 03.02.2021
2953 Clouds 13 1011 58 10000 10.8 230 19:54 03.02.2021
2954 Clouds 13 1011 58 10000 10.8 230 19:24 03.02.2021
2955 Clouds 12 1011 58 10000 11.32 230 18:55 03.02.2021
2956 Clouds 12 1011 58 10000 11.32 230 18:36 03.02.2021
2957 Clouds 12 1011 58 10000 11.32 230 18:18 03.02.2021
2958 Clouds 12 1010 54 10000 12.35 230 17:42 03.02.2021
2959 Clouds 12 1010 54 10000 12.35 230 17:19 03.02.2021
2960 Clouds 12 1010 50 10000 11.83 230 16:37 03.02.2021
2961 Clouds 11 1009 58 10000 13.89 230 15:58 03.02.2021
2962 Clouds 11 1009 58 10000 13.89 230 15:38 03.02.2021
2963 Clouds 11 1009 58 10000 13.89 230 15:20 03.02.2021
2964 Clouds 10 1008 62 10000 14.4 230 14:43 03.02.2021
2965 Clouds 10 1008 62 10000 14.4 230 14:20 03.02.2021
2966 Clouds 10 1008 62 10000 13.38 230 13:43 03.02.2021
2967 Clouds 10 1008 62 10000 13.38 230 13:43 03.02.2021
2968 Clouds 10 1008 62 10000 13.38 230 13:19 03.02.2021
2969 Clouds 9 1006 66 10000 15.43 230 12:39 03.02.2021
2970 Clouds 9 1006 66 10000 15.43 230 12:20 03.02.2021
2971 Clouds 8 1005 76 10000 12.35 230 11:41 03.02.2021
2972 Clouds 8 1005 76 10000 12.35 230 11:23 03.02.2021
2973 Clouds 6 1003 93 10000 16.46 230 10:38 03.02.2021
2974 Rain 6 1003 93 10000 16.46 230 10:18 03.02.2021
2975 Rain 7 1001 93 10000 18.52 230 09:40 03.02.2021
2976 Rain 7 1001 93 10000 18.52 230 09:20 03.02.2021
2977 Rain 8 1001 93 10000 17.49 230 08:46 03.02.2021
2978 Rain 8 1000 93 10000 12.86 230 07:58 03.02.2021
2979 Rain 8 999 93 10000 11.83 230 06:43 03.02.2021
2980 Rain 10 998 87 10000 14.92 230 05:19 03.02.2021
2981 Rain 11 996 76 10000 15.43 230 04:42 03.02.2021
2982 Rain 12 996 71 10000 15.43 230 03:51 03.02.2021
2983 Rain 12 995 76 10000 13.89 230 02:41 03.02.2021
2984 Rain 13 994 71 10000 12.86 230 01:47 03.02.2021
2985 Rain 13 995 71 10000 11.83 230 00:24 03.02.2021
2986 Rain 13 995 76 10000 2.06 320 23:43 02.02.2021
2987 Rain 13 995 76 10000 2.06 320 23:25 02.02.2021
2988 Rain 13 996 76 10000 3.09 290 22:46 02.02.2021
2989 Rain 13 996 76 10000 3.09 290 22:20 02.02.2021
2990 Rain 12 996 82 10000 4.12 200 21:46 02.02.2021
2991 Rain 12 996 82 10000 4.12 200 21:46 02.02.2021
2992 Rain 12 996 82 10000 4.12 200 21:24 02.02.2021
2993 Rain 12 996 82 10000 4.12 200 21:24 02.02.2021
2994 Rain 12 998 82 10000 6.69 230 20:49 02.02.2021
2995 Rain 12 998 82 10000 6.69 230 20:21 02.02.2021
2996 Drizzle 13 998 71 10000 7.2 230 19:52 02.02.2021
2997 Rain 13 998 71 10000 7.2 230 19:34 02.02.2021
2998 Rain 12 998 71 10000 7.72 230 18:57 02.02.2021
2999 Rain 12 998 71 10000 7.72 230 18:38 02.02.2021
3000 Drizzle 12 998 71 10000 7.72 230 18:20 02.02.2021
3001 Clouds 13 999 58 10000 8.75 230 17:39 02.02.2021
3002 Clouds 13 999 58 10000 8.75 230 17:21 02.02.2021
3003 Clouds 12 999 66 10000 11.83 230 16:50 02.02.2021
3004 Clouds 12 999 66 10000 11.83 230 16:30 02.02.2021
3005 Clouds 12 999 66 10000 12.35 230 15:57 02.02.2021
3006 Clouds 12 999 66 10000 12.35 230 15:32 02.02.2021
3007 Rain 12 999 71 10000 10.8 230 14:55 02.02.2021
3008 Rain 12 999 71 10000 10.8 230 14:34 02.02.2021
3009 Clouds 11 1000 71 10000 10.29 230 13:59 02.02.2021
3010 Clouds 11 1000 71 10000 10.29 230 13:41 02.02.2021
3011 Clouds 11 1000 71 10000 10.29 230 13:22 02.02.2021
3012 Clouds 11 1000 71 10000 10.8 230 12:50 02.02.2021
3013 Clouds 10 1000 76 10000 7.72 270 11:55 02.02.2021
3014 Clouds 10 1000 76 10000 7.72 270 11:36 02.02.2021
3015 Clouds 10 1000 76 10000 7.72 270 11:18 02.02.2021
3016 Clouds 9 999 87 10000 10.8 270 10:42 02.02.2021
3017 Clouds 9 999 87 10000 10.8 270 10:22 02.02.2021
3018 Clouds 9 999 87 10000 11.32 250 09:39 02.02.2021
3019 Rain 9 999 87 10000 11.32 250 09:20 02.02.2021
3020 Rain 9 999 87 10000 5.66 270 08:34 02.02.2021
3021 Rain 9 1000 87 10000 8.23 270 07:44 02.02.2021
3022 Rain 9 1000 87 10000 4.12 250 06:47 02.02.2021
3023 Rain 9 1000 87 10000 4.12 250 06:29 02.02.2021
3024 Rain 9 1000 87 10000 3.6 270 05:50 02.02.2021
3025 Rain 9 1000 81 10000 4.63 230 02:57 02.02.2021
3026 Drizzle 9 1000 81 10000 4.63 230 02:24 02.02.2021
3027 Drizzle 10 999 76 10000 12.35 230 00:38 02.02.2021
3028 Clouds 10 998 71 10000 14.92 230 23:47 01.02.2021
3029 Clouds 11 997 66 10000 15.95 230 22:53 01.02.2021
3030 Clouds 11 997 66 10000 15.95 230 22:35 01.02.2021
3031 Clouds 11 996 66 10000 15.43 230 21:57 01.02.2021
3032 Clouds 11 996 66 10000 15.43 230 21:39 01.02.2021
3033 Clouds 11 996 66 10000 15.43 230 21:20 01.02.2021
3034 Clouds 12 995 58 10000 15.95 230 20:41 01.02.2021
3035 Clouds 12 995 58 10000 15.95 230 20:41 01.02.2021
3036 Clouds 12 995 58 10000 15.95 230 20:23 01.02.2021
3037 Clouds 11 995 71 10000 16.98 230 19:42 01.02.2021
3038 Clouds 11 995 71 10000 16.98 230 19:21 01.02.2021
3039 Clouds 11 995 71 10000 13.89 230 18:51 01.02.2021
3040 Clouds 11 995 71 10000 13.89 230 18:29 01.02.2021
3041 Clouds 11 995 71 10000 12.86 230 17:48 01.02.2021
3042 Rain 11 995 71 10000 12.86 230 17:26 01.02.2021
3043 Rain 10 994 76 10000 13.38 230 16:58 01.02.2021
3044 Rain 10 994 76 10000 13.38 230 16:32 01.02.2021
3045 Rain 9 993 76 10000 15.95 203 15:48 01.02.2021
3046 Rain 9 993 76 10000 15.95 203 15:20 01.02.2021
3047 Rain 9 993 76 10000 12.86 230 14:53 01.02.2021
3048 Rain 9 993 76 10000 12.86 230 14:34 01.02.2021
3049 Rain 9 993 76 8000 13.89 230 13:55 01.02.2021
3050 Rain 9 993 76 8000 13.89 230 13:37 01.02.2021
3051 Rain 9 993 76 8000 13.89 230 13:19 01.02.2021
3052 Rain 9 992 81 8000 15.43 230 12:42 01.02.2021
3053 Rain 9 992 81 8000 15.43 230 12:22 01.02.2021
3054 Rain 9 992 81 10000 14.4 230 11:40 01.02.2021
3055 Rain 9 992 81 10000 14.4 230 11:19 01.02.2021
3056 Rain 9 991 81 6000 11.32 230 10:45 01.02.2021
3057 Rain 9 991 81 6000 11.32 230 10:20 01.02.2021
3058 Rain 10 991 76 6000 6.17 230 09:44 01.02.2021
3059 Rain 10 991 76 6000 6.17 230 09:21 01.02.2021
3060 Rain 10 991 76 6000 6.17 230 08:44 01.02.2021
3061 Rain 10 992 76 8000 6.69 230 07:50 01.02.2021
3062 Rain 11 992 82 8000 6.17 200 06:20 01.02.2021
3063 Rain 10 994 76 10000 6.17 230 04:21 01.02.2021
3064 Clouds 12 995 66 10000 3.09 320 01:30 01.02.2021
3065 Clouds 12 998 62 10000 3.6 140 23:42 31.01.2021
3066 Clouds 12 999 62 10000 3.26 326 22:44 31.01.2021
3067 Clouds 12 999 62 10000 3.95 333 22:24 31.01.2021
3068 Clouds 13 1000 54 10000 1.54 160 21:55 31.01.2021
3069 Clouds 13 1000 54 10000 1.54 160 21:25 31.01.2021
3070 Clouds 13 1000 58 10000 1.03 180 20:57 31.01.2021
3071 Clouds 13 1000 58 10000 1.03 180 20:37 31.01.2021
3072 Clouds 13 1000 58 10000 1.03 180 20:18 31.01.2021
3073 Clouds 12 1001 58 10000 1.54 90 19:37 31.01.2021
3074 Clouds 12 1001 58 10000 1.54 90 19:19 31.01.2021
3075 Clouds 12 1001 58 10000 1.54 90 19:19 31.01.2021
3076 Clouds 12 1001 58 10000 1.54 90 19:19 31.01.2021
3077 Clouds 12 1002 54 10000 1.03 340 18:41 31.01.2021
3078 Clouds 12 1002 54 10000 1.03 340 18:23 31.01.2021
3079 Clouds 11 1002 58 10000 1.54 270 17:47 31.01.2021
3080 Clouds 11 1002 58 10000 1.54 270 17:24 31.01.2021
3081 Clouds 11 1003 58 10000 2.57 320 16:52 31.01.2021
3082 Clouds 11 1003 58 10000 2.57 320 16:33 31.01.2021
3083 Clouds 10 1004 62 10000 4.12 270 15:52 31.01.2021
3084 Clouds 10 1004 62 10000 4.12 270 15:34 31.01.2021
3085 Clouds 10 1004 53 10000 3.6 320 14:45 31.01.2021
3086 Clouds 10 1004 53 10000 3.6 320 14:25 31.01.2021
3087 Clouds 8 1005 76 10000 3.6 270 13:56 31.01.2021
3088 Clouds 8 1005 76 10000 3.6 270 13:56 31.01.2021
3089 Clouds 8 1005 76 10000 3.6 270 13:37 31.01.2021
3090 Clear 9 1005 61 10000 3.6 320 12:49 31.01.2021
3091 Clear 9 1005 61 10000 3.6 320 12:23 31.01.2021
3092 Clear 10 1006 53 10000 4.63 270 11:58 31.01.2021
3093 Clear 10 1006 53 10000 4.63 270 11:37 31.01.2021
3094 Clear 10 1006 53 10000 4.63 270 11:19 31.01.2021
3095 Clouds 9 1006 61 10000 5.66 320 10:43 31.01.2021
3096 Clouds 9 1006 61 10000 5.66 320 10:24 31.01.2021
3097 Clouds 9 1006 61 10000 4.12 320 09:33 31.01.2021
3098 Clouds 7 1007 76 10000 3.6 290 08:34 31.01.2021
3099 Clear 8 1007 71 10000 3.09 320 07:48 31.01.2021
3100 Clear 9 1009 61 10000 4.12 270 05:53 31.01.2021
3101 Clouds 11 1009 62 10000 10.8 230 00:52 31.01.2021
3102 Clouds 11 1009 62 10000 10.8 230 00:26 31.01.2021
3103 Clouds 11 1009 62 10000 11.32 230 23:34 30.01.2021
3104 Clouds 12 1009 54 10000 10.8 230 22:59 30.01.2021
3105 Clouds 12 1009 54 10000 10.8 230 22:33 30.01.2021
3106 Clouds 12 1009 54 10000 11.32 230 21:43 30.01.2021
3107 Clouds 12 1009 54 10000 11.32 230 21:23 30.01.2021
3108 Clouds 12 1009 58 10000 11.83 230 20:54 30.01.2021
3109 Clouds 12 1009 58 10000 11.83 230 20:34 30.01.2021
3110 Clouds 12 1009 58 10000 12.35 230 19:58 30.01.2021
3111 Clouds 12 1009 58 10000 12.35 230 19:39 30.01.2021
3112 Clouds 12 1009 58 10000 12.35 230 19:19 30.01.2021
3113 Clouds 11 1009 62 10000 11.83 230 18:40 30.01.2021
3114 Clouds 11 1009 62 10000 11.83 230 18:19 30.01.2021
3115 Clouds 11 1009 62 10000 12.35 230 17:37 30.01.2021
3116 Clouds 11 1009 62 10000 12.35 230 17:18 30.01.2021
3117 Clouds 11 1009 62 10000 10.29 230 16:37 30.01.2021
3118 Clouds 11 1009 62 10000 10.29 230 16:19 30.01.2021
3119 Clouds 10 1009 62 10000 10.8 230 15:44 30.01.2021
3120 Clouds 10 1009 62 10000 10.8 230 15:22 30.01.2021
3121 Clouds 10 1010 62 10000 10.29 230 14:52 30.01.2021
3122 Clouds 10 1010 62 10000 10.29 230 14:24 30.01.2021
3123 Clouds 9 1009 57 10000 9.26 230 13:48 30.01.2021
3124 Clouds 9 1009 57 10000 9.26 230 13:20 30.01.2021
3125 Clouds 8 1009 57 10000 6.17 270 12:43 30.01.2021
3126 Clouds 8 1009 57 10000 6.17 270 12:22 30.01.2021
3127 Clouds 6 1009 65 10000 7.2 270 11:41 30.01.2021
3128 Clouds 4 1009 75 10000 4.63 270 10:55 30.01.2021
3129 Clouds 4 1009 75 10000 4.63 270 10:26 30.01.2021
3130 Clouds 4 1008 81 10000 4.63 270 09:41 30.01.2021
3131 Clouds 4 1008 81 10000 4.63 270 09:22 30.01.2021
3132 Clouds 4 1008 81 10000 6.17 250 08:43 30.01.2021
3133 Clouds 4 1008 81 10000 5.66 250 07:40 30.01.2021
3134 Clouds 6 1007 75 10000 7.2 230 06:21 30.01.2021
3135 Clouds 6 1006 75 10000 7.72 230 03:43 30.01.2021
3136 Clouds 6 1005 75 10000 10.29 230 02:52 30.01.2021
3137 Clouds 6 1005 75 10000 10.29 230 02:21 30.01.2021
3138 Clouds 6 1004 75 10000 9.77 230 00:53 30.01.2021
3139 Clouds 6 1004 75 10000 9.77 230 00:21 30.01.2021
3140 Drizzle 6 1003 70 10000 10.8 230 23:50 29.01.2021
3141 Drizzle 6 1003 70 10000 10.8 230 23:27 29.01.2021
3142 Drizzle 6 1003 70 7000 5.14 180 22:45 29.01.2021
3143 Drizzle 6 1003 70 7000 5.14 180 22:25 29.01.2021
3144 Drizzle 5 1002 75 7000 11.32 230 21:56 29.01.2021
3145 Drizzle 5 1002 75 7000 11.32 230 21:26 29.01.2021
3146 Drizzle 6 1002 70 10000 10.29 230 20:43 29.01.2021
3147 Drizzle 6 1002 70 10000 10.29 230 20:22 29.01.2021
3148 Drizzle 4 1001 81 10000 13.89 230 19:40 29.01.2021
3149 Drizzle 4 1001 81 10000 13.89 230 19:21 29.01.2021
3150 Clouds 4 1003 65 10000 11.32 230 18:53 29.01.2021
3151 Drizzle 5 1000 70 10000 12.86 230 17:48 29.01.2021
3152 Drizzle 5 1000 70 10000 12.86 230 17:23 29.01.2021
3153 Drizzle 5 1000 75 10000 12.86 230 16:52 29.01.2021
3154 Drizzle 5 1000 75 10000 12.86 230 16:24 29.01.2021
3155 Drizzle 4 999 87 10000 12.35 230 15:55 29.01.2021
3156 Drizzle 4 999 87 10000 12.35 230 15:37 29.01.2021
3157 Drizzle 4 999 87 10000 12.35 230 15:18 29.01.2021
3158 Clouds 4 1000 81 10000 8.75 230 14:23 29.01.2021
3159 Clouds 4 1000 81 10000 10.29 230 13:46 29.01.2021
3160 Snow 4 1000 81 10000 10.29 230 13:28 29.01.2021
3161 Drizzle 4 999 81 10000 9.26 230 12:42 29.01.2021
3162 Snow 4 999 81 10000 9.26 230 12:18 29.01.2021
3163 Snow 4 998 75 10000 10.29 230 11:41 29.01.2021
3164 Snow 4 998 75 10000 10.29 230 11:41 29.01.2021
3165 Clouds 4 998 75 10000 10.29 230 11:18 29.01.2021
3166 Clouds 3 997 87 10000 10.29 230 10:46 29.01.2021
3167 Snow 3 997 87 10000 10.29 230 10:22 29.01.2021
3168 Snow 3 997 87 10000 12.35 230 09:39 29.01.2021
3169 Snow 4 997 87 10000 10.29 230 08:50 29.01.2021
3170 Snow 4 997 87 10000 10.29 230 08:26 29.01.2021
3171 Snow 3 997 85 1601 3.01 212 07:48 29.01.2021
3172 Clouds 4 995 87 10000 11.83 230 07:29 29.01.2021
3173 Snow 4 995 87 10000 11.83 230 06:48 29.01.2021
3174 Snow 5 995 87 8000 12.86 230 04:53 29.01.2021
3175 Snow 6 992 81 10000 12.86 230 01:50 29.01.2021
3176 Snow 6 992 81 10000 12.86 230 00:37 29.01.2021
3177 Rain 6 992 81 10000 12.86 230 00:19 29.01.2021
3178 Rain 7 992 70 10000 11.83 230 23:39 28.01.2021
3179 Rain 7 992 70 10000 11.83 230 23:20 28.01.2021
3180 Rain 8 992 66 10000 9.26 230 22:42 28.01.2021
3181 Rain 8 992 66 10000 9.26 230 22:24 28.01.2021
3182 Rain 8 991 71 10000 11.32 230 21:45 28.01.2021
3183 Rain 8 991 71 10000 11.32 230 21:27 28.01.2021
3184 Rain 7 991 81 10000 10.29 230 20:47 28.01.2021
3185 Rain 7 991 81 10000 10.29 230 20:20 28.01.2021
3186 Rain 6 991 93 10000 7.2 230 19:59 28.01.2021
3187 Rain 6 991 93 10000 7.2 230 19:36 28.01.2021
3188 Rain 6 991 93 10000 7.2 230 19:18 28.01.2021
3189 Rain 7 991 81 10000 7.72 230 18:41 28.01.2021
3190 Rain 7 991 81 10000 7.72 230 18:19 28.01.2021
3191 Rain 7 991 76 10000 6.17 230 17:44 28.01.2021
3192 Rain 7 991 76 10000 6.17 230 17:24 28.01.2021
3193 Drizzle 7 992 81 10000 3.09 200 16:44 28.01.2021
3194 Rain 7 992 81 10000 3.09 200 16:21 28.01.2021
3195 Rain 7 992 76 10000 2.06 180 15:39 28.01.2021
3196 Clouds 7 992 76 10000 1.54 180 14:58 28.01.2021
3197 Clouds 7 992 76 10000 1.54 180 14:39 28.01.2021
3198 Clouds 7 992 76 10000 1.54 180 14:20 28.01.2021
3199 Clouds 6 992 75 10000 1.03 200 13:43 28.01.2021
3200 Clouds 5 992 81 10000 1.03 250 12:52 28.01.2021
3201 Clouds 5 992 81 10000 1.03 250 12:33 28.01.2021
3202 Clouds 4 992 87 10000 2.06 320 11:59 28.01.2021
3203 Clouds 4 992 87 10000 2.06 320 11:40 28.01.2021
3204 Clouds 4 992 87 10000 2.06 320 11:19 28.01.2021
3205 Clouds 4 992 87 10000 1.03 320 10:50 28.01.2021
3206 Clouds 4 992 87 10000 1.03 320 10:27 28.01.2021
3207 Clouds 4 992 81 10000 2.06 270 09:44 28.01.2021
3208 Clouds 4 992 81 10000 2.06 270 09:22 28.01.2021
3209 Clouds 4 992 87 10000 1.54 270 08:49 28.01.2021
3210 Clouds 4 992 87 10000 1.54 270 08:18 28.01.2021
3211 Clouds 5 992 81 10000 1.54 270 07:43 28.01.2021
3212 Clouds 5 993 75 10000 2.06 320 06:49 28.01.2021
3213 Clouds 5 993 70 10000 3.6 250 05:28 28.01.2021
3214 Clouds 5 993 81 10000 7.2 250 03:49 28.01.2021
3215 Clouds 4 993 93 10000 8.23 230 00:58 28.01.2021
3216 Clouds 4 993 93 10000 8.75 230 23:47 27.01.2021
3217 Clouds 4 993 93 10000 8.75 230 23:23 27.01.2021
3218 Drizzle 5 993 87 10000 10.8 230 22:41 27.01.2021
3219 Drizzle 5 993 87 10000 10.8 230 22:21 27.01.2021
3220 Drizzle 6 992 81 10000 11.83 230 21:42 27.01.2021
3221 Drizzle 6 992 81 10000 11.83 230 21:22 27.01.2021
3222 Clouds 7 992 70 10000 7.72 230 20:52 27.01.2021
3223 Clouds 7 992 70 10000 7.72 230 20:23 27.01.2021
3224 Clouds 7 993 70 10000 8.75 230 19:49 27.01.2021
3225 Clouds 7 993 70 10000 8.75 230 19:23 27.01.2021
3226 Drizzle 6 993 75 10000 10.8 230 18:45 27.01.2021
3227 Drizzle 6 993 75 10000 10.8 230 18:24 27.01.2021
3228 Drizzle 7 993 70 10000 12.35 230 17:55 27.01.2021
3229 Clouds 7 993 70 10000 9.26 230 17:35 27.01.2021
3230 Clouds 7 994 70 10000 7.2 230 16:57 27.01.2021
3231 Clouds 7 994 70 10000 7.2 230 16:38 27.01.2021
3232 Clouds 7 994 70 10000 7.2 230 16:20 27.01.2021
3233 Drizzle 5 994 75 10000 8.23 230 15:49 27.01.2021
3234 Drizzle 5 994 75 10000 8.23 230 15:49 27.01.2021
3235 Drizzle 5 994 75 10000 8.23 230 15:29 27.01.2021
3236 Clouds 5 995 75 10000 5.66 230 14:24 27.01.2021
3237 Drizzle 4 995 70 10000 7.72 230 13:53 27.01.2021
3238 Drizzle 4 995 70 10000 7.72 230 13:35 27.01.2021
3239 Snow 4 995 81 10000 5.14 230 12:42 27.01.2021
3240 Snow 4 995 81 10000 5.14 230 12:23 27.01.2021
3241 Snow 4 995 75 10000 4.12 250 11:47 27.01.2021
3242 Snow 4 995 75 10000 4.12 250 11:26 27.01.2021
3243 Snow 4 995 81 10000 5.14 270 10:45 27.01.2021
3244 Snow 4 996 81 10000 5.14 250 10:22 27.01.2021
3245 Snow 4 996 81 10000 5.14 250 09:53 27.01.2021
3246 Snow 4 996 81 10000 5.14 250 09:28 27.01.2021
3247 Snow 4 996 81 10000 6.17 230 08:42 27.01.2021
3248 Snow 4 996 81 10000 7.72 230 07:49 27.01.2021
3249 Snow 4 996 81 10000 7.72 230 07:30 27.01.2021
3250 Snow 4 996 75 10000 7.2 230 06:26 27.01.2021
3251 Snow 4 995 75 10000 10.29 230 05:53 27.01.2021
3252 Snow 4 995 75 10000 10.29 230 05:33 27.01.2021
3253 Snow 4 995 75 10000 8.75 250 02:46 27.01.2021
3254 Snow 4 995 75 10000 8.75 250 02:20 27.01.2021
3255 Rain 4 995 87 8000 6.17 230 00:58 27.01.2021
3256 Rain 4 995 87 8000 6.17 230 00:22 27.01.2021
3257 Clouds 6 994 70 10000 6.69 230 23:38 26.01.2021
3258 Clouds 6 994 70 10000 6.69 230 23:19 26.01.2021
3259 Rain 5 992 81 8000 11.32 230 22:38 26.01.2021
3260 Rain 5 992 81 8000 11.32 230 22:19 26.01.2021
3261 Rain 6 992 70 6000 12.86 230 21:51 26.01.2021
3262 Clouds 7 992 61 8000 11.83 230 21:23 26.01.2021
3263 Rain 5 991 87 10000 10.29 230 20:43 26.01.2021
3264 Rain 5 991 87 10000 10.29 230 20:23 26.01.2021
3265 Rain 7 990 65 8000 15.43 230 19:51 26.01.2021
3266 Drizzle 7 990 65 8000 10.8 230 19:29 26.01.2021
3267 Drizzle 7 990 61 8000 10.29 230 18:58 26.01.2021
3268 Drizzle 7 990 61 8000 10.29 230 18:58 26.01.2021
3269 Drizzle 7 990 61 8000 10.29 230 18:40 26.01.2021
3270 Drizzle 7 990 61 8000 10.29 230 18:21 26.01.2021
3271 Drizzle 6 990 70 8000 7.2 230 17:47 26.01.2021
3272 Drizzle 6 990 70 8000 7.2 230 17:22 26.01.2021
3273 Drizzle 5 988 75 8000 14.4 230 16:43 26.01.2021
3274 Drizzle 5 988 75 8000 14.4 230 16:20 26.01.2021
3275 Clouds 5 989 87 10000 9.77 230 15:50 26.01.2021
3276 Clouds 5 989 87 10000 9.77 230 15:30 26.01.2021
3277 Clouds 5 988 87 10000 6.17 320 14:49 26.01.2021
3278 Clouds 5 988 87 10000 6.17 320 14:30 26.01.2021
3279 Drizzle 4 987 87 5000 14.92 230 13:48 26.01.2021
3280 Snow 4 987 87 5000 14.92 230 13:27 26.01.2021
3281 Drizzle 5 986 81 10000 9.26 230 12:45 26.01.2021
3282 Snow 5 986 81 10000 9.26 230 12:25 26.01.2021
3283 Snow 5 986 87 10000 9.77 230 11:59 26.01.2021
3284 Snow 5 986 87 10000 9.77 230 11:39 26.01.2021
3285 Drizzle 5 985 87 10000 12.86 230 10:55 26.01.2021
3286 Snow 5 985 87 10000 12.86 230 10:33 26.01.2021
3287 Snow 5 985 87 10000 12.86 230 10:33 26.01.2021
3288 Snow 6 985 75 10000 9.26 200 09:49 26.01.2021
3289 Snow 6 985 75 10000 9.26 200 09:30 26.01.2021
3290 Snow 6 984 70 10000 8.75 230 08:53 26.01.2021
3291 Snow 6 984 70 10000 8.75 230 08:34 26.01.2021
3292 Snow 6 984 70 10000 9.77 230 07:50 26.01.2021
3293 Snow 6 983 65 10000 7.2 230 06:53 26.01.2021
3294 Clouds 7 983 61 10000 8.23 230 05:45 26.01.2021
3295 Clouds 7 983 61 10000 8.23 230 05:24 26.01.2021
3296 Rain 8 983 61 10000 9.77 230 02:57 26.01.2021
3297 Clouds 10 983 46 10000 7.72 230 00:58 26.01.2021
3298 Rain 11 982 50 10000 7.2 230 23:44 25.01.2021
3299 Rain 11 982 50 10000 7.2 230 23:25 25.01.2021
3300 Rain 12 982 40 10000 5.14 250 22:40 25.01.2021
3301 Rain 12 982 40 10000 5.14 250 22:18 25.01.2021
3302 Rain 12 983 40 10000 4.12 250 21:39 25.01.2021
3303 Rain 11 982 43 10000 10.29 230 20:53 25.01.2021
3304 Rain 11 982 43 10000 10.29 230 20:33 25.01.2021
3305 Rain 12 983 40 10000 3.6 250 19:58 25.01.2021
3306 Rain 12 983 40 10000 3.6 250 19:40 25.01.2021
3307 Rain 12 983 40 10000 3.6 250 19:20 25.01.2021
3308 Rain 10 983 50 10000 8.75 230 18:42 25.01.2021
3309 Rain 10 983 50 10000 8.75 230 18:22 25.01.2021
3310 Rain 13 983 35 10000 5.66 320 17:43 25.01.2021
3311 Rain 13 983 35 10000 5.66 320 17:24 25.01.2021
3312 Rain 12 984 40 10000 2.57 140 16:43 25.01.2021
3313 Clouds 12 984 40 10000 2.57 140 16:24 25.01.2021
3314 Clouds 11 983 50 10000 3.09 140 15:54 25.01.2021
3315 Clouds 11 983 50 10000 3.09 140 15:34 25.01.2021
3316 Clouds 10 983 53 10000 3.6 90 14:53 25.01.2021
3317 Clouds 10 983 53 10000 3.6 90 14:20 25.01.2021
3318 Clouds 10 984 53 10000 2.57 140 13:56 25.01.2021
3319 Clouds 10 984 53 10000 2.57 140 13:36 25.01.2021
3320 Clouds 10 984 53 10000 2.57 140 13:36 25.01.2021
3321 Clouds 8 984 66 10000 3.09 230 12:49 25.01.2021
3322 Clouds 8 984 66 10000 3.09 230 12:25 25.01.2021
3323 Clouds 7 984 70 10000 3.53 334 11:58 25.01.2021
3324 Clouds 7 984 70 10000 2.91 343 11:25 25.01.2021
3325 Clouds 6 983 81 10000 2.91 343 10:45 25.01.2021
3326 Clouds 7 984 76 10000 3.01 344 10:21 25.01.2021
3327 Clouds 7 984 76 10000 3.01 344 09:48 25.01.2021
3328 Clouds 7 984 76 10000 3.24 342 09:28 25.01.2021
3329 Clouds 7 984 76 10000 3.24 342 08:33 25.01.2021
3330 Clouds 7 984 76 10000 1.54 20 07:56 25.01.2021
3331 Clouds 7 984 76 10000 1.54 20 07:28 25.01.2021
3332 Clouds 7 985 81 10000 2.06 270 06:27 25.01.2021
3333 Rain 9 984 76 10000 9.77 230 02:23 25.01.2021
3334 Rain 9 984 81 10000 11.32 230 00:40 25.01.2021
3335 Rain 12 984 71 8000 5.14 290 23:21 24.01.2021
3336 Rain 14 983 54 10000 8.23 320 22:59 24.01.2021
3337 Rain 14 983 54 10000 8.23 320 22:40 24.01.2021
3338 Rain 14 983 54 10000 8.23 320 22:18 24.01.2021
3339 Rain 16 984 41 10000 6.17 340 21:30 24.01.2021
3340 Rain 18 985 32 10000 12.86 320 20:47 24.01.2021
3341 Rain 19 986 30 10000 9.26 320 20:24 24.01.2021
3342 Rain 18 987 29 10000 10.29 320 19:58 24.01.2021
3343 Rain 18 987 29 10000 10.29 320 19:39 24.01.2021
3344 Rain 18 987 29 10000 10.29 320 19:20 24.01.2021
3345 Rain 18 989 32 10000 7.2 320 18:55 24.01.2021
3346 Rain 18 989 32 10000 7.2 320 18:36 24.01.2021
3347 Rain 18 989 32 10000 7.2 320 18:18 24.01.2021
3348 Rain 18 990 34 10000 8.75 320 17:43 24.01.2021
3349 Rain 18 990 34 10000 8.75 320 17:19 24.01.2021
3350 Rain 17 991 36 10000 7.72 320 16:41 24.01.2021
3351 Clouds 17 991 36 10000 7.72 320 16:21 24.01.2021
3352 Clouds 16 992 41 10000 8.75 360 15:47 24.01.2021
3353 Clouds 16 992 41 10000 8.75 360 15:21 24.01.2021
3354 Clouds 15 993 47 10000 7.72 360 14:57 24.01.2021
3355 Clouds 15 993 47 10000 7.72 360 14:33 24.01.2021
3356 Clouds 14 994 47 10000 7.2 360 13:40 24.01.2021
3357 Rain 14 995 51 10000 7.2 360 12:56 24.01.2021
3358 Rain 14 995 51 10000 7.2 360 12:36 24.01.2021
3359 Rain 14 995 51 10000 7.2 360 12:18 24.01.2021
3360 Rain 13 995 67 10000 7.2 360 11:45 24.01.2021
3361 Clouds 13 995 67 10000 7.2 360 11:22 24.01.2021
3362 Clouds 13 996 50 10000 6.17 340 10:36 24.01.2021
3363 Clouds 13 996 50 10000 6.17 340 10:36 24.01.2021
3364 Clouds 13 995 50 10000 5.66 290 09:53 24.01.2021
3365 Rain 13 995 50 10000 5.66 290 09:22 24.01.2021
3366 Rain 13 996 50 10000 5.66 320 08:52 24.01.2021
3367 Rain 13 997 50 10000 7.2 320 06:49 24.01.2021
3368 Rain 14 998 44 10000 8.23 320 02:21 24.01.2021
3369 Rain 15 998 41 10000 9.26 320 00:58 24.01.2021
3370 Rain 15 998 41 10000 9.26 320 00:23 24.01.2021
3371 Rain 15 998 41 10000 8.75 320 23:47 23.01.2021
3372 Rain 15 998 41 10000 8.75 320 23:24 23.01.2021
3373 Rain 16 998 36 10000 9.77 320 22:41 23.01.2021
3374 Rain 16 998 36 10000 9.77 320 22:21 23.01.2021
3375 Rain 18 999 36 10000 8.75 320 21:48 23.01.2021
3376 Clouds 18 999 36 10000 8.75 320 21:21 23.01.2021
3377 Clouds 16 999 41 10000 4.65 322 20:43 23.01.2021
3378 Rain 16 999 41 10000 3.92 327 20:21 23.01.2021
3379 Rain 12 999 62 10000 3.92 327 19:46 23.01.2021
3380 Rain 12 999 62 10000 3.89 331 19:20 23.01.2021
3381 Rain 13 1000 54 10000 3.89 331 18:46 23.01.2021
3382 Rain 13 1000 54 10000 2.55 325 18:24 23.01.2021
3383 Rain 11 1001 69 10000 2.55 325 17:45 23.01.2021
3384 Rain 11 1000 66 10000 2.06 240 17:26 23.01.2021
3385 Rain 10 999 57 10000 4.63 180 16:48 23.01.2021
3386 Rain 10 999 57 10000 4.63 180 16:25 23.01.2021
3387 Rain 10 999 57 10000 4.63 180 15:40 23.01.2021
3388 Clouds 10 999 57 10000 4.63 180 15:20 23.01.2021
3389 Clouds 10 998 53 10000 4.12 180 14:31 23.01.2021
3390 Rain 10 998 53 10000 5.66 230 13:54 23.01.2021
3391 Rain 10 998 53 10000 5.66 230 13:35 23.01.2021
3392 Rain 10 997 53 10000 4.12 160 12:57 23.01.2021
3393 Rain 10 997 53 10000 4.12 160 12:27 23.01.2021
3394 Rain 9 996 61 10000 7.2 360 11:47 23.01.2021
3395 Clouds 9 996 61 10000 7.2 360 11:27 23.01.2021
3396 Clouds 7 997 70 10000 2.15 329 10:50 23.01.2021
3397 Clouds 7 997 70 10000 2.64 332 10:21 23.01.2021
3398 Clouds 7 997 70 10000 5.14 320 09:47 23.01.2021
3399 Clouds 8 997 71 10000 4.12 320 08:54 23.01.2021
3400 Clouds 8 997 71 10000 4.12 320 08:31 23.01.2021
3401 Clouds 10 997 46 10000 5.14 320 07:25 23.01.2021
3402 Clouds 11 998 40 10000 6.17 340 03:36 23.01.2021
3403 Clouds 12 999 43 10000 4.63 320 00:42 23.01.2021
3404 Clouds 14 998 35 10000 4.63 320 23:41 22.01.2021
3405 Clouds 14 998 35 10000 6.17 320 22:57 22.01.2021
3406 Clouds 14 998 35 10000 6.17 320 22:38 22.01.2021
3407 Clouds 15 999 41 10000 5.14 320 21:46 22.01.2021
3408 Clouds 15 999 41 10000 5.14 320 21:27 22.01.2021
3409 Clouds 16 999 41 10000 7.2 320 20:57 22.01.2021
3410 Clouds 16 999 41 10000 7.2 320 20:38 22.01.2021
3411 Clouds 16 999 41 10000 7.2 320 20:38 22.01.2021
3412 Clouds 14 998 44 10000 6.17 230 19:56 22.01.2021
3413 Clouds 14 998 44 10000 6.17 230 19:24 22.01.2021
3414 Clouds 14 999 44 10000 3.09 200 18:57 22.01.2021
3415 Clouds 14 999 44 10000 3.09 200 18:39 22.01.2021
3416 Clouds 14 999 44 10000 3.09 200 18:20 22.01.2021
3417 Clouds 14 999 44 10000 4.12 180 17:43 22.01.2021
3418 Clouds 12 999 47 10000 2.57 140 16:59 22.01.2021
3419 Clouds 12 999 47 10000 2.57 140 16:38 22.01.2021
3420 Clouds 12 999 47 10000 2.57 140 16:19 22.01.2021
3421 Clouds 13 1000 44 10000 2.06 180 15:28 22.01.2021
3422 Clouds 12 999 47 10000 1.54 90 14:54 22.01.2021
3423 Clouds 12 999 47 10000 1.54 90 14:29 22.01.2021
3424 Clouds 11 999 50 10000 2.06 180 13:47 22.01.2021
3425 Clouds 11 999 50 10000 2.06 180 13:28 22.01.2021
3426 Clouds 9 999 57 10000 1.54 180 12:45 22.01.2021
3427 Clouds 9 999 57 10000 1.54 180 12:22 22.01.2021
3428 Clouds 8 999 57 10000 2.41 324 11:46 22.01.2021
3429 Clouds 6 998 65 10000 1.54 0 10:55 22.01.2021
3430 Clouds 6 998 65 10000 1.54 0 10:35 22.01.2021
3431 Clouds 6 998 70 10000 4.63 250 09:57 22.01.2021
3432 Clouds 6 998 70 10000 4.63 250 09:27 22.01.2021
3433 Clouds 6 997 81 10000 4.12 270 08:50 22.01.2021
3434 Clouds 6 997 81 10000 4.12 270 08:50 22.01.2021
3435 Clouds 6 997 81 10000 4.12 270 08:25 22.01.2021
3436 Clouds 7 997 76 10000 4.63 200 07:31 22.01.2021
3437 Clouds 10 996 62 10000 7.72 230 03:21 22.01.2021
3438 Rain 13 996 54 10000 3.09 230 00:39 22.01.2021
3439 Clouds 12 995 66 10000 2.57 110 23:51 21.01.2021
3440 Clouds 12 995 66 10000 2.57 110 23:29 21.01.2021
3441 Clouds 12 996 71 10000 1.54 140 22:51 21.01.2021
3442 Clouds 12 996 71 10000 1.54 140 22:30 21.01.2021
3443 Clouds 11 995 82 10000 3.09 160 21:43 21.01.2021
3444 Rain 11 995 82 10000 3.09 160 21:20 21.01.2021
3445 Rain 9 997 81 10000 5.14 320 20:48 21.01.2021
3446 Rain 9 997 81 7000 8.75 230 20:29 21.01.2021
3447 Rain 12 996 66 10000 11.32 230 19:52 21.01.2021
3448 Rain 14 996 54 10000 4.63 320 19:30 21.01.2021
3449 Rain 12 997 58 10000 4.12 20 18:59 21.01.2021
3450 Rain 12 997 58 10000 4.12 20 18:39 21.01.2021
3451 Rain 12 997 58 10000 4.12 20 18:20 21.01.2021
3452 Rain 14 998 44 10000 6.17 320 17:51 21.01.2021
3453 Clouds 14 998 41 10000 6.17 320 17:20 21.01.2021
3454 Clouds 12 998 58 10000 2.06 230 16:48 21.01.2021
3455 Clouds 12 998 58 10000 2.06 230 16:26 21.01.2021
3456 Clouds 13 999 50 10000 2.06 140 15:59 21.01.2021
3457 Clouds 13 999 50 10000 2.06 140 15:33 21.01.2021
3458 Clouds 11 1000 58 10000 3.6 180 14:53 21.01.2021
3459 Clouds 11 1000 58 10000 3.6 180 14:35 21.01.2021
3460 Clouds 10 1001 66 10000 5.14 230 13:51 21.01.2021
3461 Clouds 10 1001 66 10000 5.14 230 13:32 21.01.2021
3462 Clouds 9 1001 66 10000 6.17 230 12:56 21.01.2021
3463 Clouds 9 1001 66 10000 6.17 230 12:38 21.01.2021
3464 Clouds 9 1001 66 10000 6.17 230 12:20 21.01.2021
3465 Clouds 8 1001 71 10000 4.12 250 11:45 21.01.2021
3466 Clouds 8 1001 71 10000 4.12 250 11:24 21.01.2021
3467 Clouds 7 1001 76 10000 2.06 320 10:51 21.01.2021
3468 Clouds 7 1001 76 10000 2.06 320 10:28 21.01.2021
3469 Clouds 7 1000 87 10000 9.26 230 09:43 21.01.2021
3470 Clouds 7 1000 87 10000 9.26 230 09:24 21.01.2021
3471 Clouds 8 999 81 10000 7.72 250 08:39 21.01.2021
3472 Clouds 9 1000 76 10000 3.09 270 07:59 21.01.2021
3473 Clouds 9 1000 76 10000 3.09 270 07:27 21.01.2021
3474 Clouds 9 999 81 10000 2.25 319 06:53 21.01.2021
3475 Clouds 9 1000 81 10000 5.14 230 05:20 21.01.2021
3476 Clouds 14 998 51 10000 12.35 200 02:27 21.01.2021
3477 Clouds 16 998 41 10000 6.17 320 00:51 21.01.2021
3478 Clouds 17 998 31 10000 5.14 290 23:53 20.01.2021
3479 Clouds 17 998 31 10000 5.14 290 23:32 20.01.2021
3480 Clouds 17 999 31 10000 2.57 230 22:58 20.01.2021
3481 Clouds 17 999 31 10000 2.57 230 22:37 20.01.2021
3482 Clouds 15 1000 41 10000 2.06 180 21:58 20.01.2021
3483 Clouds 15 1000 41 10000 2.06 180 21:40 20.01.2021
3484 Clouds 15 1000 41 10000 2.06 180 21:19 20.01.2021
3485 Clouds 16 1000 39 10000 1.54 230 20:38 20.01.2021
3486 Clouds 16 1000 39 10000 1.54 230 20:18 20.01.2021
3487 Clouds 14 1000 47 10000 5.66 230 19:42 20.01.2021
3488 Clouds 14 1000 47 10000 5.66 230 19:23 20.01.2021
3489 Clouds 15 1000 47 10000 7.2 230 18:42 20.01.2021
3490 Clouds 14 1000 51 10000 8.23 230 17:57 20.01.2021
3491 Clouds 14 1000 51 10000 8.23 230 17:39 20.01.2021
3492 Clouds 13 1000 58 10000 8.75 230 16:57 20.01.2021
3493 Clouds 13 1000 58 10000 8.75 230 16:38 20.01.2021
3494 Clouds 14 1000 58 10000 2.06 140 15:52 20.01.2021
3495 Clouds 14 1000 58 10000 2.06 140 15:34 20.01.2021
3496 Rain 12 999 66 10000 6.69 230 14:50 20.01.2021
3497 Clouds 12 999 66 10000 6.69 230 14:23 20.01.2021
3498 Drizzle 10 999 76 10000 11.83 230 13:48 20.01.2021
3499 Drizzle 10 999 76 10000 11.83 230 13:26 20.01.2021
3500 Rain 10 998 81 10000 13.89 230 12:42 20.01.2021
3501 Rain 14 997 77 10000 13.38 210 11:58 20.01.2021
3502 Rain 14 997 77 10000 13.38 210 11:38 20.01.2021
3503 Rain 17 996 51 10000 9.77 290 10:56 20.01.2021
3504 Rain 17 996 51 10000 9.77 290 10:34 20.01.2021
3505 Rain 14 996 62 10000 8.23 340 09:54 20.01.2021
3506 Clouds 14 996 62 10000 8.23 340 09:27 20.01.2021
3507 Clouds 14 997 62 10000 7.2 20 08:58 20.01.2021
3508 Clouds 14 997 62 10000 7.2 20 08:33 20.01.2021
3509 Rain 14 998 67 10000 8.23 360 07:59 20.01.2021
3510 Rain 14 998 67 10000 8.23 360 07:37 20.01.2021
3511 Rain 15 999 55 10000 7.2 340 06:39 20.01.2021
3512 Clouds 16 1002 51 10000 10.8 360 03:29 20.01.2021
3513 Clouds 15 1004 55 10000 2.57 70 01:20 20.01.2021
3514 Clouds 15 1005 58 10000 4.12 90 00:46 20.01.2021
3515 Clouds 16 1005 48 10000 5.66 70 23:49 19.01.2021
3516 Clouds 16 1005 48 10000 5.66 70 23:27 19.01.2021
3517 Clouds 16 1006 48 10000 4.63 90 22:57 19.01.2021
3518 Clouds 16 1006 48 10000 4.63 90 22:37 19.01.2021
3519 Clouds 16 1006 48 10000 4.63 90 22:19 19.01.2021
3520 Clouds 17 1006 45 10000 2.06 140 21:51 19.01.2021
3521 Clouds 17 1006 45 10000 2.06 140 21:27 19.01.2021
3522 Clouds 16 1007 44 10000 2.57 230 20:47 19.01.2021
3523 Clouds 16 1007 44 10000 2.57 230 20:24 19.01.2021
3524 Clouds 15 1007 47 10000 3.6 230 19:54 19.01.2021
3525 Clouds 15 1007 47 10000 3.6 230 19:29 19.01.2021
3526 Clouds 15 1008 47 10000 3.09 230 18:49 19.01.2021
3527 Clouds 15 1008 47 10000 3.09 230 18:30 19.01.2021
3528 Clouds 14 1008 51 10000 3.6 230 17:47 19.01.2021
3529 Clouds 14 1008 51 10000 3.6 230 17:29 19.01.2021
3530 Clouds 13 1008 54 10000 4.12 230 16:50 19.01.2021
3531 Clouds 13 1008 54 10000 4.12 230 16:31 19.01.2021
3532 Clouds 12 1008 58 10000 5.14 230 15:59 19.01.2021
3533 Clouds 12 1008 58 10000 5.14 230 15:40 19.01.2021
3534 Clouds 12 1008 58 10000 5.14 230 15:21 19.01.2021
3535 Clouds 11 1008 62 10000 8.23 230 14:41 19.01.2021
3536 Clouds 11 1008 62 10000 8.23 230 14:23 19.01.2021
3537 Clouds 10 1008 66 10000 8.23 230 13:48 19.01.2021
3538 Clouds 10 1008 66 10000 8.23 230 13:21 19.01.2021
3539 Clouds 10 1007 62 10000 9.26 230 12:48 19.01.2021
3540 Clouds 10 1007 62 10000 9.26 230 12:29 19.01.2021
3541 Clouds 10 1007 57 10000 8.75 230 11:45 19.01.2021
3542 Clouds 10 1007 57 10000 8.75 230 11:26 19.01.2021
3543 Clouds 10 1006 62 10000 11.32 230 10:51 19.01.2021
3544 Clouds 10 1006 62 10000 11.32 230 10:32 19.01.2021
3545 Clouds 9 1005 76 10000 8.75 230 09:53 19.01.2021
3546 Clouds 9 1005 76 10000 8.75 230 09:30 19.01.2021
3547 Clouds 9 1005 71 10000 4.63 250 08:59 19.01.2021
3548 Clouds 9 1005 71 10000 4.63 250 08:26 19.01.2021
3549 Clouds 9 1004 76 10000 3.09 290 07:47 19.01.2021
3550 Clouds 10 1004 76 10000 6.69 230 06:54 19.01.2021
3551 Clouds 10 1002 71 10000 3.6 250 02:33 19.01.2021
3552 Rain 11 1002 62 10000 5.66 230 01:27 19.01.2021
3553 Rain 11 1001 66 10000 6.17 230 23:58 18.01.2021
3554 Rain 11 1001 66 10000 6.17 230 23:34 18.01.2021
3555 Rain 11 1000 66 10000 5.66 230 22:58 18.01.2021
3556 Rain 11 1000 66 10000 5.66 230 22:38 18.01.2021
3557 Rain 11 1000 66 10000 5.66 230 22:18 18.01.2021
3558 Rain 11 1000 66 10000 6.69 230 21:40 18.01.2021
3559 Rain 11 1000 66 10000 6.69 230 21:21 18.01.2021
3560 Rain 11 1000 66 10000 5.66 230 20:43 18.01.2021
3561 Rain 11 1000 66 10000 5.66 230 20:25 18.01.2021
3562 Rain 11 999 66 10000 5.14 230 19:51 18.01.2021
3563 Rain 11 999 66 10000 5.14 230 19:33 18.01.2021
3564 Rain 10 999 71 10000 5.66 230 18:47 18.01.2021
3565 Rain 10 999 71 10000 5.66 230 18:23 18.01.2021
3566 Rain 10 999 71 10000 5.14 230 17:46 18.01.2021
3567 Rain 10 999 71 10000 5.14 230 17:25 18.01.2021
3568 Rain 9 999 76 10000 6.69 230 16:48 18.01.2021
3569 Rain 9 999 76 10000 6.69 230 16:23 18.01.2021
3570 Rain 9 999 71 10000 8.23 230 15:49 18.01.2021
3571 Rain 9 999 71 10000 8.23 230 15:27 18.01.2021
3572 Rain 9 999 76 10000 8.23 230 14:46 18.01.2021
3573 Rain 9 999 76 10000 8.23 230 14:28 18.01.2021
3574 Rain 9 999 76 10000 10.29 230 13:54 18.01.2021
3575 Rain 9 999 76 10000 10.29 230 13:36 18.01.2021
3576 Rain 9 999 76 10000 10.29 230 13:18 18.01.2021
3577 Rain 9 999 71 10000 7.2 230 12:41 18.01.2021
3578 Rain 9 999 71 10000 7.2 230 12:18 18.01.2021
3579 Rain 9 998 76 10000 11.32 230 11:40 18.01.2021
3580 Rain 9 998 76 10000 11.32 230 11:21 18.01.2021
3581 Rain 9 996 81 10000 10.8 230 10:46 18.01.2021
3582 Rain 9 996 81 10000 10.8 230 10:20 18.01.2021
3583 Rain 9 995 81 10000 11.32 230 09:39 18.01.2021
3584 Drizzle 9 995 81 10000 11.32 230 09:18 18.01.2021
3585 Clouds 9 994 76 10000 15.43 230 08:25 18.01.2021
3586 Clouds 9 994 76 10000 18.52 230 07:47 18.01.2021
3587 Clouds 9 993 76 10000 16.98 200 06:32 18.01.2021
3588 Clouds 8 989 81 10000 16.46 230 04:41 18.01.2021
3589 Clouds 8 989 81 10000 16.46 230 04:22 18.01.2021
3590 Clouds 10 990 81 10000 7.72 200 03:46 18.01.2021
3591 Clouds 10 990 81 10000 7.72 200 03:25 18.01.2021
3592 Drizzle 10 990 81 10000 5.66 200 02:53 18.01.2021
3593 Drizzle 10 990 81 10000 5.66 200 02:18 18.01.2021
3594 Clouds 11 990 82 10000 2.06 160 00:39 18.01.2021
3595 Clouds 13 992 71 10000 1.54 270 23:51 17.01.2021
3596 Clouds 13 992 71 10000 1.54 270 23:24 17.01.2021
3597 Clouds 13 992 71 10000 3.93 2 22:50 17.01.2021
3598 Rain 13 992 71 10000 3.59 9 22:22 17.01.2021
3599 Rain 13 995 67 10000 2.57 360 21:43 17.01.2021
3600 Rain 13 995 67 10000 2.57 360 21:24 17.01.2021
3601 Rain 12 996 71 10000 2.57 90 20:51 17.01.2021
3602 Drizzle 12 996 71 10000 2.57 90 20:32 17.01.2021
3603 Drizzle 11 998 66 10000 2.57 90 19:52 17.01.2021
3604 Drizzle 11 998 66 10000 2.57 90 19:31 17.01.2021
3605 Rain 11 999 62 10000 3.08 345 18:53 17.01.2021
3606 Rain 11 999 62 10000 1.75 339 18:28 17.01.2021
3607 Rain 11 1000 66 10000 1.75 339 17:50 17.01.2021
3608 Rain 11 1000 66 10000 1.09 43 17:28 17.01.2021
3609 Rain 11 1002 66 10000 2.06 180 16:45 17.01.2021
3610 Rain 11 1002 66 10000 2.06 180 16:25 17.01.2021
3611 Rain 11 1002 71 10000 2.06 90 15:45 17.01.2021
3612 Rain 11 1002 71 10000 2.06 90 15:45 17.01.2021
3613 Rain 11 1002 71 10000 2.06 90 15:45 17.01.2021
3614 Rain 11 1002 71 10000 2.06 90 15:26 17.01.2021
3615 Rain 10 1004 71 10000 2.57 230 14:55 17.01.2021
3616 Rain 10 1004 71 10000 2.57 230 14:27 17.01.2021
3617 Rain 10 1005 71 10000 1.54 320 13:59 17.01.2021
3618 Rain 10 1005 71 10000 1.54 320 13:41 17.01.2021
3619 Clouds 10 1005 71 10000 1.54 320 13:21 17.01.2021
3620 Clouds 10 1006 76 10000 4.12 250 12:44 17.01.2021
3621 Clouds 10 1006 76 10000 4.12 250 12:24 17.01.2021
3622 Clouds 10 1007 71 10000 4.12 250 11:25 17.01.2021
3623 Clouds 9 1007 81 10000 3.6 270 10:51 17.01.2021
3624 Clouds 9 1007 81 10000 3.6 270 10:25 17.01.2021
3625 Clouds 9 1007 81 10000 7.2 250 09:50 17.01.2021
3626 Clouds 9 1007 81 10000 3.09 320 08:58 17.01.2021
3627 Clouds 9 1007 81 10000 3.09 320 08:40 17.01.2021
3628 Clouds 10 1007 76 10000 7.72 270 04:30 17.01.2021
3629 Rain 10 1007 93 10000 10.29 230 02:51 17.01.2021
3630 Rain 13 1006 67 10000 10.29 230 00:56 17.01.2021
3631 Rain 13 1006 67 10000 10.29 230 00:21 17.01.2021
3632 Rain 14 1006 62 10000 8.23 230 23:52 16.01.2021
3633 Rain 14 1006 62 10000 8.23 230 23:22 16.01.2021
3634 Rain 14 1006 62 10000 7.2 230 22:54 16.01.2021
3635 Rain 14 1006 62 10000 7.2 230 22:19 16.01.2021
3636 Rain 14 1006 62 10000 8.23 230 21:46 16.01.2021
3637 Rain 14 1006 62 10000 8.23 230 21:23 16.01.2021
3638 Rain 15 1006 58 10000 7.72 230 20:48 16.01.2021
3639 Rain 15 1006 58 10000 7.72 230 20:24 16.01.2021
3640 Rain 17 1007 55 10000 1.54 90 19:49 16.01.2021
3641 Rain 17 1007 55 10000 1.54 90 19:30 16.01.2021
3642 Clouds 17 1007 55 10000 3.09 140 18:46 16.01.2021
3643 Clouds 17 1007 55 10000 3.09 140 18:27 16.01.2021
3644 Clouds 16 1007 63 10000 3.6 140 17:51 16.01.2021
3645 Clouds 16 1007 63 10000 3.6 140 17:31 16.01.2021
3646 Clouds 15 1008 63 10000 2.06 70 16:53 16.01.2021
3647 Clouds 15 1008 63 10000 2.06 70 16:35 16.01.2021
3648 Clouds 14 1009 67 10000 1.54 140 15:58 16.01.2021
3649 Clouds 14 1009 67 10000 1.54 140 15:39 16.01.2021
3650 Clouds 13 1009 71 10000 3.6 90 14:33 16.01.2021
3651 Clouds 12 1009 76 10000 1.54 50 13:53 16.01.2021
3652 Clouds 12 1009 76 10000 1.54 50 13:53 16.01.2021
3653 Clouds 12 1009 76 10000 1.54 50 13:31 16.01.2021
3654 Clouds 12 1010 71 10000 3.6 70 12:48 16.01.2021
3655 Clouds 12 1010 71 10000 3.6 70 12:27 16.01.2021
3656 Clouds 12 1010 71 10000 3.09 90 11:55 16.01.2021
3657 Clouds 12 1010 71 10000 3.09 90 11:27 16.01.2021
3658 Clouds 11 1010 82 10000 4.12 50 10:54 16.01.2021
3659 Clouds 11 1010 82 10000 4.12 50 10:35 16.01.2021
3660 Clouds 10 1010 81 10000 1.54 160 09:54 16.01.2021
3661 Clouds 10 1010 81 10000 1.54 160 09:20 16.01.2021
3662 Clouds 10 1010 81 10000 4.12 70 08:19 16.01.2021
3663 Clouds 11 1011 76 10000 2.06 110 06:49 16.01.2021
3664 Clouds 11 1012 82 10000 2.4 2 05:32 16.01.2021
3665 Clouds 15 1012 58 10000 2.06 360 03:38 16.01.2021
3666 Clouds 15 1011 58 10000 1.54 340 02:42 16.01.2021
3667 Clouds 18 1011 48 10000 4.63 340 00:46 16.01.2021
3668 Clouds 18 1011 48 10000 4.63 340 00:23 16.01.2021
3669 Clouds 19 1011 45 10000 2.06 110 23:37 15.01.2021
3670 Clouds 17 1011 51 10000 3.09 70 22:39 15.01.2021
3671 Clouds 17 1011 51 10000 3.09 70 22:21 15.01.2021
3672 Clouds 17 1011 51 10000 3.6 70 21:42 15.01.2021
3673 Clouds 17 1011 51 10000 6.17 70 20:49 15.01.2021
3674 Clouds 17 1011 51 10000 6.17 70 20:24 15.01.2021
3675 Clouds 16 1011 51 10000 4.12 70 19:48 15.01.2021
3676 Clouds 16 1011 51 10000 4.12 70 19:48 15.01.2021
3677 Clouds 16 1011 51 10000 4.12 70 19:29 15.01.2021
3678 Clouds 16 1012 51 10000 4.63 70 18:54 15.01.2021
3679 Clouds 16 1012 51 10000 4.63 70 18:21 15.01.2021
3680 Clouds 15 1012 51 10000 3.6 90 17:59 15.01.2021
3681 Clouds 15 1012 51 10000 3.6 90 17:40 15.01.2021
3682 Clouds 15 1012 51 10000 3.6 90 17:21 15.01.2021
3683 Clear 14 1013 54 10000 2.57 70 16:46 15.01.2021
3684 Clear 14 1013 54 10000 2.57 70 16:24 15.01.2021
3685 Clouds 12 1013 66 10000 3.09 70 15:41 15.01.2021
3686 Clouds 12 1013 66 10000 3.09 70 15:21 15.01.2021
3687 Clouds 12 1014 66 10000 2.06 140 14:44 15.01.2021
3688 Clouds 12 1014 66 10000 2.06 140 14:25 15.01.2021
3689 Clouds 10 1014 71 10000 1.9 346 13:42 15.01.2021
3690 Clouds 10 1014 71 10000 2.5 352 13:22 15.01.2021
3691 Clouds 9 1015 76 10000 2.5 352 12:57 15.01.2021
3692 Clouds 9 1015 76 10000 2.56 355 12:32 15.01.2021
3693 Clouds 7 1014 81 10000 1.54 270 11:50 15.01.2021
3694 Clouds 7 1014 81 10000 1.54 270 11:31 15.01.2021
3695 Clouds 7 1013 76 10000 1.03 340 10:56 15.01.2021
3696 Clouds 7 1013 76 10000 1.03 340 10:37 15.01.2021
3697 Clouds 7 1013 76 10000 1.03 160 09:56 15.01.2021
3698 Clouds 7 1013 76 10000 1.03 160 09:35 15.01.2021
3699 Clouds 7 1013 76 10000 2.06 90 08:48 15.01.2021
3700 Clouds 7 1013 76 10000 2.06 90 08:21 15.01.2021
3701 Clouds 7 1013 76 10000 4.63 90 07:41 15.01.2021
3702 Clouds 7 1013 76 10000 4.63 90 07:19 15.01.2021
3703 Clouds 8 1014 71 10000 5.14 70 04:35 15.01.2021
3704 Clouds 10 1013 66 10000 5.14 110 01:52 15.01.2021
3705 Clouds 12 1012 58 10000 2.06 110 23:55 14.01.2021
3706 Clouds 12 1012 58 10000 2.06 110 23:28 14.01.2021
3707 Clouds 12 1012 58 10000 1.54 180 22:48 14.01.2021
3708 Clouds 12 1012 58 10000 1.54 180 22:25 14.01.2021
3709 Clouds 12 1012 58 10000 2.57 180 21:49 14.01.2021
3710 Clouds 12 1012 58 10000 2.57 180 21:21 14.01.2021
3711 Clouds 11 1011 66 10000 2.57 200 20:52 14.01.2021
3712 Clouds 11 1011 66 10000 2.57 200 20:27 14.01.2021
3713 Clouds 10 1010 76 10000 2.06 180 19:48 14.01.2021
3714 Clouds 10 1010 76 10000 2.06 180 19:29 14.01.2021
3715 Clouds 10 1011 76 10000 2.06 180 18:55 14.01.2021
3716 Clouds 10 1011 76 10000 2.06 180 18:31 14.01.2021
3717 Clouds 8 1011 81 10000 2.57 90 17:53 14.01.2021
3718 Clouds 8 1011 81 10000 2.57 90 17:27 14.01.2021
3719 Clouds 8 1010 87 10000 2.57 90 16:50 14.01.2021
3720 Clouds 8 1010 87 10000 2.57 90 16:26 14.01.2021
3721 Drizzle 7 1010 93 6000 3.09 90 15:49 14.01.2021
3722 Drizzle 7 1010 93 6000 3.09 90 15:25 14.01.2021
3723 Drizzle 7 1009 100 3000 4.12 50 14:41 14.01.2021
3724 Rain 7 1009 100 3000 4.12 50 14:20 14.01.2021
3725 Rain 7 1008 93 3000 5.66 90 13:54 14.01.2021
3726 Rain 7 1008 93 3000 5.66 90 13:23 14.01.2021
3727 Drizzle 8 1008 71 5000 4.63 90 12:56 14.01.2021
3728 Rain 8 1008 71 5000 4.63 90 12:21 14.01.2021
3729 Drizzle 8 1006 71 8000 6.69 90 11:53 14.01.2021
3730 Rain 8 1006 71 8000 6.69 90 11:25 14.01.2021
3731 Rain 10 1005 87 9000 8.23 200 10:57 14.01.2021
3732 Rain 10 1005 87 9000 8.23 200 10:38 14.01.2021
3733 Rain 10 1005 87 9000 8.23 200 10:18 14.01.2021
3734 Rain 11 1004 82 9000 7.72 230 09:42 14.01.2021
3735 Rain 11 1004 82 9000 7.72 230 09:20 14.01.2021
3736 Rain 11 1004 71 10000 2.57 230 08:30 14.01.2021
3737 Clouds 11 1004 71 10000 1.54 290 07:53 14.01.2021
3738 Clouds 11 1004 71 10000 1.54 290 07:30 14.01.2021
3739 Clouds 11 1005 76 10000 2.07 330 06:33 14.01.2021
3740 Clouds 11 1005 71 10000 2.15 331 04:56 14.01.2021
3741 Clouds 14 1006 54 10000 2.51 314 00:27 14.01.2021
3742 Clouds 14 1006 54 10000 3.6 140 23:28 13.01.2021
3743 Clouds 14 1006 54 10000 2.06 140 22:48 13.01.2021
3744 Clouds 14 1006 54 10000 2.06 140 22:21 13.01.2021
3745 Clouds 15 1006 51 10000 2.57 140 21:43 13.01.2021
3746 Clouds 15 1006 51 10000 2.57 140 21:22 13.01.2021
3747 Clouds 15 1007 51 10000 1.54 110 20:51 13.01.2021
3748 Clouds 15 1007 51 10000 1.54 110 20:25 13.01.2021
3749 Clouds 14 1007 54 10000 1.54 90 19:49 13.01.2021
3750 Clouds 14 1007 54 10000 1.54 90 19:27 13.01.2021
3751 Clouds 12 1008 62 10000 1.54 90 18:51 13.01.2021
3752 Clouds 12 1008 62 10000 1.54 90 18:32 13.01.2021
3753 Clouds 11 1008 71 10000 2.06 90 17:47 13.01.2021
3754 Clouds 11 1008 71 10000 2.06 90 17:18 13.01.2021
3755 Clouds 11 1009 66 10000 1.54 140 16:45 13.01.2021
3756 Clouds 11 1009 66 10000 1.54 140 16:21 13.01.2021
3757 Clouds 9 1010 71 10000 1.54 50 15:49 13.01.2021
3758 Clouds 9 1010 71 10000 1.54 50 15:29 13.01.2021
3759 Clouds 9 1010 66 10000 1.54 140 14:30 13.01.2021
3760 Clouds 8 1010 71 10000 2.06 90 13:48 13.01.2021
3761 Clouds 8 1010 71 10000 2.06 90 13:25 13.01.2021
3762 Clouds 7 1011 76 10000 4.12 340 12:46 13.01.2021
3763 Clouds 7 1011 76 10000 4.12 340 12:27 13.01.2021
3764 Clouds 6 1011 75 10000 3.6 360 11:52 13.01.2021
3765 Clouds 6 1011 75 10000 3.6 360 11:34 13.01.2021
3766 Clear 5 1011 75 10000 3.6 360 10:50 13.01.2021
3767 Clear 5 1011 75 10000 3.6 360 10:29 13.01.2021
3768 Clear 5 1011 75 10000 6.17 340 09:49 13.01.2021
3769 Clear 5 1011 75 10000 6.17 340 09:28 13.01.2021
3770 Clouds 6 1011 70 10000 4.63 290 08:48 13.01.2021
3771 Clouds 6 1011 70 10000 4.63 290 08:25 13.01.2021
3772 Clouds 6 1011 70 10000 5.14 290 07:30 13.01.2021
3773 Clouds 6 1011 75 10000 4.63 270 06:26 13.01.2021
3774 Clouds 8 1011 71 10000 8.23 230 04:19 13.01.2021
3775 Clouds 8 1011 61 10000 6.69 230 03:44 13.01.2021
3776 Clouds 8 1011 61 10000 6.69 230 03:23 13.01.2021
3777 Clouds 10 1010 53 10000 7.72 230 00:54 13.01.2021
3778 Clouds 11 1009 46 10000 8.23 230 23:52 12.01.2021
3779 Clouds 11 1009 46 10000 8.23 230 23:20 12.01.2021
3780 Clouds 10 1009 46 10000 9.26 230 22:45 12.01.2021
3781 Clouds 10 1009 46 10000 9.26 230 22:23 12.01.2021
3782 Clouds 11 1008 43 10000 10.8 230 21:49 12.01.2021
3783 Clouds 11 1008 43 10000 10.8 230 21:26 12.01.2021
3784 Clouds 11 1008 43 10000 9.77 230 20:49 12.01.2021
3785 Clouds 11 1008 43 10000 9.77 230 20:27 12.01.2021
3786 Clouds 10 1008 43 10000 9.77 230 19:48 12.01.2021
3787 Clouds 10 1008 43 10000 9.77 230 19:27 12.01.2021
3788 Clouds 10 1007 46 10000 8.75 230 18:44 12.01.2021
3789 Clouds 10 1007 46 10000 8.75 230 18:23 12.01.2021
3790 Clouds 10 1006 43 10000 8.75 230 17:40 12.01.2021
3791 Clouds 10 1006 43 10000 8.75 230 17:22 12.01.2021
3792 Clouds 8 1006 46 10000 6.69 200 16:43 12.01.2021
3793 Clouds 8 1006 46 10000 6.69 200 16:23 12.01.2021
3794 Clouds 6 1006 52 10000 5.66 200 15:39 12.01.2021
3795 Clouds 6 1006 52 10000 5.66 200 15:18 12.01.2021
3796 Clouds 6 1005 56 10000 6.69 230 14:41 12.01.2021
3797 Clouds 6 1005 56 10000 6.69 230 14:21 12.01.2021
3798 Clouds 7 1003 57 10000 5.66 200 13:52 12.01.2021
3799 Clouds 6 1002 93 10000 5.14 180 12:55 12.01.2021
3800 Snow 6 1002 93 10000 5.14 180 12:22 12.01.2021
3801 Snow 5 1000 87 10000 6.17 200 11:41 12.01.2021
3802 Snow 5 999 87 10000 5.66 180 10:52 12.01.2021
3803 Drizzle 5 999 87 10000 5.66 180 10:25 12.01.2021
3804 Snow 5 998 87 10000 5.14 160 09:58 12.01.2021
3805 Snow 5 998 87 10000 5.14 160 09:38 12.01.2021
3806 Snow 5 998 87 10000 5.14 160 09:18 12.01.2021
3807 Snow 6 996 81 10000 6.69 200 08:26 12.01.2021
3808 Snow 6 993 75 10000 13.89 230 07:37 12.01.2021
3809 Snow 6 992 75 10000 14.92 230 06:49 12.01.2021
3810 Clouds 6 992 75 10000 13.38 230 05:34 12.01.2021
3811 Rain 7 991 81 10000 7.2 230 03:27 12.01.2021
3812 Drizzle 7 991 81 10000 6.69 230 02:21 12.01.2021
3813 Drizzle 8 990 76 10000 6.17 230 01:31 12.01.2021
3814 Drizzle 8 990 76 10000 6.17 230 01:31 12.01.2021
3815 Clouds 8 991 71 10000 1.54 140 23:58 11.01.2021
3816 Clouds 8 991 71 10000 1.54 140 23:37 11.01.2021
3817 Rain 8 991 71 10000 1.54 140 23:18 11.01.2021
3818 Rain 8 993 66 10000 2.06 140 22:45 11.01.2021
3819 Clouds 8 993 66 10000 2.06 140 22:26 11.01.2021
3820 Clouds 8 993 66 10000 1.54 230 21:43 11.01.2021
3821 Clouds 8 993 66 10000 1.54 230 21:24 11.01.2021
3822 Clouds 7 994 70 10000 4.12 230 20:49 11.01.2021
3823 Rain 7 994 70 10000 4.12 230 20:29 11.01.2021
3824 Rain 7 995 70 10000 7.2 230 19:57 11.01.2021
3825 Rain 7 995 70 10000 7.2 230 19:34 11.01.2021
3826 Rain 8 996 61 10000 6.69 230 18:46 11.01.2021
3827 Rain 8 996 61 10000 6.69 230 18:28 11.01.2021
3828 Rain 7 996 70 10000 5.14 230 17:57 11.01.2021
3829 Rain 7 996 70 10000 5.14 230 17:38 11.01.2021
3830 Rain 7 996 70 10000 5.14 230 17:20 11.01.2021
3831 Rain 7 996 70 10000 5.14 230 16:41 11.01.2021
3832 Clouds 7 996 70 10000 5.14 230 16:22 11.01.2021
3833 Clouds 6 997 75 10000 6.69 230 15:49 11.01.2021
3834 Clouds 6 997 75 10000 6.69 230 15:29 11.01.2021
3835 Clouds 6 997 75 10000 9.77 230 14:40 11.01.2021
3836 Clouds 6 997 75 10000 9.77 230 14:19 11.01.2021
3837 Clouds 5 997 75 10000 12.86 230 13:43 11.01.2021
3838 Clouds 5 997 75 10000 12.86 230 13:19 11.01.2021
3839 Clouds 6 997 65 10000 8.75 230 12:41 11.01.2021
3840 Clouds 6 997 65 10000 8.75 230 12:21 11.01.2021
3841 Clouds 5 996 70 10000 12.35 130 11:43 11.01.2021
3842 Clouds 5 996 70 10000 9.26 230 10:55 11.01.2021
3843 Clouds 5 996 70 10000 9.26 230 10:28 11.01.2021
3844 Clouds 4 996 81 10000 11.83 230 09:48 11.01.2021
3845 Clouds 4 996 81 10000 11.83 230 09:25 11.01.2021
3846 Clouds 5 995 65 10000 9.77 250 08:47 11.01.2021
3847 Clouds 5 995 65 10000 9.77 250 08:22 11.01.2021
3848 Clouds 5 995 65 10000 9.77 230 07:40 11.01.2021
3849 Clouds 5 995 65 10000 9.77 230 07:19 11.01.2021
3850 Clouds 5 995 65 10000 10.29 230 06:47 11.01.2021
3851 Clouds 6 991 70 10000 9.26 230 02:23 11.01.2021
3852 Snow 6 989 93 10000 5.66 180 00:40 11.01.2021
3853 Rain 7 988 93 10000 7.2 180 23:47 10.01.2021
3854 Rain 7 987 87 10000 8.75 140 22:51 10.01.2021
3855 Rain 7 987 87 10000 8.75 140 22:29 10.01.2021
3856 Rain 9 986 76 10000 10.29 140 21:58 10.01.2021
3857 Rain 9 986 76 10000 10.29 140 21:39 10.01.2021
3858 Rain 9 986 76 10000 10.29 140 21:18 10.01.2021
3859 Rain 8 985 81 10000 11.32 180 20:47 10.01.2021
3860 Rain 8 985 81 10000 11.32 180 20:26 10.01.2021
3861 Drizzle 8 984 76 10000 10.29 140 19:40 10.01.2021
3862 Rain 8 984 76 10000 10.29 140 19:22 10.01.2021
3863 Rain 8 983 87 10000 9.77 140 18:45 10.01.2021
3864 Drizzle 8 983 87 10000 9.77 140 18:20 10.01.2021
3865 Rain 8 982 81 10000 8.23 140 17:26 10.01.2021
3866 Rain 8 981 87 10000 6.17 160 16:50 10.01.2021
3867 Rain 8 981 87 10000 6.17 160 16:30 10.01.2021
3868 Rain 8 981 87 10000 8.23 160 15:40 10.01.2021
3869 Rain 8 981 87 10000 8.23 160 15:22 10.01.2021
3870 Rain 8 981 87 10000 7.72 160 14:41 10.01.2021
3871 Rain 8 981 87 10000 7.72 160 14:22 10.01.2021
3872 Rain 8 980 87 10000 7.2 160 13:43 10.01.2021
3873 Rain 8 980 87 10000 7.2 160 13:24 10.01.2021
3874 Rain 8 980 81 10000 3.09 180 12:56 10.01.2021
3875 Rain 8 980 81 10000 3.09 180 12:38 10.01.2021
3876 Clouds 8 980 81 10000 1.54 320 11:56 10.01.2021
3877 Clouds 8 980 81 10000 1.54 320 11:21 10.01.2021
3878 Clouds 7 981 87 10000 1.03 50 10:51 10.01.2021
3879 Clouds 7 981 87 10000 1.03 50 10:24 10.01.2021
3880 Clouds 7 981 87 10000 2.06 90 09:46 10.01.2021
3881 Clouds 7 981 93 10000 3.09 90 08:49 10.01.2021
3882 Clouds 7 982 87 10000 5.66 70 07:47 10.01.2021
3883 Clouds 7 982 87 10000 7.2 70 06:50 10.01.2021
3884 Clouds 7 982 87 10000 7.2 70 06:18 10.01.2021
3885 Clouds 7 982 87 10000 7.2 70 05:27 10.01.2021
3886 Rain 9 983 81 9000 9.26 90 01:58 10.01.2021
3887 Rain 9 983 76 10000 10.29 70 00:23 10.01.2021
3888 Rain 12 983 54 10000 3.09 90 23:41 09.01.2021
3889 Rain 12 983 54 10000 3.09 90 23:20 09.01.2021
3890 Rain 12 983 54 10000 4.12 160 22:22 09.01.2021
3891 Rain 12 983 54 10000 6.17 180 21:59 09.01.2021
3892 Rain 12 983 54 10000 6.17 180 21:59 09.01.2021
3893 Rain 12 983 54 10000 6.17 180 21:39 09.01.2021
3894 Rain 12 984 54 10000 3.09 180 21:21 09.01.2021
3895 Rain 13 983 47 10000 4.63 90 20:56 09.01.2021
3896 Rain 13 983 47 10000 5.14 90 20:32 09.01.2021
3897 Rain 16 984 31 10000 2.57 160 19:40 09.01.2021
3898 Clouds 16 984 31 10000 2.57 160 19:21 09.01.2021
3899 Rain 15 984 33 10000 2.06 140 18:38 09.01.2021
3900 Rain 15 984 33 10000 2.06 140 18:38 09.01.2021
3901 Clouds 15 984 33 10000 2.06 140 18:18 09.01.2021
3902 Clouds 15 984 33 10000 2.57 180 17:41 09.01.2021
3903 Clouds 15 984 33 10000 2.57 180 17:22 09.01.2021
3904 Clouds 14 985 38 10000 2.06 180 16:28 09.01.2021
3905 Clouds 12 985 50 10000 3.09 180 15:41 09.01.2021
3906 Clouds 12 985 50 10000 3.09 180 15:22 09.01.2021
3907 Clear 11 985 46 10000 7.72 180 14:37 09.01.2021
3908 Clear 11 985 46 10000 7.72 180 14:19 09.01.2021
3909 Clear 12 986 47 10000 7.2 230 13:45 09.01.2021
3910 Clear 12 986 47 10000 7.2 230 13:27 09.01.2021
3911 Clear 11 986 46 10000 5.66 230 12:29 09.01.2021
3912 Clear 10 985 53 10000 5.14 230 11:59 09.01.2021
3913 Clear 10 985 53 10000 5.14 230 11:40 09.01.2021
3914 Clear 10 985 53 10000 5.14 230 11:22 09.01.2021
3915 Clouds 10 986 53 10000 4.12 230 10:48 09.01.2021
3916 Clouds 10 986 53 10000 4.12 230 10:25 09.01.2021
3917 Clouds 11 985 54 10000 3.6 230 09:45 09.01.2021
3918 Clouds 11 985 54 10000 3.6 230 09:21 09.01.2021
3919 Clouds 12 985 50 10000 4.63 250 08:25 09.01.2021
3920 Clouds 13 987 44 10000 4.12 320 06:55 09.01.2021
3921 Clouds 13 987 44 10000 4.12 320 06:36 09.01.2021
3922 Rain 13 989 44 10000 7.2 360 04:40 09.01.2021
3923 Clouds 14 990 38 10000 8.23 320 02:47 09.01.2021
3924 Rain 14 990 38 10000 8.23 320 02:28 09.01.2021
3925 Rain 14 991 41 10000 9.26 320 01:35 09.01.2021
3926 Rain 14 992 38 10000 4.63 340 00:34 09.01.2021
3927 Clouds 14 993 41 10000 8.23 340 23:50 08.01.2021
3928 Clouds 14 995 35 10000 7.72 320 22:54 08.01.2021
3929 Clouds 15 995 33 10000 5.14 320 21:58 08.01.2021
3930 Clouds 15 995 33 10000 5.14 320 21:31 08.01.2021
3931 Clouds 13 995 47 10000 2.57 140 20:41 08.01.2021
3932 Clouds 13 995 47 10000 2.57 140 20:23 08.01.2021
3933 Clouds 14 996 41 10000 2.57 140 19:39 08.01.2021
3934 Clouds 14 996 41 10000 2.57 140 19:20 08.01.2021
3935 Clouds 11 997 46 10000 5.14 230 18:34 08.01.2021
3936 Rain 12 997 47 10000 5.66 230 17:55 08.01.2021
3937 Rain 12 997 47 10000 5.66 230 17:30 08.01.2021
3938 Rain 11 996 50 10000 9.26 200 16:51 08.01.2021
3939 Rain 11 996 50 10000 9.26 200 16:51 08.01.2021
3940 Rain 8 996 76 10000 11.83 230 15:57 08.01.2021
3941 Rain 8 996 76 10000 11.83 230 15:38 08.01.2021
3942 Rain 10 996 62 10000 10.29 230 14:41 08.01.2021
3943 Rain 10 996 62 10000 10.29 230 14:22 08.01.2021
3944 Rain 9 996 76 10000 7.2 230 13:22 08.01.2021
3945 Rain 9 996 81 10000 3.09 230 12:53 08.01.2021
3946 Rain 9 996 81 10000 3.09 230 12:23 08.01.2021
3947 Rain 8 996 87 10000 5.14 230 11:59 08.01.2021
3948 Rain 8 996 87 10000 5.14 230 11:40 08.01.2021
3949 Rain 8 996 87 10000 5.14 230 11:20 08.01.2021
3950 Rain 7 995 93 10000 4.12 230 10:45 08.01.2021
3951 Rain 7 995 93 10000 4.12 230 10:23 08.01.2021
3952 Rain 7 995 100 10000 8.23 200 09:41 08.01.2021
3953 Rain 7 995 100 10000 8.23 200 09:20 08.01.2021
3954 Rain 10 994 66 10000 3.09 200 07:44 08.01.2021
3955 Rain 10 994 66 10000 3.09 200 07:25 08.01.2021
3956 Clouds 10 995 76 10000 3.09 230 04:18 08.01.2021
3957 Clouds 16 995 36 10000 8.23 320 23:43 07.01.2021
3958 Clouds 16 995 36 10000 8.23 320 23:25 07.01.2021
3959 Clouds 16 995 39 10000 5.14 290 22:36 07.01.2021
3960 Clouds 16 996 39 10000 2.06 230 21:52 07.01.2021
3961 Clouds 16 996 39 10000 2.06 230 21:33 07.01.2021
3962 Clouds 15 996 44 10000 3.6 180 20:56 07.01.2021
3963 Clouds 15 996 44 10000 3.6 180 20:38 07.01.2021
3964 Clouds 15 996 44 10000 3.6 180 20:18 07.01.2021
3965 Clouds 15 996 47 10000 2.06 160 19:38 07.01.2021
3966 Clouds 14 997 47 10000 2.57 160 18:50 07.01.2021
3967 Clouds 14 997 47 10000 2.57 160 18:22 07.01.2021
3968 Clouds 13 997 50 10000 2.06 140 17:36 07.01.2021
3969 Clouds 13 997 50 10000 2.06 140 17:18 07.01.2021
3970 Clouds 12 998 54 10000 2.41 321 16:45 07.01.2021
3971 Clouds 12 998 54 10000 2.81 353 16:20 07.01.2021
3972 Clouds 11 998 58 10000 3.09 230 15:31 07.01.2021
3973 Clouds 12 999 54 10000 4.12 230 14:42 07.01.2021
3974 Clouds 12 999 54 10000 4.12 230 14:22 07.01.2021
3975 Clouds 12 999 47 10000 6.69 230 13:31 07.01.2021
3976 Clouds 9 1000 75 10000 1.13 268 12:57 07.01.2021
3977 Clouds 9 999 61 10000 4.6 270 12:29 07.01.2021
3978 Clouds 9 999 61 10000 4.6 270 11:52 07.01.2021
3979 Clouds 9 999 61 10000 4.6 270 11:30 07.01.2021
3980 Clouds 8 999 61 10000 6.7 230 10:48 07.01.2021
3981 Rain 8 998 61 10000 11.8 230 10:19 07.01.2021
3982 Rain 8 998 61 10000 11.8 230 09:45 07.01.2021
3983 Rain 9 997 87 10000 8.7 230 09:18 07.01.2021
3984 Rain 9 997 87 10000 8.7 230 08:26 07.01.2021
3985 Rain 10 996 76 10000 10.8 230 07:45 07.01.2021
3986 Rain 10 996 76 10000 10.8 230 06:59 07.01.2021
3987 Rain 13 996 58 10000 4.6 230 04:22 07.01.2021
3988 Clouds 14 996 54 10000 4.1 230 00:28 07.01.2021
3989 Clouds 17 997 42 10000 4.1 270 23:38 06.01.2021
3990 Clouds 16 997 48 10000 5.1 320 22:37 06.01.2021
3991 Clouds 17 998 45 10000 6.2 340 21:43 06.01.2021
3992 Clouds 16 1000 51 10000 4.1 290 21:23 06.01.2021
3993 Clouds 16 1000 51 10000 4.1 290 20:51 06.01.2021
3994 Clouds 16 1000 44 10000 6.7 320 20:24 06.01.2021
3995 Clouds 16 1000 44 10000 6.7 320 19:49 06.01.2021
3996 Clouds 16 1000 44 10000 6.7 320 19:30 06.01.2021
3997 Clouds 16 1000 44 10000 2.1 320 18:59 06.01.2021
3998 Clouds 16 1000 44 10000 2.1 320 18:39 06.01.2021
3999 Clouds 16 1001 41 10000 7.2 320 18:18 06.01.2021
4000 Clouds 16 1001 41 10000 7.2 320 17:42 06.01.2021
4001 Clouds 14 1002 54 10000 3.1 180 17:22 06.01.2021
4002 Clouds 14 1002 54 10000 3.1 180 16:41 06.01.2021
4003 Clouds 15 1003 51 10000 3.1 90 16:19 06.01.2021
4004 Clouds 15 1003 51 10000 3.1 90 15:50 06.01.2021
4005 Clouds 15 1003 51 10000 3.1 90 15:28 06.01.2021
4006 Clouds 13 1004 62 10000 3.83 355 14:44 06.01.2021
4007 Rain 13 1005 62 10000 3.85 2 14:20 06.01.2021
4008 Rain 13 1005 62 10000 3.85 2 14:20 06.01.2021
4009 Rain 13 1005 62 10000 3.85 2 13:42 06.01.2021
4010 Rain 12 1006 66 10000 3.63 7 13:21 06.01.2021
4011 Clouds 12 1006 66 10000 3.62 7 12:47 06.01.2021
4012 Rain 10 1006 76 10000 1.5 90 11:51 06.01.2021
4013 Rain 10 1007 76 10000 2.1 70 11:25 06.01.2021
4014 Rain 10 1007 76 10000 2.1 70 10:56 06.01.2021
4015 Clouds 11 1007 71 10000 3.22 3 10:18 06.01.2021
4016 Clouds 11 1007 71 10000 3.22 3 09:47 06.01.2021
4017 Clouds 11 1007 66 10000 2.1 230 08:57 06.01.2021
4018 Clouds 11 1007 66 10000 2.1 230 08:26 06.01.2021
4019 Clouds 11 1008 66 10000 1 230 07:54 06.01.2021
4020 Clouds 11 1008 71 10000 1.5 160 06:46 06.01.2021
4021 Clouds 12 1008 62 10000 2.1 180 05:32 06.01.2021
4022 Clouds 12 1009 58 10000 2.85 345 04:34 06.01.2021
4023 Clouds 13 1009 50 10000 2.1 230 02:46 06.01.2021
4024 Clouds 14 1009 58 10000 1.5 140 02:23 06.01.2021
4025 Clouds 15 1008 51 10000 1.5 90 00:31 06.01.2021
4026 Clouds 14 1008 50 10000 6.2 230 23:28 05.01.2021
4027 Clouds 14 1008 50 10000 6.2 230 22:41 05.01.2021
4028 Clouds 15 1008 44 10000 5.7 230 22:20 05.01.2021
4029 Clouds 15 1008 44 10000 5.7 230 21:55 05.01.2021
4030 Clouds 15 1008 44 10000 5.7 200 20:49 05.01.2021
4031 Clouds 16 1008 41 10000 3.1 180 20:25 05.01.2021
4032 Clouds 16 1008 41 10000 3.1 180 19:44 05.01.2021
4033 Clouds 16 1008 41 10000 3.1 180 19:21 05.01.2021
4034 Clouds 15 1008 47 10000 2.1 140 18:43 05.01.2021
4035 Clouds 14 1008 47 10000 4.71 316 18:24 05.01.2021
4036 Clouds 14 1008 47 10000 4.71 316 17:50 05.01.2021
4037 Clouds 14 1009 41 10000 4.15 316 17:27 05.01.2021
4038 Clouds 14 1009 41 10000 4.15 316 16:53 05.01.2021
4039 Clouds 13 1009 43 10000 2.1 230 16:22 05.01.2021
4040 Clouds 13 1009 43 10000 2.1 230 15:50 05.01.2021
4041 Clouds 12 1009 50 10000 1.5 180 15:25 05.01.2021
4042 Clouds 12 1009 50 10000 1.5 180 14:39 05.01.2021
4043 Clear 12 1009 54 10000 2.1 180 13:51 05.01.2021
4044 Clear 12 1009 54 10000 2.1 180 13:30 05.01.2021
4045 Clear 11 1010 59 10000 2.1 230 12:49 05.01.2021
4046 Clear 11 1010 69 10000 2.1 230 12:28 05.01.2021
4047 Clear 10 1010 46 10000 2.6 230 11:40 05.01.2021
4048 -273 0 0 0 0 0 11:20 05.01.2021
4049 Clouds 9 1010 61 10000 2.6 230 11:19 05.01.2021
4050 Clouds 9 1010 61 10000 2.6 230 10:43 05.01.2021
4051 Clouds 9 1010 61 10000 1 90 09:51 05.01.2021
4052 Clouds 9 1010 61 10000 1 90 09:30 05.01.2021
4053 Clear 9 1010 57 10000 1.5 230 08:29 05.01.2021
4054 Clear 9 1010 57 10000 1.5 230 08:29 05.01.2021
4055 Clear 10 1010 57 10000 1 290 07:50 05.01.2021
4056 Clouds 11 1010 53 10000 1.5 320 04:59 05.01.2021
4057 Clouds 11 1010 53 10000 6.2 230 02:36 05.01.2021
4058 Clouds 12 1009 54 10000 9.8 230 00:22 05.01.2021
4059 Clouds 12 1009 54 10000 9.8 230 23:39 04.01.2021
4060 Clouds 12 1008 54 10000 11.8 230 23:19 04.01.2021
4061 Clouds 12 1008 54 10000 11.8 230 22:42 04.01.2021
4062 Clouds 12 1008 50 10000 10.8 230 21:57 04.01.2021
4063 Clouds 12 1008 50 10000 10.8 230 21:38 04.01.2021
4064 Clouds 12 1008 54 10000 10.3 230 20:56 04.01.2021
4065 Clouds 12 1008 54 10000 10.3 230 20:34 04.01.2021
4066 Clouds 11 1008 57 10000 7.7 230 19:55 04.01.2021
4067 Clouds 11 1008 57 10000 7.7 230 19:31 04.01.2021
4068 Clouds 11 1008 57 10000 6.2 200 18:58 04.01.2021
4069 Clouds 11 1008 57 10000 6.2 200 18:40 04.01.2021
4070 Drizzle 10 1009 66 10000 8.2 230 17:46 04.01.2021
4071 Drizzle 10 1009 66 10000 8.2 230 17:28 04.01.2021
4072 Clouds 10 1009 61 10000 3.6 230 16:48 04.01.2021
4073 Clouds 10 1009 61 10000 3.6 230 16:28 04.01.2021
4074 Clouds 9 1009 61 10000 4.1 230 15:52 04.01.2021
4075 Clouds 9 1009 61 10000 4.1 230 15:52 04.01.2021
4076 Clouds 9 1009 61 10000 4.1 230 15:34 04.01.2021
4077 Clouds 9 1009 61 10000 4.6 230 14:52 04.01.2021
4078 Clouds 8 1009 65 9998 6.2 250 13:55 04.01.2021
4079 Clouds 8 1009 65 9998 6.2 250 13:35 04.01.2021
4080 Clouds 7 1008 70 10000 3.6 250 12:50 04.01.2021
4081 Clouds 7 1008 70 10000 3.6 250 12:25 04.01.2021
4082 Clouds 7 1008 70 10000 4.1 270 11:32 04.01.2021
4083 Snow 6 1008 75 10000 6.2 250 10:56 04.01.2021
4084 Snow 6 1008 75 10000 6.2 250 10:38 04.01.2021
4085 Rain 7 1006 70 10000 6.2 230 10:19 04.01.2021
4086 Rain 7 1006 70 10000 6.2 230 09:24 04.01.2021
4087 Clouds 6 1006 81 10000 8.7 230 08:50 04.01.2021
4088 Rain 6 1006 75 10000 8.2 230 08:21 04.01.2021
4089 Rain 6 1006 75 10000 8.2 230 07:45 04.01.2021
4090 Drizzle 6 1005 81 10000 9.3 230 05:35 04.01.2021
4091 Rain 6 1004 75 10000 11.8 230 04:50 04.01.2021
4092 Clouds 8 1002 61 10000 11.3 230 01:30 04.01.2021
4093 Rain 9 1002 87 10000 7.7 230 23:55 03.01.2021
4094 Rain 9 1002 87 10000 7.7 230 23:34 03.01.2021
4095 Rain 8 1001 100 10000 8.2 230 22:57 03.01.2021
4096 Rain 8 1001 100 7000 14.9 230 22:39 03.01.2021
4097 Rain 10 998 66 3000 21.6 230 22:20 03.01.2021
4098 Rain 12 998 50 10000 5.1 230 21:34 03.01.2021
4099 Clouds 11 998 50 10000 5.7 230 20:56 03.01.2021
4100 Clouds 11 998 50 10000 5.7 230 20:38 03.01.2021
4101 Clouds 11 998 50 10000 5.1 230 19:59 03.01.2021
4102 Clouds 11 998 50 10000 5.1 230 19:37 03.01.2021
4103 Clouds 11 998 50 10000 6.2 230 19:19 03.01.2021
4104 Clouds 11 998 50 10000 6.2 230 18:42 03.01.2021
4105 Clouds 11 998 50 10000 8.2 230 18:21 03.01.2021
4106 Clouds 11 998 50 10000 8.2 230 17:51 03.01.2021
4107 Rain 11 998 50 10000 8.2 230 17:26 03.01.2021
4108 Rain 10 998 57 10000 10.3 230 16:45 03.01.2021
4109 Clouds 9 998 61 10000 10.3 230 16:20 03.01.2021
4110 Clouds 9 998 61 10000 10.3 230 15:52 03.01.2021
4111 Clouds 9 998 61 10000 10.3 230 15:34 03.01.2021
4112 Rain 8 997 65 10000 12.9 230 14:58 03.01.2021
4113 Rain 8 997 65 10000 12.9 230 14:31 03.01.2021
4114 Rain 8 997 65 10000 11.3 230 13:47 03.01.2021
4115 Rain 6 997 87 10000 12.9 230 13:23 03.01.2021
4116 Rain 6 997 87 10000 12.9 230 13:23 03.01.2021
4117 Rain 6 997 87 9000 8.7 230 12:51 03.01.2021
4118 Rain 8 996 75 9000 9.8 230 11:44 03.01.2021
4119 Drizzle 7 995 75 10000 5.1 250 11:25 03.01.2021
4120 Rain 7 995 75 10000 6.2 230 10:55 03.01.2021
4121 Rain 7 995 75 10000 6.2 230 10:30 03.01.2021
4122 Rain 7 994 75 10000 8.7 230 09:41 03.01.2021
4123 Drizzle 7 994 75 10000 10.3 230 09:23 03.01.2021
4124 Drizzle 8 993 75 10000 10.8 230 07:54 03.01.2021
4125 Clouds 9 993 66 10000 8.7 230 05:59 03.01.2021
4126 Drizzle 10 990 66 10000 16.5 230 02:29 03.01.2021
4127 Clouds 11 990 57 10000 9.8 230 01:48 03.01.2021
4128 Rain 13 989 63 10000 9.8 230 00:21 03.01.2021
4129 Rain 13 989 63 10000 9.8 230 23:30 02.01.2021
4130 Clouds 14 988 54 10000 9.3 230 22:58 02.01.2021
4131 Clouds 14 988 54 10000 9.3 230 22:32 02.01.2021
4132 Clouds 15 987 38 10000 9.8 230 21:52 02.01.2021
4133 Clouds 15 987 38 10000 9.8 230 21:32 02.01.2021
4134 Clouds 16 987 31 10000 11.8 230 20:56 02.01.2021
4135 Clouds 16 987 31 10000 11.8 230 20:38 02.01.2021
4136 Clouds 17 986 20 10000 13.9 200 20:19 02.01.2021
4137 Clouds 17 986 20 10000 13.9 200 19:40 02.01.2021
4138 Clouds 19 987 11 10000 7.2 250 19:18 02.01.2021
4139 Clouds 19 987 11 10000 7.2 250 18:40 02.01.2021
4140 Clouds 18 987 20 10000 7.7 270 18:21 02.01.2021
4141 Clouds 18 987 20 10000 7.7 270 17:45 02.01.2021
4142 Clouds 17 987 21 10000 7.7 250 17:22 02.01.2021
4143 Clouds 17 987 21 10000 7.7 250 16:24 02.01.2021
4144 Clouds 16 987 25 10000 6.7 270 15:57 02.01.2021
4145 Clouds 16 987 25 10000 6.7 270 15:38 02.01.2021
4146 Clouds 15 987 24 10000 6.7 270 15:20 02.01.2021
4147 Clouds 15 987 24 10000 6.7 270 14:36 02.01.2021
4148 Clouds 16 987 26 10000 5.7 320 13:58 02.01.2021
4149 Clouds 16 987 26 10000 5.7 320 13:32 02.01.2021
4150 Clouds 16 987 26 10000 6.7 320 12:53 02.01.2021
4151 Clouds 16 987 26 10000 6.7 320 12:32 02.01.2021
4152 Clouds 15 987 30 10000 6.7 360 11:45 02.01.2021
4153 Clouds 14 987 33 10000 8.2 320 11:22 02.01.2021
4154 Clouds 14 987 33 10000 8.2 320 10:51 02.01.2021
4155 Clouds 14 987 33 10000 8.2 320 10:28 02.01.2021
4156 Clouds 14 986 33 10000 5.1 290 09:52 02.01.2021
4157 Clouds 14 986 35 10000 3.6 290 09:23 02.01.2021
4158 Clouds 14 986 35 10000 3.6 290 08:50 02.01.2021
4159 Clouds 14 986 35 10000 3.6 290 08:28 02.01.2021
4160 Clouds 14 986 73 10000 4.1 250 07:47 02.01.2021
4161 Clouds 17 987 33 10000 6.2 290 07:22 02.01.2021
4162 Clouds 17 987 33 10000 6.2 290 06:42 02.01.2021
4163 Clouds 17 987 33 10000 7.7 290 05:45 02.01.2021
4164 Clouds 19 990 39 10000 7.7 320 00:59 02.01.2021
4165 Clouds 19 990 39 10000 7.7 320 00:37 02.01.2021
4166 Rain 19 990 37 10000 7.2 320 23:56 01.01.2021
4167 Rain 19 990 34 10000 6.2 320 23:21 01.01.2021
4168 Rain 19 990 34 10000 6.2 320 22:48 01.01.2021
4169 Clouds 19 990 34 10000 6.2 320 22:25 01.01.2021
4170 Clouds 20 991 42 10000 8.2 320 21:44 01.01.2021
4171 Clouds 19 991 45 10000 8.2 320 21:22 01.01.2021
4172 Clouds 19 991 45 10000 8.2 320 20:54 01.01.2021
4173 Rain 17 992 48 10000 7.2 320 20:23 01.01.2021
4174 Rain 17 992 48 10000 7.2 320 19:59 01.01.2021
4175 Rain 17 992 48 10000 7.2 320 19:41 01.01.2021
4176 Rain 14 994 67 10000 4.3 359 19:20 01.01.2021
4177 Rain 14 994 67 10000 4.23 350 18:42 01.01.2021
4178 Rain 13 1000 82 10000 3.37 353 18:22 01.01.2021
4179 Rain 13 1000 82 10000 3.37 353 17:43 01.01.2021
4180 Drizzle 14 994 71 10000 3.12 333 17:23 01.01.2021
4181 Clouds 15 994 67 10000 3.12 333 16:45 01.01.2021
4182 Clouds 16 995 58 10000 2.99 317 15:57 01.01.2021
4183 Clouds 12 996 76 10000 2.99 317 15:39 01.01.2021
4184 Clouds 12 996 76 10000 1.77 300 14:42 01.01.2021
4185 Clouds 12 996 76 10000 1.65 331 14:21 01.01.2021
4186 Clouds 12 996 76 10000 1.65 331 13:37 01.01.2021
4187 Clouds 10 996 87 10000 2.1 90 12:51 01.01.2021
4188 Clouds 10 996 87 10000 2.1 90 12:27 01.01.2021
4189 Clouds 9 996 93 10000 1.56 333 11:42 01.01.2021
4190 Clouds 9 995 87 10000 1.5 230 11:19 01.01.2021
4191 Clouds 9 995 87 10000 1.5 230 10:56 01.01.2021
4192 Clouds 9 995 87 10000 1.5 230 10:26 01.01.2021
4193 Clouds 9 995 93 10000 1.2 318 09:30 01.01.2021
4194 Clouds 9 994 87 10000 3.1 70 08:30 01.01.2021
4195 Rain 9 995 87 10000 3.1 70 07:22 01.01.2021
4196 Clouds 9 996 87 10000 8.2 70 04:51 01.01.2021
4197 Clouds 11 997 76 10000 6.2 70 01:58 01.01.2021
4198 Clouds 13 996 54 10000 5.7 180 00:33 01.01.2021
4199 Clouds 14 996 50 10000 8.2 230 23:41 31.12.2020
4200 Clouds 15 996 47 10000 9.3 230 23:21 31.12.2020
4201 Clouds 15 996 47 10000 9.3 230 22:42 31.12.2020
4202 Clouds 15 996 47 10000 9.3 230 22:24 31.12.2020
4203 Clouds 15 996 47 10000 12.3 230 21:57 31.12.2020
4204 Clouds 15 996 47 10000 12.3 230 21:39 31.12.2020
4205 Clouds 15 996 44 10000 11.8 230 21:20 31.12.2020
4206 Clouds 15 996 44 10000 11.8 230 20:31 31.12.2020
4207 Clouds 14 996 47 10000 11.8 230 19:51 31.12.2020
4208 Clouds 14 996 47 10000 11.8 230 19:33 31.12.2020
4209 Clouds 14 996 50 10000 10.8 230 18:56 31.12.2020
4210 Clouds 14 996 50 10000 10.8 230 18:26 31.12.2020
4211 Clouds 14 996 50 10000 10.8 230 17:55 31.12.2020
4212 Clouds 14 996 50 10000 10.8 230 17:37 31.12.2020
4213 Clouds 13 996 58 10000 11.3 230 17:18 31.12.2020
4214 Clouds 13 996 58 10000 11.3 230 16:38 31.12.2020
4215 Clouds 13 995 58 10000 11.8 230 16:20 31.12.2020
4216 Clouds 13 995 58 10000 11.8 230 15:43 31.12.2020
4217 Clouds 12 995 66 10000 11.3 230 15:20 31.12.2020
4218 Clouds 12 995 66 10000 11.3 230 14:42 31.12.2020
4219 Clouds 12 995 66 10000 9.3 230 14:23 31.12.2020
4220 Clouds 12 995 66 10000 9.3 230 13:59 31.12.2020
4221 Clouds 12 995 66 10000 9.3 230 13:37 31.12.2020
4222 Clouds 11 995 66 10000 3.1 270 13:19 31.12.2020
4223 Clouds 11 995 66 10000 3.1 270 12:49 31.12.2020
4224 Clouds 11 995 66 10000 3.1 270 12:31 31.12.2020
4225 Clouds 11 995 66 10000 1 270 11:47 31.12.2020
4226 Clouds 11 995 66 10000 1 270 11:29 31.12.2020
4227 Clouds 10 994 71 10000 2.1 360 10:45 31.12.2020
4228 Clouds 10 994 71 10000 2.1 360 10:27 31.12.2020
4229 Clouds 10 994 76 10000 3.1 50 09:49 31.12.2020
4230 Clouds 10 994 76 10000 3.1 50 09:24 31.12.2020
4231 Clouds 8 994 82 10000 2.61 335 08:49 31.12.2020
4232 Clouds 10 994 71 10000 2.6 90 08:31 31.12.2020
4233 Clouds 10 994 71 10000 2.6 90 07:56 31.12.2020
4234 Clouds 10 994 71 10000 2.6 90 07:25 31.12.2020
4235 Clouds 11 994 66 10000 2.56 338 05:30 31.12.2020
4236 Clouds 10 995 61 10000 3.1 140 03:37 31.12.2020
4237 Clouds 11 995 57 10000 1.5 140 02:38 31.12.2020
4238 Clouds 11 995 57 10000 2.1 50 02:20 31.12.2020
4239 Clouds 11 995 57 10000 2.1 50 01:42 31.12.2020
4240 Clouds 12 996 50 10000 1.5 90 01:19 31.12.2020
4241 Clouds 12 996 50 10000 1.5 90 00:41 31.12.2020
4242 Clouds 12 996 50 10000 1.5 50 23:41 30.12.2020
4243 Clouds 13 996 47 10000 1.5 180 23:19 30.12.2020
4244 Clouds 13 996 47 10000 1.5 180 22:43 30.12.2020
4245 Clouds 12 997 50 10000 1.5 230 22:23 30.12.2020
4246 Clouds 12 997 50 10000 1.5 230 21:38 30.12.2020
4247 Clouds 12 997 50 10000 1.5 200 21:19 30.12.2020
4248 Clouds 12 997 50 10000 1.5 200 20:41 30.12.2020
4249 Clouds 11 997 50 10000 1.5 140 20:20 30.12.2020
4250 Clouds 11 997 50 10000 1.5 140 19:39 30.12.2020
4251 Clouds 12 998 50 10000 2.1 140 19:19 30.12.2020
4252 Clouds 12 998 50 10000 2.1 140 18:42 30.12.2020
4253 Clouds 11 998 53 10000 2.1 180 18:23 30.12.2020
4254 Clouds 11 998 53 10000 2.1 180 17:50 30.12.2020
4255 Clear 10 999 37 10000 2.1 180 17:31 30.12.2020
4256 Clear 10 999 43 10000 2.1 180 16:52 30.12.2020
4257 Clear 9 999 61 10000 2.6 140 16:27 30.12.2020
4258 Clear 9 999 61 10000 2.6 140 15:45 30.12.2020
4259 Clouds 8 1000 65 10000 1.5 230 15:24 30.12.2020
4260 Clouds 8 1000 65 10000 1.5 230 14:43 30.12.2020
4261 Clear 7 1000 70 10000 3.1 360 14:22 30.12.2020
4262 Clear 7 1000 70 10000 3.1 360 13:26 30.12.2020
4263 Clouds 7 1000 70 10000 4.1 270 12:28 30.12.2020
4264 Clouds 6 1001 87 10000 5.7 230 11:57 30.12.2020
4265 Clouds 6 1001 87 10000 5.7 230 11:36 30.12.2020
4266 Clouds 5 1000 80 10000 3.6 230 11:18 30.12.2020
4267 Clouds 5 1000 80 10000 3.6 230 10:40 30.12.2020
4268 Clouds 5 1000 93 10000 7.2 230 10:21 30.12.2020
4269 Clouds 5 1000 93 10000 7.2 230 09:48 30.12.2020
4270 Clouds 6 1000 81 10000 7.7 230 09:25 30.12.2020
4271 Clouds 6 1000 81 10000 7.7 230 08:27 30.12.2020
4272 Clouds 6 1000 87 10000 8.2 230 07:29 30.12.2020
4273 Rain 6 1000 87 10000 8.2 230 06:51 30.12.2020
4274 Rain 6 1000 87 10000 8.2 230 06:29 30.12.2020
4275 Rain 6 1000 81 10000 6.2 230 05:42 30.12.2020
4276 Rain 7 1000 81 10000 7.7 230 05:24 30.12.2020
4277 Rain 7 999 81 10000 12.3 230 03:28 30.12.2020
4278 Rain 8 999 70 10000 9.3 230 02:39 30.12.2020
4279 Rain 11 998 81 10000 11.8 230 01:56 30.12.2020
4280 Rain 11 998 81 10000 11.8 230 01:32 30.12.2020
4281 Rain 11 998 50 10000 10.8 230 00:47 30.12.2020
4282 Clouds 11 998 50 10000 10.8 230 00:29 30.12.2020
4283 Clouds 12 998 76 10000 7.7 230 23:54 29.12.2020
4284 Clouds 12 998 76 10000 7.7 230 23:35 29.12.2020
4285 Rain 13 998 37 10000 4.1 230 22:56 29.12.2020
4286 Rain 13 998 37 10000 4.1 230 22:37 29.12.2020
4287 Rain 13 998 78 10000 5.1 230 22:19 29.12.2020
4288 Rain 13 998 78 10000 5.1 230 21:44 29.12.2020
4289 Rain 13 998 43 10000 1.5 200 21:24 29.12.2020
4290 Rain 13 998 43 10000 1.5 200 20:45 29.12.2020
4291 Rain 12 999 58 10000 2.1 200 20:25 29.12.2020
4292 Rain 12 999 58 10000 2.1 200 19:46 29.12.2020
4293 Rain 12 1000 58 10000 2.1 90 19:23 29.12.2020
4294 Rain 12 1000 58 10000 2.1 90 18:54 29.12.2020
4295 Rain 12 1000 58 10000 2.1 90 18:29 29.12.2020
4296 Clouds 12 1000 62 10000 4.1 70 17:56 29.12.2020
4297 Clouds 12 1000 62 10000 4.1 70 17:36 29.12.2020
4298 Rain 11 1001 66 10000 4.6 70 17:18 29.12.2020
4299 Rain 11 1001 66 10000 4.6 70 16:34 29.12.2020
4300 Rain 10 1002 71 10000 3.1 70 15:53 29.12.2020
4301 Rain 10 1002 71 10000 3.1 70 15:33 29.12.2020
4302 Clouds 11 1003 71 10000 2.6 90 14:55 29.12.2020
4303 Clouds 11 1003 71 10000 2.6 90 14:36 29.12.2020
4304 Rain 8 1004 87 10000 3.1 90 14:18 29.12.2020
4305 Rain 8 1004 87 10000 3.1 90 13:37 29.12.2020
4306 Clouds 8 1004 87 10000 3.6 90 13:18 29.12.2020
4307 Rain 8 1004 87 10000 3.6 90 12:37 29.12.2020
4308 Rain 7 1005 93 10000 2.6 90 12:19 29.12.2020
4309 Rain 7 1005 93 10000 2.6 90 11:50 29.12.2020
4310 Rain 7 1005 93 10000 2.6 90 11:31 29.12.2020
4311 Clouds 7 1006 93 10000 2.1 70 10:22 29.12.2020
4312 Clouds 7 1006 93 10000 2.1 70 09:42 29.12.2020
4313 Clouds 7 1007 93 10000 3.1 70 09:19 29.12.2020
4314 Clouds 7 1007 93 10000 3.1 70 08:50 29.12.2020
4315 Rain 7 1008 93 10000 3.1 70 07:58 29.12.2020
4316 Rain 7 1008 93 10000 3.1 70 07:26 29.12.2020
4317 Rain 7 1009 93 10000 2.1 200 06:19 29.12.2020
4318 Drizzle 8 1010 93 10000 1.5 90 03:18 29.12.2020
4319 Rain 10 1010 81 10000 2.1 180 00:44 29.12.2020
4320 Rain 10 1010 81 10000 4.1 140 23:55 28.12.2020
4321 Rain 10 1010 81 10000 4.1 140 23:33 28.12.2020
4322 Rain 10 1010 81 10000 3.6 180 22:24 28.12.2020
4323 Rain 10 1009 81 10000 9.8 230 21:44 28.12.2020
4324 Rain 12 1009 66 10000 2.6 180 21:24 28.12.2020
4325 Drizzle 12 1009 66 10000 2.6 180 20:40 28.12.2020
4326 Rain 13 1009 54 10000 0.92 202 20:22 28.12.2020
4327 Rain 13 1009 54 10000 0.92 202 19:47 28.12.2020
4328 Rain 13 1009 54 10000 0.88 23 19:23 28.12.2020
4329 Rain 13 1009 54 10000 2.1 90 18:51 28.12.2020
4330 Rain 13 1009 54 10000 2.1 90 18:28 28.12.2020
4331 Rain 13 1010 58 10000 2.6 90 17:45 28.12.2020
4332 Rain 13 1010 58 10000 3.1 70 17:25 28.12.2020
4333 Rain 13 1010 58 10000 3.1 70 16:45 28.12.2020
4334 Clouds 13 1010 62 10000 3.6 70 16:24 28.12.2020
4335 Clouds 13 1010 62 10000 3.6 70 15:50 28.12.2020
4336 Clouds 11 1010 71 10000 3.6 70 15:26 28.12.2020
4337 Clouds 10 1010 76 10000 5.7 70 14:23 28.12.2020
4338 Clouds 10 1010 76 10000 5.7 70 13:36 28.12.2020
4339 Clouds 9 1010 81 10000 6.7 70 12:57 28.12.2020
4340 Clouds 8 1010 87 10000 6.2 70 12:24 28.12.2020
4341 Clouds 8 1010 87 10000 6.2 70 11:47 28.12.2020
4342 Clouds 8 1010 87 10000 6.2 70 11:29 28.12.2020
4343 Clouds 8 1009 81 10000 2.6 290 10:54 28.12.2020
4344 Clouds 8 1009 81 10000 2.6 290 10:28 28.12.2020
4345 Clouds 8 1008 81 10000 4.6 180 09:52 28.12.2020
4346 Clouds 7 1008 81 10000 5.1 270 09:22 28.12.2020
4347 Clouds 7 1008 81 10000 5.1 270 08:58 28.12.2020
4348 Clouds 8 1006 81 10000 7.7 230 06:52 28.12.2020
4349 Clouds 12 1004 46 10000 11.3 230 04:56 28.12.2020
4350 Clouds 13 1002 37 10000 12.9 230 03:26 28.12.2020
4351 Clouds 18 1000 18 10000 6.7 230 01:54 28.12.2020
4352 Clouds 20 997 20 10000 10.3 250 23:52 27.12.2020
4353 Clouds 20 997 20 10000 10.3 250 23:27 27.12.2020
4354 Clouds 22 996 21 10000 10.8 290 22:36 27.12.2020
4355 Clouds 21 995 28 10000 13.4 290 21:49 27.12.2020
4356 Clouds 21 994 32 10000 14.4 290 21:21 27.12.2020
4357 Clouds 21 994 32 10000 14.4 290 20:25 27.12.2020
4358 Clouds 19 994 45 10000 2.1 180 19:24 27.12.2020
4359 Clouds 16 995 51 10000 3.1 140 18:50 27.12.2020
4360 Clouds 14 995 58 10000 1.5 200 18:21 27.12.2020
4361 Clouds 14 995 58 10000 1.5 200 17:57 27.12.2020
4362 Clouds 14 995 58 10000 1.5 200 17:35 27.12.2020
4363 Clear 12 997 76 10000 2.6 230 16:56 27.12.2020
4364 Rain 11 998 76 10000 4.6 230 16:22 27.12.2020
4365 Rain 11 998 76 10000 4.6 230 15:31 27.12.2020
4366 Rain 11 998 71 10000 2.6 90 14:50 27.12.2020
4367 Rain 11 998 71 10000 2.6 90 14:31 27.12.2020
4368 Rain 10 999 76 10000 3.1 360 13:36 27.12.2020
4369 Rain 10 999 76 10000 3.1 360 13:36 27.12.2020
4370 Rain 8 1000 81 10000 3.6 90 12:56 27.12.2020
4371 Rain 8 1000 81 10000 3.6 90 12:25 27.12.2020
4372 Rain 9 1002 74 10000 1.16 324 11:42 27.12.2020
4373 Rain 8 1003 87 10000 3.1 270 11:20 27.12.2020
4374 Rain 8 1003 87 10000 3.1 270 10:40 27.12.2020
4375 Rain 8 1002 81 10000 3.1 270 10:19 27.12.2020
4376 Rain 8 1002 81 10000 3.1 270 09:36 27.12.2020
4377 Clouds 7 1002 87 10000 6.2 90 08:28 27.12.2020
4378 Clouds 8 1003 87 10000 5.7 90 07:28 27.12.2020
4379 Clouds 9 1003 81 10000 8.2 90 05:56 27.12.2020
4380 Clouds 9 1003 81 10000 8.2 90 05:38 27.12.2020
4381 Clouds 12 1004 46 10000 4.1 230 03:24 27.12.2020
4382 Clouds 13 1002 43 10000 7.7 230 01:56 27.12.2020
4383 Clouds 13 1000 47 10000 8.7 230 00:38 27.12.2020
4384 Clouds 14 999 44 10000 10.3 230 23:43 26.12.2020
4385 Clouds 15 998 41 10000 11.8 230 23:23 26.12.2020
4386 Clouds 15 998 41 10000 11.8 230 22:45 26.12.2020
4387 Clouds 15 997 47 10000 10.3 230 22:19 26.12.2020
4388 Clouds 15 997 47 10000 10.3 230 21:53 26.12.2020
4389 Clouds 15 997 47 10000 10.3 230 21:29 26.12.2020
4390 Clouds 16 996 44 10000 10.8 230 20:46 26.12.2020
4391 Clouds 16 996 44 10000 10.8 230 20:24 26.12.2020
4392 Rain 17 995 42 10000 6.2 230 19:42 26.12.2020
4393 Rain 15 994 54 10000 12.9 230 19:20 26.12.2020
4394 Rain 15 994 54 10000 12.9 230 18:35 26.12.2020
4395 Rain 18 993 39 10000 9.3 320 17:48 26.12.2020
4396 Rain 18 993 39 10000 9.3 320 17:29 26.12.2020
4397 Rain 17 992 39 10000 9.8 320 16:40 26.12.2020
4398 Clouds 17 991 36 10000 10.3 320 16:19 26.12.2020
4399 Clouds 15 991 41 10000 7.7 320 15:23 26.12.2020
4400 Clouds 15 991 41 10000 7.7 320 14:44 26.12.2020
4401 Clouds 14 992 41 10000 9.3 320 14:20 26.12.2020
4402 Clouds 14 992 41 10000 9.3 320 13:39 26.12.2020
4403 Clouds 14 992 47 10000 5.7 320 13:20 26.12.2020
4404 Clouds 14 992 47 10000 5.7 320 12:42 26.12.2020
4405 Clouds 11 993 62 10000 1.5 180 12:20 26.12.2020
4406 Clouds 11 993 62 10000 1.5 180 11:51 26.12.2020
4407 Clear 10 993 61 10000 3.1 180 11:21 26.12.2020
4408 Clear 10 993 61 10000 3.1 180 10:51 26.12.2020
4409 Clear 10 993 61 10000 3.1 180 10:27 26.12.2020
4410 Clouds 10 994 66 10000 3.55 2 09:49 26.12.2020
4411 Rain 10 995 66 10000 3.1 140 09:24 26.12.2020
4412 Drizzle 11 997 62 10000 1.5 250 08:21 26.12.2020
4413 Drizzle 11 997 62 10000 1.5 250 07:49 26.12.2020
4414 Clouds 12 999 46 10000 7.2 340 06:23 26.12.2020
4415 Clouds 13 1001 43 10000 4.1 320 02:49 26.12.2020
4416 Clouds 13 1001 54 10000 6.2 320 00:43 26.12.2020
4417 Clouds 13 1001 58 10000 1.5 140 23:59 25.12.2020
4418 Clouds 13 1001 58 10000 1.5 140 23:39 25.12.2020
4419 Clouds 13 1001 58 10000 3.1 320 23:20 25.12.2020
4420 Clouds 13 1001 58 10000 3.1 320 22:37 25.12.2020
4421 Clouds 13 1001 54 10000 5.1 320 21:50 25.12.2020
4422 Clouds 13 1001 54 10000 5.1 320 21:32 25.12.2020
4423 Clouds 11 1000 57 10000 5.1 230 20:48 25.12.2020
4424 Clouds 11 1000 57 10000 5.1 230 20:28 25.12.2020
4425 Clouds 10 1000 61 10000 4.6 230 19:44 25.12.2020
4426 Clouds 10 1000 61 10000 5.1 230 18:58 25.12.2020
4427 Clouds 10 1000 61 10000 5.1 230 18:38 25.12.2020
4428 Clouds 9 1000 66 10000 7.2 230 17:35 25.12.2020
4429 Clouds 9 999 66 10000 6.7 230 16:58 25.12.2020
4430 Clouds 9 999 66 10000 6.7 230 16:32 25.12.2020
4431 Clouds 9 999 61 10000 10.8 230 15:57 25.12.2020
4432 Clouds 9 999 61 10000 10.8 230 15:35 25.12.2020
4433 Clouds 11 998 47 10000 2.1 160 14:49 25.12.2020
4434 Clouds 11 998 55 10000 2.1 160 14:28 25.12.2020
4435 Clouds 11 998 53 10000 3.6 180 13:44 25.12.2020
4436 Clouds 11 998 53 10000 3.6 180 13:25 25.12.2020
4437 Clouds 9 998 61 10000 5.7 230 12:35 25.12.2020
4438 Clouds 9 997 61 10000 4.1 200 11:54 25.12.2020
4439 Clouds 9 997 61 10000 4.1 200 11:29 25.12.2020
4440 Clouds 6 996 87 10000 5.1 200 10:53 25.12.2020
4441 Clouds 6 996 81 10000 4.6 180 10:23 25.12.2020
4442 Drizzle 6 995 81 10000 5.1 230 09:32 25.12.2020
4443 Drizzle 6 995 81 10000 5.1 230 08:48 25.12.2020
4444 Rain 7 995 70 10000 5.7 270 07:58 25.12.2020
4445 Rain 8 994 65 10000 11.3 290 06:46 25.12.2020
4446 Rain 10 995 43 10000 5.1 320 02:51 25.12.2020
4447 Clouds 12 994 30 10000 7.7 290 01:41 25.12.2020
4448 Clouds 12 995 32 10000 8.2 320 00:18 25.12.2020
4449 Clouds 11 994 47 10000 4.1 230 23:23 24.12.2020
4450 Clouds 11 994 47 10000 4.1 230 22:40 24.12.2020
4451 Clouds 10 994 46 10000 8.2 230 22:19 24.12.2020
4452 Clouds 10 994 46 10000 8.2 230 21:33 24.12.2020
4453 Rain 14 993 33 10000 8.7 320 20:36 24.12.2020
4454 Rain 12 992 37 10000 8.2 290 18:40 24.12.2020
4455 Rain 11 992 37 10000 3.1 180 18:18 24.12.2020
4456 Rain 11 992 37 10000 3.1 180 17:37 24.12.2020
4457 Rain 9 991 44 10000 7.2 230 16:45 24.12.2020
4458 Rain 9 991 49 10000 5.1 180 16:20 24.12.2020
4459 Rain 9 991 49 10000 5.1 180 15:42 24.12.2020
4460 Clouds 10 990 43 10000 6.7 180 15:19 24.12.2020
4461 Clouds 10 990 43 10000 6.7 180 14:42 24.12.2020
4462 Clouds 8 990 52 10000 5.1 180 14:24 24.12.2020
4463 Clouds 8 990 52 10000 5.1 180 13:42 24.12.2020
4464 Clouds 7 989 56 10000 2.6 180 13:22 24.12.2020
4465 Clouds 7 989 57 10000 2.6 180 12:43 24.12.2020
4466 Clouds 7 988 75 10000 2.6 360 12:21 24.12.2020
4467 Clouds 7 988 75 10000 2.6 360 11:41 24.12.2020
4468 Clouds 6 987 70 10000 9.8 230 11:20 24.12.2020
4469 Clouds 6 987 70 10000 9.8 230 10:52 24.12.2020
4470 Clouds 6 987 70 10000 9.8 230 10:34 24.12.2020
4471 Clouds 3 989 82 10000 2.48 332 09:52 24.12.2020
4472 Clouds 1 988 88 10000 2.47 330 09:24 24.12.2020
4473 Clouds 6 983 70 10000 9.3 230 08:25 24.12.2020
4474 Clouds 6 983 70 10000 9.3 230 07:41 24.12.2020
4475 Clouds 6 982 75 10000 10.3 230 07:18 24.12.2020
4476 Clouds 7 981 65 10000 9.3 230 05:36 24.12.2020
4477 Clouds 8 977 81 10000 13.4 230 01:57 24.12.2020
4478 Clouds 8 977 81 10000 13.4 230 01:57 24.12.2020
4479 Clouds 8 977 81 10000 13.4 230 01:57 24.12.2020
4480 Clouds 8 977 81 10000 13.4 230 01:36 24.12.2020
4481 Rain 9 975 87 10000 13.9 230 01:18 24.12.2020
4482 Rain 9 975 87 10000 13.9 230 01:18 24.12.2020
4483 Clouds 10 974 81 10000 9.3 230 00:21 24.12.2020
4484 Clouds 10 974 81 10000 9.3 230 23:46 23.12.2020
4485 Rain 11 974 76 10000 11.8 230 23:26 23.12.2020
4486 Rain 11 974 76 10000 11.8 230 22:55 23.12.2020
4487 Rain 11 974 76 10000 11.8 230 22:30 23.12.2020
4488 Rain 6 973 87 10000 7.2 320 21:52 23.12.2020
4489 Rain 6 973 87 10000 7.2 320 21:27 23.12.2020
4490 Rain 14 972 58 10000 9.8 320 20:54 23.12.2020
4491 Rain 14 972 58 10000 9.8 320 20:36 23.12.2020
4492 Rain 15 972 44 10000 10.8 320 20:18 23.12.2020
4493 Rain 15 972 44 10000 10.8 320 19:39 23.12.2020
4494 Rain 16 974 38 10000 10.3 320 19:20 23.12.2020
4495 Rain 16 974 38 10000 10.3 320 18:47 23.12.2020
4496 Rain 16 976 38 10000 9.3 320 18:22 23.12.2020
4497 Rain 16 976 38 10000 9.3 320 17:39 23.12.2020
4498 Rain 14 977 41 10000 10.8 320 17:20 23.12.2020
4499 Rain 14 977 41 10000 10.8 320 16:47 23.12.2020
4500 Rain 14 977 41 10000 10.8 320 16:29 23.12.2020
4501 Rain 12 978 46 10000 8.2 340 15:54 23.12.2020
4502 Rain 12 978 46 10000 8.2 340 15:29 23.12.2020
4503 Rain 11 980 80 10000 7.7 340 14:59 23.12.2020
4504 Rain 11 980 80 10000 7.7 340 14:39 23.12.2020
4505 Drizzle 10 983 81 10000 6.2 340 14:20 23.12.2020
4506 Rain 10 983 81 10000 6.2 340 13:43 23.12.2020
4507 Rain 9 984 83 10000 8.7 340 13:19 23.12.2020
4508 Rain 9 984 83 10000 8.7 340 12:52 23.12.2020
4509 Rain 9 984 83 10000 8.7 340 12:28 23.12.2020
4510 Rain 8 985 61 10000 7.2 360 11:49 23.12.2020
4511 Rain 7 986 70 10000 7.2 360 11:20 23.12.2020
4512 Rain 7 986 70 10000 7.2 360 10:50 23.12.2020
4513 Rain 7 986 70 10000 7.2 360 10:31 23.12.2020
4514 Rain 8 988 85 10000 6.7 360 09:36 23.12.2020
4515 Clouds 8 988 85 10000 6.7 360 08:50 23.12.2020
4516 Rain 8 989 52 10000 7.2 340 08:22 23.12.2020
4517 Rain 8 989 52 10000 7.2 340 07:37 23.12.2020
4518 Rain 8 989 52 10000 7.2 340 07:37 23.12.2020
4519 Clouds 9 990 45 10000 7.7 340 06:41 23.12.2020
4520 Clouds 9 991 42 10000 7.2 320 05:54 23.12.2020
4521 Clouds 7 992 80 10000 1.5 320 05:19 23.12.2020
4522 Clouds 9 992 74 10000 7.7 230 01:32 23.12.2020
4523 Rain 10 991 61 10000 12.9 230 00:25 23.12.2020
4524 Rain 10 991 61 10000 12.9 230 23:38 22.12.2020
4525 Rain 10 991 61 10000 9.8 230 23:20 22.12.2020
4526 Rain 10 991 61 10000 9.8 230 22:42 22.12.2020
4527 Rain 10 990 66 10000 10.3 230 22:21 22.12.2020
4528 Rain 10 990 66 10000 10.3 230 21:45 22.12.2020
4529 Rain 10 990 61 10000 12.3 230 21:20 22.12.2020
4530 Rain 10 990 61 10000 12.3 230 20:50 22.12.2020
4531 Rain 10 990 61 10000 12.3 230 20:31 22.12.2020
4532 Rain 9 990 70 10000 10.3 230 19:50 22.12.2020
4533 Rain 9 990 70 10000 10.3 230 19:26 22.12.2020
4534 Drizzle 9 990 70 10000 10.3 230 18:57 22.12.2020
4535 Drizzle 9 990 70 10000 10.3 230 18:38 22.12.2020
4536 Clouds 10 989 61 10000 10.3 230 18:19 22.12.2020
4537 Clouds 10 989 61 10000 10.3 230 17:36 22.12.2020
4538 Clouds 10 989 61 10000 10.3 230 17:18 22.12.2020
4539 Clouds 12 989 46 10000 2.6 0 16:46 22.12.2020
4540 Clouds 12 989 40 10000 6.7 230 16:19 22.12.2020
4541 Clouds 12 989 40 10000 6.7 230 15:45 22.12.2020
4542 Clouds 12 989 40 10000 6.7 230 15:27 22.12.2020
4543 Clouds 11 989 43 10000 6.2 340 14:56 22.12.2020
4544 Clouds 11 989 43 10000 6.2 340 14:38 22.12.2020
4545 Rain 11 990 43 10000 4.1 340 14:18 22.12.2020
4546 Rain 11 990 43 10000 4.1 340 13:42 22.12.2020
4547 Rain 11 991 50 10000 7.2 360 13:18 22.12.2020
4548 Clouds 11 991 50 10000 7.2 360 12:44 22.12.2020
4549 Rain 11 991 50 10000 7.2 360 12:26 22.12.2020
4550 Rain 9 993 57 10000 7.7 360 11:57 22.12.2020
4551 Rain 9 993 57 10000 7.7 360 11:38 22.12.2020
4552 Rain 8 994 76 10000 8.7 340 11:19 22.12.2020
4553 Rain 8 994 76 10000 8.7 340 10:47 22.12.2020
4554 Rain 8 994 61 10000 8.2 320 10:24 22.12.2020
4555 Rain 8 994 61 10000 8.2 320 09:55 22.12.2020
4556 Clouds 8 995 61 10000 5.1 320 09:23 22.12.2020
4557 Clouds 8 995 61 10000 5.1 320 08:51 22.12.2020
4558 Clouds 8 995 61 10000 5.1 320 08:29 22.12.2020
4559 Clouds 8 996 61 10000 6.2 320 07:48 22.12.2020
4560 Clouds 8 997 77 10000 6.7 340 06:48 22.12.2020
4561 Clouds 8 998 80 10000 6.7 320 05:44 22.12.2020
4562 Clouds 10 1000 75 10000 5.7 320 03:33 22.12.2020
4563 Clouds 10 1002 57 10000 3.1 270 00:46 22.12.2020
4564 Clouds 11 1002 53 10000 5.43 319 23:52 21.12.2020
4565 Clouds 11 1002 53 10000 5.43 319 23:31 21.12.2020
4566 Clouds 12 1002 46 10000 7.7 200 22:38 21.12.2020
4567 Clouds 12 1002 46 10000 7.7 200 22:19 21.12.2020
4568 Clouds 12 1002 46 10000 7.7 200 21:57 21.12.2020
4569 Clouds 12 1002 46 10000 7.7 200 21:39 21.12.2020
4570 Clouds 13 1002 71 10000 3.32 312 21:18 21.12.2020
4571 Rain 13 1002 66 10000 3.78 318 20:27 21.12.2020
4572 Rain 12 1002 40 10000 4.6 270 19:58 21.12.2020
4573 Rain 12 1002 40 10000 4.6 270 19:39 21.12.2020
4574 Clouds 12 1002 40 10000 1.5 200 19:19 21.12.2020
4575 Clouds 12 1002 40 10000 1.5 200 18:51 21.12.2020
4576 Clouds 12 1002 40 10000 1.5 200 18:32 21.12.2020
4577 Clouds 11 1002 42 10000 3.58 311 17:43 21.12.2020
4578 Clouds 11 1002 42 10000 2.34 317 17:24 21.12.2020
4579 Clouds 12 1002 42 10000 3.1 180 16:47 21.12.2020
4580 Clouds 9 1003 61 10000 7.7 290 16:26 21.12.2020
4581 Clouds 9 1003 61 10000 7.7 290 15:47 21.12.2020
4582 Clouds 9 1003 49 10000 8.7 230 15:29 21.12.2020
4583 Clouds 9 1003 49 10000 8.7 230 14:57 21.12.2020
4584 Clouds 9 1002 48 10000 6.2 230 14:21 21.12.2020
4585 Clouds 9 1002 48 10000 6.2 230 13:43 21.12.2020
4586 Clouds 8 1002 61 10000 10.8 230 13:24 21.12.2020
4587 Clouds 8 1002 61 10000 10.8 230 12:44 21.12.2020
4588 Clouds 8 1002 61 10000 10.8 230 12:44 21.12.2020
4589 Clouds 6 1002 70 10000 11.8 230 12:25 21.12.2020
4590 Clouds 6 1002 70 10000 11.8 230 11:56 21.12.2020
4591 Clouds 6 1002 70 10000 11.8 230 11:37 21.12.2020
4592 Rain 5 1001 80 10000 10.3 230 11:19 21.12.2020
4593 Rain 5 1001 80 10000 10.3 230 10:41 21.12.2020
4594 Rain 5 999 75 10000 13.9 230 10:22 21.12.2020
4595 Rain 5 999 75 10000 13.9 230 09:43 21.12.2020
4596 Rain 5 999 75 10000 13.9 230 09:24 21.12.2020
4597 Rain 6 999 85 10000 13.9 230 08:50 21.12.2020
4598 Rain 5 998 75 10000 11.8 230 07:51 21.12.2020
4599 Rain 6 998 75 10000 11.3 230 06:43 21.12.2020
4600 Clouds 7 997 56 10000 7.2 230 04:46 21.12.2020
4601 Clouds 8 994 65 10000 17.5 230 01:25 21.12.2020
4602 Clouds 10 992 53 10000 14.4 230 00:31 21.12.2020
4603 Rain 11 990 48 10000 13.4 230 23:34 20.12.2020
4604 Rain 10 990 81 10000 10.8 230 22:59 20.12.2020
4605 Rain 10 990 81 10000 10.8 230 22:40 20.12.2020
4606 Rain 10 989 81 10000 11.8 230 22:21 20.12.2020
4607 Rain 10 989 81 10000 11.8 230 22:21 20.12.2020
4608 Rain 10 989 81 10000 11.8 230 21:39 20.12.2020
4609 Rain 11 988 71 10000 12.9 230 21:20 20.12.2020
4610 Rain 11 988 71 10000 12.9 230 20:50 20.12.2020
4611 Rain 17 988 42 10000 7.7 270 20:23 20.12.2020
4612 Rain 17 988 42 10000 7.7 270 19:46 20.12.2020
4613 Rain 17 988 42 10000 7.7 270 19:27 20.12.2020
4614 Clouds 17 988 42 10000 10.3 320 18:57 20.12.2020
4615 Clouds 17 988 42 10000 10.3 320 18:38 20.12.2020
4616 Clouds 17 988 42 10000 8.2 320 18:19 20.12.2020
4617 Clouds 17 988 42 10000 8.2 320 17:43 20.12.2020
4618 Clouds 17 990 45 10000 7.7 360 17:22 20.12.2020
4619 Clouds 17 990 45 10000 7.7 360 16:44 20.12.2020
4620 Clouds 12 992 64 10000 2.6 140 16:25 20.12.2020
4621 Clouds 12 992 64 10000 2.6 140 15:45 20.12.2020
4622 Clouds 11 991 71 10000 3.6 140 15:24 20.12.2020
4623 Clouds 11 991 71 10000 3.6 140 14:53 20.12.2020
4624 Clouds 11 991 71 10000 3.6 140 14:30 20.12.2020
4625 Clouds 11 992 71 10000 4.1 140 13:47 20.12.2020
4626 Rain 11 992 71 10000 4.1 140 13:25 20.12.2020
4627 Rain 10 993 76 10000 3.1 140 12:57 20.12.2020
4628 Rain 10 993 76 10000 3.1 140 12:39 20.12.2020
4629 Rain 8 993 81 10000 2.6 140 12:18 20.12.2020
4630 Rain 8 993 81 10000 2.6 140 11:42 20.12.2020
4631 Rain 7 994 87 10000 2.6 140 10:57 20.12.2020
4632 Drizzle 7 994 87 10000 2.6 140 10:38 20.12.2020
4633 Rain 8 995 84 10000 3.24 349 10:19 20.12.2020
4634 Rain 8 995 84 10000 3.24 349 09:45 20.12.2020
4635 Clouds 8 996 87 10000 2.6 90 09:27 20.12.2020
4636 Clouds 8 996 87 10000 2.6 90 08:55 20.12.2020
4637 Clouds 8 996 87 10000 2.6 90 08:36 20.12.2020
4638 Clouds 8 996 87 10000 1.5 360 07:24 20.12.2020
4639 Clouds 8 998 87 10000 2.6 140 05:44 20.12.2020
4640 Drizzle 9 1000 76 10000 5.1 230 01:35 20.12.2020
4641 Clouds 10 1000 66 10000 6.2 230 00:37 20.12.2020
4642 Clouds 11 1001 62 10000 6.7 230 23:20 19.12.2020
4643 Clouds 11 1001 62 10000 6.7 230 22:57 19.12.2020
4644 Clouds 11 1001 62 10000 6.7 230 22:38 19.12.2020
4645 Clouds 11 1001 66 10000 7.7 230 22:19 19.12.2020
4646 Clouds 11 1001 66 10000 7.7 230 21:42 19.12.2020
4647 Clouds 11 1001 66 10000 7.7 230 21:24 19.12.2020
4648 Clouds 11 1002 66 10000 5.1 230 20:45 19.12.2020
4649 Clouds 12 1002 62 10000 4.6 230 20:21 19.12.2020
4650 Clouds 12 1002 62 10000 4.6 230 19:53 19.12.2020
4651 Clouds 12 1002 62 10000 4.6 230 19:34 19.12.2020
4652 Clouds 11 1002 62 10000 7.2 230 18:43 19.12.2020
4653 Clouds 11 1003 62 10000 6.2 230 18:25 19.12.2020
4654 Clouds 11 1003 62 10000 6.2 230 17:48 19.12.2020
4655 Clouds 11 1003 62 10000 6.2 230 17:28 19.12.2020
4656 Clouds 10 1003 66 10000 3.6 230 16:55 19.12.2020
4657 Clouds 10 1003 66 10000 3.6 230 16:36 19.12.2020
4658 Clouds 9 1004 70 10000 1.62 320 16:18 19.12.2020
4659 Clouds 9 1004 70 10000 1.62 320 15:47 19.12.2020
4660 Clouds 8 1004 75 10000 1.5 180 14:49 19.12.2020
4661 Rain 7 1004 81 10000 1 90 14:24 19.12.2020
4662 Rain 7 1004 81 10000 1 90 13:42 19.12.2020
4663 Rain 6 1005 81 10000 1 50 13:21 19.12.2020
4664 Rain 6 1005 81 10000 1 50 12:55 19.12.2020
4665 Rain 6 1005 81 10000 1 50 12:37 19.12.2020
4666 Clouds 6 1005 81 10000 2.43 347 12:18 19.12.2020
4667 Clouds 6 1005 81 10000 2.43 347 11:41 19.12.2020
4668 Clouds 6 1005 81 10000 2.24 343 10:48 19.12.2020
4669 Clouds 6 1005 81 10000 2.12 343 10:28 19.12.2020
4670 Clouds 6 1005 81 10000 1.5 70 09:59 19.12.2020
4671 Clouds 6 1005 81 10000 1.5 70 09:40 19.12.2020
4672 Clouds 6 1005 81 10000 3.1 50 08:57 19.12.2020
4673 Clouds 6 1005 81 10000 4.1 70 08:18 19.12.2020
4674 Clouds 6 1006 75 10000 2.1 320 07:19 19.12.2020
4675 Clouds 6 1006 75 10000 2.1 320 06:44 19.12.2020
4676 Clear 6 1006 70 10000 3.6 340 05:21 19.12.2020
4677 Clouds 7 1006 65 10000 2.6 270 03:40 19.12.2020
4678 Clouds 8 1004 65 10000 5.1 140 00:41 19.12.2020
4679 Clouds 8 1004 65 10000 5.1 140 00:41 19.12.2020
4680 Clouds 9 1004 57 10000 3.6 140 00:21 19.12.2020
4681 Clouds 9 1004 57 10000 3.6 140 23:49 18.12.2020
4682 Clouds 9 1004 57 10000 3.6 140 23:49 18.12.2020
4683 Clouds 9 1004 57 10000 3.6 140 23:25 18.12.2020
4684 Clouds 10 1003 62 10000 2.53 177 22:57 18.12.2020
4685 Clouds 10 1003 62 10000 2.53 177 22:38 18.12.2020
4686 Clouds 12 1003 54 10000 3.3 179 22:19 18.12.2020
4687 Clouds 12 1003 54 10000 3.3 179 21:41 18.12.2020
4688 Clouds 10 1002 66 10000 2.71 175 21:22 18.12.2020
4689 Clouds 9 1002 70 10000 2.6 180 20:25 18.12.2020
4690 Clouds 9 1002 70 10000 2.6 180 19:49 18.12.2020
4691 Rain 9 1002 70 10000 4.1 140 19:24 18.12.2020
4692 Rain 9 1002 70 10000 4.1 140 18:46 18.12.2020
4693 Rain 9 1002 70 10000 4.1 140 18:28 18.12.2020
4694 Rain 9 1001 70 10000 4.6 140 17:52 18.12.2020
4695 Rain 9 1000 70 10000 6.7 200 17:21 18.12.2020
4696 Rain 9 1000 70 10000 6.7 200 16:48 18.12.2020
4697 Rain 8 1000 70 10000 5.7 230 16:21 18.12.2020
4698 Rain 8 1000 70 10000 5.7 230 15:54 18.12.2020
4699 Rain 8 1000 70 10000 5.7 230 15:34 18.12.2020
4700 Rain 8 1000 65 10000 4.1 230 14:57 18.12.2020
4701 Clouds 7 1000 75 10000 3.6 200 14:26 18.12.2020
4702 Clouds 7 1000 75 10000 3.6 200 13:59 18.12.2020
4703 Clouds 7 1000 75 10000 3.6 200 13:40 18.12.2020
4704 Clouds 6 1000 75 10000 2.1 230 13:21 18.12.2020
4705 Clouds 6 1000 75 10000 2.1 230 12:42 18.12.2020
4706 Clouds 6 1000 75 10000 5.1 230 11:29 18.12.2020
4707 Clouds 4 1000 80 10000 3.1 230 10:58 18.12.2020
4708 Clouds 4 1000 80 10000 3.1 230 10:37 18.12.2020
4709 Clouds 4 999 86 10000 6.2 230 10:19 18.12.2020
4710 Clouds 4 999 86 10000 6.2 230 09:38 18.12.2020
4711 Clouds 4 999 80 10000 6.7 230 09:19 18.12.2020
4712 Clouds 2 999 86 10000 0.83 258 08:50 18.12.2020
4713 Clouds 2 999 85 10000 0.94 274 08:21 18.12.2020
4714 Clouds 5 999 75 10000 7.7 250 07:20 18.12.2020
4715 Clouds 5 999 75 10000 7.7 250 06:59 18.12.2020
4716 Clouds 5 1000 75 10000 8.2 250 05:45 18.12.2020
4717 Clouds 5 1000 75 10000 8.2 250 05:27 18.12.2020
4718 Clouds 5 1000 80 10000 9.8 230 04:43 18.12.2020
4719 Rain 5 997 80 10000 15.4 230 01:47 18.12.2020
4720 Rain 5 997 80 10000 15.4 230 01:47 18.12.2020
4721 Rain 5 997 80 10000 15.4 230 01:47 18.12.2020
4722 Rain 6 996 75 10000 17 230 00:55 18.12.2020
4723 Rain 6 996 75 10000 17 230 23:55 17.12.2020
4724 Rain 6 995 75 10000 17.5 230 23:25 17.12.2020
4725 Rain 6 995 75 10000 17.5 230 22:50 17.12.2020
4726 Rain 6 995 75 10000 17.5 230 22:28 17.12.2020
4727 Rain 6 995 75 10000 17 230 21:47 17.12.2020
4728 Drizzle 5 995 80 10000 13.9 230 21:25 17.12.2020
4729 Drizzle 5 995 80 10000 13.9 230 20:59 17.12.2020
4730 Drizzle 5 995 80 10000 13.9 230 20:41 17.12.2020
4731 Drizzle 5 995 80 10000 14.9 230 20:18 17.12.2020
4732 Drizzle 5 995 80 10000 14.9 230 19:45 17.12.2020
4733 Drizzle 7 994 70 10000 15.9 230 19:23 17.12.2020
4734 Drizzle 7 994 70 10000 15.9 230 18:41 17.12.2020
4735 Drizzle 7 993 70 10000 17 230 18:23 17.12.2020
4736 Drizzle 7 993 70 10000 17 230 18:23 17.12.2020
4737 Drizzle 7 993 70 10000 17 230 17:53 17.12.2020
4738 Drizzle 7 993 70 10000 17 230 17:32 17.12.2020
4739 Clouds 7 993 70 10000 17.5 230 16:45 17.12.2020
4740 Drizzle 6 992 81 10000 17 230 16:26 17.12.2020
4741 Drizzle 6 992 81 10000 17 230 15:52 17.12.2020
4742 Drizzle 6 992 81 10000 17 230 15:32 17.12.2020
4743 Drizzle 5 993 86 10000 14.4 230 14:55 17.12.2020
4744 Drizzle 5 993 86 10000 14.4 230 14:34 17.12.2020
4745 Snow 5 992 86 10000 15.4 230 13:58 17.12.2020
4746 Snow 5 992 86 10000 15.4 230 13:35 17.12.2020
4747 Snow 4 994 83 660 2.4 227 12:49 17.12.2020
4748 Snow 4 993 84 1009 2.51 235 12:26 17.12.2020
4749 Snow 4 993 84 1009 2.51 235 11:45 17.12.2020
4750 Snow 4 992 93 10000 12.3 230 11:25 17.12.2020
4751 Snow 4 992 93 10000 12.3 230 10:56 17.12.2020
4752 Snow 4 992 93 10000 12.3 230 10:29 17.12.2020
4753 Snow 4 992 93 10000 9.8 230 09:31 17.12.2020
4754 Snow 4 991 93 10000 13.9 230 08:20 17.12.2020
4755 Snow 4 991 93 10000 13.9 230 07:40 17.12.2020
4756 Drizzle 5 991 86 10000 8.2 230 07:18 17.12.2020
4757 Snow 5 991 86 10000 8.2 230 06:42 17.12.2020
4758 Snow 5 991 86 10000 8.2 230 06:24 17.12.2020
4759 Rain 8 990 81 10000 11.8 230 00:55 17.12.2020
4760 Rain 8 989 75 10000 12.3 230 23:57 16.12.2020
4761 Drizzle 9 989 70 10000 13.4 230 23:22 16.12.2020
4762 Rain 9 989 70 10000 13.4 230 22:58 16.12.2020
4763 Rain 9 989 70 10000 13.4 230 22:36 16.12.2020
4764 Rain 9 989 70 10000 12.9 230 21:54 16.12.2020
4765 Rain 9 989 70 10000 12.9 230 21:36 16.12.2020
4766 Rain 9 989 66 10000 11.8 230 20:59 16.12.2020
4767 Rain 9 989 66 10000 11.8 230 20:41 16.12.2020
4768 Rain 9 989 70 10000 12.9 230 20:19 16.12.2020
4769 Rain 9 990 70 10000 10.8 230 19:20 16.12.2020
4770 Rain 9 990 70 10000 10.8 230 18:57 16.12.2020
4771 Rain 9 990 70 10000 10.8 230 18:57 16.12.2020
4772 Rain 9 990 70 10000 10.8 230 18:57 16.12.2020
4773 Rain 9 990 70 10000 10.8 230 18:31 16.12.2020
4774 Rain 9 991 70 10000 5.1 230 17:57 16.12.2020
4775 Rain 9 991 70 10000 5.1 230 17:31 16.12.2020
4776 Rain 9 992 70 10000 3.1 250 16:42 16.12.2020
4777 Rain 9 992 61 10000 6.2 230 16:22 16.12.2020
4778 Rain 9 992 61 10000 6.2 230 16:22 16.12.2020
4779 Rain 9 992 61 10000 6.2 230 16:22 16.12.2020
4780 Rain 9 992 61 10000 6.2 230 15:51 16.12.2020
4781 Rain 9 992 61 10000 6.2 230 15:30 16.12.2020
4782 Rain 8 992 70 10000 9.3 230 14:51 16.12.2020
4783 Drizzle 8 992 70 10000 9.3 230 14:29 16.12.2020
4784 Clouds 8 992 70 10000 11.3 230 13:50 16.12.2020
4785 Clouds 8 992 70 10000 11.3 230 13:31 16.12.2020
4786 Clouds 8 993 70 10000 13.4 230 12:56 16.12.2020
4787 Clouds 8 993 70 10000 13.4 230 12:37 16.12.2020
4788 Rain 7 993 75 10000 14.4 230 11:43 16.12.2020
4789 Rain 7 993 70 10000 18 230 11:22 16.12.2020
4790 Rain 7 993 70 10000 18 230 10:50 16.12.2020
4791 Rain 7 993 70 10000 18 230 10:27 16.12.2020
4792 Rain 7 992 65 10000 14.9 230 09:49 16.12.2020
4793 Rain 7 992 85 10000 19.5 230 09:18 16.12.2020
4794 Rain 6 992 75 10000 18 230 08:22 16.12.2020
4795 Rain 6 992 75 10000 18 230 07:42 16.12.2020
4796 Rain 6 993 81 10000 16.5 230 07:19 16.12.2020
4797 Rain 5 992 93 10000 10.8 230 03:35 16.12.2020
4798 Rain 5 990 93 10000 14.4 230 01:34 16.12.2020
4799 Rain 5 989 93 10000 14.9 230 23:46 15.12.2020
4800 Rain 6 989 81 8000 12.3 230 22:59 15.12.2020
4801 Rain 6 989 81 8000 12.3 230 22:38 15.12.2020
4802 Rain 7 988 75 8000 12.9 230 22:19 15.12.2020
4803 Rain 7 988 75 8000 12.9 230 21:43 15.12.2020
4804 Rain 7 988 75 8000 15.4 230 21:21 15.12.2020
4805 Rain 7 988 75 8000 15.4 230 20:45 15.12.2020
4806 Drizzle 7 987 87 10000 18 230 20:26 15.12.2020
4807 Rain 7 987 87 10000 18 230 19:53 15.12.2020
4808 Rain 7 987 87 10000 18 230 19:30 15.12.2020
4809 Rain 7 986 81 8000 14.4 230 18:39 15.12.2020
4810 Rain 7 985 87 10000 14.4 230 18:21 15.12.2020
4811 Rain 7 985 87 10000 14.4 230 17:46 15.12.2020
4812 Rain 7 985 87 10000 14.4 230 17:28 15.12.2020
4813 Rain 5 985 93 8000 13.9 230 16:58 15.12.2020
4814 Rain 5 985 93 8000 13.9 230 16:31 15.12.2020
4815 Rain 4 987 86 6000 3.6 230 15:44 15.12.2020
4816 Haze 3 987 93 4000 4.1 230 15:25 15.12.2020
4817 Rain 3 987 93 4000 4.1 230 14:43 15.12.2020
4818 Rain 3 988 93 4000 4.6 250 14:21 15.12.2020
4819 Rain 3 988 93 4000 4.6 250 13:51 15.12.2020
4820 Haze 3 988 93 4000 4.6 250 13:32 15.12.2020
4821 Rain 3 989 93 6000 1.5 270 12:47 15.12.2020
4822 Rain 3 990 93 8000 3.1 270 12:20 15.12.2020
4823 Rain 3 990 93 8000 3.1 270 11:55 15.12.2020
4824 Rain 3 990 93 8000 3.1 270 11:26 15.12.2020
4825 Drizzle 2 990 93 10000 2.6 270 10:53 15.12.2020
4826 Drizzle 2 991 93 10000 5.1 230 10:24 15.12.2020
4827 Drizzle 2 991 93 10000 5.1 230 09:50 15.12.2020
4828 Drizzle 2 991 93 10000 5.1 230 09:32 15.12.2020
4829 Rain 2 992 93 10000 4.6 250 08:49 15.12.2020
4830 Rain 2 992 93 10000 4.6 250 08:26 15.12.2020
4831 Drizzle 2 992 93 10000 6.2 250 07:49 15.12.2020
4832 Drizzle 2 992 93 10000 6.2 250 07:49 15.12.2020
4833 Snow 2 992 93 10000 6.2 250 07:24 15.12.2020
4834 Snow 2 993 93 10000 6.2 250 06:32 15.12.2020
4835 Drizzle 2 993 100 10000 6.2 230 03:25 15.12.2020
4836 Clouds 4 992 86 10000 6.2 230 00:34 15.12.2020
4837 Snow 5 992 80 10000 14.4 230 23:26 14.12.2020
4838 Snow 5 992 75 10000 10.8 230 22:56 14.12.2020
4839 Rain 5 992 75 10000 10.8 230 22:34 14.12.2020
4840 Snow 5 991 86 10000 14.9 230 21:53 14.12.2020
4841 Rain 5 991 86 10000 14.9 230 21:35 14.12.2020
4842 Rain 5 991 80 10000 10.3 230 20:52 14.12.2020
4843 Rain 5 991 80 10000 10.3 230 20:30 14.12.2020
4844 Rain 5 991 75 10000 11.8 230 19:55 14.12.2020
4845 Snow 5 991 65 3000 18 230 19:29 14.12.2020
4846 Drizzle 4 990 80 10000 15.4 230 18:51 14.12.2020
4847 Drizzle 4 990 80 10000 15.4 230 18:32 14.12.2020
4848 Rain 5 990 75 10000 11.3 230 17:48 14.12.2020
4849 Rain 6 990 66 5000 12.3 230 17:28 14.12.2020
4850 Rain 6 990 66 5000 12.3 230 16:52 14.12.2020
4851 Rain 5 990 65 10000 12.3 230 16:29 14.12.2020
4852 Rain 5 990 65 10000 12.3 230 15:44 14.12.2020
4853 Rain 5 989 65 10000 13.4 230 15:22 14.12.2020
4854 Rain 5 989 65 10000 13.4 230 14:43 14.12.2020
4855 Snow 3 989 86 10000 11.3 230 14:24 14.12.2020
4856 Snow 3 989 86 10000 11.3 230 13:44 14.12.2020
4857 Snow 2 989 93 3500 12.3 230 13:20 14.12.2020
4858 Rain 4 989 69 10000 8.2 230 12:52 14.12.2020
4859 Snow 4 988 69 10000 11.8 230 12:28 14.12.2020
4860 Snow 4 988 69 10000 11.8 230 11:35 14.12.2020
4861 Drizzle 3 987 83 10000 12.3 230 10:43 14.12.2020
4862 Drizzle 3 987 92 10000 12.3 230 10:25 14.12.2020
4863 Rain 3 987 92 10000 6.2 250 09:44 14.12.2020
4864 Drizzle 3 986 93 10000 8.7 230 08:48 14.12.2020
4865 Drizzle 3 986 93 10000 8.7 230 08:30 14.12.2020
4866 Drizzle 4 985 86 10000 11.3 200 07:45 14.12.2020
4867 Snow 5 983 86 10000 13.4 230 06:48 14.12.2020
4868 Snow 5 983 80 10000 10.3 230 05:36 14.12.2020
4869 Clouds 7 983 78 10000 8.2 230 02:26 14.12.2020
4870 Rain 9 983 75 10000 9.3 230 00:56 14.12.2020
4871 Rain 9 983 75 10000 9.3 230 00:33 14.12.2020
4872 Rain 9 984 45 10000 7.7 230 23:57 13.12.2020
4873 Rain 9 984 45 10000 7.7 230 23:39 13.12.2020
4874 Rain 9 984 59 10000 8.2 230 22:49 13.12.2020
4875 Rain 9 985 57 10000 10.8 230 22:20 13.12.2020
4876 Rain 9 985 57 10000 10.8 230 21:47 13.12.2020
4877 Rain 9 985 57 10000 10.8 230 21:28 13.12.2020
4878 Rain 8 986 65 10000 4.6 360 20:40 13.12.2020
4879 Rain 8 986 61 10000 6.7 230 20:21 13.12.2020
4880 Rain 8 986 61 10000 6.7 230 19:43 13.12.2020
4881 Rain 8 986 65 10000 7.7 230 19:20 13.12.2020
4882 Rain 8 986 65 10000 7.7 230 18:44 13.12.2020
4883 Rain 8 987 70 10000 6.2 230 18:21 13.12.2020
4884 Rain 8 987 70 10000 6.2 230 17:47 13.12.2020
4885 Drizzle 9 987 61 10000 6.2 230 17:21 13.12.2020
4886 Rain 9 987 61 10000 6.2 230 16:59 13.12.2020
4887 Rain 9 987 61 10000 6.2 230 16:39 13.12.2020
4888 Rain 8 988 65 10000 7.7 230 16:19 13.12.2020
4889 Rain 8 988 65 10000 7.7 230 15:42 13.12.2020
4890 Rain 7 988 70 10000 7.7 230 15:23 13.12.2020
4891 Rain 7 988 70 10000 7.7 230 14:44 13.12.2020
4892 Rain 7 988 70 10000 7.7 230 14:25 13.12.2020
4893 Rain 7 988 70 10000 8.7 230 13:44 13.12.2020
4894 Rain 7 988 70 10000 8.7 230 13:25 13.12.2020
4895 Rain 6 988 81 10000 6.7 230 12:51 13.12.2020
4896 Clouds 6 988 81 10000 6.7 230 12:23 13.12.2020
4897 Clouds 6 988 81 10000 7.7 230 11:43 13.12.2020
4898 Drizzle 4 987 86 10000 8.2 230 10:56 13.12.2020
4899 Drizzle 4 987 86 10000 8.2 230 10:38 13.12.2020
4900 Snow 4 987 86 10000 2.1 270 09:57 13.12.2020
4901 Clouds 4 987 86 10000 2.1 270 09:28 13.12.2020
4902 Clouds 4 987 93 10000 2.1 140 08:35 13.12.2020
4903 Clouds 4 987 93 10000 2.1 90 07:51 13.12.2020
4904 Clouds 5 987 80 10000 2.1 140 05:36 13.12.2020
4905 Clouds 6 988 70 10000 3.1 250 02:42 13.12.2020
4906 Clouds 6 988 70 10000 7.2 230 01:58 13.12.2020
4907 Drizzle 10 979 71 10000 11.8 230 00:51 13.12.2020
4908 Drizzle 10 979 71 10000 11.8 230 00:33 13.12.2020
4909 Drizzle 10 979 71 10000 11.8 230 23:33 12.12.2020
4910 Clouds 8 989 54 10000 2.28 228 22:56 12.12.2020
4911 Clouds 9 988 52 10000 3.04 232 22:25 12.12.2020
4912 Clouds 9 988 52 10000 3.04 232 21:44 12.12.2020
4913 Clouds 9 988 51 10000 3.67 221 21:18 12.12.2020
4914 Clouds 9 988 51 10000 3.67 221 20:41 12.12.2020
4915 Clouds 9 987 50 10000 3.98 221 20:19 12.12.2020
4916 Clouds 9 987 50 10000 3.98 221 19:46 12.12.2020
4917 Clouds 9 987 52 10000 3.88 237 19:28 12.12.2020
4918 Clouds 9 987 52 10000 3.84 236 18:47 12.12.2020
4919 Clouds 8 987 55 10000 3.52 229 18:29 12.12.2020
4920 Clouds 8 987 55 10000 3.52 229 17:51 12.12.2020
4921 Clouds 8 987 55 10000 3.52 229 17:32 12.12.2020
4922 Clouds 6 986 77 3990 2.77 210 16:24 12.12.2020
4923 Clouds 6 986 77 3990 2.77 210 15:52 12.12.2020
4924 Clouds 6 986 77 3990 2.77 210 15:34 12.12.2020
4925 Clouds 6 986 80 911 1.31 219 14:50 12.12.2020
4926 Clouds 6 986 76 6370 2.15 219 13:58 12.12.2020
4927 Clouds 6 986 76 6370 2.15 219 13:38 12.12.2020
4928 Clouds 6 985 70 10000 1.36 245 13:19 12.12.2020
4929 Clouds 6 985 70 10000 1.07 303 12:31 12.12.2020
4930 Clouds 4 984 80 10000 1.18 318 10:56 12.12.2020
4931 Clouds 3 984 82 10000 1.17 315 09:50 12.12.2020
4932 Clouds 2 983 86 10000 0.67 250 08:57 12.12.2020
4933 Rain 10 979 71 10000 11.8 230 03:39 12.12.2020
4934 Clouds 14 978 50 10000 5.1 320 00:48 12.12.2020
4935 Clouds 16 979 44 10000 5.7 320 22:50 11.12.2020
4936 Clouds 14 979 47 10000 6.7 340 20:52 11.12.2020
4937 Clouds 16 980 44 10000 8.2 240 19:31 11.12.2020
4938 Clouds 15 981 44 10000 5.7 340 16:45 11.12.2020
4939 Clouds 13 983 50 10000 4.6 320 14:24 11.12.2020
4940 Clouds 13 984 54 10000 2.6 140 13:26 11.12.2020
4941 Clouds 10 986 81 10000 2.64 360 12:22 11.12.2020
4942 Clouds 10 986 81 10000 2.64 360 11:52 11.12.2020
4943 Clouds 8 987 82 10000 2.78 1 11:24 11.12.2020
4944 Clouds 9 987 81 10000 2.6 290 10:34 11.12.2020
4945 Clouds 9 990 81 10000 2.61 358 07:28 11.12.2020
4946 Drizzle 10 992 76 10000 2.29 10 05:20 11.12.2020
4947 Rain 12 992 71 10000 7.7 360 02:58 11.12.2020
4948 Rain 15 992 51 10000 10.3 360 00:40 11.12.2020
4949 Rain 16 993 41 10000 3.1 200 23:26 10.12.2020
4950 Clouds 17 993 36 10000 5.7 230 21:37 10.12.2020
4951 Clouds 18 994 34 10000 5.1 250 20:51 10.12.2020
4952 Clouds 17 995 36 10000 6.2 290 19:53 10.12.2020
4953 Clouds 17 995 39 10000 4.6 50 19:21 10.12.2020
4954 Clouds 17 995 39 10000 4.6 50 18:45 10.12.2020
4955 Clouds 14 997 58 10000 2.6 140 17:26 10.12.2020
4956 Clouds 13 998 66 10000 3.1 90 15:58 10.12.2020
4957 Rain 11 999 76 10000 2.1 90 15:19 10.12.2020
4958 Rain 11 999 76 10000 2.1 90 14:42 10.12.2020
4959 Clouds 10 999 81 10000 2.1 90 13:26 10.12.2020
4960 Clouds 7 1000 100 10000 1.5 360 11:54 10.12.2020
4961 Clouds 7 1001 93 10000 3.6 50 10:46 10.12.2020
4962 Rain 7 1002 93 10000 4.1 70 08:21 10.12.2020
4963 Rain 7 1002 93 10000 4.1 70 07:26 10.12.2020
4964 Rain 7 1004 93 10000 6.2 70 05:34 10.12.2020
4965 Rain 7 1006 93 8000 1 140 02:31 10.12.2020
4966 Rain 7 1006 93 3500 3.1 90 01:32 10.12.2020
4967 Drizzle 8 1007 93 1200 3.6 70 23:42 09.12.2020
4968 Rain 10 1007 87 7000 5.7 140 20:39 09.12.2020
4969 Rain 12 1007 71 10000 3.1 140 19:46 09.12.2020
4970 Rain 11 1006 71 10000 4.1 230 18:36 09.12.2020
4971 Rain 12 1006 66 10000 5.1 200 17:19 09.12.2020
4972 Rain 12 1006 66 10000 5.1 200 16:26 09.12.2020
4973 Clouds 12 1007 66 10000 6.7 230 15:44 09.12.2020
4974 Rain 11 1007 76 10000 1.5 200 14:51 09.12.2020
4975 Clouds 11 1007 76 10000 1.5 200 14:26 09.12.2020
4976 Rain 9 1007 87 10000 5.1 250 13:20 09.12.2020
4977 Rain 9 1007 87 10000 5.1 250 12:58 09.12.2020
4978 Rain 9 1007 87 10000 4.6 250 12:24 09.12.2020
4979 Rain 9 1007 87 10000 4.6 250 11:34 09.12.2020
4980 Rain 8 1006 87 10000 2.6 250 09:51 09.12.2020
4981 Rain 8 1006 93 10000 6.2 250 08:35 09.12.2020
4982 Rain 8 1005 93 10000 7.2 230 06:43 09.12.2020
4983 Drizzle 9 1005 93 10000 6.7 230 05:28 09.12.2020
4984 Rain 11 1006 93 8000 4.6 230 02:40 09.12.2020
4985 Drizzle 13 1005 82 10000 1 180 00:34 09.12.2020
4986 Drizzle 13 1005 76 10000 1.5 70 23:33 08.12.2020
4987 Clouds 12 1004 87 10000 1.5 180 21:56 08.12.2020
4988 Rain 12 1004 87 10000 3.26 2 20:24 08.12.2020
4989 Rain 12 1004 87 10000 3.26 2 19:30 08.12.2020
4990 Drizzle 12 1004 81 10000 2.13 6 18:35 08.12.2020
4991 Rain 10 1005 87 10000 3.6 360 16:39 08.12.2020
4992 Rain 9 1005 93 10000 3.6 50 15:18 08.12.2020
4993 Clouds 9 1005 87 10000 3.6 50 13:49 08.12.2020
4994 Rain 7 1006 93 10000 5.1 90 12:41 08.12.2020
4995 Drizzle 8 1006 87 10000 5.1 50 11:53 08.12.2020
4996 Rain 8 1006 87 10000 4.6 70 10:57 08.12.2020
4997 Rain 8 1006 87 10000 4.6 70 10:39 08.12.2020
4998 Rain 8 1006 87 10000 4.1 90 09:38 08.12.2020
4999 Clouds 7 1006 93 10000 3.6 50 07:38 08.12.2020
5000 Clouds 7 1006 93 10000 5.1 70 05:35 08.12.2020
5001 Clouds 7 1006 87 10000 8.2 70 02:29 08.12.2020
5002 Clouds 8 1005 81 10000 8.2 50 00:44 08.12.2020
5003 Clouds 9 1005 76 10000 7.7 50 23:25 07.12.2020
5004 Clouds 13 1004 66 10000 1.5 200 22:20 07.12.2020
5005 Clouds 13 1004 66 10000 1.5 200 21:38 07.12.2020
5006 Clouds 12 1003 71 10000 2.1 180 19:27 07.12.2020
5007 Clouds 10 1004 81 10000 2.1 200 17:57 07.12.2020
5008 Rain 10 1003 76 10000 2.1 90 17:20 07.12.2020
5009 Rain 10 1003 76 10000 2.1 90 16:38 07.12.2020
5010 Drizzle 8 1003 87 5000 2.1 90 15:24 07.12.2020
5011 Drizzle 8 1003 87 5000 2.1 90 14:33 07.12.2020
5012 Rain 7 1002 93 4000 2.1 70 13:36 07.12.2020
5013 Rain 7 1002 93 8000 3.6 70 12:30 07.12.2020
5014 Rain 7 1001 93 10000 5.1 70 11:42 07.12.2020
5015 Rain 8 1000 93 10000 3.6 90 10:36 07.12.2020
5016 Rain 10 998 93 10000 3.1 250 09:24 07.12.2020
5017 Clouds 11 997 76 10000 3.1 270 07:40 07.12.2020
5018 Rain 9 998 93 10000 5.7 230 05:27 07.12.2020
5019 Rain 9 997 93 10000 6.2 230 04:35 07.12.2020
5020 Rain 10 998 93 10000 1.24 273 00:52 07.12.2020
5021 Rain 11 998 87 10000 4.1 230 22:53 06.12.2020
5022 Rain 11 998 87 10000 5.7 230 21:45 06.12.2020
5023 Rain 12 998 76 10000 4.1 230 20:46 06.12.2020
5024 Rain 12 998 76 10000 4.1 230 20:26 06.12.2020
5025 Rain 12 998 76 10000 4.1 230 20:26 06.12.2020
5026 Rain 12 999 76 10000 7.7 230 19:30 06.12.2020
5027 Clouds 12 1000 71 10000 6.2 230 17:45 06.12.2020
5028 Clouds 12 1001 71 10000 6.2 230 16:34 06.12.2020
5029 Clouds 11 1001 71 10000 9.3 230 14:49 06.12.2020
5030 Rain 11 1000 76 10000 10.3 230 13:23 06.12.2020
5031 Rain 11 1000 76 10000 10.3 230 12:35 06.12.2020
5032 Drizzle 10 1000 87 10000 10.3 230 11:53 06.12.2020
5033 Rain 10 1000 87 10000 10.3 230 11:25 06.12.2020
5034 Rain 10 1000 81 10000 9.3 230 10:36 06.12.2020
5035 Rain 10 999 76 10000 7.2 230 09:31 06.12.2020
5036 Rain 11 999 71 10000 2.6 140 07:52 06.12.2020
5037 Clouds 12 1003 71 10000 2.6 360 05:18 06.12.2020
5038 Clouds 12 1004 71 10000 7.2 230 00:46 06.12.2020
5039 Clouds 12 1004 71 10000 7.2 230 00:27 06.12.2020
5040 Clouds 12 1005 71 10000 6.7 230 23:57 05.12.2020
5041 Rain 12 1005 71 10000 7.2 230 22:25 05.12.2020
5042 Rain 12 1005 66 10000 9.3 230 21:55 05.12.2020
5043 Rain 12 1005 66 10000 9.3 230 21:30 05.12.2020
5044 Rain 12 1005 66 10000 10.3 230 19:54 05.12.2020
5045 Rain 13 1005 62 10000 8.7 230 18:46 05.12.2020
5046 Rain 13 1006 62 10000 8.2 230 17:55 05.12.2020
5047 Clouds 12 1006 66 10000 7.2 230 16:49 05.12.2020
5048 Clouds 12 1006 66 10000 7.2 230 16:28 05.12.2020
5049 Clear 11 1006 71 10000 2.6 270 15:21 05.12.2020
5050 Clear 11 1007 71 10000 2.23 323 13:33 05.12.2020
5051 Clear 10 1007 71 10000 4.1 320 11:50 05.12.2020
5052 Clouds 9 1007 76 10000 3.1 320 10:39 05.12.2020
5053 Clouds 9 1008 76 10000 4.1 340 09:31 05.12.2020
5054 Clouds 10 1009 66 10000 3.6 320 07:48 05.12.2020
5055 Clouds 9 1009 76 10000 2.6 360 05:58 05.12.2020
5056 Clouds 11 1011 57 10000 4.6 270 02:18 05.12.2020
5057 Clouds 10 1011 53 10000 9.8 230 23:39 04.12.2020
5058 Clouds 11 1011 53 10000 8.7 230 21:37 04.12.2020
5059 Clouds 12 1011 50 10000 9.3 230 19:35 04.12.2020
5060 Clouds 11 1011 57 10000 10.3 230 18:40 04.12.2020
5061 Clouds 10 1012 61 10000 11.3 230 17:48 04.12.2020
5062 Clouds 9 1011 61 10000 12.9 230 16:52 04.12.2020
5063 Clouds 8 1011 65 10000 13.9 230 15:26 04.12.2020
5064 Clouds 9 1011 61 10000 13.4 230 13:38 04.12.2020
5065 Clouds 7 1011 70 10000 13.4 230 13:20 04.12.2020
5066 Clouds 7 1011 70 10000 13.4 230 12:47 04.12.2020
5067 Clouds 7 1011 65 10000 13.4 230 10:38 04.12.2020
5068 Clouds 7 1010 70 10000 14.9 230 09:37 04.12.2020
5069 Rain 7 1010 75 10000 13.9 230 06:41 04.12.2020
5070 Clouds 6 1011 75 10000 7.2 230 05:20 04.12.2020
5071 Clouds 6 1010 75 10000 12.9 230 01:54 04.12.2020
5072 Clouds 7 1010 65 10000 10.3 230 22:51 03.12.2020
5073 Clouds 7 1010 56 10000 8.2 230 22:18 03.12.2020
5074 Clouds 6 1009 60 10000 10.8 230 20:47 03.12.2020
5075 Clouds 6 1009 56 10000 11.3 230 19:26 03.12.2020
5076 Clouds 6 1009 60 10000 11.8 230 18:49 03.12.2020
5077 Clouds 3 1009 56 10000 10.3 230 17:38 03.12.2020
5078 Rain 2 1008 93 10000 7.7 250 17:18 03.12.2020
5079 Rain 3 1008 69 10000 7.7 230 15:39 03.12.2020
5080 Rain 2 1007 69 10000 8.2 230 15:21 03.12.2020
5081 Snow 2 1007 69 10000 8.2 230 14:26 03.12.2020
5082 Snow 2 1006 80 10000 7.7 230 13:24 03.12.2020
5083 Snow 0 1005 84 1200 12.9 230 12:26 03.12.2020
5084 Snow 1 1003 88 3120 9.41 229 11:23 03.12.2020
5085 Snow 1 998 94 10000 8.7 230 08:56 03.12.2020
5086 Clouds 1 993 95 3000 12.9 230 05:18 03.12.2020
5087 Rain 3 991 86 8000 11.3 230 02:26 03.12.2020
5088 Snow 5 989 75 10000 11.3 230 00:48 03.12.2020
5089 Rain 5 988 75 10000 14.9 230 22:47 02.12.2020
5090 Rain 5 988 75 10000 14.9 230 22:25 02.12.2020
5091 Rain 6 988 81 10000 12.9 230 20:57 02.12.2020
5092 Rain 6 988 81 10000 12.9 230 20:39 02.12.2020
5093 Rain 6 988 75 10000 14.9 230 20:21 02.12.2020
5094 Rain 6 988 75 10000 12.3 230 18:33 02.12.2020
5095 Drizzle 7 989 70 10000 9.8 230 17:38 02.12.2020
5096 Rain 7 989 68 9998 7.7 230 17:19 02.12.2020
5097 Clouds 8 990 59 10000 2.6 180 15:21 02.12.2020
5098 Clouds 5 991 65 10000 2.1 270 12:45 02.12.2020
5099 Snow 3 990 91 10000 3.1 270 10:29 02.12.2020
5100 Rain 2 990 90 10000 2.6 270 09:22 02.12.2020
5101 Drizzle 3 989 92 10000 6.7 200 04:25 02.12.2020
5102 Drizzle 3 986 100 10000 10.8 230 22:21 01.12.2020
5103 Drizzle 3 986 100 10000 10.8 230 21:41 01.12.2020
5104 Rain 5 984 80 10000 12.3 200 19:35 01.12.2020
5105 Rain 6 984 70 10000 14.9 230 17:58 01.12.2020
5106 Rain 6 983 70 10000 11.3 200 16:36 01.12.2020
5107 Rain 6 981 60 10000 12.9 230 13:39 01.12.2020
5108 Clouds 5 981 72 10000 13.4 230 12:25 01.12.2020
5109 Rain 5 981 65 10000 12.9 230 11:27 01.12.2020
5110 Clouds 5 981 65 10000 5.1 250 10:39 01.12.2020
5111 Clouds 4 981 80 10000 11.3 230 09:24 01.12.2020
5112 Snow 5 980 86 10000 12.9 230 06:50 01.12.2020
5113 Rain 9 982 66 10000 14.4 230 01:56 01.12.2020
5114 Rain 10 981 57 10000 8.2 230 00:56 01.12.2020
5115 Rain 9 983 70 10000 8.7 230 23:22 30.11.2020
5116 Rain 9 983 70 10000 8.7 230 22:45 30.11.2020
5117 Drizzle 9 983 70 10000 8.7 230 22:25 30.11.2020
5118 Drizzle 10 982 61 10000 10.3 230 21:22 30.11.2020
5119 Rain 13 983 54 10000 12.3 230 19:42 30.11.2020
5120 Rain 11 984 62 10000 5.7 230 18:24 30.11.2020
5121 Rain 11 984 62 10000 5.7 230 17:51 30.11.2020
5122 Rain 11 984 53 10000 3.1 180 17:24 30.11.2020
5123 Rain 11 984 53 10000 3.1 180 16:43 30.11.2020
5124 Rain 10 986 57 10000 7.7 230 14:47 30.11.2020
5125 Drizzle 10 986 57 10000 2.6 230 13:54 30.11.2020
5126 Rain 9 986 61 10000 5.7 160 12:34 30.11.2020
5127 Rain 9 987 61 10000 4.6 110 11:58 30.11.2020
5128 Clouds 8 987 61 10000 3.1 90 10:31 30.11.2020
5129 Clouds 9 987 57 10000 2.1 180 09:51 30.11.2020
5130 Clouds 9 988 85 10000 1 270 07:44 30.11.2020
5131 Rain 9 992 70 10000 6.7 230 01:19 30.11.2020
5132 Drizzle 10 995 61 10000 9.8 230 22:20 29.11.2020
5133 Drizzle 10 995 61 10000 9.8 230 21:43 29.11.2020
5134 Drizzle 10 995 61 10000 9.8 230 21:25 29.11.2020
5135 Rain 9 995 66 10000 9.3 230 17:48 29.11.2020
5136 Drizzle 8 994 70 10000 10.3 230 16:59 29.11.2020
5137 Drizzle 5 994 86 10000 7.2 230 13:35 29.11.2020
5138 Drizzle 5 993 80 10000 2.6 230 12:34 29.11.2020
5139 Drizzle 4 992 86 10000 6.2 230 11:22 29.11.2020
5140 Rain 4 991 80 10000 6.2 220 08:52 29.11.2020
5141 Clouds 4 991 80 10000 2.6 230 08:34 29.11.2020
5142 Clouds 7 988 85 10000 7.2 230 02:31 29.11.2020
5143 Rain 9 988 42 10000 6.2 320 22:58 28.11.2020
5144 Rain 9 988 49 10000 1.5 140 21:20 28.11.2020
5145 Rain 8 989 60 10000 2.6 50 19:54 28.11.2020
5146 Rain 8 989 54 10000 2.6 50 19:27 28.11.2020
5147 Rain 7 989 65 10000 2.1 160 18:52 28.11.2020
5148 Clouds 6 989 75 10000 6.7 200 17:57 28.11.2020
5149 Rain 4 989 80 10000 7.2 230 16:56 28.11.2020
5150 Rain 4 987 80 10000 9.3 230 14:58 28.11.2020
5151 Rain 3 987 86 10000 5.7 230 13:31 28.11.2020
5152 Rain 3 985 86 10000 7.2 230 11:25 28.11.2020
5153 Rain 3 982 69 10000 2.1 320 08:47 28.11.2020
5154 Rain 4 979 92 10000 4.1 250 03:38 28.11.2020
5155 Clouds 3 978 86 10000 6.7 230 01:52 28.11.2020
5156 Clouds 3 978 86 10000 6.7 230 01:52 28.11.2020
5157 Rain 3 977 86 8000 12.9 230 23:19 27.11.2020
5158 Rain 3 977 86 8000 12.9 230 22:23 27.11.2020
5159 Rain 4 976 86 8000 12.9 230 20:39 27.11.2020
5160 Drizzle 6 976 70 10000 12.9 230 19:33 27.11.2020
5161 Rain 11 976 32 10000 8.2 230 18:57 27.11.2020
5162 Clouds 5 973 53 10000 14.9 230 15:50 27.11.2020
5163 Clouds 7 972 70 10000 11.8 230 14:23 27.11.2020
5164 Clouds 6 970 87 10000 15.4 230 13:18 27.11.2020
5165 Clouds 6 970 87 10000 15.4 230 12:46 27.11.2020
5166 Rain 7 968 93 10000 17 230 10:53 27.11.2020
5167 Rain 7 968 93 10000 17 230 10:32 27.11.2020
5168 Rain 7 968 87 10000 12.9 230 09:27 27.11.2020
5169 Rain 12 981 50 10000 7.2 360 23:18 26.11.2020
5170 Rain 12 981 50 10000 7.2 360 22:24 26.11.2020
5171 Rain 11 983 53 10000 8.2 270 21:42 26.11.2020
5172 Clouds 11 984 53 10000 4.1 230 20:43 26.11.2020
5173 Rain 10 985 61 10000 7.7 230 18:36 26.11.2020
5174 Drizzle 8 987 65 10000 9.3 230 17:20 26.11.2020
5175 Drizzle 7 987 70 10000 7.2 230 13:44 26.11.2020
5176 Clouds 7 988 81 10000 3.6 230 12:57 26.11.2020
5177 Clouds 7 988 81 10000 3.6 230 12:38 26.11.2020
5178 Rain 6 988 70 10000 1 140 10:46 26.11.2020
5179 Rain 6 988 70 10000 1 140 10:23 26.11.2020
5180 Clouds 5 989 80 10000 1.5 140 09:34 26.11.2020
5181 Clouds 6 990 60 10000 1 270 08:57 26.11.2020
5182 Clouds 6 990 60 10000 1 270 08:33 26.11.2020
5183 Clouds 7 993 70 10000 4.6 230 02:18 26.11.2020
5184 Rain 7 992 81 10000 7.7 230 22:18 25.11.2020
5185 Rain 9 991 70 10000 10.3 230 20:32 25.11.2020
5186 Rain 11 991 53 10000 3.1 230 18:59 25.11.2020
5187 Clouds 11 991 53 10000 1.5 90 17:29 25.11.2020
5188 Clouds 8 991 70 10000 1.5 360 15:44 25.11.2020
5189 Clouds 8 992 75 10000 0.78 216 14:58 25.11.2020
5190 Clouds 7 992 75 10000 2.1 90 13:46 25.11.2020
5191 Clear 7 992 75 10000 1.5 140 12:57 25.11.2020
5192 Clear 4 992 86 10000 1.44 319 11:26 25.11.2020
5193 Clouds 4 992 80 10000 1 320 09:22 25.11.2020
5194 Clouds 4 992 86 10000 1.5 270 08:50 25.11.2020
5195 Clouds 4 992 80 10000 1 320 07:45 25.11.2020
5196 Clouds 6 994 81 10000 1.5 270 03:52 25.11.2020
5197 Rain 7 994 65 10000 3.1 230 01:49 25.11.2020
5198 Drizzle 7 994 70 10000 3.1 230 00:21 25.11.2020
5199 Rain 7 993 65 10000 5.1 230 23:35 24.11.2020
5200 Drizzle 7 993 70 10000 9.3 230 22:41 24.11.2020
5201 Drizzle 7 992 70 10000 11.8 230 21:50 24.11.2020
5202 Drizzle 7 992 70 10000 11.8 230 21:27 24.11.2020
5203 Drizzle 8 991 61 10000 11.3 230 20:19 24.11.2020
5204 Drizzle 7 990 70 10000 8.2 230 17:47 24.11.2020
5205 Drizzle 7 990 70 10000 8.2 230 17:27 24.11.2020
5206 Drizzle 7 989 65 10000 8.7 230 16:38 24.11.2020
5207 Drizzle 7 989 65 10000 8.7 230 16:38 24.11.2020
5208 Drizzle 9 987 56 10000 7.2 230 15:56 24.11.2020
5209 Clouds 9 988 49 10000 3.1 180 15:20 24.11.2020
5210 Clouds 9 988 49 10000 3.1 180 14:45 24.11.2020
5211 Clouds 9 988 49 10000 3.16 311 14:21 24.11.2020
5212 Clear 7 988 56 10000 3.7 322 12:42 24.11.2020
5213 Clear 6 988 69 10000 3.35 337 12:21 24.11.2020
5214 Clear 6 988 69 10000 3.35 337 11:34 24.11.2020
5215 Clouds 4 988 64 10000 2.1 340 10:25 24.11.2020
5216 Clouds 3 988 74 10000 2.6 270 09:42 24.11.2020
5217 Clouds 3 988 74 10000 2.6 270 09:22 24.11.2020
5218 Clouds 4 988 69 10000 1 290 06:50 24.11.2020
5219 Clouds 6 987 60 10000 10.8 230 04:18 24.11.2020
5220 Rain 8 983 61 10000 16.5 230 22:27 23.11.2020
5221 Rain 9 984 66 10000 8.7 230 21:35 23.11.2020
5222 Rain 7 983 75 10000 15.9 230 20:50 23.11.2020
5223 Clouds 9 982 81 10000 11.3 230 20:20 23.11.2020
5224 Drizzle 8 982 81 10000 5.1 230 18:20 23.11.2020
5225 Drizzle 8 984 75 10000 3.6 230 17:24 23.11.2020
5226 Drizzle 7 984 87 10000 3.1 230 16:22 23.11.2020
5227 Drizzle 7 986 87 10000 2.6 180 14:46 23.11.2020
5228 Drizzle 6 989 87 10000 2.1 360 13:19 23.11.2020
5229 Drizzle 6 989 87 10000 2.1 360 12:36 23.11.2020
5230 Drizzle 6 989 87 10000 2.1 360 11:48 23.11.2020
5231 Clouds 6 991 87 10000 0.62 286 10:50 23.11.2020
5232 Clouds 6 991 81 10000 1 290 09:31 23.11.2020
5233 Clouds 6 992 81 10000 1 360 08:40 23.11.2020
5234 Clouds 6 993 81 10000 1.5 360 07:27 23.11.2020
5235 Clouds 12 992 46 10000 10.3 230 00:34 23.11.2020
5236 Clouds 13 991 47 10000 7.2 250 23:35 22.11.2020
5237 Clouds 16 991 25 10000 7.7 270 22:18 22.11.2020
5238 Clouds 17 990 23 10000 6.2 270 20:54 22.11.2020
5239 Clouds 16 990 29 10000 9.3 290 19:55 22.11.2020
5240 Clouds 17 989 29 10000 7.7 290 18:53 22.11.2020
5241 Clouds 14 990 47 10000 4.38 315 16:54 22.11.2020
5242 Clouds 12 990 54 10000 4.98 320 15:53 22.11.2020
5243 Clouds 11 990 62 10000 3.1 320 14:39 22.11.2020
5244 Clouds 7 990 100 10000 1.5 140 12:50 22.11.2020
5245 Clear 8 989 81 10000 2.6 140 11:57 22.11.2020
5246 Clouds 6 990 100 10000 2.1 90 11:21 22.11.2020
5247 Clouds 6 990 100 10000 2.1 90 10:45 22.11.2020
5248 Clouds 7 990 93 10000 2.1 110 09:32 22.11.2020
5249 Drizzle 10 991 76 8000 6.7 110 01:49 22.11.2020
5250 Clouds 11 990 71 10000 9.8 70 23:40 21.11.2020
5251 Clouds 16 990 41 10000 3.6 230 22:18 21.11.2020
5252 Clouds 16 990 41 10000 3.6 230 21:30 21.11.2020
5253 Clouds 16 990 41 10000 3.6 230 21:30 21.11.2020
5254 Clouds 19 990 29 10000 4.6 270 20:35 21.11.2020
5255 Clouds 19 990 29 10000 5.7 230 19:57 21.11.2020
5256 Clouds 19 990 29 10000 5.7 230 19:36 21.11.2020
5257 Clouds 19 990 29 10000 4.6 270 18:28 21.11.2020
5258 Clouds 19 992 34 10000 4.68 325 17:28 21.11.2020
5259 Clouds 19 992 34 10000 4.68 325 16:40 21.11.2020
5260 Clouds 15 994 51 10000 4.26 355 15:22 21.11.2020
5261 Clouds 15 994 51 10000 4.26 355 14:48 21.11.2020
5262 Clear 14 994 47 10000 4.14 359 14:22 21.11.2020
5263 Clear 11 995 66 10000 2.1 90 12:36 21.11.2020
5264 Clear 10 996 61 10000 3.49 5 12:18 21.11.2020
5265 Clouds 10 996 61 10000 2.1 320 10:51 21.11.2020
5266 Clouds 10 996 61 10000 2.1 320 10:26 21.11.2020
5267 Clouds 7 998 87 10000 2.6 320 08:51 21.11.2020
5268 Clouds 7 999 93 10000 2.33 357 06:51 21.11.2020
5269 Clouds 7 1001 87 10000 10.3 70 04:39 21.11.2020
5270 Clouds 8 1002 70 10000 5.7 50 01:32 21.11.2020
5271 Clouds 9 1001 76 10000 8.7 90 23:59 20.11.2020
5272 Rain 9 1000 76 10000 8.2 70 22:26 20.11.2020
5273 Clouds 10 1000 76 10000 7.7 70 21:42 20.11.2020
5274 Clouds 12 1000 71 10000 6.2 90 21:21 20.11.2020
5275 Clouds 13 999 66 10000 5.1 90 19:46 20.11.2020
5276 Clouds 12 998 66 10000 1.5 230 18:50 20.11.2020
5277 Clouds 13 998 58 10000 2.6 230 17:53 20.11.2020
5278 Clouds 13 998 58 10000 2.6 230 17:27 20.11.2020
5279 Clouds 13 997 58 10000 2.1 180 16:39 20.11.2020
5280 Clouds 13 997 62 10000 2.1 90 15:58 20.11.2020
5281 Clouds 13 997 62 10000 2.1 90 15:26 20.11.2020
5282 Clouds 10 997 76 10000 2.6 90 13:47 20.11.2020
5283 Clouds 9 997 87 10000 3.1 50 13:18 20.11.2020
5284 Clouds 9 997 87 10000 3.1 50 12:36 20.11.2020
5285 Clouds 6 998 100 10000 2.1 360 11:45 20.11.2020
5286 Clouds 7 997 93 10000 1 70 10:59 20.11.2020
5287 Clouds 7 997 93 10000 1 290 09:30 20.11.2020
5288 Clouds 7 998 93 10000 1 230 08:26 20.11.2020
5289 Clouds 7 998 93 10000 1 20 07:33 20.11.2020
5290 Clouds 10 1000 66 10000 3.1 230 03:44 20.11.2020
5291 Clouds 11 1000 66 10000 9.3 230 22:42 19.11.2020
5292 Drizzle 11 1001 71 10000 9.3 230 21:57 19.11.2020
5293 Drizzle 11 1001 71 10000 9.3 230 21:38 19.11.2020
5294 Clouds 12 1000 66 10000 7.7 230 20:33 19.11.2020
5295 Drizzle 12 1001 66 10000 7.7 230 19:53 19.11.2020
5296 Drizzle 12 1001 66 10000 7.7 230 19:24 19.11.2020
5297 Rain 12 1000 62 10000 8.7 230 17:40 19.11.2020
5298 Rain 11 1000 66 10000 8.7 230 16:54 19.11.2020
5299 Rain 10 1000 71 10000 10.3 230 15:41 19.11.2020
5300 Rain 10 1000 71 10000 10.3 230 15:23 19.11.2020
5301 Rain 11 1000 71 10000 6.7 230 13:46 19.11.2020
5302 Rain 11 1000 71 10000 6.7 230 13:46 19.11.2020
5303 Drizzle 11 1000 71 10000 7.7 230 13:20 19.11.2020
5304 Drizzle 11 1000 71 10000 7.7 230 12:40 19.11.2020
5305 Drizzle 11 999 71 10000 6.7 230 12:19 19.11.2020
5306 Drizzle 11 999 71 10000 6.7 230 11:36 19.11.2020
5307 Clouds 12 1000 71 10000 4.1 320 10:54 19.11.2020
5308 Clouds 10 1000 81 10000 3.1 180 10:19 19.11.2020
5309 Clouds 10 1000 81 10000 3.1 180 09:44 19.11.2020
5310 Clouds 10 1000 81 10000 3.1 180 09:24 19.11.2020
5311 Clouds 10 1000 81 10000 3.1 180 09:24 19.11.2020
5312 Clouds 10 1000 81 10000 1 360 08:19 19.11.2020
5313 Rain 10 1001 81 10000 3.16 331 05:41 19.11.2020
5314 Drizzle 11 1004 81 10000 9.3 230 01:45 19.11.2020
5315 Drizzle 12 1004 76 10000 8.2 230 23:53 18.11.2020
5316 Rain 12 1004 76 10000 8.2 230 23:25 18.11.2020
5317 Rain 13 1005 66 10000 9.3 230 22:36 18.11.2020
5318 Rain 12 1005 71 10000 8.7 230 22:18 18.11.2020
5319 Rain 12 1005 71 10000 8.7 230 21:38 18.11.2020
5320 Rain 12 1005 76 10000 10.3 230 21:19 18.11.2020
5321 Rain 13 1005 71 10000 9.3 230 19:48 18.11.2020
5322 Rain 13 1005 71 10000 9.3 230 19:27 18.11.2020
5323 Rain 13 1005 71 10000 10.8 230 18:55 18.11.2020
5324 Rain 13 1005 71 10000 10.8 230 18:36 18.11.2020
5325 Rain 15 1005 62 10000 3.1 230 17:37 18.11.2020
5326 Clouds 14 1006 62 10000 1.81 295 16:24 18.11.2020
5327 Clouds 12 1006 66 10000 4.6 320 15:36 18.11.2020
5328 Clear 11 1007 66 10000 5.7 320 14:41 18.11.2020
5329 Clear 10 1007 71 10000 4.1 320 13:43 18.11.2020
5330 Clear 10 1008 71 10000 2.1 320 13:20 18.11.2020
5331 Clear 10 1008 71 10000 2.1 320 12:29 18.11.2020
5332 Clear 10 1008 61 10000 4.1 320 11:34 18.11.2020
5333 Clouds 9 1009 70 10000 3.6 290 10:31 18.11.2020
5334 Clouds 8 1009 75 10000 4.6 290 09:52 18.11.2020
5335 Clouds 10 1009 71 10000 10.3 250 07:44 18.11.2020
5336 Clouds 10 1009 71 10000 10.8 250 06:33 18.11.2020
5337 Clouds 9 1006 70 10000 14.4 230 00:25 18.11.2020
5338 Rain 9 1006 70 10000 13.4 230 23:34 17.11.2020
5339 Rain 10 1005 66 10000 17 230 22:49 17.11.2020
5340 Rain 10 1005 66 10000 17 230 22:28 17.11.2020
5341 Clouds 10 1004 66 10000 17.5 230 21:50 17.11.2020
5342 Clouds 10 1004 66 10000 17.5 230 21:30 17.11.2020
5343 Clouds 12 1003 58 10000 17 230 20:47 17.11.2020
5344 Clouds 12 1003 58 10000 17 230 20:24 17.11.2020
5345 Clouds 12 1003 58 10000 15.9 230 19:54 17.11.2020
5346 Clouds 12 1003 58 10000 15.9 230 19:54 17.11.2020
5347 Clouds 11 1003 62 10000 14.9 230 18:24 17.11.2020
5348 Clouds 11 1003 62 10000 14.9 230 18:24 17.11.2020
5349 Rain 11 1003 62 10000 13.9 230 17:39 17.11.2020
5350 Drizzle 10 1004 71 8000 13.4 230 16:53 17.11.2020
5351 Rain 9 1005 76 10000 12.9 230 16:18 17.11.2020
5352 Rain 9 1005 76 10000 12.9 230 15:39 17.11.2020
5353 Drizzle 10 1005 71 10000 10.8 230 15:21 17.11.2020
5354 Drizzle 10 1005 71 10000 10.8 230 14:42 17.11.2020
5355 Rain 9 1005 81 10000 11.3 230 13:59 17.11.2020
5356 Rain 9 1005 81 10000 11.3 230 13:30 17.11.2020
5357 Rain 9 1006 76 10000 9.3 250 12:43 17.11.2020
5358 Rain 8 1006 75 10000 9.3 250 11:46 17.11.2020
5359 Rain 8 1006 75 10000 9.3 250 11:28 17.11.2020
5360 Clouds 6 1005 75 10000 11.8 230 10:39 17.11.2020
5361 Clouds 5 1006 80 10000 13.4 230 10:20 17.11.2020
5362 Clouds 5 1006 80 10000 13.4 230 09:43 17.11.2020
5363 Clouds 5 1005 80 10000 12.3 230 08:46 17.11.2020
5364 Clouds 5 1004 75 10000 15.4 230 07:59 17.11.2020
5365 Clouds 5 1004 75 10000 15.4 230 07:32 17.11.2020
5366 Clouds 6 1004 70 10000 15.9 200 04:31 17.11.2020
5367 Clouds 7 1004 65 10000 20.1 200 03:28 17.11.2020
5368 Clouds 7 1004 65 10000 17.5 200 02:29 17.11.2020
5369 Clouds 8 1004 61 10000 19.5 200 00:56 17.11.2020
5370 Clouds 8 1003 61 10000 18.5 200 23:54 16.11.2020
5371 Clouds 8 1003 61 10000 18.5 200 23:32 16.11.2020
5372 Rain 9 1003 54 10000 19.5 230 22:58 16.11.2020
5373 Rain 9 1003 51 10000 19.5 230 22:24 16.11.2020
5374 Clouds 10 1002 46 10000 20.1 230 21:56 16.11.2020
5375 Clouds 10 1002 46 10000 20.1 230 21:37 16.11.2020
5376 Clouds 10 1000 49 10000 22.1 230 21:19 16.11.2020
5377 Clouds 10 1000 48 10000 22.1 230 20:26 16.11.2020
5378 Clouds 10 998 48 10000 20.6 230 19:51 16.11.2020
5379 Clouds 10 998 47 10000 20.6 230 19:29 16.11.2020
5380 Clouds 10 999 47 10000 18.5 230 18:50 16.11.2020
5381 Rain 10 998 44 10000 21.6 230 18:18 16.11.2020
5382 Rain 10 998 45 10000 21.6 230 17:28 16.11.2020
5383 Clouds 10 998 53 10000 14.9 230 16:57 16.11.2020
5384 Clouds 10 998 53 10000 14.9 230 16:39 16.11.2020
5385 Rain 10 997 48 10000 20.1 230 16:20 16.11.2020
5386 Rain 10 997 48 10000 20.1 230 15:43 16.11.2020
5387 Rain 10 997 48 10000 20.1 230 15:43 16.11.2020
5388 Rain 9 995 66 10000 19 230 15:25 16.11.2020
5389 Rain 9 995 66 10000 19 230 14:47 16.11.2020
5390 Rain 9 994 66 10000 19 230 13:44 16.11.2020
5391 Rain 9 993 66 10000 19.5 230 12:51 16.11.2020
5392 Rain 9 993 66 10000 19.5 230 12:28 16.11.2020
5393 Clouds 9 994 66 10000 17 230 11:39 16.11.2020
5394 Clouds 8 996 76 10000 7.2 250 11:21 16.11.2020
5395 Clouds 8 996 76 10000 7.2 250 10:44 16.11.2020
5396 Clouds 8 996 78 10000 7.2 250 10:25 16.11.2020
5397 Clouds 6 996 60 10000 5.1 250 09:46 16.11.2020
5398 Clouds 6 996 60 10000 5.1 250 09:23 16.11.2020
5399 Clouds 7 996 88 10000 7.7 230 08:41 16.11.2020
5400 Clouds 7 997 65 10000 10.3 230 07:45 16.11.2020
5401 Clouds 7 997 56 10000 9.8 230 06:50 16.11.2020
5402 Clouds 7 997 56 10000 9.8 230 06:29 16.11.2020
5403 Clouds 8 997 45 10000 13.9 230 04:48 16.11.2020
5404 Clouds 7 997 52 10000 14.9 230 03:45 16.11.2020
5405 Clouds 8 997 52 10000 16.5 230 01:44 16.11.2020
5406 Clouds 9 995 60 10000 19.5 230 23:58 15.11.2020
5407 Clouds 9 995 54 10000 19.5 230 23:26 15.11.2020
5408 Clouds 10 994 39 10000 22.6 230 22:51 15.11.2020
5409 Clouds 10 994 39 10000 22.6 230 22:22 15.11.2020
5410 Clouds 10 993 39 10000 17.5 230 21:47 15.11.2020
5411 Clouds 10 993 39 10000 17.5 230 21:25 15.11.2020
5412 Clouds 12 994 30 10000 16.5 230 20:44 15.11.2020
5413 Clouds 11 994 29 10000 20.1 230 20:22 15.11.2020
5414 Clouds 11 994 29 10000 20.1 230 19:48 15.11.2020
5415 Clouds 11 994 29 10000 20.1 230 19:22 15.11.2020
5416 Clouds 11 994 32 10000 15.4 230 18:58 15.11.2020
5417 Clouds 11 994 32 10000 15.4 230 18:40 15.11.2020
5418 Rain 10 994 34 10000 9.3 230 18:20 15.11.2020
5419 Rain 10 994 34 10000 9.3 230 17:46 15.11.2020
5420 Rain 10 994 34 10000 9.3 230 17:24 15.11.2020
5421 Drizzle 9 994 42 10000 12.9 230 16:50 15.11.2020
5422 Clouds 8 993 61 10000 13.4 230 16:21 15.11.2020
5423 Clouds 8 993 61 10000 13.4 230 15:56 15.11.2020
5424 Clouds 8 993 61 10000 13.4 230 15:29 15.11.2020
5425 Drizzle 6 991 70 10000 23.1 230 14:59 15.11.2020
5426 Drizzle 6 991 70 10000 23.1 230 14:31 15.11.2020
5427 Drizzle 6 991 70 10000 16.5 230 13:57 15.11.2020
5428 Drizzle 6 991 70 10000 16.5 230 13:37 15.11.2020
5429 Drizzle 6 989 70 10000 21.1 230 12:52 15.11.2020
5430 Drizzle 6 989 70 10000 21.1 230 12:25 15.11.2020
5431 Drizzle 6 987 75 10000 15.4 230 11:47 15.11.2020
5432 Drizzle 6 986 70 10000 11.3 230 11:21 15.11.2020
5433 Drizzle 6 986 70 10000 11.3 230 10:59 15.11.2020
5434 Drizzle 6 986 70 10000 11.3 230 10:41 15.11.2020
5435 Drizzle 6 986 70 10000 11.3 230 10:23 15.11.2020
5436 Clouds 5 986 75 10000 8.2 230 09:41 15.11.2020
5437 Clouds 6 987 75 10000 2.1 180 09:19 15.11.2020
5438 Clouds 6 987 75 10000 2.1 180 08:51 15.11.2020
5439 Clouds 6 987 75 10000 5.1 180 08:22 15.11.2020
5440 Clouds 6 987 75 10000 5.1 180 07:38 15.11.2020
5441 Drizzle 5 989 75 10000 6.7 200 04:58 15.11.2020
5442 Drizzle 6 990 70 10000 3.6 180 02:55 15.11.2020
5443 Clouds 6 992 78 10000 3.82 329 00:48 15.11.2020
5444 Clouds 6 992 64 10000 2.95 332 00:27 15.11.2020
5445 Clouds 6 992 64 10000 2.95 332 00:27 15.11.2020
5446 Clouds 7 994 65 10000 3.6 200 23:37 14.11.2020
5447 Clouds 7 994 65 10000 3.1 230 22:50 14.11.2020
5448 Clouds 7 994 65 10000 3.1 230 22:30 14.11.2020
5449 Clouds 7 995 53 10000 4.1 230 21:43 14.11.2020
5450 Clouds 7 995 51 10000 4.1 230 21:22 14.11.2020
5451 Clouds 7 996 51 10000 5.1 230 20:56 14.11.2020
5452 Clouds 7 996 51 10000 5.1 230 20:28 14.11.2020
5453 Clouds 5 997 65 10000 10.3 230 19:51 14.11.2020
5454 Clouds 5 997 65 10000 10.3 230 19:31 14.11.2020
5455 Drizzle 4 997 69 10000 9.3 230 18:43 14.11.2020
5456 Drizzle 4 997 69 10000 9.3 230 18:24 14.11.2020
5457 Drizzle 6 997 60 10000 9.8 230 17:57 14.11.2020
5458 Drizzle 6 997 60 10000 9.8 230 17:39 14.11.2020
5459 Rain 5 997 65 10000 8.7 230 17:19 14.11.2020
5460 Rain 5 997 65 10000 8.7 230 16:41 14.11.2020
5461 Rain 4 998 80 10000 7.2 200 16:20 14.11.2020
5462 Rain 4 998 80 10000 7.2 200 15:52 14.11.2020
5463 Rain 4 998 80 10000 7.2 200 15:26 14.11.2020
5464 Rain 3 998 86 10000 4.1 200 14:47 14.11.2020
5465 Rain 3 998 86 10000 4.1 200 14:24 14.11.2020
5466 Rain 3 997 73 10000 1.5 20 13:45 14.11.2020
5467 Rain 3 997 75 10000 1.5 20 13:24 14.11.2020
5468 Clouds 2 997 93 5000 7.2 230 12:48 14.11.2020
5469 Clouds 2 997 93 5000 7.2 230 12:29 14.11.2020
5470 Snow 1 997 76 2000 10.8 230 11:46 14.11.2020
5471 Snow 1 997 84 2000 10.8 230 11:25 14.11.2020
5472 Rain 2 996 84 10000 3.1 230 10:49 14.11.2020
5473 Rain 2 996 92 10000 3.1 230 10:26 14.11.2020
5474 Rain 2 995 92 10000 7.2 230 09:50 14.11.2020
5475 Rain 2 995 92 10000 7.2 230 09:28 14.11.2020
5476 Drizzle 2 994 93 10000 13.4 230 08:55 14.11.2020
5477 Drizzle 2 994 93 10000 13.4 230 08:37 14.11.2020
5478 Clouds 3 993 86 10000 10.3 230 07:50 14.11.2020
5479 Clouds 3 993 86 10000 10.3 230 07:28 14.11.2020
5480 Clouds 4 992 80 10000 12.9 230 06:32 14.11.2020
5481 Clouds 4 992 80 10000 9.3 230 05:33 14.11.2020
5482 Clouds 6 991 70 10000 12.9 230 04:18 14.11.2020
5483 Drizzle 9 989 61 10000 12.3 230 00:59 14.11.2020
5484 Drizzle 11 988 50 10000 12.3 230 23:47 13.11.2020
5485 Drizzle 11 988 50 10000 12.3 230 23:47 13.11.2020
5486 Drizzle 11 988 50 10000 12.3 230 23:25 13.11.2020
5487 Rain 12 988 78 10000 6.2 250 22:55 13.11.2020
5488 Rain 12 988 66 10000 6.2 250 22:28 13.11.2020
5489 Rain 12 987 66 10000 10.8 320 21:56 13.11.2020
5490 Rain 12 987 66 10000 10.8 320 21:37 13.11.2020
5491 Rain 12 986 37 10000 13.4 320 21:19 13.11.2020
5492 Rain 12 986 37 10000 13.4 320 20:42 13.11.2020
5493 Rain 12 986 37 10000 13.4 320 20:22 13.11.2020
5494 Rain 12 986 37 10000 13.4 320 20:22 13.11.2020
5495 Rain 12 988 32 10000 11.8 320 19:46 13.11.2020
5496 Rain 12 988 32 10000 11.8 320 19:23 13.11.2020
5497 Rain 12 988 32 10000 11.8 320 19:23 13.11.2020
5498 Clouds 12 988 32 10000 10.3 320 18:56 13.11.2020
5499 Clouds 12 988 32 10000 10.3 320 18:23 13.11.2020
5500 Clouds 11 990 34 10000 9.8 320 17:41 13.11.2020
5501 Clouds 11 991 32 10000 8.2 320 17:19 13.11.2020
5502 Clouds 11 991 32 10000 8.2 320 16:49 13.11.2020
5503 Clouds 11 991 32 10000 8.2 320 16:24 13.11.2020
5504 Clouds 11 991 25 10000 8.7 320 15:50 13.11.2020
5505 Clouds 11 991 25 10000 8.7 320 15:27 13.11.2020
5506 Clouds 10 993 27 10000 6.2 320 14:50 13.11.2020
5507 Clouds 10 993 27 10000 6.2 320 14:25 13.11.2020
5508 Clouds 10 993 34 10000 4.1 320 13:53 13.11.2020
5509 Clouds 10 993 34 10000 4.1 320 13:25 13.11.2020
5510 Clear 9 994 36 10000 7.2 320 12:48 13.11.2020
5511 Clear 9 994 36 10000 7.2 320 12:25 13.11.2020
5512 Clear 8 994 42 10000 5.7 360 11:50 13.11.2020
5513 Clear 8 994 42 10000 5.7 360 11:32 13.11.2020
5514 Clouds 7 994 52 10000 2.1 250 10:58 13.11.2020
5515 Clouds 7 994 52 10000 2.1 250 10:39 13.11.2020
5516 Clouds 6 995 75 10000 2.1 230 10:21 13.11.2020
5517 Clouds 6 995 75 10000 2.1 230 09:43 13.11.2020
5518 Clouds 6 995 75 10000 2.1 230 09:23 13.11.2020
5519 Clouds 7 994 70 10000 2.81 331 08:52 13.11.2020
5520 Clouds 8 994 61 10000 3.1 341 08:21 13.11.2020
5521 Clouds 8 994 61 10000 3.1 341 07:47 13.11.2020
5522 Clouds 8 994 61 10000 3.53 349 07:26 13.11.2020
5523 Clouds 9 994 57 10000 8.7 230 06:49 13.11.2020
5524 Clouds 9 994 78 10000 11.3 230 06:19 13.11.2020
5525 Clouds 9 994 78 10000 11.3 230 05:39 13.11.2020
5526 Clouds 15 992 72 10000 15.4 320 02:22 13.11.2020
5527 Clouds 15 992 72 10000 15.4 320 01:32 13.11.2020
5528 Clouds 14 993 41 10000 6.7 320 00:33 13.11.2020
5529 Clouds 15 994 38 10000 10.8 320 23:43 12.11.2020
5530 Clouds 15 995 44 10000 6.2 320 23:20 12.11.2020
5531 Clouds 15 995 44 10000 6.2 320 22:52 12.11.2020
5532 Clouds 15 995 44 10000 6.2 320 22:33 12.11.2020
5533 Clouds 16 996 41 10000 5.7 340 21:56 12.11.2020
5534 Clouds 16 996 41 10000 5.7 340 21:38 12.11.2020
5535 Clouds 16 997 41 10000 8.7 340 21:18 12.11.2020
5536 Clouds 16 997 41 10000 8.7 340 20:40 12.11.2020
5537 Clouds 15 997 44 10000 7.7 320 20:21 12.11.2020
5538 Clouds 15 997 44 10000 7.7 320 19:50 12.11.2020
5539 Clouds 15 997 44 10000 7.7 320 19:32 12.11.2020
5540 Clouds 17 997 36 10000 6.2 320 18:52 12.11.2020
5541 Clouds 17 997 36 10000 6.2 320 18:24 12.11.2020
5542 Clouds 16 998 44 10000 4.1 320 17:59 12.11.2020
5543 Clouds 16 998 44 10000 4.1 320 17:38 12.11.2020
5544 Clouds 14 999 44 10000 4.6 340 17:20 12.11.2020
5545 Clouds 14 999 44 10000 4.6 340 16:44 12.11.2020
5546 Clouds 14 999 44 10000 4.6 340 16:22 12.11.2020
5547 Clouds 13 999 54 10000 5.1 320 15:42 12.11.2020
5548 Clouds 13 999 54 10000 5.1 320 15:23 12.11.2020
5549 Clouds 12 1000 58 10000 1.5 140 14:47 12.11.2020
5550 Clouds 12 1000 58 10000 1.5 140 14:27 12.11.2020
5551 Clouds 11 1000 66 10000 5.1 110 13:57 12.11.2020
5552 Clouds 11 1000 66 10000 5.1 110 13:37 12.11.2020
5553 Clouds 10 1001 71 10000 3.1 90 13:18 12.11.2020
5554 Clouds 10 1001 71 10000 3.1 90 12:43 12.11.2020
5555 Clouds 7 1001 93 10000 1.5 50 12:21 12.11.2020
5556 Clouds 7 1001 93 10000 1.5 50 11:50 12.11.2020
5557 Clouds 7 1001 93 10000 1.5 50 11:29 12.11.2020
5558 Clouds 7 1001 93 10000 2.1 20 10:44 12.11.2020
5559 Clouds 7 1001 93 10000 2.1 20 10:25 12.11.2020
5560 Clouds 7 1001 81 10000 4.1 360 09:49 12.11.2020
5561 Clouds 7 1001 81 10000 4.1 360 09:23 12.11.2020
5562 Clouds 8 1002 75 10000 1 360 08:57 12.11.2020
5563 Clouds 8 1002 75 10000 1 360 08:57 12.11.2020
5564 Clouds 8 1002 75 10000 1 360 08:39 12.11.2020
5565 Clouds 8 1001 87 10000 2.1 50 08:19 12.11.2020
5566 Clouds 8 1001 87 10000 2.1 50 07:50 12.11.2020
5567 Clouds 8 1001 87 10000 2.1 50 07:22 12.11.2020
5568 Clouds 9 1001 76 10000 2.1 20 06:50 12.11.2020
5569 Clouds 9 1001 76 10000 2.1 20 05:35 12.11.2020
5570 Clouds 9 1000 70 10000 7.7 230 03:23 12.11.2020
5571 Clouds 10 999 76 10000 12.3 230 02:53 12.11.2020
5572 Clouds 16 997 48 10000 9.3 230 00:22 12.11.2020
5573 Clouds 17 997 42 10000 5.1 320 23:26 11.11.2020
5574 Clouds 16 997 63 10000 5.7 320 22:59 11.11.2020
5575 Clouds 16 997 63 10000 5.7 320 22:40 11.11.2020
5576 Clouds 12 998 81 10000 8.7 290 22:21 11.11.2020
5577 Clouds 12 998 81 10000 8.7 290 21:54 11.11.2020
5578 Rain 15 999 72 10000 6.2 230 21:36 11.11.2020
5579 Rain 15 999 72 10000 6.2 230 21:18 11.11.2020
5580 Rain 15 999 72 10000 6.2 230 20:41 11.11.2020
5581 Rain 15 998 72 10000 8.2 230 20:21 11.11.2020
5582 Rain 15 998 72 10000 8.2 230 19:49 11.11.2020
5583 Rain 18 998 52 10000 10.8 230 19:31 11.11.2020
5584 Clouds 21 998 43 10000 5.1 340 18:55 11.11.2020
5585 Clouds 21 998 43 10000 5.1 340 18:35 11.11.2020
5586 Clouds 19 999 45 10000 3.1 340 17:44 11.11.2020
5587 Clouds 17 1000 55 10000 2.6 160 17:24 11.11.2020
5588 Clouds 17 1000 55 10000 2.6 160 16:57 11.11.2020
5589 Clouds 17 1000 55 10000 2.6 160 16:35 11.11.2020
5590 Clouds 17 1001 55 10000 2.1 160 15:56 11.11.2020
5591 Clouds 17 1001 55 10000 2.1 160 15:37 11.11.2020
5592 Clouds 17 1002 55 10000 4.52 349 15:18 11.11.2020
5593 Clouds 17 1002 55 10000 4.52 349 14:43 11.11.2020
5594 Clouds 17 1002 55 10000 4.17 345 14:23 11.11.2020
5595 Clouds 16 1003 55 10000 4.17 345 13:44 11.11.2020
5596 Clouds 11 1003 71 10000 5.1 230 12:59 11.11.2020
5597 Clouds 11 1004 71 10000 2.1 160 12:21 11.11.2020
5598 Clouds 11 1004 71 10000 2.1 160 11:51 11.11.2020
5599 Clouds 11 1004 71 10000 2.1 160 11:33 11.11.2020
5600 Clouds 11 1004 71 10000 2.1 160 11:33 11.11.2020
5601 Clouds 8 1006 70 10000 2.1 90 10:45 11.11.2020
5602 Clouds 8 1006 70 10000 2.1 90 10:27 11.11.2020
5603 Clear 8 1006 70 10000 4.1 90 09:59 11.11.2020
5604 Clear 8 1006 70 10000 4.1 90 09:39 11.11.2020
5605 Clear 8 1007 70 10000 2.1 140 09:21 11.11.2020
5606 Clear 8 1007 70 10000 2.1 140 08:43 11.11.2020
5607 Clear 8 1007 70 10000 2.1 140 08:24 11.11.2020
5608 Clear 8 1008 65 10000 4.1 20 07:44 11.11.2020
5609 Clouds 9 1009 61 10000 4.6 50 06:32 11.11.2020
5610 Clouds 9 1009 61 10000 3.6 50 05:44 11.11.2020
5611 Clear 12 1010 58 10000 3.1 230 01:47 11.11.2020
5612 Clear 13 1010 50 10000 5.1 230 00:57 11.11.2020
5613 Clear 13 1010 50 10000 5.1 230 00:24 11.11.2020
5614 Clear 14 1010 65 10000 6.2 230 23:38 10.11.2020
5615 Clear 15 1010 33 10000 5.7 230 23:20 10.11.2020
5616 Clear 15 1010 33 10000 5.7 230 22:45 10.11.2020
5617 Clear 15 1010 33 10000 5.7 230 22:26 10.11.2020
5618 Clear 15 1010 45 10000 3.6 230 21:42 10.11.2020
5619 Clear 14 1011 42 10000 2.6 230 21:23 10.11.2020
5620 Clear 14 1011 42 10000 2.6 230 20:58 10.11.2020
5621 Clear 14 1011 42 10000 2.6 230 20:39 10.11.2020
5622 Clear 13 1011 50 10000 0.85 276 20:21 10.11.2020
5623 Clear 13 1011 50 10000 0.85 276 19:44 10.11.2020
5624 Clear 13 1011 50 10000 0.84 293 19:24 10.11.2020
5625 Clear 13 1012 47 10000 3.6 230 18:55 10.11.2020
5626 Clear 13 1012 47 10000 3.6 230 18:37 10.11.2020
5627 Clear 11 1012 41 10000 4.6 230 18:18 10.11.2020
5628 Clear 11 1012 41 10000 4.6 230 17:41 10.11.2020
5629 Clouds 10 1012 57 10000 6.7 230 17:23 10.11.2020
5630 Clouds 10 1012 57 10000 6.7 230 16:42 10.11.2020
5631 Clouds 10 1012 53 10000 4.1 230 16:22 10.11.2020
5632 Clouds 10 1012 53 10000 4.1 230 15:54 10.11.2020
5633 Clouds 10 1012 53 10000 4.1 230 15:36 10.11.2020
5634 Clouds 10 1013 53 10000 2.6 230 15:18 10.11.2020
5635 Clouds 10 1013 53 10000 2.6 230 14:39 10.11.2020
5636 Clouds 9 1012 57 10000 6.2 250 14:18 10.11.2020
5637 Clouds 9 1012 57 10000 6.2 250 13:39 10.11.2020
5638 Clouds 8 1012 61 10000 8.2 230 13:20 10.11.2020
5639 Clouds 8 1012 61 10000 8.2 230 12:48 10.11.2020
5640 Clouds 8 1012 61 10000 8.2 230 12:29 10.11.2020
5641 Clouds 7 1012 65 10000 7.7 250 11:43 10.11.2020
5642 Clouds 7 1012 65 10000 7.7 250 11:22 10.11.2020
5643 Clouds 7 1011 65 10000 7.7 250 10:58 10.11.2020
5644 Clouds 7 1011 65 10000 7.7 250 10:39 10.11.2020
5645 Clouds 6 1009 75 10000 10.8 230 10:21 10.11.2020
5646 Clouds 6 1009 75 10000 10.8 230 09:46 10.11.2020
5647 Clouds 6 1009 75 10000 10.8 230 09:25 10.11.2020
5648 Clouds 6 1007 75 10000 13.9 230 08:55 10.11.2020
5649 Clouds 6 1007 75 10000 13.9 230 08:29 10.11.2020
5650 Clouds 6 1007 75 10000 13.9 230 07:46 10.11.2020
5651 Clouds 6 1007 75 10000 13.9 230 07:25 10.11.2020
5652 Clouds 6 1007 75 10000 14.4 230 06:41 10.11.2020
5653 Clouds 7 1006 70 10000 15.4 230 05:49 10.11.2020
5654 Clouds 7 1006 70 10000 15.4 230 05:24 10.11.2020
5655 Clouds 7 1003 65 10000 18 230 02:48 10.11.2020
5656 Clouds 8 1002 79 10000 17.5 230 01:32 10.11.2020
5657 Clouds 9 1001 68 10000 18 230 00:23 10.11.2020
5658 Clouds 11 1002 37 10000 3.6 230 23:38 09.11.2020
5659 Clouds 11 1002 43 10000 5.7 230 22:54 09.11.2020
5660 Clouds 11 1002 43 10000 5.7 230 22:36 09.11.2020
5661 Clouds 11 1002 37 10000 5.7 320 22:18 09.11.2020
5662 Clouds 11 1002 37 10000 5.7 320 21:39 09.11.2020
5663 Clear 11 1003 37 10000 7.2 320 21:19 09.11.2020
5664 Clear 11 1003 37 10000 7.2 320 20:39 09.11.2020
5665 Clear 11 1004 32 10000 6.2 320 20:21 09.11.2020
5666 Clear 11 1004 32 10000 6.2 320 19:42 09.11.2020
5667 Clear 11 1004 32 10000 6.2 320 19:22 09.11.2020
5668 Clear 10 1005 27 10000 8.7 320 18:46 09.11.2020
5669 Clear 10 1005 27 10000 8.7 320 18:46 09.11.2020
5670 Clear 11 1006 20 10000 7.2 320 18:21 09.11.2020
5671 Clear 11 1006 20 10000 7.2 320 17:58 09.11.2020
5672 Clear 11 1006 20 10000 7.2 320 17:39 09.11.2020
5673 Clear 9 1008 34 10000 2.6 160 17:21 09.11.2020
5674 Clear 9 1008 34 10000 2.6 160 16:38 09.11.2020
5675 Clear 8 1009 39 10000 2.6 160 16:19 09.11.2020
5676 Clear 8 1009 39 10000 2.6 160 15:42 09.11.2020
5677 Clear 8 1009 39 10000 2.6 160 15:24 09.11.2020
5678 Clear 8 1011 39 10000 2.1 160 14:44 09.11.2020
5679 Clear 8 1011 39 10000 2.1 160 14:26 09.11.2020
5680 Clear 6 1011 45 10000 2.1 140 13:52 09.11.2020
5681 Clear 5 1011 48 10000 2.1 340 13:21 09.11.2020
5682 Clear 5 1011 48 10000 2.1 340 12:50 09.11.2020
5683 Clear 5 1011 48 10000 2.1 340 12:26 09.11.2020
5684 Clouds 4 1012 55 10000 4.1 340 11:59 09.11.2020
5685 Clouds 4 1012 55 10000 4.1 340 11:41 09.11.2020
5686 Clouds 4 1011 55 10000 3.6 290 11:22 09.11.2020
5687 Clouds 4 1011 55 10000 3.6 290 10:43 09.11.2020
5688 Clouds 4 1011 55 10000 3.6 290 10:24 09.11.2020
5689 Clouds 4 1011 69 10000 9.3 230 09:52 09.11.2020
5690 Clouds 4 1011 69 10000 9.3 230 09:28 09.11.2020
5691 Clouds 3 1010 93 10000 11.3 230 08:44 09.11.2020
5692 Clouds 3 1010 93 10000 11.3 230 08:26 09.11.2020
5693 Clouds 4 1009 93 10000 11.8 230 07:41 09.11.2020
5694 Clouds 4 1009 93 10000 11.8 230 07:41 09.11.2020
5695 Clouds 4 1009 94 10000 11.8 230 07:21 09.11.2020
5696 Clouds 4 1009 94 10000 7.7 230 06:42 09.11.2020
5697 Rain 5 1005 65 10000 15.4 230 03:49 09.11.2020
5698 Clouds 7 1004 52 10000 12.3 230 01:55 09.11.2020
5699 Clouds 7 1004 52 10000 12.3 230 01:37 09.11.2020
5700 Rain 8 1002 61 10000 13.9 230 23:55 08.11.2020
5701 Rain 8 1002 61 10000 13.9 230 23:37 08.11.2020
5702 Rain 8 1000 61 10000 17.5 230 23:18 08.11.2020
5703 Rain 8 1000 61 10000 17.5 230 22:41 08.11.2020
5704 Rain 9 999 61 10000 16.5 230 22:20 08.11.2020
5705 Rain 9 999 61 10000 16.5 230 21:42 08.11.2020
5706 Clouds 10 998 53 10000 15.9 230 21:20 08.11.2020
5707 Clouds 10 998 53 10000 15.9 230 20:55 08.11.2020
5708 Clouds 10 998 53 10000 15.9 230 20:36 08.11.2020
5709 Clouds 12 998 55 10000 11.3 230 20:18 08.11.2020
5710 Clouds 12 998 55 10000 11.3 230 19:42 08.11.2020
5711 Clouds 12 998 57 10000 11.3 230 19:21 08.11.2020
5712 Rain 13 997 47 10000 11.8 230 18:48 08.11.2020
5713 Rain 11 997 50 10000 12.3 230 18:22 08.11.2020
5714 Rain 11 997 50 10000 12.3 230 17:58 08.11.2020
5715 Rain 11 997 50 10000 12.3 230 17:39 08.11.2020
5716 Rain 10 997 53 10000 9.3 230 17:19 08.11.2020
5717 Rain 10 997 53 10000 9.3 230 16:55 08.11.2020
5718 Rain 10 997 53 10000 9.3 230 16:36 08.11.2020
5719 Clouds 11 997 50 10000 9.8 230 16:18 08.11.2020
5720 Clouds 11 997 50 10000 9.8 230 15:43 08.11.2020
5721 Clouds 11 997 53 10000 7.7 230 15:22 08.11.2020
5722 Clouds 11 997 53 10000 7.7 230 14:42 08.11.2020
5723 Clouds 11 997 53 10000 7.7 230 14:22 08.11.2020
5724 Clouds 11 997 53 10000 7.2 230 13:47 08.11.2020
5725 Clouds 11 997 53 10000 7.2 230 13:23 08.11.2020
5726 Clouds 10 997 53 10000 8.2 230 12:46 08.11.2020
5727 Clouds 10 997 53 10000 8.2 230 12:28 08.11.2020
5728 Clouds 10 997 53 10000 5.7 230 11:58 08.11.2020
5729 Clouds 10 997 53 10000 5.7 230 11:40 08.11.2020
5730 Clouds 9 997 57 10000 2.1 270 11:20 08.11.2020
5731 Clouds 9 997 57 10000 2.1 270 11:20 08.11.2020
5732 Clouds 9 997 57 10000 2.1 270 10:50 08.11.2020
5733 Clouds 10 996 82 10000 6.2 250 10:19 08.11.2020
5734 Clouds 10 996 82 10000 6.2 250 09:55 08.11.2020
5735 Clouds 10 996 82 10000 6.2 250 09:37 08.11.2020
5736 Clouds 10 996 81 10000 5.1 250 09:18 08.11.2020
5737 Clouds 10 996 81 10000 5.1 250 08:39 08.11.2020
5738 Clouds 9 995 61 10000 7.2 230 08:18 08.11.2020
5739 Clouds 9 995 61 10000 7.2 230 07:52 08.11.2020
5740 Clouds 9 995 61 10000 7.2 230 07:24 08.11.2020
5741 Clouds 9 995 66 10000 10.8 230 06:23 08.11.2020
5742 Clouds 9 995 76 10000 7.7 230 05:52 08.11.2020
5743 Clouds 13 994 47 10000 8.2 250 04:50 08.11.2020
5744 Rain 14 995 47 10000 9.3 270 01:53 08.11.2020
5745 Clouds 14 995 54 10000 5.7 320 01:19 08.11.2020
5746 Clouds 14 995 54 10000 5.7 320 01:19 08.11.2020
5747 Clouds 14 995 54 10000 5.7 320 00:28 08.11.2020
5748 Rain 14 995 54 10000 4.1 250 23:47 07.11.2020
5749 Rain 14 995 54 10000 4.1 250 23:29 07.11.2020
5750 Clouds 15 996 44 10000 5.7 320 22:46 07.11.2020
5751 Clouds 15 996 44 10000 5.7 320 22:26 07.11.2020
5752 Clouds 16 996 41 10000 5.7 320 21:55 07.11.2020
5753 Clouds 16 996 41 10000 5.7 320 21:36 07.11.2020
5754 Drizzle 16 997 41 10000 8.2 320 21:18 07.11.2020
5755 Drizzle 16 997 41 10000 8.2 320 20:40 07.11.2020
5756 Drizzle 16 997 41 10000 8.2 320 20:22 07.11.2020
5757 Clouds 16 999 41 10000 10.3 320 19:44 07.11.2020
5758 Clouds 16 999 41 10000 10.3 320 19:26 07.11.2020
5759 Drizzle 16 999 44 10000 7.2 320 18:40 07.11.2020
5760 Clouds 16 1000 41 10000 7.7 320 18:22 07.11.2020
5761 Clouds 16 1000 41 10000 7.7 320 17:46 07.11.2020
5762 Clouds 16 1000 41 10000 7.7 320 17:27 07.11.2020
5763 Clouds 16 1000 41 10000 7.7 320 17:27 07.11.2020
5764 Clouds 15 1001 47 10000 8.7 340 16:45 07.11.2020
5765 Clouds 15 1001 47 10000 8.7 340 16:25 07.11.2020
5766 Clouds 13 1001 43 10000 7.7 340 15:51 07.11.2020
5767 Clouds 13 1001 43 10000 7.7 340 15:25 07.11.2020
5768 Clouds 13 1001 35 10000 9.3 320 14:59 07.11.2020
5769 Clouds 13 1001 35 10000 9.3 320 14:41 07.11.2020
5770 Clouds 13 1002 66 10000 6.2 320 14:20 07.11.2020
5771 Clouds 13 1002 66 10000 6.2 320 13:43 07.11.2020
5772 Clouds 13 1002 66 10000 6.2 320 13:23 07.11.2020
5773 Clouds 13 1002 37 10000 7.2 320 12:37 07.11.2020
5774 Clouds 12 1002 73 10000 7.7 320 11:54 07.11.2020
5775 Clouds 12 1002 73 10000 7.7 320 11:36 07.11.2020
5776 Clouds 9 1003 70 10000 5.1 320 11:18 07.11.2020
5777 Clouds 9 1003 70 10000 5.1 320 10:42 07.11.2020
5778 Clouds 9 1003 70 10000 5.1 320 10:23 07.11.2020
5779 Clouds 6 1004 79 10000 5.36 356 09:48 07.11.2020
5780 Clouds 7 1004 81 10000 7.2 360 09:23 07.11.2020
5781 Clouds 7 1004 81 10000 7.2 360 08:49 07.11.2020
5782 Clouds 7 1004 81 10000 7.2 360 08:30 07.11.2020
5783 Clouds 8 1005 75 10000 10.3 320 07:48 07.11.2020
5784 Clouds 8 1006 65 10000 10.3 340 06:55 07.11.2020
5785 Clouds 8 1006 61 10000 10.3 290 05:55 07.11.2020
5786 Clouds 11 1007 34 10000 9.3 320 04:22 07.11.2020
5787 Clouds 12 1008 32 10000 4.1 320 02:53 07.11.2020
5788 Clouds 12 1008 32 10000 5.7 340 01:27 07.11.2020
5789 Clouds 7 1011 52 10000 7.7 230 00:39 07.11.2020
5790 Clouds 7 1011 52 10000 7.7 230 23:45 06.11.2020
5791 Clouds 10 1010 50 10000 3.83 316 23:19 06.11.2020
5792 Clouds 10 1010 50 10000 3.83 316 22:40 06.11.2020
5793 Clear 11 1011 48 10000 4.48 316 22:19 06.11.2020
5794 Clear 11 1011 48 10000 4.48 316 21:43 06.11.2020
5795 Clouds 14 1010 41 10000 1.5 70 21:21 06.11.2020
5796 Clouds 14 1010 41 10000 1.5 70 20:51 06.11.2020
5797 Clouds 14 1011 41 10000 2.6 80 20:20 06.11.2020
5798 Clouds 14 1011 41 10000 2.6 80 20:20 06.11.2020
5799 Clouds 14 1011 41 10000 2.6 80 19:47 06.11.2020
5800 Clouds 14 1011 41 10000 2.6 80 19:29 06.11.2020
5801 Clouds 13 1011 38 10000 2.1 80 18:59 06.11.2020
5802 Clouds 13 1011 38 10000 2.1 80 18:40 06.11.2020
5803 Clouds 11 1012 40 10000 2.6 20 18:22 06.11.2020
5804 Clouds 11 1012 40 10000 2.6 20 17:48 06.11.2020
5805 Clouds 11 1012 40 10000 2.6 20 17:25 06.11.2020
5806 Clouds 11 1013 40 10000 4.1 260 16:48 06.11.2020
5807 Clouds 11 1013 40 10000 4.1 260 16:25 06.11.2020
5808 Clouds 9 1013 49 10000 3.6 290 15:47 06.11.2020
5809 Clouds 9 1013 49 10000 3.6 290 15:28 06.11.2020
5810 Clouds 9 1013 40 10000 2.1 340 14:53 06.11.2020
5811 Clouds 9 1013 45 10000 2.1 340 14:24 06.11.2020
5812 Clear 7 1013 70 10000 2.1 70 13:44 06.11.2020
5813 Clear 7 1013 70 10000 2.1 70 13:23 06.11.2020
5814 Clear 8 1013 51 10000 1.27 309 12:45 06.11.2020
5815 Clear 6 1013 61 10000 1.32 318 12:23 06.11.2020
5816 Clear 6 1013 61 10000 1.32 318 11:46 06.11.2020
5817 Clear 3 1013 76 10000 1.55 318 11:27 06.11.2020
5818 Clear 3 1013 76 10000 1.55 318 10:41 06.11.2020
5819 Clear 0 1013 88 10000 1.74 319 10:23 06.11.2020
5820 Clear 0 1013 88 10000 1.74 319 09:48 06.11.2020
5821 Clear 0 1012 90 10000 1.63 316 09:22 06.11.2020
5822 Clear 0 1012 90 10000 1.63 316 08:50 06.11.2020
5823 Clear 0 1012 91 10000 1.42 313 08:29 06.11.2020
5824 Clear 0 1012 91 10000 1.42 313 07:50 06.11.2020
5825 Clear 0 1012 91 10000 1.42 313 07:31 06.11.2020
5826 Clear 0 1012 92 10000 1.31 296 06:57 06.11.2020
5827 Clear 1 1012 90 10000 1.31 291 06:22 06.11.2020
5828 Clear 1 1011 88 10000 1.28 293 03:48 06.11.2020
5829 Rain 8 1009 75 10000 10.3 230 00:51 06.11.2020
5830 Clouds 8 1008 63 10000 10.3 230 00:21 06.11.2020
5831 Clouds 8 1008 63 10000 10.3 230 23:31 05.11.2020
5832 Clouds 8 1006 58 10000 11.3 230 22:58 05.11.2020
5833 Clouds 8 1006 58 10000 11.3 230 22:37 05.11.2020
5834 Clouds 9 1005 49 10000 10.8 230 22:19 05.11.2020
5835 Clouds 9 1005 49 10000 10.8 230 21:43 05.11.2020
5836 Clouds 10 1005 46 10000 6.2 180 21:22 05.11.2020
5837 Clouds 10 1005 46 10000 6.2 180 20:48 05.11.2020
5838 Clouds 10 1005 46 10000 6.2 180 20:29 05.11.2020
5839 Clouds 10 1005 46 10000 8.2 230 20:00 05.11.2020
5840 Clouds 10 1005 46 10000 8.2 230 19:41 05.11.2020
5841 Clouds 10 1005 46 10000 8.2 230 19:22 05.11.2020
5842 Clouds 10 1004 57 10000 10.8 230 18:45 05.11.2020
5843 Clouds 10 1004 57 10000 10.8 230 18:26 05.11.2020
5844 Drizzle 9 1003 70 10000 11.3 230 17:52 05.11.2020
5845 Drizzle 9 1003 70 10000 11.3 230 17:29 05.11.2020
5846 Drizzle 10 1002 61 10000 13.9 230 16:59 05.11.2020
5847 Drizzle 10 1002 61 10000 13.9 230 16:40 05.11.2020
5848 Drizzle 10 1001 66 10000 9.3 230 16:19 05.11.2020
5849 Rain 10 1001 66 10000 10.8 230 15:44 05.11.2020
5850 Clouds 10 1001 66 10000 10.8 230 15:22 05.11.2020
5851 Clouds 10 1001 66 10000 10.8 230 14:46 05.11.2020
5852 Clouds 10 1001 66 10000 10.8 230 14:26 05.11.2020
5853 Drizzle 10 1000 71 10000 9.8 230 13:45 05.11.2020
5854 Drizzle 10 1000 71 10000 9.8 230 13:26 05.11.2020
5855 Drizzle 10 1000 71 10000 9.3 230 12:53 05.11.2020
5856 Clouds 10 1000 71 10000 6.7 230 12:29 05.11.2020
5857 Clouds 10 996 71 10000 7.7 230 11:55 05.11.2020
5858 Clouds 10 996 71 10000 7.7 230 11:37 05.11.2020
5859 Clouds 10 999 76 10000 8.2 230 11:18 05.11.2020
5860 Clouds 10 999 76 10000 8.2 230 10:41 05.11.2020
5861 Clouds 10 999 76 10000 8.2 230 10:22 05.11.2020
5862 Clouds 8 998 75 10000 4.6 230 09:45 05.11.2020
5863 Clouds 8 998 75 10000 4.6 230 09:22 05.11.2020
5864 Clouds 8 999 75 10000 1.02 203 08:44 05.11.2020
5865 Clouds 8 999 75 10000 1.43 195 08:26 05.11.2020
5866 Clouds 9 999 70 10000 2.1 230 07:41 05.11.2020
5867 Clouds 8 999 81 10000 5.1 230 07:20 05.11.2020
5868 Clouds 8 999 81 10000 5.1 230 06:41 05.11.2020
5869 Clear 8 999 81 10000 4.6 230 05:44 05.11.2020
5870 Clear 13 999 58 10000 3.6 230 01:35 05.11.2020
5871 Clear 14 998 54 10000 3.1 140 00:33 05.11.2020
5872 Clear 18 998 36 10000 2.1 230 23:44 04.11.2020
5873 Clear 18 998 36 10000 2.1 230 23:26 04.11.2020
5874 Clear 18 999 36 10000 1.02 33 22:52 04.11.2020
5875 Clear 18 999 36 10000 1.59 27 22:27 04.11.2020
5876 Clear 19 999 37 10000 1.5 70 21:59 04.11.2020
5877 Clear 19 999 37 10000 1.5 70 21:41 04.11.2020
5878 Clear 19 999 37 10000 1.5 70 21:22 04.11.2020
5879 Clear 18 1000 36 10000 2.6 70 20:44 04.11.2020
5880 Clear 18 1000 36 10000 2.6 70 20:26 04.11.2020
5881 Clear 17 1001 36 10000 3.1 70 19:49 04.11.2020
5882 Clear 17 1001 36 10000 3.1 70 19:30 04.11.2020
5883 Clear 16 1002 41 10000 2.6 70 18:55 04.11.2020
5884 Clear 16 1002 41 10000 2.6 70 18:37 04.11.2020
5885 Clear 16 1003 44 10000 4.1 70 18:18 04.11.2020
5886 Clear 16 1003 44 10000 4.1 70 17:40 04.11.2020
5887 Clear 14 1004 47 10000 3.6 90 17:22 04.11.2020
5888 Clear 14 1004 47 10000 3.6 90 16:41 04.11.2020
5889 Clear 13 1005 47 10000 3.1 90 16:23 04.11.2020
5890 Clear 13 1005 47 10000 3.1 90 15:48 04.11.2020
5891 Clear 13 1005 47 10000 3.1 90 15:25 04.11.2020
5892 Clear 13 1006 47 10000 3.6 90 14:59 04.11.2020
5893 Clear 13 1006 47 10000 3.6 90 14:41 04.11.2020
5894 Clear 11 1007 53 10000 5.7 90 14:21 04.11.2020
5895 Clear 11 1007 53 10000 5.7 90 13:45 04.11.2020
5896 Clear 10 1008 61 10000 4.6 90 13:20 04.11.2020
5897 Clear 10 1008 61 10000 4.6 90 12:53 04.11.2020
5898 Clear 10 1008 61 10000 4.6 90 12:27 04.11.2020
5899 Clear 8 1008 61 10000 5.1 90 11:59 04.11.2020
5900 Clear 8 1008 61 10000 5.1 90 11:40 04.11.2020
5901 Clouds 7 1009 65 10000 1 320 11:20 04.11.2020
5902 Clouds 7 1009 65 10000 1 320 10:46 04.11.2020
5903 Clouds 7 1009 65 10000 1 320 10:22 04.11.2020
5904 Clouds 8 1010 70 10000 2.6 200 09:53 04.11.2020
5905 Clouds 8 1010 70 10000 2.6 200 09:23 04.11.2020
5906 Clouds 8 1010 65 10000 1 110 08:46 04.11.2020
5907 Clouds 9 1011 57 10000 4.6 180 08:21 04.11.2020
5908 Clouds 9 1011 57 10000 4.6 180 07:50 04.11.2020
5909 Clouds 9 1011 57 10000 4.6 180 07:28 04.11.2020
5910 Clouds 9 1012 57 10000 1.5 180 06:46 04.11.2020
5911 Clouds 9 1012 57 10000 1.5 180 06:27 04.11.2020
5912 Clouds 11 1013 50 10000 6.2 340 03:55 04.11.2020
5913 Clouds 11 1014 57 10000 6.2 340 02:24 04.11.2020
5914 Clouds 13 1013 47 10000 7.7 340 00:43 04.11.2020
5915 Clouds 14 1013 44 10000 9.3 320 23:44 03.11.2020
5916 Clouds 14 1013 44 10000 9.3 320 23:23 03.11.2020
5917 Clouds 13 1014 50 10000 1.5 180 22:41 03.11.2020
5918 Clouds 13 1014 54 10000 3.1 180 22:21 03.11.2020
5919 Clouds 13 1014 54 10000 3.1 180 21:59 03.11.2020
5920 Clouds 13 1014 54 10000 3.1 180 21:40 03.11.2020
5921 Clouds 13 1014 54 10000 3.1 180 21:21 03.11.2020
5922 Clouds 12 1014 62 10000 1.5 180 20:45 03.11.2020
5923 Clouds 12 1014 62 10000 1.5 180 20:26 03.11.2020
5924 Clouds 11 1015 66 10000 2.1 200 19:44 03.11.2020
5925 Clouds 11 1015 66 10000 2.1 200 19:23 03.11.2020
5926 Clouds 11 1015 71 10000 2.1 70 18:47 03.11.2020
5927 Clouds 11 1015 71 10000 2.1 70 18:24 03.11.2020
5928 Clouds 10 1016 71 10000 1.5 90 17:59 03.11.2020
5929 Clouds 10 1016 71 10000 1.5 90 17:41 03.11.2020
5930 Clouds 10 1016 76 10000 3.6 50 17:23 03.11.2020
5931 Clouds 10 1016 76 10000 3.6 50 16:45 03.11.2020
5932 Clouds 10 1016 76 10000 3.6 50 16:24 03.11.2020
5933 Clouds 8 1016 87 10000 4.6 50 15:46 03.11.2020
5934 Clouds 8 1016 87 10000 4.6 50 15:25 03.11.2020
5935 Clouds 8 1017 87 10000 3.6 50 14:52 03.11.2020
5936 Clouds 8 1017 87 10000 3.6 50 14:33 03.11.2020
5937 Clouds 8 1017 87 10000 3.6 50 14:33 03.11.2020
5938 Clouds 7 1016 93 10000 3.1 90 13:47 03.11.2020
5939 Clouds 7 1016 93 10000 3.1 90 13:23 03.11.2020
5940 Clouds 7 1016 87 10000 0.49 81 12:59 03.11.2020
5941 Clouds 7 1016 87 10000 0.49 81 12:38 03.11.2020
5942 Clouds 7 1016 87 10000 0.25 51 12:19 03.11.2020
5943 Clouds 7 1016 87 10000 0.25 51 11:42 03.11.2020
5944 Clouds 7 1015 87 10000 0.21 328 11:20 03.11.2020
5945 Clouds 7 1015 87 10000 0.21 328 10:40 03.11.2020
5946 Clouds 7 1015 87 10000 0.29 302 10:22 03.11.2020
5947 Clouds 7 1015 75 10000 0.29 302 09:59 03.11.2020
5948 Clouds 7 1015 75 10000 0.29 302 09:37 03.11.2020
5949 Clear 7 1015 75 10000 1.5 200 09:18 03.11.2020
5950 Clear 7 1015 75 10000 1.5 200 08:42 03.11.2020
5951 Clear 7 1015 75 10000 1.5 200 08:23 03.11.2020
5952 Clear 7 1014 81 10000 1.5 230 07:35 03.11.2020
5953 Clear 7 1014 81 10000 0.56 330 06:53 03.11.2020
5954 Clear 7 1014 87 10000 0.2 279 06:19 03.11.2020
5955 Clear 8 1014 87 10000 3.1 50 03:34 03.11.2020
5956 Clear 10 1012 81 10000 6.2 70 00:43 03.11.2020
5957 Clouds 15 1011 51 10000 4.1 50 23:59 02.11.2020
5958 Clouds 15 1011 51 10000 4.1 50 23:40 02.11.2020
5959 Clouds 15 1011 51 10000 3.1 70 22:56 02.11.2020
5960 Clouds 15 1011 51 10000 3.1 70 22:37 02.11.2020
5961 Clouds 16 1011 55 10000 2.1 90 22:19 02.11.2020
5962 Clouds 16 1011 55 10000 2.1 90 21:38 02.11.2020
5963 Clouds 15 1011 58 10000 1.5 110 21:20 02.11.2020
5964 Clouds 15 1011 58 10000 1.5 110 20:41 02.11.2020
5965 Clouds 15 1011 58 10000 2.1 110 20:20 02.11.2020
5966 Clouds 15 1011 58 10000 2.1 110 19:58 02.11.2020
5967 Clouds 15 1011 58 10000 2.1 110 19:40 02.11.2020
5968 Clouds 15 1011 58 10000 2.1 110 19:21 02.11.2020
5969 Clouds 13 1011 66 10000 2.6 70 18:39 02.11.2020
5970 Clouds 13 1012 66 10000 3.1 70 18:21 02.11.2020
5971 Clouds 13 1012 66 10000 3.1 70 17:56 02.11.2020
5972 Clouds 13 1012 66 10000 3.1 70 17:37 02.11.2020
5973 Clouds 13 1012 66 10000 4.1 70 17:18 02.11.2020
5974 Clouds 13 1012 66 10000 4.1 70 16:40 02.11.2020
5975 Clouds 12 1012 71 10000 2.1 90 16:21 02.11.2020
5976 Clouds 12 1012 71 10000 2.1 90 15:39 02.11.2020
5977 Clouds 11 1012 76 10000 1.24 184 15:20 02.11.2020
5978 Clouds 11 1012 76 10000 1.24 184 14:53 02.11.2020
5979 Clouds 10 1013 81 10000 2.1 180 14:20 02.11.2020
5980 Clouds 10 1013 81 10000 2.1 180 13:53 02.11.2020
5981 Clouds 10 1013 81 10000 2.1 180 13:23 02.11.2020
5982 Clouds 8 1012 87 10000 5.1 270 12:55 02.11.2020
5983 Clouds 8 1012 87 10000 5.1 270 12:30 02.11.2020
5984 Clouds 8 1012 93 10000 1.5 230 11:56 02.11.2020
5985 Clouds 8 1012 93 10000 1.5 230 11:37 02.11.2020
5986 Clouds 8 1012 93 10000 2.6 180 11:18 02.11.2020
5987 Clouds 8 1012 93 10000 2.6 180 10:41 02.11.2020
5988 Clouds 8 1011 87 10000 3.6 230 10:20 02.11.2020
5989 Clouds 8 1011 87 10000 3.6 230 09:49 02.11.2020
5990 Clouds 8 1011 87 10000 3.6 230 09:23 02.11.2020
5991 Clouds 10 1011 71 10000 3.6 200 08:40 02.11.2020
5992 Clouds 12 1011 54 10000 1.5 50 08:20 02.11.2020
5993 Clouds 12 1011 54 10000 1.5 50 07:49 02.11.2020
5994 Clouds 13 1012 58 10000 1.5 90 06:52 02.11.2020
5995 Clouds 13 1012 58 10000 1.5 90 06:34 02.11.2020
5996 Clouds 14 1012 54 10000 2.1 320 03:23 02.11.2020
5997 Clouds 15 1011 51 10000 5.7 360 01:22 02.11.2020
5998 Clouds 15 1011 51 10000 8.7 340 00:33 02.11.2020
5999 Clouds 15 1011 54 10000 8.2 230 23:41 01.11.2020
6000 Clouds 15 1011 54 10000 8.2 230 23:23 01.11.2020
6001 Clouds 15 1011 54 10000 8.2 360 22:46 01.11.2020
6002 Clouds 15 1011 54 10000 8.2 360 22:25 01.11.2020
6003 Clouds 14 1011 58 10000 1 320 21:58 01.11.2020
6004 Clouds 14 1011 58 10000 1 320 21:38 01.11.2020
6005 Rain 14 1011 58 10000 5.1 320 21:20 01.11.2020
6006 Rain 14 1011 58 10000 5.1 320 20:41 01.11.2020
6007 Rain 14 1011 58 10000 5.1 320 20:23 01.11.2020
6008 Rain 14 1012 58 9000 3.6 140 19:43 01.11.2020
6009 Rain 14 1012 58 9000 3.6 140 19:24 01.11.2020
6010 Rain 15 1012 54 9000 2.1 180 18:43 01.11.2020
6011 Clouds 13 1012 66 10000 2.6 360 18:20 01.11.2020
6012 Clouds 13 1012 66 10000 2.6 360 18:20 01.11.2020
6013 Clouds 13 1012 66 10000 2.6 360 18:20 01.11.2020
6014 Clouds 13 1012 66 10000 2.6 360 17:58 01.11.2020
6015 Clouds 13 1012 66 10000 2.6 360 17:40 01.11.2020
6016 Clouds 9 1015 70 10000 3.93 335 17:21 01.11.2020
6017 Clouds 9 1015 70 10000 3.93 335 16:41 01.11.2020
6018 Clouds 9 1015 70 10000 3.18 339 16:19 01.11.2020
6019 Clouds 9 1015 70 10000 3.18 339 15:42 01.11.2020
6020 Clouds 9 1015 70 10000 3.39 352 15:22 01.11.2020
6021 Clouds 15 1014 61 10000 3.39 352 14:59 01.11.2020
6022 Clouds 15 1014 61 10000 3.39 352 14:41 01.11.2020
6023 Clouds 13 1014 64 10000 2.96 348 14:21 01.11.2020
6024 Clouds 13 1014 64 10000 2.96 348 13:48 01.11.2020
6025 Clouds 8 1015 81 10000 2.96 348 13:30 01.11.2020
6026 Clouds 8 1015 81 10000 2.2 2 12:44 01.11.2020
6027 Clouds 8 1015 81 10000 2.32 7 12:23 01.11.2020
6028 Fog 7 1015 87 10000 2.32 7 11:52 01.11.2020
6029 Fog 6 1015 93 10000 1.5 290 11:19 01.11.2020
6030 Fog 6 1015 93 10000 1.5 290 10:55 01.11.2020
6031 Fog 6 1015 93 10000 1.5 290 10:37 01.11.2020
6032 Fog 6 1015 93 10000 1.55 337 10:19 01.11.2020
6033 Fog 6 1015 93 10000 1.55 337 09:43 01.11.2020
6034 Clouds 7 1015 93 10000 2.6 340 08:47 01.11.2020
6035 Clouds 7 1015 93 10000 2.6 340 08:24 01.11.2020
6036 Clouds 7 1015 100 10000 1.5 360 07:43 01.11.2020
6037 Clouds 8 1014 93 10000 3.1 50 04:31 01.11.2020
6038 Clouds 9 1014 87 10000 3.1 70 01:52 01.11.2020
6039 Drizzle 9 1014 93 10000 2.6 50 00:43 01.11.2020
6040 Drizzle 10 1014 87 10000 3.1 50 23:28 31.10.2020
6041 Drizzle 10 1014 93 10000 4.1 200 22:58 31.10.2020
6042 Drizzle 10 1014 93 10000 4.1 200 22:40 31.10.2020
6043 Drizzle 13 1013 58 10000 4.1 230 22:21 31.10.2020
6044 Drizzle 13 1013 58 10000 4.1 230 21:44 31.10.2020
6045 Drizzle 13 1013 58 10000 2.1 50 21:20 31.10.2020
6046 Drizzle 13 1013 58 10000 2.1 50 20:38 31.10.2020
6047 Drizzle 13 1013 58 10000 2.1 160 20:18 31.10.2020
6048 Clouds 13 1014 67 10000 3.8 345 19:41 31.10.2020
6049 Clouds 13 1013 58 10000 2.6 50 19:23 31.10.2020
6050 Clouds 13 1013 58 10000 2.6 50 18:47 31.10.2020
6051 Clouds 13 1013 58 10000 2.6 50 18:28 31.10.2020
6052 Clouds 13 1013 65 10000 2.52 324 17:41 31.10.2020
6053 Clouds 13 1014 54 10000 1.5 90 17:22 31.10.2020
6054 Clouds 13 1014 54 10000 1.5 90 16:46 31.10.2020
6055 Clouds 13 1014 54 10000 1.5 90 16:28 31.10.2020
6056 Clouds 11 1014 62 10000 1.5 90 15:54 31.10.2020
6057 Clouds 11 1014 62 10000 1.5 90 15:25 31.10.2020
6058 Clouds 10 1014 71 10000 2.24 5 14:53 31.10.2020
6059 Clouds 10 1014 71 10000 2.24 5 14:31 31.10.2020
6060 Clouds 9 1015 76 10000 2.02 358 13:52 31.10.2020
6061 Clouds 9 1015 76 10000 1.39 358 13:28 31.10.2020
6062 Clouds 9 1015 70 10000 1.56 4 12:48 31.10.2020
6063 Clouds 8 1015 70 10000 1.3 336 12:21 31.10.2020
6064 Clouds 8 1015 70 10000 1.3 336 11:40 31.10.2020
6065 Clouds 8 1014 70 10000 6.2 230 11:21 31.10.2020
6066 Clouds 8 1014 70 10000 6.2 230 10:40 31.10.2020
6067 Clouds 8 1014 70 10000 7.2 230 09:56 31.10.2020
6068 Clouds 8 1014 70 10000 7.2 230 09:37 31.10.2020
6069 Clouds 9 1014 70 10000 8.2 230 09:18 31.10.2020
6070 Clouds 9 1014 70 10000 8.2 230 08:26 31.10.2020
6071 Clouds 9 1014 70 10000 8.2 230 07:30 31.10.2020
6072 Clouds 9 1014 76 10000 7.7 250 06:57 31.10.2020
6073 Clouds 9 1014 76 10000 7.7 250 06:36 31.10.2020
6074 Clouds 9 1013 76 10000 7.2 230 03:48 31.10.2020
6075 Clouds 10 1013 71 10000 8.2 230 02:39 31.10.2020
6076 Clouds 10 1011 71 10000 9.3 230 00:55 31.10.2020
6077 Clouds 10 1010 71 10000 10.3 230 23:56 30.10.2020
6078 Clouds 10 1010 71 10000 10.3 230 23:31 30.10.2020
6079 Clouds 10 1010 71 10000 10.3 230 22:59 30.10.2020
6080 Clouds 10 1010 71 10000 10.3 230 22:39 30.10.2020
6081 Clouds 9 1009 76 10000 10.8 230 22:20 30.10.2020
6082 Clouds 9 1009 76 10000 10.8 230 21:49 30.10.2020
6083 Clouds 9 1009 76 10000 10.8 230 21:26 30.10.2020
6084 Clouds 9 1008 70 10000 10.3 230 20:46 30.10.2020
6085 Clouds 9 1008 70 10000 10.3 230 20:27 30.10.2020
6086 Clouds 9 1008 70 10000 10.3 230 20:27 30.10.2020
6087 Clouds 10 1008 71 10000 10.8 230 19:59 30.10.2020
6088 Clouds 10 1008 71 10000 10.8 230 19:40 30.10.2020
6089 Clouds 10 1007 71 10000 12.3 230 19:18 30.10.2020
6090 Clouds 10 1007 71 10000 12.3 230 18:42 30.10.2020
6091 Clouds 10 1007 71 10000 12.3 230 18:23 30.10.2020
6092 Clouds 10 1007 71 10000 12.9 230 17:47 30.10.2020
6093 Clouds 9 1006 76 10000 13.4 230 17:22 30.10.2020
6094 Clouds 9 1006 76 10000 13.4 230 16:52 30.10.2020
6095 Clouds 9 1006 76 10000 13.4 230 16:25 30.10.2020
6096 Clouds 10 1005 61 10000 13.4 230 15:45 30.10.2020
6097 Clouds 10 1005 61 10000 13.4 230 15:27 30.10.2020
6098 Clouds 10 1004 66 10000 13.4 230 14:58 30.10.2020
6099 Clouds 10 1004 66 10000 13.4 230 14:40 30.10.2020
6100 Clouds 10 1004 66 10000 13.4 230 14:21 30.10.2020
6101 Clouds 8 1004 70 10000 8.7 230 13:42 30.10.2020
6102 Clouds 5 1004 86 10000 7.2 230 13:20 30.10.2020
6103 Clouds 5 1004 86 10000 7.2 230 12:47 30.10.2020
6104 Clouds 5 1004 86 10000 7.2 230 12:22 30.10.2020
6105 Drizzle 5 1004 86 10000 3.1 270 11:56 30.10.2020
6106 Drizzle 6 1004 87 10000 1.5 320 11:21 30.10.2020
6107 Drizzle 6 1004 87 10000 1.5 320 10:50 30.10.2020
6108 Drizzle 6 1004 87 10000 1.5 320 10:25 30.10.2020
6109 Drizzle 6 1004 81 10000 1.5 320 09:56 30.10.2020
6110 Drizzle 6 1004 81 10000 1.5 320 09:38 30.10.2020
6111 Drizzle 6 1005 87 10000 1 320 09:19 30.10.2020
6112 Drizzle 6 1005 87 10000 1 320 08:32 30.10.2020
6113 Drizzle 6 1005 87 10000 3.1 230 07:54 30.10.2020
6114 Drizzle 6 1005 87 10000 3.1 230 07:36 30.10.2020
6115 Drizzle 6 1005 81 10000 4.1 190 06:59 30.10.2020
6116 Rain 6 1006 81 10000 5.1 210 05:53 30.10.2020
6117 Clouds 7 1009 70 10000 5.7 250 02:53 30.10.2020
6118 Clouds 7 1009 70 10000 10.8 230 01:24 30.10.2020
6119 Clouds 8 1009 65 10000 12.9 230 23:59 29.10.2020
6120 Clouds 8 1009 65 10000 12.9 230 23:41 29.10.2020
6121 Clouds 8 1009 65 10000 12.9 230 23:23 29.10.2020
6122 Clouds 8 1009 70 10000 15.4 230 22:44 29.10.2020
6123 Clouds 8 1009 70 10000 15.4 230 22:25 29.10.2020
6124 Drizzle 8 1009 70 10000 12.3 230 21:44 29.10.2020
6125 Drizzle 8 1009 70 10000 12.3 230 21:24 29.10.2020
6126 Clouds 8 1009 75 10000 14.4 230 20:43 29.10.2020
6127 Clouds 8 1009 75 10000 14.4 230 20:24 29.10.2020
6128 Drizzle 8 1009 81 10000 10.8 230 19:57 29.10.2020
6129 Drizzle 8 1009 81 10000 10.8 230 19:38 29.10.2020
6130 Drizzle 8 1008 81 10000 15.4 230 19:18 29.10.2020
6131 Drizzle 8 1008 81 10000 15.4 230 18:45 29.10.2020
6132 Drizzle 8 1008 81 10000 15.4 230 18:25 29.10.2020
6133 Clouds 8 1008 81 10000 15.4 230 17:42 29.10.2020
6134 Rain 8 1007 81 10000 13.4 230 17:22 29.10.2020
6135 Rain 8 1007 81 10000 13.4 230 16:53 29.10.2020
6136 Drizzle 8 1006 81 8000 12.9 230 16:23 29.10.2020
6137 Drizzle 8 1006 81 8000 12.9 230 15:58 29.10.2020
6138 Drizzle 8 1006 81 8000 12.9 230 15:40 29.10.2020
6139 Drizzle 8 1006 81 8000 12.9 230 15:40 29.10.2020
6140 Drizzle 6 1006 93 8000 8.2 230 15:22 29.10.2020
6141 Drizzle 6 1006 93 8000 8.2 230 14:58 29.10.2020
6142 Drizzle 6 1006 93 8000 8.2 230 14:39 29.10.2020
6143 Drizzle 6 1006 93 8000 8.2 230 14:39 29.10.2020
6144 Drizzle 6 1006 93 8000 4.1 250 14:18 29.10.2020
6145 Drizzle 6 1006 93 8000 4.1 250 13:40 29.10.2020
6146 Drizzle 6 1006 93 8000 4.1 250 13:22 29.10.2020
6147 Drizzle 6 1006 87 8000 4.6 270 12:41 29.10.2020
6148 Drizzle 6 1005 87 8000 3.1 270 12:19 29.10.2020
6149 Drizzle 6 1005 87 8000 3.1 270 11:47 29.10.2020
6150 Drizzle 6 1005 87 8000 3.1 270 11:26 29.10.2020
6151 Drizzle 6 1004 87 10000 9.8 230 10:38 29.10.2020
6152 Drizzle 6 1003 87 10000 11.8 230 10:20 29.10.2020
6153 Drizzle 6 1003 87 10000 11.8 230 09:56 29.10.2020
6154 Drizzle 6 1003 87 10000 11.8 230 09:28 29.10.2020
6155 Rain 5 1001 86 10000 16.5 230 08:59 29.10.2020
6156 Rain 5 1001 86 10000 16.5 230 08:40 29.10.2020
6157 Rain 6 1000 81 10000 16.5 230 08:18 29.10.2020
6158 Rain 6 1000 81 10000 16.5 230 07:46 29.10.2020
6159 Rain 6 1000 81 10000 13.4 230 06:58 29.10.2020
6160 Rain 6 1000 87 9000 12.3 230 06:21 29.10.2020
6161 Rain 5 1000 93 10000 9.8 230 04:46 29.10.2020
6162 Rain 4 998 86 150 1.91 280 01:25 29.10.2020
6163 Rain 4 999 86 856 1.91 275 00:31 29.10.2020
6164 Rain 4 998 85 2415 2.06 249 23:49 28.10.2020
6165 Rain 6 998 73 10000 3.06 254 23:22 28.10.2020
6166 Rain 6 998 73 10000 3.06 254 22:45 28.10.2020
6167 Drizzle 7 995 75 10000 12.9 230 22:27 28.10.2020
6168 Drizzle 7 995 75 10000 12.9 230 21:59 28.10.2020
6169 Drizzle 7 995 75 10000 12.9 230 21:41 28.10.2020
6170 Clouds 8 995 61 10000 8.7 230 21:23 28.10.2020
6171 Clouds 8 995 61 10000 8.7 230 20:42 28.10.2020
6172 Clouds 8 995 61 10000 12.3 200 20:22 28.10.2020
6173 Clouds 8 995 61 10000 12.3 200 19:51 28.10.2020
6174 Clouds 8 995 61 10000 12.3 200 19:29 28.10.2020
6175 Clouds 8 996 52 10000 9.3 200 18:50 28.10.2020
6176 Clouds 6 996 53 10000 12.9 200 18:22 28.10.2020
6177 Clouds 6 996 53 10000 12.9 200 17:57 28.10.2020
6178 Clouds 6 996 53 10000 12.9 200 17:39 28.10.2020
6179 Clouds 6 996 54 10000 6.2 200 17:18 28.10.2020
6180 Clouds 6 996 54 10000 6.2 200 16:44 28.10.2020
6181 Drizzle 3 997 93 10000 5.1 200 16:23 28.10.2020
6182 Drizzle 3 997 93 10000 5.1 200 16:23 28.10.2020
6183 Drizzle 3 997 93 10000 5.1 200 15:40 28.10.2020
6184 Clouds 6 996 62 10000 5.38 245 15:19 28.10.2020
6185 Clouds 6 996 62 10000 5.38 245 14:44 28.10.2020
6186 Clouds 2 994 93 10000 3.1 360 14:26 28.10.2020
6187 Clouds 3 994 78 3900 3.05 256 12:50 28.10.2020
6188 Clouds 3 993 79 939 2.12 260 12:31 28.10.2020
6189 Clouds 2 992 85 415 1.85 277 11:59 28.10.2020
6190 Clouds 2 992 85 415 1.85 277 11:41 28.10.2020
6191 Clouds 0 991 94 10000 1.77 292 11:20 28.10.2020
6192 Clouds 0 991 94 10000 1.77 292 10:50 28.10.2020
6193 Drizzle 4 989 94 10000 8.2 230 10:32 28.10.2020
6194 Drizzle 4 989 95 10000 8.2 230 09:45 28.10.2020
6195 Drizzle 4 989 95 10000 8.2 230 09:24 28.10.2020
6196 Drizzle 4 987 95 10000 12.3 250 08:51 28.10.2020
6197 Drizzle 4 987 95 10000 12.3 250 08:33 28.10.2020
6198 Drizzle 5 985 91 10000 12.9 230 07:56 28.10.2020
6199 Drizzle 5 985 91 10000 12.9 230 07:37 28.10.2020
6200 Drizzle 5 984 86 10000 10.3 230 07:19 28.10.2020
6201 Drizzle 5 984 86 10000 10.3 230 06:39 28.10.2020
6202 Drizzle 5 982 65 10000 9.3 230 05:44 28.10.2020
6203 Clouds 7 982 48 10000 5.7 360 04:51 28.10.2020
6204 Clouds 7 982 48 10000 5.7 360 04:23 28.10.2020
6205 Clouds 8 982 36 10000 5.7 340 02:25 28.10.2020
6206 Clouds 8 983 39 10000 3.6 320 00:36 28.10.2020
6207 Clouds 8 983 45 10000 4.1 230 23:51 27.10.2020
6208 Clouds 8 983 45 10000 4.1 230 23:22 27.10.2020
6209 Clouds 8 984 42 10000 5.1 230 22:45 27.10.2020
6210 Clouds 9 983 39 10000 6.7 230 22:22 27.10.2020
6211 Clouds 9 983 39 10000 6.7 230 21:57 27.10.2020
6212 Clouds 9 983 39 10000 6.7 230 21:38 27.10.2020
6213 Clouds 9 983 36 10000 7.2 230 21:20 27.10.2020
6214 Clouds 9 983 36 10000 7.2 230 20:54 27.10.2020
6215 Clouds 9 983 36 10000 7.2 230 20:36 27.10.2020
6216 Clouds 8 984 42 10000 7.2 230 20:18 27.10.2020
6217 Clouds 8 984 42 10000 7.2 230 20:18 27.10.2020
6218 Clouds 8 984 42 10000 7.2 230 19:39 27.10.2020
6219 Clouds 8 984 42 10000 7.2 230 19:20 27.10.2020
6220 Clouds 8 984 45 10000 8.2 230 18:55 27.10.2020
6221 Clouds 8 984 45 10000 8.2 230 18:37 27.10.2020
6222 Clouds 7 984 48 10000 8.7 230 18:18 27.10.2020
6223 Clouds 7 984 48 10000 8.7 230 17:40 27.10.2020
6224 Clouds 6 984 52 10000 10.8 230 17:20 27.10.2020
6225 Clouds 6 984 52 10000 10.8 230 16:48 27.10.2020
6226 Clouds 6 984 52 10000 10.8 230 16:25 27.10.2020
6227 Clouds 6 984 52 10000 8.2 230 15:47 27.10.2020
6228 Clouds 6 984 52 10000 8.2 230 15:29 27.10.2020
6229 Drizzle 5 984 65 10000 10.8 230 14:55 27.10.2020
6230 Drizzle 5 984 65 10000 10.8 230 14:36 27.10.2020
6231 Clouds 5 983 77 10000 10.3 230 14:18 27.10.2020
6232 Clouds 5 983 77 10000 10.3 230 13:32 27.10.2020
6233 Clouds 6 983 81 10000 7.2 230 12:57 27.10.2020
6234 Clouds 6 983 81 10000 7.2 230 12:37 27.10.2020
6235 Clouds 5 983 80 10000 5.1 230 12:19 27.10.2020
6236 Clouds 5 983 80 10000 5.1 230 11:42 27.10.2020
6237 Clouds 5 982 75 10000 4.6 230 11:22 27.10.2020
6238 Clouds 5 982 75 10000 4.6 230 10:47 27.10.2020
6239 Clouds 5 982 75 10000 4.6 230 10:25 27.10.2020
6240 Clouds 5 982 65 10000 5.7 230 09:45 27.10.2020
6241 Clouds 5 982 65 10000 5.7 230 09:23 27.10.2020
6242 Clouds 5 981 80 10000 6.2 230 08:38 27.10.2020
6243 Clouds 6 981 52 10000 1.5 270 08:18 27.10.2020
6244 Clouds 6 981 52 10000 1.5 270 07:44 27.10.2020
6245 Clouds 6 981 52 10000 1.5 270 07:25 27.10.2020
6246 Clouds 7 982 48 10000 6.7 340 06:22 27.10.2020
6247 Clouds 7 982 48 10000 6.7 340 05:51 27.10.2020
6248 Clouds 7 982 48 10000 6.7 340 05:33 27.10.2020
6249 Clouds 8 982 42 10000 6.2 320 04:44 27.10.2020
6250 Clouds 9 982 39 10000 8.2 320 02:29 27.10.2020
6251 Clouds 10 982 31 10000 9.8 320 00:53 27.10.2020
6252 Clouds 11 983 50 10000 7.2 320 23:43 26.10.2020
6253 Clouds 11 982 50 10000 6.2 320 23:19 26.10.2020
6254 Clouds 11 982 50 10000 6.2 320 22:46 26.10.2020
6255 Clouds 11 983 62 10000 5.7 320 22:21 26.10.2020
6256 Clouds 11 983 62 10000 5.7 320 21:45 26.10.2020
6257 Rain 10 983 61 10000 10.3 270 21:20 26.10.2020
6258 Rain 10 983 61 10000 10.3 270 20:58 26.10.2020
6259 Rain 10 983 61 10000 10.3 270 20:39 26.10.2020
6260 Rain 11 983 53 10000 7.7 230 20:18 26.10.2020
6261 Clouds 14 983 50 10000 6.2 340 19:47 26.10.2020
6262 Clouds 14 983 60 10000 6.2 340 19:23 26.10.2020
6263 Clouds 15 983 33 10000 8.2 320 18:44 26.10.2020
6264 Clouds 15 983 33 10000 8.2 320 18:24 26.10.2020
6265 Clouds 15 984 33 10000 8.7 290 17:56 26.10.2020
6266 Clouds 15 984 33 10000 8.7 290 17:37 26.10.2020
6267 Clouds 13 985 43 10000 6.2 320 17:19 26.10.2020
6268 Clouds 13 985 43 10000 6.2 320 16:40 26.10.2020
6269 Clouds 10 986 66 10000 2.1 340 16:21 26.10.2020
6270 Clouds 10 986 66 10000 2.1 340 15:42 26.10.2020
6271 Drizzle 10 987 61 10000 5.7 360 15:20 26.10.2020
6272 Drizzle 10 987 61 10000 5.7 360 14:52 26.10.2020
6273 Drizzle 10 987 61 10000 5.7 360 14:31 26.10.2020
6274 Clouds 9 988 61 10000 2.6 320 13:44 26.10.2020
6275 Clouds 9 988 61 10000 2.6 320 13:24 26.10.2020
6276 Clouds 7 988 75 10000 4.32 347 12:51 26.10.2020
6277 Clouds 7 988 75 10000 3.73 346 12:29 26.10.2020
6278 Clouds 6 989 87 10000 4.6 90 11:57 26.10.2020
6279 Clouds 6 989 87 10000 4.6 90 11:37 26.10.2020
6280 Clouds 4 990 93 10000 4.6 50 11:19 26.10.2020
6281 Clouds 4 990 93 10000 4.6 50 10:46 26.10.2020
6282 Clouds 4 990 93 10000 4.6 50 10:25 26.10.2020
6283 Clear 3 991 86 10000 4.1 50 09:51 26.10.2020
6284 Clear 3 991 86 10000 4.1 50 09:28 26.10.2020
6285 Clear 4 992 86 10000 3.1 50 08:50 26.10.2020
6286 Clear 4 992 86 10000 3.1 50 08:22 26.10.2020
6287 Clear 4 993 86 10000 1 70 07:38 26.10.2020
6288 Clear 5 994 86 10000 1 320 07:18 26.10.2020
6289 Clear 5 996 86 10000 1 270 05:31 26.10.2020
6290 Clear 6 997 87 10000 5.1 70 04:19 26.10.2020
6291 Clouds 7 997 87 10000 4.6 90 03:20 26.10.2020
6292 Clouds 7 997 87 10000 4.6 90 03:20 26.10.2020
6293 Clouds 7 997 87 10000 4.6 90 03:20 26.10.2020
6294 Clouds 7 997 87 10000 4.6 90 03:20 26.10.2020
6295 Clouds 9 998 66 10000 2.1 110 01:34 26.10.2020
6296 Clouds 10 998 61 10000 0.99 156 00:35 26.10.2020
6297 Clouds 12 998 46 10000 3.1 90 23:46 25.10.2020
6298 Clouds 12 998 46 10000 3.1 90 23:25 25.10.2020
6299 Clouds 12 998 46 10000 1.5 90 22:45 25.10.2020
6300 Clouds 12 998 46 10000 1.5 90 22:27 25.10.2020
6301 Clouds 12 999 46 10000 1 20 21:50 25.10.2020
6302 Clouds 12 999 46 10000 1 20 21:31 25.10.2020
6303 Clouds 12 999 46 10000 1 20 21:31 25.10.2020
6304 Clouds 11 999 50 10000 1.5 50 20:59 25.10.2020
6305 Clouds 11 999 50 10000 1.5 50 20:40 25.10.2020
6306 Clouds 11 999 50 10000 1.5 50 20:22 25.10.2020
6307 Clouds 11 1000 50 10000 2.1 90 19:55 25.10.2020
6308 Clouds 11 1000 50 10000 2.1 90 19:37 25.10.2020
6309 Clouds 11 1000 53 10000 2.1 50 19:18 25.10.2020
6310 Clouds 11 1000 53 10000 2.1 50 18:41 25.10.2020
6311 Clouds 10 1001 53 10000 2.6 50 18:22 25.10.2020
6312 Clouds 10 1001 53 10000 2.6 50 17:55 25.10.2020
6313 Clouds 10 1001 53 10000 2.6 50 17:37 25.10.2020
6314 Clouds 9 1002 57 10000 2.6 70 17:18 25.10.2020
6315 Clouds 9 1002 57 10000 2.6 70 16:43 25.10.2020
6316 Clouds 9 1002 57 10000 2.6 70 16:23 25.10.2020
6317 Clouds 9 1002 57 10000 2.6 90 15:47 25.10.2020
6318 Clouds 9 1002 57 10000 2.6 90 15:27 25.10.2020
6319 Clouds 8 1003 61 10000 2.1 160 14:54 25.10.2020
6320 Clouds 8 1003 61 10000 2.1 160 14:30 25.10.2020
6321 Clouds 10 1003 60 10000 0.43 94 13:45 25.10.2020
6322 Clouds 6 1004 75 10000 2.1 70 13:25 25.10.2020
6323 Clouds 6 1004 75 10000 2.1 70 12:57 25.10.2020
6324 Clouds 6 1004 75 10000 2.1 70 12:39 25.10.2020
6325 Clouds 5 1005 75 10000 2.6 0 12:21 25.10.2020
6326 Clouds 5 1005 75 10000 2.6 0 11:42 25.10.2020
6327 Clouds 6 1005 83 10000 2.07 352 11:20 25.10.2020
6328 Clouds 6 1005 83 10000 2.07 352 10:47 25.10.2020
6329 Clouds 6 1005 85 10000 2.23 352 10:26 25.10.2020
6330 Clouds 7 1005 65 10000 1.5 270 09:55 25.10.2020
6331 Clouds 7 1005 65 10000 1.5 270 09:36 25.10.2020
6332 Clouds 6 1006 83 10000 3.1 270 09:18 25.10.2020
6333 Clouds 6 1006 83 10000 3.1 270 08:40 25.10.2020
6334 Clouds 6 1006 82 10000 3.1 270 08:22 25.10.2020
6335 Clouds 6 1007 70 10000 1.5 270 07:46 25.10.2020
6336 Clouds 6 1007 70 10000 2.28 2 06:57 25.10.2020
6337 Clouds 6 1007 70 10000 2.28 2 06:30 25.10.2020
6338 Clouds 7 1008 65 10000 4.1 320 05:22 25.10.2020
6339 Clouds 7 1008 65 10000 4.1 320 04:50 25.10.2020
6340 Clouds 7 1009 70 10000 5.7 340 02:38 25.10.2020
6341 Clouds 8 1010 61 10000 2.6 160 01:32 25.10.2020
6342 Drizzle 8 1010 65 10000 4.1 360 00:48 25.10.2020
6343 Drizzle 9 1010 57 10000 6.2 360 00:19 25.10.2020
6344 Drizzle 9 1010 57 10000 6.2 360 23:52 24.10.2020
6345 Drizzle 9 1010 57 10000 6.2 360 23:25 24.10.2020
6346 Clouds 10 1010 70 10000 6.7 360 22:43 24.10.2020
6347 Clouds 10 1010 63 10000 6.7 360 22:24 24.10.2020
6348 Clouds 10 1010 53 10000 8.2 360 21:59 24.10.2020
6349 Clouds 10 1010 53 10000 8.2 360 21:39 24.10.2020
6350 Clouds 10 1011 60 10000 7.2 360 21:20 24.10.2020
6351 Clouds 10 1011 60 10000 7.2 360 20:47 24.10.2020
6352 Clouds 10 1011 56 10000 7.2 360 20:23 24.10.2020
6353 Clouds 11 1012 58 10000 5.7 360 19:48 24.10.2020
6354 Clouds 11 1012 57 10000 5.7 360 19:28 24.10.2020
6355 Clouds 10 1012 53 10000 5.7 360 18:57 24.10.2020
6356 Clouds 10 1012 53 10000 5.7 360 18:39 24.10.2020
6357 Clouds 11 1013 50 10000 4.6 340 18:20 24.10.2020
6358 Clouds 11 1013 50 10000 4.6 340 17:38 24.10.2020
6359 Clouds 10 1013 59 10000 6.2 360 17:20 24.10.2020
6360 Clouds 10 1013 59 10000 6.2 360 16:44 24.10.2020
6361 Clouds 10 1013 62 10000 6.2 360 16:22 24.10.2020
6362 Clouds 10 1014 53 10000 6.7 340 15:40 24.10.2020
6363 Clouds 10 1014 53 10000 6.7 340 15:19 24.10.2020
6364 Clouds 10 1014 53 10000 6.7 340 15:19 24.10.2020
6365 Clouds 8 1014 65 10000 2.94 357 14:50 24.10.2020
6366 Clouds 8 1014 65 10000 2.97 354 14:28 24.10.2020
6367 Clouds 7 1014 70 10000 2.83 357 13:46 24.10.2020
6368 Clouds 7 1014 70 10000 2.82 357 13:24 24.10.2020
6369 Clouds 4 1014 86 10000 2.6 70 12:48 24.10.2020
6370 Clouds 4 1014 80 10000 4.6 90 12:21 24.10.2020
6371 Clouds 4 1014 80 10000 4.6 90 11:53 24.10.2020
6372 Clouds 4 1014 80 10000 4.6 90 11:35 24.10.2020
6373 Clouds 4 1015 80 10000 4.6 230 10:54 24.10.2020
6374 Clouds 4 1015 80 10000 4.6 230 10:34 24.10.2020
6375 Clouds 4 1015 86 10000 1.5 90 09:56 24.10.2020
6376 Clouds 4 1015 86 10000 1.5 90 09:38 24.10.2020
6377 Clouds 4 1015 80 10000 2.1 180 09:19 24.10.2020
6378 Clouds 4 1015 80 10000 2.1 180 08:20 24.10.2020
6379 Clouds 4 1016 80 10000 1.5 360 07:55 24.10.2020
6380 Clouds 4 1016 80 10000 1.5 360 07:37 24.10.2020
6381 Clouds 4 1016 80 10000 5.1 90 07:18 24.10.2020
6382 Clouds 4 1016 84 10000 4.1 90 06:23 24.10.2020
6383 Clouds 5 1015 86 10000 3.6 90 03:37 24.10.2020
6384 Clouds 6 1015 70 10000 5.1 140 02:18 24.10.2020
6385 Clouds 7 1014 65 10000 5.7 140 00:42 24.10.2020
6386 Clouds 7 1014 65 10000 5.7 140 00:22 24.10.2020
6387 Clouds 7 1014 65 10000 4.1 140 23:50 23.10.2020
6388 Clouds 7 1014 65 10000 4.1 140 23:27 23.10.2020
6389 Clouds 8 1013 65 10000 7.2 140 22:59 23.10.2020
6390 Clouds 8 1013 65 10000 7.2 140 22:40 23.10.2020
6391 Clouds 8 1013 65 10000 7.2 140 22:20 23.10.2020
6392 Clouds 9 1013 57 10000 5.1 90 21:51 23.10.2020
6393 Clouds 9 1013 57 10000 5.1 90 21:25 23.10.2020
6394 Clouds 10 1012 57 10000 2.6 160 20:43 23.10.2020
6395 Clouds 10 1012 54 10000 2.6 160 20:25 23.10.2020
6396 Clouds 9 1012 57 10000 2.1 140 19:59 23.10.2020
6397 Clouds 9 1012 57 10000 2.1 140 19:34 23.10.2020
6398 Clouds 9 1012 51 10000 8.2 230 18:58 23.10.2020
6399 Clouds 9 1012 51 10000 8.2 230 18:39 23.10.2020
6400 Clouds 8 1012 61 10000 7.7 230 18:19 23.10.2020
6401 Clouds 8 1012 61 10000 7.7 230 17:43 23.10.2020
6402 Clouds 8 1012 61 10000 7.7 230 17:20 23.10.2020
6403 Clouds 8 1011 61 10000 7.2 230 16:46 23.10.2020
6404 Clouds 8 1011 61 10000 7.2 230 16:26 23.10.2020
6405 Clouds 7 1011 65 10000 6.7 230 15:47 23.10.2020
6406 Clouds 7 1011 65 10000 6.7 230 15:25 23.10.2020
6407 Clouds 6 1011 70 10000 5.1 230 14:57 23.10.2020
6408 Clouds 6 1011 70 10000 5.1 230 14:39 23.10.2020
6409 Clouds 5 1011 65 10000 3.1 180 14:20 23.10.2020
6410 Clouds 5 1011 68 10000 3.1 180 13:38 23.10.2020
6411 Clouds 5 1011 65 10000 4.1 270 13:19 23.10.2020
6412 Clouds 5 1011 65 10000 4.1 270 12:47 23.10.2020
6413 Clouds 5 1011 65 10000 4.1 270 12:27 23.10.2020
6414 Clouds 4 1010 85 10000 5.7 250 11:47 23.10.2020
6415 Clouds 4 1010 90 10000 5.7 250 11:22 23.10.2020
6416 Clouds 4 1010 80 10000 6.2 250 10:46 23.10.2020
6417 Clouds 4 1010 80 10000 6.2 250 10:25 23.10.2020
6418 Clouds 4 1010 80 10000 5.1 230 09:46 23.10.2020
6419 Clouds 4 1010 80 10000 5.1 230 09:27 23.10.2020
6420 Clouds 4 1009 80 10000 5.1 250 08:53 23.10.2020
6421 Clouds 4 1009 80 10000 5.1 250 08:33 23.10.2020
6422 Clouds 5 1009 80 10000 9.3 230 07:46 23.10.2020
6423 Clouds 5 1009 80 10000 9.3 230 07:23 23.10.2020
6424 Clouds 5 1009 80 10000 6.7 230 06:31 23.10.2020
6425 Clouds 6 1008 75 10000 9.3 230 05:44 23.10.2020
6426 Clouds 7 1007 65 10000 8.2 230 02:54 23.10.2020
6427 Clouds 7 1007 65 10000 8.2 230 02:25 23.10.2020
6428 Clouds 8 1006 65 10000 10.8 230 00:48 23.10.2020
6429 Clouds 9 1006 57 10000 10.8 230 23:54 22.10.2020
6430 Clouds 9 1006 57 10000 10.8 230 23:30 22.10.2020
6431 Clouds 9 1006 57 10000 10.3 230 22:54 22.10.2020
6432 Clouds 9 1006 57 10000 10.3 230 22:36 22.10.2020
6433 Clouds 9 1005 57 10000 10.8 230 22:18 22.10.2020
6434 Clouds 9 1005 57 10000 10.8 230 21:42 22.10.2020
6435 Clouds 9 1005 57 10000 10.8 230 21:23 22.10.2020
6436 Clouds 9 1005 57 10000 10.3 230 20:56 22.10.2020
6437 Clouds 9 1005 57 10000 10.3 230 20:37 22.10.2020
6438 Clouds 9 1004 57 10000 11.3 230 20:18 22.10.2020
6439 Clouds 9 1004 57 10000 11.3 230 19:40 22.10.2020
6440 Clouds 10 1004 57 10000 8.2 230 19:19 22.10.2020
6441 Clouds 10 1004 57 10000 8.2 230 18:43 22.10.2020
6442 Clouds 9 1004 61 10000 9.8 230 18:20 22.10.2020
6443 Clouds 9 1004 61 10000 9.8 230 17:46 22.10.2020
6444 Clouds 9 1004 61 10000 9.8 230 17:26 22.10.2020
6445 Clouds 9 1004 61 10000 9.8 230 16:56 22.10.2020
6446 Clouds 9 1004 61 10000 9.8 230 16:37 22.10.2020
6447 Clouds 8 1004 65 10000 10.8 230 16:19 22.10.2020
6448 Clouds 8 1004 65 10000 10.8 230 15:43 22.10.2020
6449 Clouds 8 1004 65 10000 10.8 230 15:22 22.10.2020
6450 Clouds 8 1004 70 10000 5.1 230 14:47 22.10.2020
6451 Clouds 8 1004 70 10000 5.1 230 14:24 22.10.2020
6452 Clouds 7 1004 70 10000 3.6 270 13:48 22.10.2020
6453 Clouds 7 1004 70 10000 3.6 270 13:24 22.10.2020
6454 Clouds 6 1003 70 10000 5.1 270 12:47 22.10.2020
6455 Clouds 6 1003 70 10000 5.1 270 12:23 22.10.2020
6456 Clouds 6 1002 70 10000 0.58 274 11:50 22.10.2020
6457 Clouds 7 1002 65 10000 0.86 298 11:20 22.10.2020
6458 Clouds 7 1002 65 10000 0.86 298 10:51 22.10.2020
6459 Clouds 7 1002 65 10000 1.26 310 10:28 22.10.2020
6460 Clouds 6 1002 70 10000 1.5 0 09:52 22.10.2020
6461 Clouds 6 1002 70 10000 1.5 0 09:33 22.10.2020
6462 Clouds 7 1002 65 10000 1.5 200 08:51 22.10.2020
6463 Clouds 7 1002 65 10000 1.5 200 08:30 22.10.2020
6464 Clouds 8 1002 61 10000 1.5 230 07:58 22.10.2020
6465 Clouds 8 1002 61 10000 1.5 230 07:36 22.10.2020
6466 Clouds 9 1002 57 10000 2.74 334 06:58 22.10.2020
6467 Clouds 9 1002 57 10000 3.23 342 06:27 22.10.2020
6468 Clouds 9 1002 61 10000 3.23 342 05:41 22.10.2020
6469 Clouds 10 1003 53 10000 2.6 50 05:18 22.10.2020
6470 Clouds 10 1003 57 10000 4.6 320 01:46 22.10.2020
6471 Clouds 11 1003 50 10000 8.7 320 00:26 22.10.2020
6472 Clouds 12 1003 46 10000 5.7 340 23:51 21.10.2020
6473 Clouds 12 1003 46 10000 5.7 340 23:32 21.10.2020
6474 Clouds 12 1004 50 10000 3.1 340 22:43 21.10.2020
6475 Clouds 13 1004 43 10000 2.6 320 22:19 21.10.2020
6476 Clouds 13 1004 43 10000 2.6 320 21:56 21.10.2020
6477 Clouds 13 1004 43 10000 2.6 320 21:37 21.10.2020
6478 Clouds 13 1005 43 10000 7.2 340 21:18 21.10.2020
6479 Clouds 13 1005 43 10000 7.2 340 20:47 21.10.2020
6480 Clouds 12 1006 57 10000 9.3 320 20:19 21.10.2020
6481 Clouds 12 1006 57 10000 9.3 320 19:47 21.10.2020
6482 Clouds 12 1006 54 10000 9.3 320 19:26 21.10.2020
6483 Clouds 12 1006 54 10000 9.3 320 19:26 21.10.2020
6484 Clouds 11 1007 54 10000 8.2 340 18:54 21.10.2020
6485 Clouds 11 1007 54 10000 8.2 340 18:36 21.10.2020
6486 Clouds 9 1007 49 10000 9.8 360 18:18 21.10.2020
6487 Clouds 9 1007 49 10000 9.8 360 17:41 21.10.2020
6488 Clouds 9 1008 42 10000 10.3 340 17:19 21.10.2020
6489 Clouds 9 1008 42 10000 10.3 340 16:41 21.10.2020
6490 Clouds 9 1008 42 10000 10.3 340 16:21 21.10.2020
6491 Clouds 9 1009 42 10000 8.2 340 15:55 21.10.2020
6492 Clouds 9 1009 42 10000 8.2 340 15:36 21.10.2020
6493 Clouds 9 1009 42 10000 8.2 340 15:18 21.10.2020
6494 Clouds 8 1010 42 10000 7.2 360 14:42 21.10.2020
6495 Clouds 8 1010 42 10000 7.2 360 14:23 21.10.2020
6496 Clouds 8 1011 49 10000 8.2 360 13:42 21.10.2020
6497 Clouds 8 1011 49 10000 8.2 360 13:23 21.10.2020
6498 Clouds 7 1012 52 10000 9.8 360 12:46 21.10.2020
6499 Clouds 7 1012 52 10000 9.8 360 12:24 21.10.2020
6500 Clouds 7 1013 52 10000 6.2 306 11:59 21.10.2020
6501 Clouds 7 1013 52 10000 6.2 306 11:40 21.10.2020
6502 Clouds 7 1013 52 10000 6.2 306 11:19 21.10.2020
6503 Clouds 5 1014 65 10000 5.7 320 10:41 21.10.2020
6504 Clouds 5 1014 65 10000 5.7 320 10:21 21.10.2020
6505 Clouds 5 1014 65 10000 5.1 320 09:52 21.10.2020
6506 Clouds 5 1014 65 10000 5.1 320 09:30 21.10.2020
6507 Clouds 4 1015 80 10000 5.7 320 08:42 21.10.2020
6508 Clouds 4 1015 80 10000 5.7 320 08:24 21.10.2020
6509 Clouds 4 1016 86 10000 4.04 354 07:58 21.10.2020
6510 Clouds 4 1016 86 10000 3.8 354 07:31 21.10.2020
6511 Clouds 4 1017 86 10000 3.17 357 06:50 21.10.2020
6512 Clouds 4 1017 86 10000 2.68 357 06:26 21.10.2020
6513 Clouds 5 1019 75 10000 2.32 357 04:46 21.10.2020
6514 Clouds 7 1020 56 10000 4.1 230 00:51 21.10.2020
6515 Clouds 7 1020 68 10000 6.2 230 23:49 20.10.2020
6516 Clouds 7 1019 61 10000 6.7 230 22:53 20.10.2020
6517 Clouds 7 1019 58 10000 6.7 230 22:28 20.10.2020
6518 Clouds 7 1019 56 10000 7.2 230 21:50 20.10.2020
6519 Clouds 7 1019 56 10000 7.2 230 21:20 20.10.2020
6520 Clouds 7 1019 56 10000 8.7 230 20:45 20.10.2020
6521 Clouds 7 1019 56 10000 8.7 230 20:26 20.10.2020
6522 Clouds 6 1019 60 10000 9.3 230 19:59 20.10.2020
6523 Clouds 6 1019 60 10000 9.3 230 19:41 20.10.2020
6524 Clouds 6 1019 60 10000 9.3 230 19:21 20.10.2020
6525 Clouds 7 1019 56 10000 10.3 230 18:47 20.10.2020
6526 Clouds 7 1019 56 10000 10.3 230 18:29 20.10.2020
6527 Clouds 6 1019 60 10000 10.3 230 17:47 20.10.2020
6528 Clouds 6 1019 60 10000 10.3 230 17:29 20.10.2020
6529 Clouds 4 1019 61 10000 9.8 230 16:48 20.10.2020
6530 Clouds 4 1019 64 10000 9.8 230 16:28 20.10.2020
6531 Clouds 4 1018 69 10000 11.8 230 15:56 20.10.2020
6532 Clouds 4 1018 69 10000 11.8 230 15:38 20.10.2020
6533 Clouds 4 1018 69 10000 11.8 230 15:19 20.10.2020
6534 Drizzle 4 1017 69 10000 9.8 230 14:41 20.10.2020
6535 Drizzle 4 1017 69 10000 9.8 230 14:22 20.10.2020
6536 Clouds 2 1016 80 10000 11.3 230 13:44 20.10.2020
6537 Clouds 2 1016 80 10000 11.3 230 13:23 20.10.2020
6538 Clouds 2 1015 80 10000 11.3 230 12:58 20.10.2020
6539 Clouds 2 1015 80 10000 11.3 230 12:40 20.10.2020
6540 Clouds 2 1015 80 10000 11.3 230 12:21 20.10.2020
6541 Clouds 2 1014 91 10000 7.7 230 11:40 20.10.2020
6542 Clouds 2 1014 92 10000 7.7 230 11:20 20.10.2020
6543 Clouds 2 1013 80 10000 7.7 230 10:37 20.10.2020
6544 Clouds 2 1013 80 10000 7.7 230 10:19 20.10.2020
6545 Drizzle 2 1012 93 10000 9.8 250 09:38 20.10.2020
6546 Drizzle 2 1012 90 10000 9.8 250 09:18 20.10.2020
6547 Rain 2 1011 93 10000 13.4 230 08:37 20.10.2020
6548 Clouds 2 1010 93 10000 11.8 230 07:53 20.10.2020
6549 Clouds 2 1010 93 10000 11.8 230 07:26 20.10.2020
6550 Snow 2 1009 92 10000 10.8 230 06:31 20.10.2020
6551 Rain 2 1006 88 10000 15.4 230 05:51 20.10.2020
6552 Drizzle 2 1004 95 10000 10.8 230 03:58 20.10.2020
6553 Drizzle 3 1003 91 10000 8.7 230 02:25 20.10.2020
6554 Drizzle 4 998 86 10000 19.5 230 00:59 20.10.2020
6555 Drizzle 4 998 86 10000 19.5 230 00:41 20.10.2020
6556 Drizzle 4 998 86 10000 19.5 230 00:21 20.10.2020
6557 Drizzle 4 997 80 10000 15.9 230 23:47 19.10.2020
6558 Drizzle 4 997 80 10000 15.9 230 23:23 19.10.2020
6559 Drizzle 4 995 80 6000 17 230 22:44 19.10.2020
6560 Drizzle 4 995 80 6000 17 230 22:22 19.10.2020
6561 Drizzle 4 994 80 8000 15.9 230 21:45 19.10.2020
6562 Drizzle 4 994 80 8000 15.9 230 21:22 19.10.2020
6563 Drizzle 4 993 86 10000 14.9 230 20:48 19.10.2020
6564 Drizzle 4 993 86 10000 14.9 230 20:29 19.10.2020
6565 Drizzle 4 991 86 6000 15.4 230 19:51 19.10.2020
6566 Drizzle 4 991 86 6000 15.4 230 19:24 19.10.2020
6567 Drizzle 4 991 86 6000 15.4 230 19:24 19.10.2020
6568 Drizzle 4 990 86 6000 15.4 230 18:55 19.10.2020
6569 Drizzle 4 990 86 6000 15.4 230 18:37 19.10.2020
6570 Drizzle 3 989 93 6000 15.9 230 18:18 19.10.2020
6571 Drizzle 3 989 93 6000 15.9 230 17:44 19.10.2020
6572 Drizzle 3 989 93 6000 15.9 230 17:23 19.10.2020
6573 Drizzle 2 987 100 5000 16.5 230 16:43 19.10.2020
6574 Drizzle 2 987 100 5000 16.5 230 16:25 19.10.2020
6575 Clouds 4 988 76 4339 10.59 228 15:43 19.10.2020
6576 Clouds 4 987 74 4450 10.48 230 15:24 19.10.2020
6577 Clouds 4 987 74 4450 10.48 230 14:51 19.10.2020
6578 Clouds 3 985 80 2047 6.55 235 14:26 19.10.2020
6579 Clouds 3 985 80 2047 6.55 235 13:54 19.10.2020
6580 Clouds 3 986 80 10000 4.2 246 13:34 19.10.2020
6581 Clouds 1 985 89 10000 2.71 270 12:56 19.10.2020
6582 Clouds 1 985 89 10000 2.71 270 12:38 19.10.2020
6583 Clouds -1 984 93 10000 2.33 281 12:19 19.10.2020
6584 Clouds 2 982 93 10000 15.9 230 11:39 19.10.2020
6585 Clouds 2 982 93 10000 15.9 230 11:18 19.10.2020
6586 Clouds 2 982 93 10000 15.9 230 10:40 19.10.2020
6587 Clouds 1 981 80 10000 15.9 230 10:20 19.10.2020
6588 Clouds 1 981 80 10000 15.9 230 09:48 19.10.2020
6589 Clouds 1 981 74 10000 11.3 230 09:19 19.10.2020
6590 Clouds 1 981 74 10000 11.3 230 08:49 19.10.2020
6591 Clouds 1 981 74 10000 11.3 230 08:23 19.10.2020
6592 Clouds 2 982 69 10000 8.7 230 07:44 19.10.2020
6593 Clouds 2 981 69 10000 5.7 230 07:19 19.10.2020
6594 Clouds 3 981 74 10000 7.2 230 06:19 19.10.2020
6595 Clouds 4 981 69 10000 4.6 230 03:50 19.10.2020
6596 Clouds 4 981 69 10000 4.6 230 03:32 19.10.2020
6597 Rain 4 980 86 10000 0.56 130 00:57 19.10.2020
6598 Rain 4 980 86 10000 0.87 134 00:24 19.10.2020
6599 Rain 4 980 86 10000 7.7 230 23:47 18.10.2020
6600 Rain 4 980 86 10000 7.7 230 23:25 18.10.2020
6601 Rain 5 979 80 6000 13.4 230 22:52 18.10.2020
6602 Rain 5 979 80 6000 13.4 230 22:22 18.10.2020
6603 Rain 6 978 75 10000 12.9 230 21:56 18.10.2020
6604 Rain 6 978 75 10000 12.9 230 21:37 18.10.2020
6605 Rain 8 978 65 10000 5.7 230 21:18 18.10.2020
6606 Rain 8 978 65 10000 5.7 230 20:40 18.10.2020
6607 Clouds 8 978 70 10000 8.2 230 20:19 18.10.2020
6608 Clouds 8 978 70 10000 8.2 230 19:43 18.10.2020
6609 Clouds 8 978 71 10000 8.2 230 19:25 18.10.2020
6610 Clouds 7 978 71 10000 9.8 230 18:49 18.10.2020
6611 Clouds 7 978 79 10000 9.8 230 18:28 18.10.2020
6612 Rain 6 978 81 10000 7.2 230 17:44 18.10.2020
6613 Rain 6 978 81 10000 7.2 230 17:25 18.10.2020
6614 Clouds 7 978 75 9000 12.9 230 16:55 18.10.2020
6615 Clouds 7 978 75 9000 12.9 230 16:37 18.10.2020
6616 Drizzle 7 977 75 9000 12.9 230 16:18 18.10.2020
6617 Clouds 7 978 75 10000 12.3 230 15:41 18.10.2020
6618 Clouds 7 978 75 10000 2.1 50 15:19 18.10.2020
6619 Clouds 7 978 75 10000 2.1 50 14:54 18.10.2020
6620 Clouds 7 978 75 10000 2.1 50 14:29 18.10.2020
6621 Clouds 5 977 86 10000 1.51 303 13:56 18.10.2020
6622 Clouds 5 977 86 10000 1.51 303 13:38 18.10.2020
6623 Clouds 5 977 86 10000 3.1 360 13:19 18.10.2020
6624 Clouds 5 977 86 10000 3.1 360 12:42 18.10.2020
6625 Clouds 6 977 75 10000 1.9 334 12:21 18.10.2020
6626 Clouds 6 977 75 10000 1.9 334 11:42 18.10.2020
6627 Clouds 6 977 75 10000 1.19 324 11:23 18.10.2020
6628 Clouds 5 978 86 10000 2.6 340 10:41 18.10.2020
6629 Clouds 5 978 86 10000 2.1 340 10:21 18.10.2020
6630 Clouds 5 978 86 10000 2.1 340 09:52 18.10.2020
6631 Clouds 5 978 86 10000 2.1 340 09:52 18.10.2020
6632 Clouds 5 978 86 10000 2.1 340 09:25 18.10.2020
6633 Drizzle 5 978 93 10000 2.02 326 08:59 18.10.2020
6634 Drizzle 5 978 93 10000 2.02 326 08:39 18.10.2020
6635 Clouds 5 979 86 10000 2.6 50 08:21 18.10.2020
6636 Clouds 5 979 86 10000 2.6 50 07:32 18.10.2020
6637 Drizzle 5 981 86 10000 5.1 230 05:33 18.10.2020
6638 Rain 5 985 80 10000 2.6 180 03:20 18.10.2020
6639 Drizzle 6 986 75 10000 9.3 360 01:43 18.10.2020
6640 Drizzle 6 988 75 9000 3.6 340 00:55 18.10.2020
6641 Drizzle 6 988 75 9000 3.6 340 00:35 18.10.2020
6642 Drizzle 8 989 52 10000 6.2 360 23:56 17.10.2020
6643 Drizzle 8 989 52 10000 6.2 360 23:38 17.10.2020
6644 Rain 8 990 52 10000 5.7 360 23:19 17.10.2020
6645 Rain 8 990 52 10000 5.7 360 22:43 17.10.2020
6646 Rain 8 992 52 10000 5.1 340 22:20 17.10.2020
6647 Rain 8 992 52 10000 5.1 340 21:56 17.10.2020
6648 Rain 8 992 52 10000 5.1 340 21:38 17.10.2020
6649 Clouds 9 993 45 10000 9.8 340 21:19 17.10.2020
6650 Clouds 9 993 45 10000 9.8 340 20:42 17.10.2020
6651 Clouds 8 994 42 10000 9.3 340 20:18 17.10.2020
6652 Clouds 8 994 42 10000 9.3 340 19:43 17.10.2020
6653 Clouds 11 995 32 10000 9.3 340 19:20 17.10.2020
6654 Clouds 11 995 32 10000 9.3 340 18:44 17.10.2020
6655 Clouds 11 995 32 10000 9.3 340 18:25 17.10.2020
6656 Clouds 8 996 42 10000 2.6 200 17:50 17.10.2020
6657 Clouds 8 996 42 10000 2.6 200 17:23 17.10.2020
6658 Clear 7 997 56 10000 3.1 110 16:50 17.10.2020
6659 Clear 7 997 56 10000 3.1 110 16:24 17.10.2020
6660 Clear 6 998 60 10000 2.6 140 15:58 17.10.2020
6661 Clear 6 998 60 10000 2.6 140 15:40 17.10.2020
6662 Clouds 5 999 64 10000 2.6 90 15:20 17.10.2020
6663 Clouds 5 999 64 10000 2.6 90 14:53 17.10.2020
6664 Clouds 5 999 70 10000 2.6 90 14:28 17.10.2020
6665 Clouds 2 1000 80 10000 2.1 360 13:58 17.10.2020
6666 Clouds 2 1000 80 10000 2.1 360 13:39 17.10.2020
6667 Clouds 1 1000 86 10000 3.6 360 13:20 17.10.2020
6668 Clouds 1 1000 86 10000 3.6 360 12:41 17.10.2020
6669 Clouds 2 1000 93 10000 4.1 340 12:20 17.10.2020
6670 Clouds 2 1000 93 10000 4.1 340 11:55 17.10.2020
6671 Clouds 2 1000 93 10000 4.1 340 11:29 17.10.2020
6672 Clouds 2 1000 93 10000 4.6 340 10:44 17.10.2020
6673 Clouds 2 1000 93 10000 4.6 340 10:25 17.10.2020
6674 Clouds 3 1000 94